<?xml version="1.0" encoding="UTF-8" standalone="no" ?>
<gpx xmlns="http://www.topografix.com/GPX/1/1" xmlns:xsi="http://www.w3.org/2001/XMLSchema-instance" xsi:schemaLocation="http://www.topografix.com/GPX/1/1 http://www.topografix.com/GPX/1/1/gpx.xsd" version="1.1" creator="VisuGPX - https://www.visugpx.com">
  <metadata>
    <name>Du Col de Sine au parking de Nans</name>
  </metadata>
  <trk>
    <name><![CDATA[Du Col de Sine au parking de Nans_1]]></name>
    <trkseg>
      <trkpt lat="43.75944" lon="6.8607">
        <ele>1107.8</ele>
        <time>2021-05-02T09:54:17Z</time>
      </trkpt>
      <trkpt lat="43.75945" lon="6.86071">
        <ele>1107.6</ele>
        <time>2021-05-02T09:54:23Z</time>
      </trkpt>
      <trkpt lat="43.75946" lon="6.86071">
        <ele>1107.6</ele>
        <time>2021-05-02T09:54:28Z</time>
      </trkpt>
      <trkpt lat="43.75942" lon="6.86075">
        <ele>1107.3</ele>
        <time>2021-05-02T09:54:34Z</time>
      </trkpt>
      <trkpt lat="43.75939" lon="6.86082">
        <ele>1106.6</ele>
        <time>2021-05-02T09:54:39Z</time>
      </trkpt>
      <trkpt lat="43.75936" lon="6.86091">
        <ele>1106.4</ele>
        <time>2021-05-02T09:54:45Z</time>
      </trkpt>
      <trkpt lat="43.75933" lon="6.86096">
        <ele>1106.4</ele>
        <time>2021-05-02T09:54:50Z</time>
      </trkpt>
      <trkpt lat="43.75932" lon="6.86099">
        <ele>1106.3</ele>
        <time>2021-05-02T09:54:56Z</time>
      </trkpt>
      <trkpt lat="43.7593" lon="6.86101">
        <ele>1106.3</ele>
        <time>2021-05-02T09:55:01Z</time>
      </trkpt>
      <trkpt lat="43.75931" lon="6.86102">
        <ele>1106.3</ele>
        <time>2021-05-02T09:55:07Z</time>
      </trkpt>
      <trkpt lat="43.75933" lon="6.86107">
        <ele>1106.2</ele>
        <time>2021-05-02T09:55:12Z</time>
      </trkpt>
      <trkpt lat="43.75938" lon="6.86113">
        <ele>1106.2</ele>
        <time>2021-05-02T09:55:18Z</time>
      </trkpt>
      <trkpt lat="43.75939" lon="6.86123">
        <ele>1106.2</ele>
        <time>2021-05-02T09:55:24Z</time>
      </trkpt>
      <trkpt lat="43.75934" lon="6.86124">
        <ele>1106</ele>
        <time>2021-05-02T09:55:29Z</time>
      </trkpt>
      <trkpt lat="43.75929" lon="6.8612">
        <ele>1105.8</ele>
        <time>2021-05-02T09:55:34Z</time>
      </trkpt>
      <trkpt lat="43.75922" lon="6.86116">
        <ele>1105.6</ele>
        <time>2021-05-02T09:55:40Z</time>
      </trkpt>
      <trkpt lat="43.75916" lon="6.86116">
        <ele>1105.4</ele>
        <time>2021-05-02T09:55:46Z</time>
      </trkpt>
      <trkpt lat="43.75911" lon="6.86114">
        <ele>1105.8</ele>
        <time>2021-05-02T09:55:52Z</time>
      </trkpt>
      <trkpt lat="43.75907" lon="6.86118">
        <ele>1105.8</ele>
        <time>2021-05-02T09:55:58Z</time>
      </trkpt>
      <trkpt lat="43.75905" lon="6.86123">
        <ele>1105.5</ele>
        <time>2021-05-02T09:56:03Z</time>
      </trkpt>
      <trkpt lat="43.75903" lon="6.8613">
        <ele>1105</ele>
        <time>2021-05-02T09:56:09Z</time>
      </trkpt>
      <trkpt lat="43.75903" lon="6.86136">
        <ele>1104.5</ele>
        <time>2021-05-02T09:56:14Z</time>
      </trkpt>
      <trkpt lat="43.75901" lon="6.86139">
        <ele>1104.3</ele>
        <time>2021-05-02T09:56:20Z</time>
      </trkpt>
      <trkpt lat="43.75902" lon="6.86145">
        <ele>1103.8</ele>
        <time>2021-05-02T09:56:26Z</time>
      </trkpt>
      <trkpt lat="43.75902" lon="6.8615">
        <ele>1103.4</ele>
        <time>2021-05-02T09:56:31Z</time>
      </trkpt>
      <trkpt lat="43.75899" lon="6.86155">
        <ele>1102.9</ele>
        <time>2021-05-02T09:56:37Z</time>
      </trkpt>
      <trkpt lat="43.75896" lon="6.86159">
        <ele>1102.5</ele>
        <time>2021-05-02T09:56:42Z</time>
      </trkpt>
      <trkpt lat="43.75892" lon="6.86162">
        <ele>1102</ele>
        <time>2021-05-02T09:56:47Z</time>
      </trkpt>
      <trkpt lat="43.75888" lon="6.86166">
        <ele>1101.3</ele>
        <time>2021-05-02T09:56:53Z</time>
      </trkpt>
      <trkpt lat="43.75885" lon="6.86171">
        <ele>1101.2</ele>
        <time>2021-05-02T09:56:58Z</time>
      </trkpt>
      <trkpt lat="43.75881" lon="6.86174">
        <ele>1101</ele>
        <time>2021-05-02T09:57:04Z</time>
      </trkpt>
      <trkpt lat="43.75877" lon="6.86179">
        <ele>1100.7</ele>
        <time>2021-05-02T09:57:10Z</time>
      </trkpt>
      <trkpt lat="43.75874" lon="6.86185">
        <ele>1100.5</ele>
        <time>2021-05-02T09:57:16Z</time>
      </trkpt>
      <trkpt lat="43.75871" lon="6.86188">
        <ele>1100.3</ele>
        <time>2021-05-02T09:57:21Z</time>
      </trkpt>
      <trkpt lat="43.75868" lon="6.86191">
        <ele>1099.9</ele>
        <time>2021-05-02T09:57:27Z</time>
      </trkpt>
      <trkpt lat="43.75867" lon="6.86192">
        <ele>1099.8</ele>
        <time>2021-05-02T09:57:32Z</time>
      </trkpt>
      <trkpt lat="43.75863" lon="6.86196">
        <ele>1099.3</ele>
        <time>2021-05-02T09:57:38Z</time>
      </trkpt>
      <trkpt lat="43.7586" lon="6.86199">
        <ele>1098.9</ele>
        <time>2021-05-02T09:57:44Z</time>
      </trkpt>
      <trkpt lat="43.75857" lon="6.86205">
        <ele>1098.4</ele>
        <time>2021-05-02T09:57:50Z</time>
      </trkpt>
      <trkpt lat="43.75853" lon="6.8621">
        <ele>1097.7</ele>
        <time>2021-05-02T09:57:56Z</time>
      </trkpt>
      <trkpt lat="43.7585" lon="6.86215">
        <ele>1097.1</ele>
        <time>2021-05-02T09:58:01Z</time>
      </trkpt>
      <trkpt lat="43.75848" lon="6.86221">
        <ele>1096.4</ele>
        <time>2021-05-02T09:58:06Z</time>
      </trkpt>
      <trkpt lat="43.75844" lon="6.86226">
        <ele>1095.6</ele>
        <time>2021-05-02T09:58:11Z</time>
      </trkpt>
      <trkpt lat="43.7584" lon="6.86229">
        <ele>1094.6</ele>
        <time>2021-05-02T09:58:17Z</time>
      </trkpt>
      <trkpt lat="43.75835" lon="6.86233">
        <ele>1093.6</ele>
        <time>2021-05-02T09:58:23Z</time>
      </trkpt>
      <trkpt lat="43.75832" lon="6.86237">
        <ele>1092.9</ele>
        <time>2021-05-02T09:58:28Z</time>
      </trkpt>
      <trkpt lat="43.75829" lon="6.86243">
        <ele>1092.6</ele>
        <time>2021-05-02T09:58:33Z</time>
      </trkpt>
      <trkpt lat="43.75824" lon="6.86245">
        <ele>1092.5</ele>
        <time>2021-05-02T09:58:39Z</time>
      </trkpt>
      <trkpt lat="43.75821" lon="6.86251">
        <ele>1092</ele>
        <time>2021-05-02T09:58:44Z</time>
      </trkpt>
      <trkpt lat="43.75818" lon="6.86258">
        <ele>1092.1</ele>
        <time>2021-05-02T09:58:50Z</time>
      </trkpt>
      <trkpt lat="43.75813" lon="6.86262">
        <ele>1092</ele>
        <time>2021-05-02T09:58:56Z</time>
      </trkpt>
      <trkpt lat="43.75806" lon="6.86263">
        <ele>1091.8</ele>
        <time>2021-05-02T09:59:02Z</time>
      </trkpt>
      <trkpt lat="43.75802" lon="6.86269">
        <ele>1091.6</ele>
        <time>2021-05-02T09:59:08Z</time>
      </trkpt>
      <trkpt lat="43.75797" lon="6.86274">
        <ele>1091.2</ele>
        <time>2021-05-02T09:59:14Z</time>
      </trkpt>
      <trkpt lat="43.75793" lon="6.8628">
        <ele>1090.8</ele>
        <time>2021-05-02T09:59:20Z</time>
      </trkpt>
      <trkpt lat="43.75789" lon="6.86283">
        <ele>1090.4</ele>
        <time>2021-05-02T09:59:25Z</time>
      </trkpt>
      <trkpt lat="43.75784" lon="6.86286">
        <ele>1090</ele>
        <time>2021-05-02T09:59:31Z</time>
      </trkpt>
      <trkpt lat="43.75779" lon="6.86288">
        <ele>1089.5</ele>
        <time>2021-05-02T09:59:36Z</time>
      </trkpt>
      <trkpt lat="43.75774" lon="6.86293">
        <ele>1088.8</ele>
        <time>2021-05-02T09:59:42Z</time>
      </trkpt>
      <trkpt lat="43.75768" lon="6.86296">
        <ele>1088</ele>
        <time>2021-05-02T09:59:48Z</time>
      </trkpt>
      <trkpt lat="43.75765" lon="6.863">
        <ele>1087.4</ele>
        <time>2021-05-02T09:59:53Z</time>
      </trkpt>
      <trkpt lat="43.75761" lon="6.86304">
        <ele>1086.6</ele>
        <time>2021-05-02T09:59:58Z</time>
      </trkpt>
      <trkpt lat="43.75756" lon="6.86308">
        <ele>1085.7</ele>
        <time>2021-05-02T10:00:03Z</time>
      </trkpt>
      <trkpt lat="43.75751" lon="6.86311">
        <ele>1084.8</ele>
        <time>2021-05-02T10:00:08Z</time>
      </trkpt>
      <trkpt lat="43.75746" lon="6.86315">
        <ele>1084.7</ele>
        <time>2021-05-02T10:00:13Z</time>
      </trkpt>
      <trkpt lat="43.75741" lon="6.86318">
        <ele>1084.7</ele>
        <time>2021-05-02T10:00:19Z</time>
      </trkpt>
      <trkpt lat="43.75737" lon="6.86323">
        <ele>1084.5</ele>
        <time>2021-05-02T10:00:24Z</time>
      </trkpt>
      <trkpt lat="43.75734" lon="6.86328">
        <ele>1084</ele>
        <time>2021-05-02T10:00:29Z</time>
      </trkpt>
      <trkpt lat="43.75731" lon="6.86334">
        <ele>1083.6</ele>
        <time>2021-05-02T10:00:34Z</time>
      </trkpt>
      <trkpt lat="43.75725" lon="6.86339">
        <ele>1084.2</ele>
        <time>2021-05-02T10:00:40Z</time>
      </trkpt>
      <trkpt lat="43.75722" lon="6.86347">
        <ele>1084.5</ele>
        <time>2021-05-02T10:00:46Z</time>
      </trkpt>
      <trkpt lat="43.75716" lon="6.86352">
        <ele>1084.8</ele>
        <time>2021-05-02T10:00:52Z</time>
      </trkpt>
      <trkpt lat="43.75713" lon="6.86358">
        <ele>1084.8</ele>
        <time>2021-05-02T10:00:57Z</time>
      </trkpt>
      <trkpt lat="43.75711" lon="6.86363">
        <ele>1084.8</ele>
        <time>2021-05-02T10:01:02Z</time>
      </trkpt>
      <trkpt lat="43.75706" lon="6.86371">
        <ele>1084.6</ele>
        <time>2021-05-02T10:01:08Z</time>
      </trkpt>
      <trkpt lat="43.75701" lon="6.86376">
        <ele>1084.3</ele>
        <time>2021-05-02T10:01:14Z</time>
      </trkpt>
      <trkpt lat="43.75698" lon="6.86381">
        <ele>1083.9</ele>
        <time>2021-05-02T10:01:19Z</time>
      </trkpt>
      <trkpt lat="43.75691" lon="6.86386">
        <ele>1083.3</ele>
        <time>2021-05-02T10:01:25Z</time>
      </trkpt>
      <trkpt lat="43.75685" lon="6.8639">
        <ele>1082.7</ele>
        <time>2021-05-02T10:01:31Z</time>
      </trkpt>
      <trkpt lat="43.75681" lon="6.86395">
        <ele>1081.9</ele>
        <time>2021-05-02T10:01:36Z</time>
      </trkpt>
      <trkpt lat="43.75678" lon="6.86402">
        <ele>1081</ele>
        <time>2021-05-02T10:01:42Z</time>
      </trkpt>
      <trkpt lat="43.75673" lon="6.86405">
        <ele>1080.1</ele>
        <time>2021-05-02T10:01:47Z</time>
      </trkpt>
      <trkpt lat="43.75668" lon="6.86408">
        <ele>1079.3</ele>
        <time>2021-05-02T10:01:52Z</time>
      </trkpt>
      <trkpt lat="43.75665" lon="6.86415">
        <ele>1078.3</ele>
        <time>2021-05-02T10:01:58Z</time>
      </trkpt>
      <trkpt lat="43.75658" lon="6.86418">
        <ele>1078.2</ele>
        <time>2021-05-02T10:02:04Z</time>
      </trkpt>
      <trkpt lat="43.75655" lon="6.86424">
        <ele>1078.2</ele>
        <time>2021-05-02T10:02:09Z</time>
      </trkpt>
      <trkpt lat="43.75651" lon="6.86431">
        <ele>1078.1</ele>
        <time>2021-05-02T10:02:15Z</time>
      </trkpt>
      <trkpt lat="43.75645" lon="6.86436">
        <ele>1078</ele>
        <time>2021-05-02T10:02:21Z</time>
      </trkpt>
      <trkpt lat="43.75642" lon="6.86443">
        <ele>1077.7</ele>
        <time>2021-05-02T10:02:27Z</time>
      </trkpt>
      <trkpt lat="43.75635" lon="6.86447">
        <ele>1077.3</ele>
        <time>2021-05-02T10:02:33Z</time>
      </trkpt>
      <trkpt lat="43.75629" lon="6.86452">
        <ele>1076.9</ele>
        <time>2021-05-02T10:02:39Z</time>
      </trkpt>
      <trkpt lat="43.75625" lon="6.86455">
        <ele>1076.5</ele>
        <time>2021-05-02T10:02:44Z</time>
      </trkpt>
      <trkpt lat="43.75621" lon="6.86461">
        <ele>1075.8</ele>
        <time>2021-05-02T10:02:50Z</time>
      </trkpt>
      <trkpt lat="43.75616" lon="6.86464">
        <ele>1075.2</ele>
        <time>2021-05-02T10:02:55Z</time>
      </trkpt>
      <trkpt lat="43.75611" lon="6.86471">
        <ele>1074.4</ele>
        <time>2021-05-02T10:03:01Z</time>
      </trkpt>
      <trkpt lat="43.75608" lon="6.86477">
        <ele>1073.5</ele>
        <time>2021-05-02T10:03:07Z</time>
      </trkpt>
      <trkpt lat="43.75603" lon="6.86482">
        <ele>1072.5</ele>
        <time>2021-05-02T10:03:13Z</time>
      </trkpt>
      <trkpt lat="43.75597" lon="6.86483">
        <ele>1071.8</ele>
        <time>2021-05-02T10:03:18Z</time>
      </trkpt>
      <trkpt lat="43.75593" lon="6.8649">
        <ele>1070.5</ele>
        <time>2021-05-02T10:03:24Z</time>
      </trkpt>
      <trkpt lat="43.75588" lon="6.86493">
        <ele>1069.5</ele>
        <time>2021-05-02T10:03:29Z</time>
      </trkpt>
      <trkpt lat="43.75582" lon="6.86497">
        <ele>1068.3</ele>
        <time>2021-05-02T10:03:35Z</time>
      </trkpt>
      <trkpt lat="43.75578" lon="6.86502">
        <ele>1067.6</ele>
        <time>2021-05-02T10:03:40Z</time>
      </trkpt>
      <trkpt lat="43.75574" lon="6.86507">
        <ele>1067.5</ele>
        <time>2021-05-02T10:03:46Z</time>
      </trkpt>
      <trkpt lat="43.75571" lon="6.86511">
        <ele>1067.4</ele>
        <time>2021-05-02T10:03:51Z</time>
      </trkpt>
      <trkpt lat="43.75566" lon="6.86515">
        <ele>1067.1</ele>
        <time>2021-05-02T10:03:57Z</time>
      </trkpt>
      <trkpt lat="43.75561" lon="6.86519">
        <ele>1066.8</ele>
        <time>2021-05-02T10:04:03Z</time>
      </trkpt>
      <trkpt lat="43.75557" lon="6.86523">
        <ele>1066.5</ele>
        <time>2021-05-02T10:04:08Z</time>
      </trkpt>
      <trkpt lat="43.75554" lon="6.86529">
        <ele>1066.3</ele>
        <time>2021-05-02T10:04:14Z</time>
      </trkpt>
      <trkpt lat="43.7555" lon="6.86533">
        <ele>1066</ele>
        <time>2021-05-02T10:04:19Z</time>
      </trkpt>
      <trkpt lat="43.75545" lon="6.86536">
        <ele>1065.4</ele>
        <time>2021-05-02T10:04:25Z</time>
      </trkpt>
      <trkpt lat="43.75546" lon="6.8654">
        <ele>1065.6</ele>
        <time>2021-05-02T10:04:30Z</time>
      </trkpt>
      <trkpt lat="43.7554" lon="6.86544">
        <ele>1064.8</ele>
        <time>2021-05-02T10:04:36Z</time>
      </trkpt>
      <trkpt lat="43.75533" lon="6.86547">
        <ele>1063.9</ele>
        <time>2021-05-02T10:04:42Z</time>
      </trkpt>
      <trkpt lat="43.75529" lon="6.8655">
        <ele>1063.3</ele>
        <time>2021-05-02T10:04:47Z</time>
      </trkpt>
      <trkpt lat="43.75526" lon="6.86553">
        <ele>1062.8</ele>
        <time>2021-05-02T10:04:52Z</time>
      </trkpt>
      <trkpt lat="43.7552" lon="6.86553">
        <ele>1061.9</ele>
        <time>2021-05-02T10:04:58Z</time>
      </trkpt>
      <trkpt lat="43.75513" lon="6.86555">
        <ele>1061</ele>
        <time>2021-05-02T10:05:04Z</time>
      </trkpt>
      <trkpt lat="43.75509" lon="6.86558">
        <ele>1060.3</ele>
        <time>2021-05-02T10:05:09Z</time>
      </trkpt>
      <trkpt lat="43.75505" lon="6.8656">
        <ele>1059.6</ele>
        <time>2021-05-02T10:05:14Z</time>
      </trkpt>
      <trkpt lat="43.75501" lon="6.86566">
        <ele>1058.8</ele>
        <time>2021-05-02T10:05:20Z</time>
      </trkpt>
      <trkpt lat="43.75496" lon="6.86567">
        <ele>1058.3</ele>
        <time>2021-05-02T10:05:26Z</time>
      </trkpt>
      <trkpt lat="43.7549" lon="6.86569">
        <ele>1057.7</ele>
        <time>2021-05-02T10:05:32Z</time>
      </trkpt>
      <trkpt lat="43.75485" lon="6.86571">
        <ele>1057.2</ele>
        <time>2021-05-02T10:05:38Z</time>
      </trkpt>
      <trkpt lat="43.7548" lon="6.86574">
        <ele>1056.7</ele>
        <time>2021-05-02T10:05:43Z</time>
      </trkpt>
      <trkpt lat="43.75474" lon="6.86576">
        <ele>1056.1</ele>
        <time>2021-05-02T10:05:49Z</time>
      </trkpt>
      <trkpt lat="43.75469" lon="6.86578">
        <ele>1055.6</ele>
        <time>2021-05-02T10:05:54Z</time>
      </trkpt>
      <trkpt lat="43.75464" lon="6.86577">
        <ele>1055.2</ele>
        <time>2021-05-02T10:05:59Z</time>
      </trkpt>
      <trkpt lat="43.75457" lon="6.86579">
        <ele>1054.6</ele>
        <time>2021-05-02T10:06:05Z</time>
      </trkpt>
      <trkpt lat="43.75452" lon="6.8658">
        <ele>1054.1</ele>
        <time>2021-05-02T10:06:10Z</time>
      </trkpt>
      <trkpt lat="43.75445" lon="6.86572">
        <ele>1054</ele>
        <time>2021-05-02T10:06:16Z</time>
      </trkpt>
      <trkpt lat="43.7544" lon="6.86573">
        <ele>1053.5</ele>
        <time>2021-05-02T10:06:22Z</time>
      </trkpt>
      <trkpt lat="43.75435" lon="6.86577">
        <ele>1052.8</ele>
        <time>2021-05-02T10:06:28Z</time>
      </trkpt>
      <trkpt lat="43.7543" lon="6.86581">
        <ele>1052.2</ele>
        <time>2021-05-02T10:06:33Z</time>
      </trkpt>
      <trkpt lat="43.75425" lon="6.86586">
        <ele>1051.8</ele>
        <time>2021-05-02T10:06:39Z</time>
      </trkpt>
      <trkpt lat="43.7542" lon="6.86588">
        <ele>1051.5</ele>
        <time>2021-05-02T10:06:44Z</time>
      </trkpt>
      <trkpt lat="43.75416" lon="6.86592">
        <ele>1051.3</ele>
        <time>2021-05-02T10:06:50Z</time>
      </trkpt>
      <trkpt lat="43.75413" lon="6.86595">
        <ele>1051.4</ele>
        <time>2021-05-02T10:06:55Z</time>
      </trkpt>
      <trkpt lat="43.75408" lon="6.86597">
        <ele>1051.4</ele>
        <time>2021-05-02T10:07:01Z</time>
      </trkpt>
      <trkpt lat="43.75405" lon="6.866">
        <ele>1051.4</ele>
        <time>2021-05-02T10:07:06Z</time>
      </trkpt>
      <trkpt lat="43.754" lon="6.86601">
        <ele>1051.4</ele>
        <time>2021-05-02T10:07:12Z</time>
      </trkpt>
      <trkpt lat="43.75395" lon="6.86604">
        <ele>1051.4</ele>
        <time>2021-05-02T10:07:18Z</time>
      </trkpt>
      <trkpt lat="43.7539" lon="6.86607">
        <ele>1051.3</ele>
        <time>2021-05-02T10:07:24Z</time>
      </trkpt>
      <trkpt lat="43.75385" lon="6.86607">
        <ele>1051.2</ele>
        <time>2021-05-02T10:07:29Z</time>
      </trkpt>
      <trkpt lat="43.7538" lon="6.86612">
        <ele>1051.1</ele>
        <time>2021-05-02T10:07:34Z</time>
      </trkpt>
      <trkpt lat="43.75375" lon="6.86615">
        <ele>1051</ele>
        <time>2021-05-02T10:07:40Z</time>
      </trkpt>
      <trkpt lat="43.75369" lon="6.86618">
        <ele>1050.8</ele>
        <time>2021-05-02T10:07:46Z</time>
      </trkpt>
      <trkpt lat="43.75362" lon="6.86615">
        <ele>1050.6</ele>
        <time>2021-05-02T10:07:52Z</time>
      </trkpt>
      <trkpt lat="43.75356" lon="6.86616">
        <ele>1050.5</ele>
        <time>2021-05-02T10:07:57Z</time>
      </trkpt>
      <trkpt lat="43.75351" lon="6.86618">
        <ele>1050.3</ele>
        <time>2021-05-02T10:08:02Z</time>
      </trkpt>
      <trkpt lat="43.75346" lon="6.86623">
        <ele>1050</ele>
        <time>2021-05-02T10:08:08Z</time>
      </trkpt>
      <trkpt lat="43.75341" lon="6.86624">
        <ele>1049.8</ele>
        <time>2021-05-02T10:08:14Z</time>
      </trkpt>
      <trkpt lat="43.75337" lon="6.86625">
        <ele>1049.6</ele>
        <time>2021-05-02T10:08:19Z</time>
      </trkpt>
      <trkpt lat="43.75331" lon="6.86629">
        <ele>1049.2</ele>
        <time>2021-05-02T10:08:25Z</time>
      </trkpt>
      <trkpt lat="43.75325" lon="6.8663">
        <ele>1048.7</ele>
        <time>2021-05-02T10:08:31Z</time>
      </trkpt>
      <trkpt lat="43.75318" lon="6.86631">
        <ele>1048.2</ele>
        <time>2021-05-02T10:08:37Z</time>
      </trkpt>
      <trkpt lat="43.75314" lon="6.86633">
        <ele>1047.7</ele>
        <time>2021-05-02T10:08:42Z</time>
      </trkpt>
      <trkpt lat="43.75307" lon="6.86634">
        <ele>1047.2</ele>
        <time>2021-05-02T10:08:48Z</time>
      </trkpt>
      <trkpt lat="43.75303" lon="6.86637">
        <ele>1046.8</ele>
        <time>2021-05-02T10:08:53Z</time>
      </trkpt>
      <trkpt lat="43.75297" lon="6.86639">
        <ele>1046.3</ele>
        <time>2021-05-02T10:08:59Z</time>
      </trkpt>
      <trkpt lat="43.75292" lon="6.86642">
        <ele>1045.7</ele>
        <time>2021-05-02T10:09:04Z</time>
      </trkpt>
      <trkpt lat="43.75286" lon="6.86644">
        <ele>1045.2</ele>
        <time>2021-05-02T10:09:10Z</time>
      </trkpt>
      <trkpt lat="43.75282" lon="6.86645">
        <ele>1044.7</ele>
        <time>2021-05-02T10:09:15Z</time>
      </trkpt>
      <trkpt lat="43.75278" lon="6.86651">
        <ele>1044.2</ele>
        <time>2021-05-02T10:09:21Z</time>
      </trkpt>
      <trkpt lat="43.75275" lon="6.86653">
        <ele>1043.9</ele>
        <time>2021-05-02T10:09:26Z</time>
      </trkpt>
      <trkpt lat="43.75271" lon="6.86656">
        <ele>1043.3</ele>
        <time>2021-05-02T10:09:32Z</time>
      </trkpt>
      <trkpt lat="43.75266" lon="6.86655">
        <ele>1043</ele>
        <time>2021-05-02T10:09:37Z</time>
      </trkpt>
      <trkpt lat="43.75263" lon="6.86657">
        <ele>1042.6</ele>
        <time>2021-05-02T10:09:43Z</time>
      </trkpt>
      <trkpt lat="43.75256" lon="6.86652">
        <ele>1042.4</ele>
        <time>2021-05-02T10:09:48Z</time>
      </trkpt>
      <trkpt lat="43.75252" lon="6.86648">
        <ele>1042.3</ele>
        <time>2021-05-02T10:09:54Z</time>
      </trkpt>
      <trkpt lat="43.75248" lon="6.86645">
        <ele>1042.3</ele>
        <time>2021-05-02T10:09:59Z</time>
      </trkpt>
      <trkpt lat="43.75247" lon="6.86642">
        <ele>1042.5</ele>
        <time>2021-05-02T10:10:05Z</time>
      </trkpt>
      <trkpt lat="43.75246" lon="6.86639">
        <ele>1042.7</ele>
        <time>2021-05-02T10:10:10Z</time>
      </trkpt>
      <trkpt lat="43.75246" lon="6.86636">
        <ele>1042.8</ele>
        <time>2021-05-02T10:10:16Z</time>
      </trkpt>
      <trkpt lat="43.75246" lon="6.86636">
        <ele>1042.8</ele>
        <time>2021-05-02T10:10:21Z</time>
      </trkpt>
      <trkpt lat="43.75246" lon="6.86633">
        <ele>1043</ele>
        <time>2021-05-02T10:10:27Z</time>
      </trkpt>
      <trkpt lat="43.75246" lon="6.86626">
        <ele>1043.5</ele>
        <time>2021-05-02T10:10:32Z</time>
      </trkpt>
      <trkpt lat="43.75246" lon="6.86624">
        <ele>1043.6</ele>
        <time>2021-05-02T10:10:38Z</time>
      </trkpt>
      <trkpt lat="43.75247" lon="6.86624">
        <ele>1043.6</ele>
        <time>2021-05-02T10:10:43Z</time>
      </trkpt>
      <trkpt lat="43.75247" lon="6.86624">
        <ele>1043.6</ele>
        <time>2021-05-02T10:10:49Z</time>
      </trkpt>
      <trkpt lat="43.75247" lon="6.86624">
        <ele>1043.6</ele>
        <time>2021-05-02T10:10:54Z</time>
      </trkpt>
      <trkpt lat="43.75247" lon="6.86624">
        <ele>1043.6</ele>
        <time>2021-05-02T10:11:00Z</time>
      </trkpt>
      <trkpt lat="43.75247" lon="6.86625">
        <ele>1043.5</ele>
        <time>2021-05-02T10:11:05Z</time>
      </trkpt>
      <trkpt lat="43.75247" lon="6.86626">
        <ele>1043.4</ele>
        <time>2021-05-02T10:11:10Z</time>
      </trkpt>
      <trkpt lat="43.75246" lon="6.86628">
        <ele>1043.3</ele>
        <time>2021-05-02T10:11:15Z</time>
      </trkpt>
      <trkpt lat="43.75245" lon="6.86628">
        <ele>1043.3</ele>
        <time>2021-05-02T10:11:21Z</time>
      </trkpt>
      <trkpt lat="43.75245" lon="6.86628">
        <ele>1043.3</ele>
        <time>2021-05-02T10:11:27Z</time>
      </trkpt>
      <trkpt lat="43.75245" lon="6.86626">
        <ele>1043.5</ele>
        <time>2021-05-02T10:11:32Z</time>
      </trkpt>
      <trkpt lat="43.75245" lon="6.86622">
        <ele>1043.7</ele>
        <time>2021-05-02T10:11:37Z</time>
      </trkpt>
      <trkpt lat="43.75247" lon="6.86619">
        <ele>1043.9</ele>
        <time>2021-05-02T10:11:43Z</time>
      </trkpt>
      <trkpt lat="43.75247" lon="6.86628">
        <ele>1043.3</ele>
        <time>2021-05-02T10:11:49Z</time>
      </trkpt>
      <trkpt lat="43.75247" lon="6.86629">
        <ele>1043.3</ele>
        <time>2021-05-02T10:11:55Z</time>
      </trkpt>
      <trkpt lat="43.75247" lon="6.86629">
        <ele>1043.3</ele>
        <time>2021-05-02T10:12:01Z</time>
      </trkpt>
      <trkpt lat="43.75247" lon="6.86629">
        <ele>1043.3</ele>
        <time>2021-05-02T10:12:07Z</time>
      </trkpt>
      <trkpt lat="43.75247" lon="6.86629">
        <ele>1043.3</ele>
        <time>2021-05-02T10:12:13Z</time>
      </trkpt>
      <trkpt lat="43.75247" lon="6.86629">
        <ele>1043.3</ele>
        <time>2021-05-02T10:12:18Z</time>
      </trkpt>
      <trkpt lat="43.75247" lon="6.86629">
        <ele>1043.3</ele>
        <time>2021-05-02T10:12:23Z</time>
      </trkpt>
      <trkpt lat="43.75247" lon="6.86629">
        <ele>1043.3</ele>
        <time>2021-05-02T10:12:29Z</time>
      </trkpt>
      <trkpt lat="43.75247" lon="6.86629">
        <ele>1043.3</ele>
        <time>2021-05-02T10:12:34Z</time>
      </trkpt>
      <trkpt lat="43.75247" lon="6.86629">
        <ele>1043.3</ele>
        <time>2021-05-02T10:12:40Z</time>
      </trkpt>
      <trkpt lat="43.75247" lon="6.86629">
        <ele>1043.3</ele>
        <time>2021-05-02T10:12:45Z</time>
      </trkpt>
      <trkpt lat="43.75247" lon="6.86629">
        <ele>1043.3</ele>
        <time>2021-05-02T10:12:51Z</time>
      </trkpt>
      <trkpt lat="43.75247" lon="6.86629">
        <ele>1043.3</ele>
        <time>2021-05-02T10:12:57Z</time>
      </trkpt>
      <trkpt lat="43.75247" lon="6.86629">
        <ele>1043.3</ele>
        <time>2021-05-02T10:13:02Z</time>
      </trkpt>
      <trkpt lat="43.75247" lon="6.86628">
        <ele>1043.3</ele>
        <time>2021-05-02T10:13:08Z</time>
      </trkpt>
      <trkpt lat="43.75248" lon="6.86628">
        <ele>1043.3</ele>
        <time>2021-05-02T10:13:14Z</time>
      </trkpt>
      <trkpt lat="43.75247" lon="6.86628">
        <ele>1043.4</ele>
        <time>2021-05-02T10:13:19Z</time>
      </trkpt>
      <trkpt lat="43.75246" lon="6.86623">
        <ele>1043.6</ele>
        <time>2021-05-02T10:13:25Z</time>
      </trkpt>
      <trkpt lat="43.75266" lon="6.86655">
        <ele>1043</ele>
        <time>2021-05-02T10:13:30Z</time>
      </trkpt>
      <trkpt lat="43.75264" lon="6.86643">
        <ele>1043.5</ele>
        <time>2021-05-02T10:13:35Z</time>
      </trkpt>
      <trkpt lat="43.75262" lon="6.86629">
        <ele>1044.1</ele>
        <time>2021-05-02T10:13:41Z</time>
      </trkpt>
      <trkpt lat="43.75259" lon="6.86619">
        <ele>1044.5</ele>
        <time>2021-05-02T10:13:47Z</time>
      </trkpt>
      <trkpt lat="43.7526" lon="6.86612">
        <ele>1045</ele>
        <time>2021-05-02T10:13:52Z</time>
      </trkpt>
      <trkpt lat="43.7526" lon="6.86609">
        <ele>1045.1</ele>
        <time>2021-05-02T10:13:58Z</time>
      </trkpt>
      <trkpt lat="43.7526" lon="6.86609">
        <ele>1045.1</ele>
        <time>2021-05-02T10:14:03Z</time>
      </trkpt>
      <trkpt lat="43.7526" lon="6.86609">
        <ele>1045.1</ele>
        <time>2021-05-02T10:14:09Z</time>
      </trkpt>
      <trkpt lat="43.7526" lon="6.86608">
        <ele>1045.2</ele>
        <time>2021-05-02T10:14:15Z</time>
      </trkpt>
      <trkpt lat="43.7526" lon="6.86608">
        <ele>1045.2</ele>
        <time>2021-05-02T10:14:21Z</time>
      </trkpt>
      <trkpt lat="43.7526" lon="6.86608">
        <ele>1045.2</ele>
        <time>2021-05-02T10:14:27Z</time>
      </trkpt>
      <trkpt lat="43.7526" lon="6.86608">
        <ele>1045.2</ele>
        <time>2021-05-02T10:14:32Z</time>
      </trkpt>
      <trkpt lat="43.75261" lon="6.86606">
        <ele>1045.4</ele>
        <time>2021-05-02T10:14:38Z</time>
      </trkpt>
      <trkpt lat="43.75263" lon="6.86602">
        <ele>1045.7</ele>
        <time>2021-05-02T10:14:44Z</time>
      </trkpt>
      <trkpt lat="43.75264" lon="6.86598">
        <ele>1046</ele>
        <time>2021-05-02T10:14:49Z</time>
      </trkpt>
      <trkpt lat="43.75266" lon="6.86592">
        <ele>1046.5</ele>
        <time>2021-05-02T10:14:55Z</time>
      </trkpt>
      <trkpt lat="43.75269" lon="6.86586">
        <ele>1047</ele>
        <time>2021-05-02T10:15:00Z</time>
      </trkpt>
      <trkpt lat="43.75271" lon="6.8658">
        <ele>1047.7</ele>
        <time>2021-05-02T10:15:06Z</time>
      </trkpt>
      <trkpt lat="43.7527" lon="6.86577">
        <ele>1048.1</ele>
        <time>2021-05-02T10:15:11Z</time>
      </trkpt>
      <trkpt lat="43.75267" lon="6.86576">
        <ele>1048.1</ele>
        <time>2021-05-02T10:15:17Z</time>
      </trkpt>
      <trkpt lat="43.75265" lon="6.86578">
        <ele>1047.7</ele>
        <time>2021-05-02T10:15:23Z</time>
      </trkpt>
      <trkpt lat="43.75261" lon="6.86578">
        <ele>1047.5</ele>
        <time>2021-05-02T10:15:29Z</time>
      </trkpt>
      <trkpt lat="43.75257" lon="6.86577">
        <ele>1047.4</ele>
        <time>2021-05-02T10:15:35Z</time>
      </trkpt>
      <trkpt lat="43.75253" lon="6.86577">
        <ele>1047.2</ele>
        <time>2021-05-02T10:15:40Z</time>
      </trkpt>
      <trkpt lat="43.75249" lon="6.86577">
        <ele>1047.1</ele>
        <time>2021-05-02T10:15:46Z</time>
      </trkpt>
      <trkpt lat="43.75245" lon="6.86574">
        <ele>1047.6</ele>
        <time>2021-05-02T10:15:51Z</time>
      </trkpt>
      <trkpt lat="43.7524" lon="6.86567">
        <ele>1048.9</ele>
        <time>2021-05-02T10:15:57Z</time>
      </trkpt>
      <trkpt lat="43.75237" lon="6.86561">
        <ele>1049.9</ele>
        <time>2021-05-02T10:16:03Z</time>
      </trkpt>
      <trkpt lat="43.75233" lon="6.86555">
        <ele>1051</ele>
        <time>2021-05-02T10:16:09Z</time>
      </trkpt>
      <trkpt lat="43.75231" lon="6.86549">
        <ele>1052</ele>
        <time>2021-05-02T10:16:14Z</time>
      </trkpt>
      <trkpt lat="43.75228" lon="6.86544">
        <ele>1052.8</ele>
        <time>2021-05-02T10:16:20Z</time>
      </trkpt>
      <trkpt lat="43.75226" lon="6.8654">
        <ele>1053.6</ele>
        <time>2021-05-02T10:16:25Z</time>
      </trkpt>
      <trkpt lat="43.75224" lon="6.86535">
        <ele>1054.2</ele>
        <time>2021-05-02T10:16:30Z</time>
      </trkpt>
      <trkpt lat="43.75222" lon="6.8653">
        <ele>1055.1</ele>
        <time>2021-05-02T10:16:36Z</time>
      </trkpt>
      <trkpt lat="43.75221" lon="6.86525">
        <ele>1055.9</ele>
        <time>2021-05-02T10:16:41Z</time>
      </trkpt>
      <trkpt lat="43.7522" lon="6.86518">
        <ele>1057</ele>
        <time>2021-05-02T10:16:47Z</time>
      </trkpt>
      <trkpt lat="43.75221" lon="6.86512">
        <ele>1057.9</ele>
        <time>2021-05-02T10:16:52Z</time>
      </trkpt>
      <trkpt lat="43.75222" lon="6.86507">
        <ele>1058.7</ele>
        <time>2021-05-02T10:16:58Z</time>
      </trkpt>
      <trkpt lat="43.75223" lon="6.86501">
        <ele>1059.6</ele>
        <time>2021-05-02T10:17:04Z</time>
      </trkpt>
      <trkpt lat="43.75224" lon="6.86496">
        <ele>1060.3</ele>
        <time>2021-05-02T10:17:09Z</time>
      </trkpt>
      <trkpt lat="43.75224" lon="6.86488">
        <ele>1061.6</ele>
        <time>2021-05-02T10:17:15Z</time>
      </trkpt>
      <trkpt lat="43.75223" lon="6.86481">
        <ele>1062.7</ele>
        <time>2021-05-02T10:17:21Z</time>
      </trkpt>
      <trkpt lat="43.75222" lon="6.86476">
        <ele>1063.7</ele>
        <time>2021-05-02T10:17:26Z</time>
      </trkpt>
      <trkpt lat="43.7522" lon="6.8647">
        <ele>1064.6</ele>
        <time>2021-05-02T10:17:32Z</time>
      </trkpt>
      <trkpt lat="43.7522" lon="6.86465">
        <ele>1065.5</ele>
        <time>2021-05-02T10:17:37Z</time>
      </trkpt>
      <trkpt lat="43.75218" lon="6.86459">
        <ele>1066.3</ele>
        <time>2021-05-02T10:17:43Z</time>
      </trkpt>
      <trkpt lat="43.75218" lon="6.86454">
        <ele>1067.2</ele>
        <time>2021-05-02T10:17:48Z</time>
      </trkpt>
      <trkpt lat="43.75216" lon="6.86448">
        <ele>1067.9</ele>
        <time>2021-05-02T10:17:54Z</time>
      </trkpt>
      <trkpt lat="43.75213" lon="6.86444">
        <ele>1068.6</ele>
        <time>2021-05-02T10:18:00Z</time>
      </trkpt>
      <trkpt lat="43.75208" lon="6.8644">
        <ele>1069</ele>
        <time>2021-05-02T10:18:06Z</time>
      </trkpt>
      <trkpt lat="43.75204" lon="6.86436">
        <ele>1069.5</ele>
        <time>2021-05-02T10:18:12Z</time>
      </trkpt>
      <trkpt lat="43.752" lon="6.86433">
        <ele>1069.7</ele>
        <time>2021-05-02T10:18:17Z</time>
      </trkpt>
      <trkpt lat="43.75196" lon="6.8643">
        <ele>1069.9</ele>
        <time>2021-05-02T10:18:23Z</time>
      </trkpt>
      <trkpt lat="43.75192" lon="6.86429">
        <ele>1069.9</ele>
        <time>2021-05-02T10:18:28Z</time>
      </trkpt>
      <trkpt lat="43.75189" lon="6.86426">
        <ele>1070.2</ele>
        <time>2021-05-02T10:18:33Z</time>
      </trkpt>
      <trkpt lat="43.75183" lon="6.86422">
        <ele>1070.3</ele>
        <time>2021-05-02T10:18:39Z</time>
      </trkpt>
      <trkpt lat="43.75178" lon="6.8642">
        <ele>1070.3</ele>
        <time>2021-05-02T10:18:44Z</time>
      </trkpt>
      <trkpt lat="43.75174" lon="6.86418">
        <ele>1070.3</ele>
        <time>2021-05-02T10:18:49Z</time>
      </trkpt>
      <trkpt lat="43.75171" lon="6.86412">
        <ele>1070.7</ele>
        <time>2021-05-02T10:18:55Z</time>
      </trkpt>
      <trkpt lat="43.75169" lon="6.86408">
        <ele>1071</ele>
        <time>2021-05-02T10:19:00Z</time>
      </trkpt>
      <trkpt lat="43.75164" lon="6.86403">
        <ele>1071.4</ele>
        <time>2021-05-02T10:19:06Z</time>
      </trkpt>
      <trkpt lat="43.75159" lon="6.864">
        <ele>1072</ele>
        <time>2021-05-02T10:19:11Z</time>
      </trkpt>
      <trkpt lat="43.75154" lon="6.86398">
        <ele>1072.4</ele>
        <time>2021-05-02T10:19:17Z</time>
      </trkpt>
      <trkpt lat="43.75149" lon="6.86397">
        <ele>1072.7</ele>
        <time>2021-05-02T10:19:22Z</time>
      </trkpt>
      <trkpt lat="43.75144" lon="6.86393">
        <ele>1073.1</ele>
        <time>2021-05-02T10:19:28Z</time>
      </trkpt>
      <trkpt lat="43.7514" lon="6.8639">
        <ele>1073.4</ele>
        <time>2021-05-02T10:19:33Z</time>
      </trkpt>
      <trkpt lat="43.75135" lon="6.86386">
        <ele>1073.7</ele>
        <time>2021-05-02T10:19:39Z</time>
      </trkpt>
      <trkpt lat="43.7513" lon="6.86383">
        <ele>1073.8</ele>
        <time>2021-05-02T10:19:44Z</time>
      </trkpt>
      <trkpt lat="43.75125" lon="6.86383">
        <ele>1073.9</ele>
        <time>2021-05-02T10:19:50Z</time>
      </trkpt>
      <trkpt lat="43.7512" lon="6.86379">
        <ele>1074</ele>
        <time>2021-05-02T10:19:55Z</time>
      </trkpt>
      <trkpt lat="43.75116" lon="6.86376">
        <ele>1074</ele>
        <time>2021-05-02T10:20:01Z</time>
      </trkpt>
      <trkpt lat="43.75112" lon="6.86372">
        <ele>1074</ele>
        <time>2021-05-02T10:20:06Z</time>
      </trkpt>
      <trkpt lat="43.75106" lon="6.86368">
        <ele>1073.8</ele>
        <time>2021-05-02T10:20:12Z</time>
      </trkpt>
      <trkpt lat="43.75102" lon="6.86366">
        <ele>1073.7</ele>
        <time>2021-05-02T10:20:17Z</time>
      </trkpt>
      <trkpt lat="43.75097" lon="6.86365">
        <ele>1073.5</ele>
        <time>2021-05-02T10:20:23Z</time>
      </trkpt>
      <trkpt lat="43.75092" lon="6.86363">
        <ele>1073.4</ele>
        <time>2021-05-02T10:20:29Z</time>
      </trkpt>
      <trkpt lat="43.75086" lon="6.86362">
        <ele>1073.1</ele>
        <time>2021-05-02T10:20:35Z</time>
      </trkpt>
      <trkpt lat="43.75081" lon="6.86361">
        <ele>1073.1</ele>
        <time>2021-05-02T10:20:41Z</time>
      </trkpt>
      <trkpt lat="43.75075" lon="6.86358">
        <ele>1073.2</ele>
        <time>2021-05-02T10:20:47Z</time>
      </trkpt>
      <trkpt lat="43.75071" lon="6.86357">
        <ele>1073.3</ele>
        <time>2021-05-02T10:20:52Z</time>
      </trkpt>
      <trkpt lat="43.75065" lon="6.86355">
        <ele>1073.5</ele>
        <time>2021-05-02T10:20:58Z</time>
      </trkpt>
      <trkpt lat="43.75059" lon="6.86354">
        <ele>1073.7</ele>
        <time>2021-05-02T10:21:04Z</time>
      </trkpt>
      <trkpt lat="43.75055" lon="6.86355">
        <ele>1073.9</ele>
        <time>2021-05-02T10:21:09Z</time>
      </trkpt>
      <trkpt lat="43.75051" lon="6.86354">
        <ele>1074.1</ele>
        <time>2021-05-02T10:21:15Z</time>
      </trkpt>
      <trkpt lat="43.75045" lon="6.86353">
        <ele>1074.2</ele>
        <time>2021-05-02T10:21:21Z</time>
      </trkpt>
      <trkpt lat="43.7504" lon="6.86353">
        <ele>1074.4</ele>
        <time>2021-05-02T10:21:26Z</time>
      </trkpt>
      <trkpt lat="43.7504" lon="6.86348">
        <ele>1073.9</ele>
        <time>2021-05-02T10:21:32Z</time>
      </trkpt>
      <trkpt lat="43.75043" lon="6.8635">
        <ele>1074</ele>
        <time>2021-05-02T10:21:38Z</time>
      </trkpt>
      <trkpt lat="43.75044" lon="6.86348">
        <ele>1073.7</ele>
        <time>2021-05-02T10:21:43Z</time>
      </trkpt>
      <trkpt lat="43.75044" lon="6.86348">
        <ele>1073.6</ele>
        <time>2021-05-02T10:21:49Z</time>
      </trkpt>
      <trkpt lat="43.75044" lon="6.86348">
        <ele>1073.6</ele>
        <time>2021-05-02T10:21:54Z</time>
      </trkpt>
      <trkpt lat="43.75044" lon="6.86348">
        <ele>1073.6</ele>
        <time>2021-05-02T10:21:59Z</time>
      </trkpt>
      <trkpt lat="43.75044" lon="6.86348">
        <ele>1073.6</ele>
        <time>2021-05-02T10:22:05Z</time>
      </trkpt>
      <trkpt lat="43.75044" lon="6.86348">
        <ele>1073.6</ele>
        <time>2021-05-02T10:22:10Z</time>
      </trkpt>
      <trkpt lat="43.75044" lon="6.86346">
        <ele>1073.5</ele>
        <time>2021-05-02T10:22:15Z</time>
      </trkpt>
      <trkpt lat="43.75044" lon="6.86346">
        <ele>1073.5</ele>
        <time>2021-05-02T10:22:21Z</time>
      </trkpt>
      <trkpt lat="43.75044" lon="6.86346">
        <ele>1073.5</ele>
        <time>2021-05-02T10:22:26Z</time>
      </trkpt>
      <trkpt lat="43.75044" lon="6.86346">
        <ele>1073.5</ele>
        <time>2021-05-02T10:22:32Z</time>
      </trkpt>
      <trkpt lat="43.75044" lon="6.86346">
        <ele>1073.5</ele>
        <time>2021-05-02T10:22:37Z</time>
      </trkpt>
      <trkpt lat="43.75044" lon="6.86346">
        <ele>1073.5</ele>
        <time>2021-05-02T10:22:42Z</time>
      </trkpt>
      <trkpt lat="43.75044" lon="6.86346">
        <ele>1073.5</ele>
        <time>2021-05-02T10:22:48Z</time>
      </trkpt>
      <trkpt lat="43.75044" lon="6.86346">
        <ele>1073.5</ele>
        <time>2021-05-02T10:22:53Z</time>
      </trkpt>
      <trkpt lat="43.75044" lon="6.86346">
        <ele>1073.4</ele>
        <time>2021-05-02T10:22:59Z</time>
      </trkpt>
      <trkpt lat="43.75044" lon="6.86346">
        <ele>1073.4</ele>
        <time>2021-05-02T10:23:04Z</time>
      </trkpt>
      <trkpt lat="43.75044" lon="6.86346">
        <ele>1073.4</ele>
        <time>2021-05-02T10:23:10Z</time>
      </trkpt>
      <trkpt lat="43.75044" lon="6.86346">
        <ele>1073.4</ele>
        <time>2021-05-02T10:23:16Z</time>
      </trkpt>
      <trkpt lat="43.75044" lon="6.86346">
        <ele>1073.4</ele>
        <time>2021-05-02T10:23:22Z</time>
      </trkpt>
      <trkpt lat="43.75044" lon="6.86346">
        <ele>1073.4</ele>
        <time>2021-05-02T10:23:28Z</time>
      </trkpt>
      <trkpt lat="43.75044" lon="6.86346">
        <ele>1073.4</ele>
        <time>2021-05-02T10:23:33Z</time>
      </trkpt>
      <trkpt lat="43.75044" lon="6.86346">
        <ele>1073.4</ele>
        <time>2021-05-02T10:23:38Z</time>
      </trkpt>
      <trkpt lat="43.75044" lon="6.86346">
        <ele>1073.4</ele>
        <time>2021-05-02T10:23:44Z</time>
      </trkpt>
      <trkpt lat="43.75044" lon="6.86346">
        <ele>1073.4</ele>
        <time>2021-05-02T10:23:50Z</time>
      </trkpt>
      <trkpt lat="43.75044" lon="6.86346">
        <ele>1073.4</ele>
        <time>2021-05-02T10:23:55Z</time>
      </trkpt>
      <trkpt lat="43.75044" lon="6.86346">
        <ele>1073.4</ele>
        <time>2021-05-02T10:24:01Z</time>
      </trkpt>
      <trkpt lat="43.75044" lon="6.86346">
        <ele>1073.4</ele>
        <time>2021-05-02T10:24:06Z</time>
      </trkpt>
      <trkpt lat="43.75044" lon="6.86346">
        <ele>1073.4</ele>
        <time>2021-05-02T10:24:12Z</time>
      </trkpt>
      <trkpt lat="43.75044" lon="6.86346">
        <ele>1073.4</ele>
        <time>2021-05-02T10:24:17Z</time>
      </trkpt>
      <trkpt lat="43.75044" lon="6.86346">
        <ele>1073.4</ele>
        <time>2021-05-02T10:24:22Z</time>
      </trkpt>
      <trkpt lat="43.75044" lon="6.86346">
        <ele>1073.4</ele>
        <time>2021-05-02T10:24:28Z</time>
      </trkpt>
      <trkpt lat="43.75044" lon="6.86346">
        <ele>1073.4</ele>
        <time>2021-05-02T10:24:33Z</time>
      </trkpt>
      <trkpt lat="43.75044" lon="6.86346">
        <ele>1073.4</ele>
        <time>2021-05-02T10:24:39Z</time>
      </trkpt>
      <trkpt lat="43.75044" lon="6.86346">
        <ele>1073.4</ele>
        <time>2021-05-02T10:24:45Z</time>
      </trkpt>
      <trkpt lat="43.75044" lon="6.86346">
        <ele>1073.4</ele>
        <time>2021-05-02T10:24:51Z</time>
      </trkpt>
      <trkpt lat="43.75044" lon="6.86346">
        <ele>1073.4</ele>
        <time>2021-05-02T10:24:57Z</time>
      </trkpt>
      <trkpt lat="43.75044" lon="6.86346">
        <ele>1073.4</ele>
        <time>2021-05-02T10:25:02Z</time>
      </trkpt>
      <trkpt lat="43.75044" lon="6.86346">
        <ele>1073.4</ele>
        <time>2021-05-02T10:25:08Z</time>
      </trkpt>
      <trkpt lat="43.75044" lon="6.86346">
        <ele>1073.4</ele>
        <time>2021-05-02T10:25:13Z</time>
      </trkpt>
      <trkpt lat="43.75044" lon="6.86346">
        <ele>1073.4</ele>
        <time>2021-05-02T10:25:19Z</time>
      </trkpt>
      <trkpt lat="43.75044" lon="6.86346">
        <ele>1073.4</ele>
        <time>2021-05-02T10:25:25Z</time>
      </trkpt>
      <trkpt lat="43.75044" lon="6.86346">
        <ele>1073.4</ele>
        <time>2021-05-02T10:25:30Z</time>
      </trkpt>
      <trkpt lat="43.75043" lon="6.86346">
        <ele>1073.5</ele>
        <time>2021-05-02T10:25:35Z</time>
      </trkpt>
      <trkpt lat="43.75038" lon="6.86344">
        <ele>1073.5</ele>
        <time>2021-05-02T10:25:41Z</time>
      </trkpt>
      <trkpt lat="43.75032" lon="6.86343">
        <ele>1073.5</ele>
        <time>2021-05-02T10:25:47Z</time>
      </trkpt>
      <trkpt lat="43.75031" lon="6.86337">
        <ele>1072.7</ele>
        <time>2021-05-02T10:25:52Z</time>
      </trkpt>
      <trkpt lat="43.75026" lon="6.86336">
        <ele>1072.7</ele>
        <time>2021-05-02T10:25:58Z</time>
      </trkpt>
      <trkpt lat="43.75022" lon="6.86334">
        <ele>1072.6</ele>
        <time>2021-05-02T10:26:04Z</time>
      </trkpt>
      <trkpt lat="43.75016" lon="6.86334">
        <ele>1072.7</ele>
        <time>2021-05-02T10:26:10Z</time>
      </trkpt>
      <trkpt lat="43.7501" lon="6.86332">
        <ele>1072.7</ele>
        <time>2021-05-02T10:26:16Z</time>
      </trkpt>
      <trkpt lat="43.75006" lon="6.86332">
        <ele>1072.8</ele>
        <time>2021-05-02T10:26:21Z</time>
      </trkpt>
      <trkpt lat="43.75001" lon="6.86331">
        <ele>1072.9</ele>
        <time>2021-05-02T10:26:27Z</time>
      </trkpt>
      <trkpt lat="43.74996" lon="6.86332">
        <ele>1073</ele>
        <time>2021-05-02T10:26:33Z</time>
      </trkpt>
      <trkpt lat="43.74991" lon="6.86333">
        <ele>1073.1</ele>
        <time>2021-05-02T10:26:38Z</time>
      </trkpt>
      <trkpt lat="43.74986" lon="6.86333">
        <ele>1073.1</ele>
        <time>2021-05-02T10:26:44Z</time>
      </trkpt>
      <trkpt lat="43.74986" lon="6.86333">
        <ele>1073.2</ele>
        <time>2021-05-02T10:26:49Z</time>
      </trkpt>
      <trkpt lat="43.74982" lon="6.86331">
        <ele>1073.1</ele>
        <time>2021-05-02T10:26:55Z</time>
      </trkpt>
      <trkpt lat="43.74984" lon="6.86327">
        <ele>1073</ele>
        <time>2021-05-02T10:27:01Z</time>
      </trkpt>
      <trkpt lat="43.74986" lon="6.86333">
        <ele>1073.2</ele>
        <time>2021-05-02T10:27:06Z</time>
      </trkpt>
      <trkpt lat="43.74978" lon="6.86336">
        <ele>1073.6</ele>
        <time>2021-05-02T10:27:12Z</time>
      </trkpt>
      <trkpt lat="43.74972" lon="6.86334">
        <ele>1073.4</ele>
        <time>2021-05-02T10:27:18Z</time>
      </trkpt>
      <trkpt lat="43.74967" lon="6.86335">
        <ele>1073.6</ele>
        <time>2021-05-02T10:27:23Z</time>
      </trkpt>
      <trkpt lat="43.74962" lon="6.86336">
        <ele>1073.8</ele>
        <time>2021-05-02T10:27:28Z</time>
      </trkpt>
      <trkpt lat="43.74957" lon="6.86337">
        <ele>1074</ele>
        <time>2021-05-02T10:27:34Z</time>
      </trkpt>
      <trkpt lat="43.74952" lon="6.86339">
        <ele>1074.4</ele>
        <time>2021-05-02T10:27:40Z</time>
      </trkpt>
      <trkpt lat="43.74946" lon="6.8634">
        <ele>1074.6</ele>
        <time>2021-05-02T10:27:46Z</time>
      </trkpt>
      <trkpt lat="43.74942" lon="6.86342">
        <ele>1074.9</ele>
        <time>2021-05-02T10:27:51Z</time>
      </trkpt>
      <trkpt lat="43.74936" lon="6.86344">
        <ele>1075.2</ele>
        <time>2021-05-02T10:27:57Z</time>
      </trkpt>
      <trkpt lat="43.7493" lon="6.86345">
        <ele>1075.4</ele>
        <time>2021-05-02T10:28:03Z</time>
      </trkpt>
      <trkpt lat="43.74925" lon="6.86346">
        <ele>1075.6</ele>
        <time>2021-05-02T10:28:09Z</time>
      </trkpt>
      <trkpt lat="43.74918" lon="6.86347">
        <ele>1075.8</ele>
        <time>2021-05-02T10:28:15Z</time>
      </trkpt>
      <trkpt lat="43.74913" lon="6.86349">
        <ele>1076</ele>
        <time>2021-05-02T10:28:21Z</time>
      </trkpt>
      <trkpt lat="43.74907" lon="6.86349">
        <ele>1076</ele>
        <time>2021-05-02T10:28:26Z</time>
      </trkpt>
      <trkpt lat="43.74901" lon="6.86351">
        <ele>1076.2</ele>
        <time>2021-05-02T10:28:31Z</time>
      </trkpt>
      <trkpt lat="43.74895" lon="6.86352">
        <ele>1076.2</ele>
        <time>2021-05-02T10:28:37Z</time>
      </trkpt>
      <trkpt lat="43.7489" lon="6.86354">
        <ele>1076.4</ele>
        <time>2021-05-02T10:28:43Z</time>
      </trkpt>
      <trkpt lat="43.74884" lon="6.86355">
        <ele>1076.5</ele>
        <time>2021-05-02T10:28:49Z</time>
      </trkpt>
      <trkpt lat="43.7488" lon="6.86355">
        <ele>1076.4</ele>
        <time>2021-05-02T10:28:54Z</time>
      </trkpt>
      <trkpt lat="43.74874" lon="6.86359">
        <ele>1076.8</ele>
        <time>2021-05-02T10:28:59Z</time>
      </trkpt>
      <trkpt lat="43.74869" lon="6.86362">
        <ele>1077</ele>
        <time>2021-05-02T10:29:05Z</time>
      </trkpt>
      <trkpt lat="43.74863" lon="6.86364">
        <ele>1077.1</ele>
        <time>2021-05-02T10:29:11Z</time>
      </trkpt>
      <trkpt lat="43.74858" lon="6.86368">
        <ele>1077.4</ele>
        <time>2021-05-02T10:29:17Z</time>
      </trkpt>
      <trkpt lat="43.74854" lon="6.86372">
        <ele>1077.8</ele>
        <time>2021-05-02T10:29:23Z</time>
      </trkpt>
      <trkpt lat="43.74849" lon="6.86377">
        <ele>1078.1</ele>
        <time>2021-05-02T10:29:29Z</time>
      </trkpt>
      <trkpt lat="43.74844" lon="6.86381">
        <ele>1078.3</ele>
        <time>2021-05-02T10:29:35Z</time>
      </trkpt>
      <trkpt lat="43.74839" lon="6.86382">
        <ele>1078.3</ele>
        <time>2021-05-02T10:29:40Z</time>
      </trkpt>
      <trkpt lat="43.74833" lon="6.86383">
        <ele>1078.2</ele>
        <time>2021-05-02T10:29:46Z</time>
      </trkpt>
      <trkpt lat="43.74828" lon="6.86384">
        <ele>1078.3</ele>
        <time>2021-05-02T10:29:52Z</time>
      </trkpt>
      <trkpt lat="43.7482" lon="6.86387">
        <ele>1078.5</ele>
        <time>2021-05-02T10:29:58Z</time>
      </trkpt>
      <trkpt lat="43.74814" lon="6.86388">
        <ele>1078.7</ele>
        <time>2021-05-02T10:30:03Z</time>
      </trkpt>
      <trkpt lat="43.7481" lon="6.86387">
        <ele>1078.6</ele>
        <time>2021-05-02T10:30:09Z</time>
      </trkpt>
      <trkpt lat="43.74805" lon="6.86387">
        <ele>1078.7</ele>
        <time>2021-05-02T10:30:14Z</time>
      </trkpt>
      <trkpt lat="43.74801" lon="6.86389">
        <ele>1078.9</ele>
        <time>2021-05-02T10:30:20Z</time>
      </trkpt>
      <trkpt lat="43.74795" lon="6.86389">
        <ele>1079</ele>
        <time>2021-05-02T10:30:26Z</time>
      </trkpt>
      <trkpt lat="43.74788" lon="6.86386">
        <ele>1078.7</ele>
        <time>2021-05-02T10:30:32Z</time>
      </trkpt>
      <trkpt lat="43.74782" lon="6.86386">
        <ele>1078.7</ele>
        <time>2021-05-02T10:30:38Z</time>
      </trkpt>
      <trkpt lat="43.74776" lon="6.86386">
        <ele>1078.6</ele>
        <time>2021-05-02T10:30:43Z</time>
      </trkpt>
      <trkpt lat="43.74771" lon="6.86386">
        <ele>1078.7</ele>
        <time>2021-05-02T10:30:49Z</time>
      </trkpt>
      <trkpt lat="43.74766" lon="6.86387">
        <ele>1079</ele>
        <time>2021-05-02T10:30:55Z</time>
      </trkpt>
      <trkpt lat="43.74761" lon="6.86389">
        <ele>1079.3</ele>
        <time>2021-05-02T10:31:01Z</time>
      </trkpt>
      <trkpt lat="43.74756" lon="6.8639">
        <ele>1079.4</ele>
        <time>2021-05-02T10:31:06Z</time>
      </trkpt>
      <trkpt lat="43.74753" lon="6.86386">
        <ele>1078.8</ele>
        <time>2021-05-02T10:31:12Z</time>
      </trkpt>
      <trkpt lat="43.74747" lon="6.86387">
        <ele>1079.1</ele>
        <time>2021-05-02T10:31:18Z</time>
      </trkpt>
      <trkpt lat="43.74741" lon="6.86389">
        <ele>1079.4</ele>
        <time>2021-05-02T10:31:24Z</time>
      </trkpt>
      <trkpt lat="43.74735" lon="6.86388">
        <ele>1079.3</ele>
        <time>2021-05-02T10:31:29Z</time>
      </trkpt>
      <trkpt lat="43.74729" lon="6.86388">
        <ele>1079.4</ele>
        <time>2021-05-02T10:31:35Z</time>
      </trkpt>
      <trkpt lat="43.74725" lon="6.86388">
        <ele>1079.3</ele>
        <time>2021-05-02T10:31:40Z</time>
      </trkpt>
      <trkpt lat="43.74719" lon="6.86388">
        <ele>1079.5</ele>
        <time>2021-05-02T10:31:46Z</time>
      </trkpt>
      <trkpt lat="43.74712" lon="6.86389">
        <ele>1079.7</ele>
        <time>2021-05-02T10:31:52Z</time>
      </trkpt>
      <trkpt lat="43.74706" lon="6.86389">
        <ele>1079.8</ele>
        <time>2021-05-02T10:31:58Z</time>
      </trkpt>
      <trkpt lat="43.74701" lon="6.86391">
        <ele>1080.1</ele>
        <time>2021-05-02T10:32:03Z</time>
      </trkpt>
      <trkpt lat="43.74694" lon="6.86391">
        <ele>1080.1</ele>
        <time>2021-05-02T10:32:09Z</time>
      </trkpt>
      <trkpt lat="43.74687" lon="6.8639">
        <ele>1080.1</ele>
        <time>2021-05-02T10:32:15Z</time>
      </trkpt>
      <trkpt lat="43.74681" lon="6.86389">
        <ele>1080</ele>
        <time>2021-05-02T10:32:20Z</time>
      </trkpt>
      <trkpt lat="43.74675" lon="6.86389">
        <ele>1079.9</ele>
        <time>2021-05-02T10:32:26Z</time>
      </trkpt>
      <trkpt lat="43.74669" lon="6.86388">
        <ele>1079.7</ele>
        <time>2021-05-02T10:32:32Z</time>
      </trkpt>
      <trkpt lat="43.74664" lon="6.86388">
        <ele>1079.7</ele>
        <time>2021-05-02T10:32:37Z</time>
      </trkpt>
      <trkpt lat="43.74658" lon="6.8639">
        <ele>1080</ele>
        <time>2021-05-02T10:32:43Z</time>
      </trkpt>
      <trkpt lat="43.74653" lon="6.86391">
        <ele>1080</ele>
        <time>2021-05-02T10:32:49Z</time>
      </trkpt>
      <trkpt lat="43.74647" lon="6.86392">
        <ele>1080.1</ele>
        <time>2021-05-02T10:32:55Z</time>
      </trkpt>
      <trkpt lat="43.74642" lon="6.86393">
        <ele>1080.1</ele>
        <time>2021-05-02T10:33:00Z</time>
      </trkpt>
      <trkpt lat="43.74637" lon="6.86395">
        <ele>1080.3</ele>
        <time>2021-05-02T10:33:06Z</time>
      </trkpt>
      <trkpt lat="43.74632" lon="6.86395">
        <ele>1080.2</ele>
        <time>2021-05-02T10:33:11Z</time>
      </trkpt>
      <trkpt lat="43.74627" lon="6.86395">
        <ele>1080</ele>
        <time>2021-05-02T10:33:17Z</time>
      </trkpt>
      <trkpt lat="43.74621" lon="6.86397">
        <ele>1080.2</ele>
        <time>2021-05-02T10:33:23Z</time>
      </trkpt>
      <trkpt lat="43.74613" lon="6.86398">
        <ele>1080.2</ele>
        <time>2021-05-02T10:33:29Z</time>
      </trkpt>
      <trkpt lat="43.74608" lon="6.86398">
        <ele>1080</ele>
        <time>2021-05-02T10:33:34Z</time>
      </trkpt>
      <trkpt lat="43.74601" lon="6.86397">
        <ele>1079.6</ele>
        <time>2021-05-02T10:33:40Z</time>
      </trkpt>
      <trkpt lat="43.74595" lon="6.86396">
        <ele>1079.4</ele>
        <time>2021-05-02T10:33:46Z</time>
      </trkpt>
      <trkpt lat="43.7459" lon="6.86396">
        <ele>1079.2</ele>
        <time>2021-05-02T10:33:51Z</time>
      </trkpt>
      <trkpt lat="43.74583" lon="6.86395">
        <ele>1078.8</ele>
        <time>2021-05-02T10:33:57Z</time>
      </trkpt>
      <trkpt lat="43.74576" lon="6.86394">
        <ele>1078.9</ele>
        <time>2021-05-02T10:34:03Z</time>
      </trkpt>
      <trkpt lat="43.74571" lon="6.86393">
        <ele>1078.9</ele>
        <time>2021-05-02T10:34:08Z</time>
      </trkpt>
      <trkpt lat="43.74566" lon="6.86395">
        <ele>1079.2</ele>
        <time>2021-05-02T10:34:14Z</time>
      </trkpt>
      <trkpt lat="43.74566" lon="6.86395">
        <ele>1079.2</ele>
        <time>2021-05-02T10:34:19Z</time>
      </trkpt>
      <trkpt lat="43.74562" lon="6.86398">
        <ele>1079.7</ele>
        <time>2021-05-02T10:34:24Z</time>
      </trkpt>
      <trkpt lat="43.74555" lon="6.86396">
        <ele>1079.6</ele>
        <time>2021-05-02T10:34:30Z</time>
      </trkpt>
      <trkpt lat="43.74548" lon="6.86394">
        <ele>1079.4</ele>
        <time>2021-05-02T10:34:36Z</time>
      </trkpt>
      <trkpt lat="43.74543" lon="6.86394">
        <ele>1079.6</ele>
        <time>2021-05-02T10:34:41Z</time>
      </trkpt>
      <trkpt lat="43.74537" lon="6.86394">
        <ele>1079.7</ele>
        <time>2021-05-02T10:34:47Z</time>
      </trkpt>
      <trkpt lat="43.74532" lon="6.86394">
        <ele>1079.8</ele>
        <time>2021-05-02T10:34:53Z</time>
      </trkpt>
      <trkpt lat="43.74525" lon="6.86394">
        <ele>1079.9</ele>
        <time>2021-05-02T10:34:59Z</time>
      </trkpt>
      <trkpt lat="43.74521" lon="6.86395">
        <ele>1080.2</ele>
        <time>2021-05-02T10:35:04Z</time>
      </trkpt>
      <trkpt lat="43.74515" lon="6.86397">
        <ele>1080.6</ele>
        <time>2021-05-02T10:35:10Z</time>
      </trkpt>
      <trkpt lat="43.74511" lon="6.86396">
        <ele>1080.6</ele>
        <time>2021-05-02T10:35:15Z</time>
      </trkpt>
      <trkpt lat="43.74509" lon="6.86397">
        <ele>1080.7</ele>
        <time>2021-05-02T10:35:21Z</time>
      </trkpt>
      <trkpt lat="43.74509" lon="6.86397">
        <ele>1080.7</ele>
        <time>2021-05-02T10:35:26Z</time>
      </trkpt>
      <trkpt lat="43.74508" lon="6.86397">
        <ele>1080.7</ele>
        <time>2021-05-02T10:35:32Z</time>
      </trkpt>
      <trkpt lat="43.74503" lon="6.86397">
        <ele>1080.9</ele>
        <time>2021-05-02T10:35:37Z</time>
      </trkpt>
      <trkpt lat="43.74499" lon="6.86398">
        <ele>1081</ele>
        <time>2021-05-02T10:35:42Z</time>
      </trkpt>
      <trkpt lat="43.74496" lon="6.86398">
        <ele>1081</ele>
        <time>2021-05-02T10:35:47Z</time>
      </trkpt>
      <trkpt lat="43.7449" lon="6.86399">
        <ele>1081.1</ele>
        <time>2021-05-02T10:35:53Z</time>
      </trkpt>
      <trkpt lat="43.74485" lon="6.864">
        <ele>1081.2</ele>
        <time>2021-05-02T10:35:59Z</time>
      </trkpt>
      <trkpt lat="43.7448" lon="6.86403">
        <ele>1081.5</ele>
        <time>2021-05-02T10:36:05Z</time>
      </trkpt>
      <trkpt lat="43.74476" lon="6.86403">
        <ele>1081.4</ele>
        <time>2021-05-02T10:36:10Z</time>
      </trkpt>
      <trkpt lat="43.7447" lon="6.86401">
        <ele>1081.1</ele>
        <time>2021-05-02T10:36:16Z</time>
      </trkpt>
      <trkpt lat="43.74469" lon="6.86399">
        <ele>1080.8</ele>
        <time>2021-05-02T10:36:22Z</time>
      </trkpt>
      <trkpt lat="43.74465" lon="6.86397">
        <ele>1080.5</ele>
        <time>2021-05-02T10:36:28Z</time>
      </trkpt>
      <trkpt lat="43.7446" lon="6.86398">
        <ele>1080.5</ele>
        <time>2021-05-02T10:36:33Z</time>
      </trkpt>
      <trkpt lat="43.74453" lon="6.86401">
        <ele>1080.9</ele>
        <time>2021-05-02T10:36:39Z</time>
      </trkpt>
      <trkpt lat="43.7445" lon="6.86402">
        <ele>1081</ele>
        <time>2021-05-02T10:36:45Z</time>
      </trkpt>
      <trkpt lat="43.74445" lon="6.86402">
        <ele>1080.9</ele>
        <time>2021-05-02T10:36:51Z</time>
      </trkpt>
      <trkpt lat="43.7444" lon="6.86402">
        <ele>1080.8</ele>
        <time>2021-05-02T10:36:57Z</time>
      </trkpt>
      <trkpt lat="43.74438" lon="6.86401">
        <ele>1080.6</ele>
        <time>2021-05-02T10:37:02Z</time>
      </trkpt>
      <trkpt lat="43.74438" lon="6.86401">
        <ele>1080.6</ele>
        <time>2021-05-02T10:37:08Z</time>
      </trkpt>
      <trkpt lat="43.74438" lon="6.86401">
        <ele>1080.6</ele>
        <time>2021-05-02T10:37:14Z</time>
      </trkpt>
      <trkpt lat="43.74438" lon="6.86401">
        <ele>1080.6</ele>
        <time>2021-05-02T10:37:19Z</time>
      </trkpt>
      <trkpt lat="43.74438" lon="6.86401">
        <ele>1080.6</ele>
        <time>2021-05-02T10:37:24Z</time>
      </trkpt>
      <trkpt lat="43.74438" lon="6.86402">
        <ele>1080.8</ele>
        <time>2021-05-02T10:37:30Z</time>
      </trkpt>
      <trkpt lat="43.74438" lon="6.86402">
        <ele>1080.8</ele>
        <time>2021-05-02T10:37:36Z</time>
      </trkpt>
      <trkpt lat="43.74438" lon="6.86401">
        <ele>1080.6</ele>
        <time>2021-05-02T10:37:42Z</time>
      </trkpt>
      <trkpt lat="43.74438" lon="6.86401">
        <ele>1080.6</ele>
        <time>2021-05-02T10:37:48Z</time>
      </trkpt>
      <trkpt lat="43.74438" lon="6.86399">
        <ele>1080.4</ele>
        <time>2021-05-02T10:37:54Z</time>
      </trkpt>
      <trkpt lat="43.74436" lon="6.86393">
        <ele>1079.7</ele>
        <time>2021-05-02T10:37:59Z</time>
      </trkpt>
      <trkpt lat="43.74436" lon="6.86393">
        <ele>1079.7</ele>
        <time>2021-05-02T10:38:04Z</time>
      </trkpt>
      <trkpt lat="43.74436" lon="6.86394">
        <ele>1079.7</ele>
        <time>2021-05-02T10:38:09Z</time>
      </trkpt>
      <trkpt lat="43.74434" lon="6.86396">
        <ele>1079.9</ele>
        <time>2021-05-02T10:38:15Z</time>
      </trkpt>
      <trkpt lat="43.74434" lon="6.86395">
        <ele>1079.8</ele>
        <time>2021-05-02T10:38:21Z</time>
      </trkpt>
      <trkpt lat="43.74434" lon="6.86395">
        <ele>1079.8</ele>
        <time>2021-05-02T10:38:27Z</time>
      </trkpt>
      <trkpt lat="43.74434" lon="6.86395">
        <ele>1079.8</ele>
        <time>2021-05-02T10:38:33Z</time>
      </trkpt>
      <trkpt lat="43.74434" lon="6.86394">
        <ele>1079.8</ele>
        <time>2021-05-02T10:38:39Z</time>
      </trkpt>
      <trkpt lat="43.74434" lon="6.86394">
        <ele>1079.8</ele>
        <time>2021-05-02T10:38:44Z</time>
      </trkpt>
      <trkpt lat="43.74434" lon="6.86394">
        <ele>1079.8</ele>
        <time>2021-05-02T10:38:49Z</time>
      </trkpt>
      <trkpt lat="43.74434" lon="6.86394">
        <ele>1079.8</ele>
        <time>2021-05-02T10:38:55Z</time>
      </trkpt>
      <trkpt lat="43.74434" lon="6.86394">
        <ele>1079.8</ele>
        <time>2021-05-02T10:39:01Z</time>
      </trkpt>
      <trkpt lat="43.74434" lon="6.86394">
        <ele>1079.8</ele>
        <time>2021-05-02T10:39:06Z</time>
      </trkpt>
      <trkpt lat="43.74428" lon="6.86397">
        <ele>1080</ele>
        <time>2021-05-02T10:39:12Z</time>
      </trkpt>
      <trkpt lat="43.74419" lon="6.86397">
        <ele>1080</ele>
        <time>2021-05-02T10:39:18Z</time>
      </trkpt>
      <trkpt lat="43.74416" lon="6.86399">
        <ele>1080.2</ele>
        <time>2021-05-02T10:39:23Z</time>
      </trkpt>
      <trkpt lat="43.74412" lon="6.86398">
        <ele>1080.2</ele>
        <time>2021-05-02T10:39:29Z</time>
      </trkpt>
      <trkpt lat="43.7441" lon="6.86398">
        <ele>1080.3</ele>
        <time>2021-05-02T10:39:34Z</time>
      </trkpt>
      <trkpt lat="43.74402" lon="6.86397">
        <ele>1080.5</ele>
        <time>2021-05-02T10:39:40Z</time>
      </trkpt>
      <trkpt lat="43.7439" lon="6.86391">
        <ele>1080.4</ele>
        <time>2021-05-02T10:39:46Z</time>
      </trkpt>
      <trkpt lat="43.74383" lon="6.86387">
        <ele>1080.3</ele>
        <time>2021-05-02T10:39:51Z</time>
      </trkpt>
      <trkpt lat="43.74382" lon="6.86387">
        <ele>1080.4</ele>
        <time>2021-05-02T10:39:57Z</time>
      </trkpt>
      <trkpt lat="43.74379" lon="6.86393">
        <ele>1081.1</ele>
        <time>2021-05-02T10:40:03Z</time>
      </trkpt>
      <trkpt lat="43.74374" lon="6.86395">
        <ele>1081.5</ele>
        <time>2021-05-02T10:40:09Z</time>
      </trkpt>
      <trkpt lat="43.74369" lon="6.86396">
        <ele>1081.7</ele>
        <time>2021-05-02T10:40:15Z</time>
      </trkpt>
      <trkpt lat="43.74364" lon="6.86396">
        <ele>1082</ele>
        <time>2021-05-02T10:40:20Z</time>
      </trkpt>
      <trkpt lat="43.74358" lon="6.86402">
        <ele>1082.8</ele>
        <time>2021-05-02T10:40:26Z</time>
      </trkpt>
      <trkpt lat="43.74355" lon="6.86405">
        <ele>1083.2</ele>
        <time>2021-05-02T10:40:31Z</time>
      </trkpt>
      <trkpt lat="43.74347" lon="6.86402">
        <ele>1083.2</ele>
        <time>2021-05-02T10:40:37Z</time>
      </trkpt>
      <trkpt lat="43.74344" lon="6.86403">
        <ele>1083.5</ele>
        <time>2021-05-02T10:40:42Z</time>
      </trkpt>
      <trkpt lat="43.74342" lon="6.86405">
        <ele>1083.7</ele>
        <time>2021-05-02T10:40:48Z</time>
      </trkpt>
      <trkpt lat="43.7434" lon="6.86404">
        <ele>1083.6</ele>
        <time>2021-05-02T10:40:53Z</time>
      </trkpt>
      <trkpt lat="43.7434" lon="6.86403">
        <ele>1083.6</ele>
        <time>2021-05-02T10:40:58Z</time>
      </trkpt>
      <trkpt lat="43.7434" lon="6.86402">
        <ele>1083.5</ele>
        <time>2021-05-02T10:41:03Z</time>
      </trkpt>
      <trkpt lat="43.74339" lon="6.86401">
        <ele>1083.5</ele>
        <time>2021-05-02T10:41:09Z</time>
      </trkpt>
      <trkpt lat="43.74339" lon="6.86402">
        <ele>1083.5</ele>
        <time>2021-05-02T10:41:15Z</time>
      </trkpt>
      <trkpt lat="43.74339" lon="6.86402">
        <ele>1083.5</ele>
        <time>2021-05-02T10:41:21Z</time>
      </trkpt>
      <trkpt lat="43.74339" lon="6.86402">
        <ele>1083.5</ele>
        <time>2021-05-02T10:41:26Z</time>
      </trkpt>
      <trkpt lat="43.74339" lon="6.86402">
        <ele>1083.5</ele>
        <time>2021-05-02T10:41:31Z</time>
      </trkpt>
      <trkpt lat="43.74339" lon="6.86402">
        <ele>1083.5</ele>
        <time>2021-05-02T10:41:37Z</time>
      </trkpt>
      <trkpt lat="43.74339" lon="6.86402">
        <ele>1083.5</ele>
        <time>2021-05-02T10:41:43Z</time>
      </trkpt>
      <trkpt lat="43.74339" lon="6.86402">
        <ele>1083.5</ele>
        <time>2021-05-02T10:41:49Z</time>
      </trkpt>
      <trkpt lat="43.74339" lon="6.86402">
        <ele>1083.5</ele>
        <time>2021-05-02T10:41:54Z</time>
      </trkpt>
      <trkpt lat="43.74339" lon="6.86402">
        <ele>1083.5</ele>
        <time>2021-05-02T10:42:00Z</time>
      </trkpt>
      <trkpt lat="43.74339" lon="6.86402">
        <ele>1083.5</ele>
        <time>2021-05-02T10:42:06Z</time>
      </trkpt>
      <trkpt lat="43.74339" lon="6.86402">
        <ele>1083.5</ele>
        <time>2021-05-02T10:42:12Z</time>
      </trkpt>
      <trkpt lat="43.74339" lon="6.86402">
        <ele>1083.5</ele>
        <time>2021-05-02T10:42:17Z</time>
      </trkpt>
      <trkpt lat="43.74339" lon="6.86402">
        <ele>1083.5</ele>
        <time>2021-05-02T10:42:23Z</time>
      </trkpt>
      <trkpt lat="43.74339" lon="6.86402">
        <ele>1083.5</ele>
        <time>2021-05-02T10:42:29Z</time>
      </trkpt>
      <trkpt lat="43.74339" lon="6.86402">
        <ele>1083.5</ele>
        <time>2021-05-02T10:42:34Z</time>
      </trkpt>
      <trkpt lat="43.74339" lon="6.86402">
        <ele>1083.5</ele>
        <time>2021-05-02T10:42:40Z</time>
      </trkpt>
      <trkpt lat="43.74331" lon="6.86397">
        <ele>1083.4</ele>
        <time>2021-05-02T10:42:46Z</time>
      </trkpt>
      <trkpt lat="43.74326" lon="6.86396">
        <ele>1083.5</ele>
        <time>2021-05-02T10:42:51Z</time>
      </trkpt>
      <trkpt lat="43.74321" lon="6.864">
        <ele>1083.9</ele>
        <time>2021-05-02T10:42:57Z</time>
      </trkpt>
      <trkpt lat="43.74317" lon="6.86402">
        <ele>1084.2</ele>
        <time>2021-05-02T10:43:02Z</time>
      </trkpt>
      <trkpt lat="43.74314" lon="6.86404">
        <ele>1084.4</ele>
        <time>2021-05-02T10:43:07Z</time>
      </trkpt>
      <trkpt lat="43.7431" lon="6.86406">
        <ele>1084.6</ele>
        <time>2021-05-02T10:43:12Z</time>
      </trkpt>
      <trkpt lat="43.74306" lon="6.86408">
        <ele>1084.8</ele>
        <time>2021-05-02T10:43:18Z</time>
      </trkpt>
      <trkpt lat="43.74305" lon="6.8641">
        <ele>1084.9</ele>
        <time>2021-05-02T10:43:24Z</time>
      </trkpt>
      <trkpt lat="43.74302" lon="6.86412">
        <ele>1085.1</ele>
        <time>2021-05-02T10:43:29Z</time>
      </trkpt>
      <trkpt lat="43.74298" lon="6.86413">
        <ele>1085.2</ele>
        <time>2021-05-02T10:43:34Z</time>
      </trkpt>
      <trkpt lat="43.74292" lon="6.86413">
        <ele>1085.3</ele>
        <time>2021-05-02T10:43:40Z</time>
      </trkpt>
      <trkpt lat="43.74286" lon="6.86416">
        <ele>1085.5</ele>
        <time>2021-05-02T10:43:46Z</time>
      </trkpt>
      <trkpt lat="43.74282" lon="6.86416">
        <ele>1085.6</ele>
        <time>2021-05-02T10:43:51Z</time>
      </trkpt>
      <trkpt lat="43.74277" lon="6.86418">
        <ele>1086</ele>
        <time>2021-05-02T10:43:57Z</time>
      </trkpt>
      <trkpt lat="43.74272" lon="6.86418">
        <ele>1085.9</ele>
        <time>2021-05-02T10:44:02Z</time>
      </trkpt>
      <trkpt lat="43.74266" lon="6.86417">
        <ele>1085.8</ele>
        <time>2021-05-02T10:44:08Z</time>
      </trkpt>
      <trkpt lat="43.74262" lon="6.86418">
        <ele>1086</ele>
        <time>2021-05-02T10:44:14Z</time>
      </trkpt>
      <trkpt lat="43.74256" lon="6.86418">
        <ele>1086.1</ele>
        <time>2021-05-02T10:44:20Z</time>
      </trkpt>
      <trkpt lat="43.7425" lon="6.86418">
        <ele>1086.3</ele>
        <time>2021-05-02T10:44:26Z</time>
      </trkpt>
      <trkpt lat="43.74245" lon="6.86419">
        <ele>1086.5</ele>
        <time>2021-05-02T10:44:32Z</time>
      </trkpt>
      <trkpt lat="43.74238" lon="6.86418">
        <ele>1086.4</ele>
        <time>2021-05-02T10:44:37Z</time>
      </trkpt>
      <trkpt lat="43.74231" lon="6.86419">
        <ele>1086.6</ele>
        <time>2021-05-02T10:44:43Z</time>
      </trkpt>
      <trkpt lat="43.74228" lon="6.86421">
        <ele>1087</ele>
        <time>2021-05-02T10:44:48Z</time>
      </trkpt>
      <trkpt lat="43.74222" lon="6.8642">
        <ele>1087</ele>
        <time>2021-05-02T10:44:54Z</time>
      </trkpt>
      <trkpt lat="43.74221" lon="6.8642">
        <ele>1086.9</ele>
        <time>2021-05-02T10:45:00Z</time>
      </trkpt>
      <trkpt lat="43.74221" lon="6.8642">
        <ele>1086.9</ele>
        <time>2021-05-02T10:45:06Z</time>
      </trkpt>
      <trkpt lat="43.7422" lon="6.86419">
        <ele>1086.8</ele>
        <time>2021-05-02T10:45:11Z</time>
      </trkpt>
      <trkpt lat="43.74215" lon="6.86422">
        <ele>1087.3</ele>
        <time>2021-05-02T10:45:17Z</time>
      </trkpt>
      <trkpt lat="43.74211" lon="6.86424">
        <ele>1087.9</ele>
        <time>2021-05-02T10:45:22Z</time>
      </trkpt>
      <trkpt lat="43.74207" lon="6.86425">
        <ele>1088.1</ele>
        <time>2021-05-02T10:45:27Z</time>
      </trkpt>
      <trkpt lat="43.74202" lon="6.86426">
        <ele>1088.2</ele>
        <time>2021-05-02T10:45:32Z</time>
      </trkpt>
      <trkpt lat="43.74196" lon="6.86426">
        <ele>1088.4</ele>
        <time>2021-05-02T10:45:38Z</time>
      </trkpt>
      <trkpt lat="43.74191" lon="6.86426">
        <ele>1088.4</ele>
        <time>2021-05-02T10:45:44Z</time>
      </trkpt>
      <trkpt lat="43.74186" lon="6.86426">
        <ele>1088.4</ele>
        <time>2021-05-02T10:45:50Z</time>
      </trkpt>
      <trkpt lat="43.74182" lon="6.86427">
        <ele>1088.7</ele>
        <time>2021-05-02T10:45:55Z</time>
      </trkpt>
      <trkpt lat="43.74179" lon="6.86426">
        <ele>1088.5</ele>
        <time>2021-05-02T10:46:01Z</time>
      </trkpt>
      <trkpt lat="43.74179" lon="6.86425">
        <ele>1088.4</ele>
        <time>2021-05-02T10:46:07Z</time>
      </trkpt>
      <trkpt lat="43.74177" lon="6.86424">
        <ele>1088.3</ele>
        <time>2021-05-02T10:46:13Z</time>
      </trkpt>
      <trkpt lat="43.74173" lon="6.86425">
        <ele>1088.5</ele>
        <time>2021-05-02T10:46:18Z</time>
      </trkpt>
      <trkpt lat="43.7417" lon="6.86429">
        <ele>1089.2</ele>
        <time>2021-05-02T10:46:24Z</time>
      </trkpt>
      <trkpt lat="43.74168" lon="6.86432">
        <ele>1089.7</ele>
        <time>2021-05-02T10:46:29Z</time>
      </trkpt>
      <trkpt lat="43.74165" lon="6.86436">
        <ele>1090.6</ele>
        <time>2021-05-02T10:46:34Z</time>
      </trkpt>
      <trkpt lat="43.7416" lon="6.86437">
        <ele>1091.1</ele>
        <time>2021-05-02T10:46:40Z</time>
      </trkpt>
      <trkpt lat="43.74156" lon="6.86438">
        <ele>1091.4</ele>
        <time>2021-05-02T10:46:45Z</time>
      </trkpt>
      <trkpt lat="43.74152" lon="6.8644">
        <ele>1092.1</ele>
        <time>2021-05-02T10:46:50Z</time>
      </trkpt>
      <trkpt lat="43.74148" lon="6.86442">
        <ele>1092.7</ele>
        <time>2021-05-02T10:46:56Z</time>
      </trkpt>
      <trkpt lat="43.74142" lon="6.86444">
        <ele>1093.4</ele>
        <time>2021-05-02T10:47:01Z</time>
      </trkpt>
      <trkpt lat="43.74135" lon="6.86444">
        <ele>1093.9</ele>
        <time>2021-05-02T10:47:07Z</time>
      </trkpt>
      <trkpt lat="43.7413" lon="6.86444">
        <ele>1094.2</ele>
        <time>2021-05-02T10:47:12Z</time>
      </trkpt>
      <trkpt lat="43.74125" lon="6.86444">
        <ele>1094.6</ele>
        <time>2021-05-02T10:47:18Z</time>
      </trkpt>
      <trkpt lat="43.7412" lon="6.86444">
        <ele>1094.9</ele>
        <time>2021-05-02T10:47:24Z</time>
      </trkpt>
      <trkpt lat="43.74113" lon="6.86443">
        <ele>1095.1</ele>
        <time>2021-05-02T10:47:29Z</time>
      </trkpt>
      <trkpt lat="43.74109" lon="6.86442">
        <ele>1095.3</ele>
        <time>2021-05-02T10:47:34Z</time>
      </trkpt>
      <trkpt lat="43.74104" lon="6.86443">
        <ele>1095.7</ele>
        <time>2021-05-02T10:47:39Z</time>
      </trkpt>
      <trkpt lat="43.74099" lon="6.86445">
        <ele>1096.4</ele>
        <time>2021-05-02T10:47:45Z</time>
      </trkpt>
      <trkpt lat="43.74095" lon="6.86446">
        <ele>1096.8</ele>
        <time>2021-05-02T10:47:50Z</time>
      </trkpt>
      <trkpt lat="43.74091" lon="6.86448">
        <ele>1097.4</ele>
        <time>2021-05-02T10:47:56Z</time>
      </trkpt>
      <trkpt lat="43.74086" lon="6.8645">
        <ele>1098.3</ele>
        <time>2021-05-02T10:48:02Z</time>
      </trkpt>
      <trkpt lat="43.74081" lon="6.86449">
        <ele>1098.3</ele>
        <time>2021-05-02T10:48:08Z</time>
      </trkpt>
      <trkpt lat="43.74076" lon="6.8645">
        <ele>1098.9</ele>
        <time>2021-05-02T10:48:13Z</time>
      </trkpt>
      <trkpt lat="43.74071" lon="6.86451">
        <ele>1099.4</ele>
        <time>2021-05-02T10:48:19Z</time>
      </trkpt>
      <trkpt lat="43.74067" lon="6.86453">
        <ele>1100</ele>
        <time>2021-05-02T10:48:24Z</time>
      </trkpt>
      <trkpt lat="43.74061" lon="6.8645">
        <ele>1099.8</ele>
        <time>2021-05-02T10:48:30Z</time>
      </trkpt>
      <trkpt lat="43.74055" lon="6.86448">
        <ele>1099.8</ele>
        <time>2021-05-02T10:48:36Z</time>
      </trkpt>
      <trkpt lat="43.7405" lon="6.86447">
        <ele>1099.9</ele>
        <time>2021-05-02T10:48:42Z</time>
      </trkpt>
      <trkpt lat="43.74046" lon="6.86449">
        <ele>1100.6</ele>
        <time>2021-05-02T10:48:47Z</time>
      </trkpt>
      <trkpt lat="43.74042" lon="6.86449">
        <ele>1100.9</ele>
        <time>2021-05-02T10:48:52Z</time>
      </trkpt>
      <trkpt lat="43.74037" lon="6.86449">
        <ele>1101.2</ele>
        <time>2021-05-02T10:48:58Z</time>
      </trkpt>
      <trkpt lat="43.74032" lon="6.86447">
        <ele>1101.2</ele>
        <time>2021-05-02T10:49:03Z</time>
      </trkpt>
      <trkpt lat="43.74028" lon="6.86448">
        <ele>1101.6</ele>
        <time>2021-05-02T10:49:08Z</time>
      </trkpt>
      <trkpt lat="43.74024" lon="6.86449">
        <ele>1102.1</ele>
        <time>2021-05-02T10:49:14Z</time>
      </trkpt>
      <trkpt lat="43.7402" lon="6.8645">
        <ele>1102.5</ele>
        <time>2021-05-02T10:49:19Z</time>
      </trkpt>
      <trkpt lat="43.74016" lon="6.86451">
        <ele>1102.9</ele>
        <time>2021-05-02T10:49:25Z</time>
      </trkpt>
      <trkpt lat="43.7401" lon="6.86452">
        <ele>1103.6</ele>
        <time>2021-05-02T10:49:31Z</time>
      </trkpt>
      <trkpt lat="43.74004" lon="6.86453">
        <ele>1104.2</ele>
        <time>2021-05-02T10:49:37Z</time>
      </trkpt>
      <trkpt lat="43.73998" lon="6.86455">
        <ele>1104.8</ele>
        <time>2021-05-02T10:49:42Z</time>
      </trkpt>
      <trkpt lat="43.73993" lon="6.86455">
        <ele>1105.1</ele>
        <time>2021-05-02T10:49:47Z</time>
      </trkpt>
      <trkpt lat="43.73987" lon="6.86454">
        <ele>1105.2</ele>
        <time>2021-05-02T10:49:53Z</time>
      </trkpt>
      <trkpt lat="43.73982" lon="6.86452">
        <ele>1105.1</ele>
        <time>2021-05-02T10:49:58Z</time>
      </trkpt>
      <trkpt lat="43.73976" lon="6.86451">
        <ele>1105.2</ele>
        <time>2021-05-02T10:50:04Z</time>
      </trkpt>
      <trkpt lat="43.7397" lon="6.86452">
        <ele>1105.5</ele>
        <time>2021-05-02T10:50:09Z</time>
      </trkpt>
      <trkpt lat="43.73966" lon="6.86451">
        <ele>1105.5</ele>
        <time>2021-05-02T10:50:15Z</time>
      </trkpt>
      <trkpt lat="43.73958" lon="6.86451">
        <ele>1106</ele>
        <time>2021-05-02T10:50:21Z</time>
      </trkpt>
      <trkpt lat="43.73951" lon="6.8645">
        <ele>1106</ele>
        <time>2021-05-02T10:50:27Z</time>
      </trkpt>
      <trkpt lat="43.73946" lon="6.86447">
        <ele>1105.8</ele>
        <time>2021-05-02T10:50:32Z</time>
      </trkpt>
      <trkpt lat="43.73942" lon="6.86448">
        <ele>1106.1</ele>
        <time>2021-05-02T10:50:37Z</time>
      </trkpt>
      <trkpt lat="43.73937" lon="6.86446">
        <ele>1106</ele>
        <time>2021-05-02T10:50:43Z</time>
      </trkpt>
      <trkpt lat="43.73932" lon="6.86444">
        <ele>1105.8</ele>
        <time>2021-05-02T10:50:49Z</time>
      </trkpt>
      <trkpt lat="43.73927" lon="6.86441">
        <ele>1105.5</ele>
        <time>2021-05-02T10:50:55Z</time>
      </trkpt>
      <trkpt lat="43.73922" lon="6.86439">
        <ele>1105.5</ele>
        <time>2021-05-02T10:51:01Z</time>
      </trkpt>
      <trkpt lat="43.73917" lon="6.86438">
        <ele>1105.6</ele>
        <time>2021-05-02T10:51:06Z</time>
      </trkpt>
      <trkpt lat="43.73913" lon="6.86438">
        <ele>1105.8</ele>
        <time>2021-05-02T10:51:11Z</time>
      </trkpt>
      <trkpt lat="43.7391" lon="6.86439">
        <ele>1106.1</ele>
        <time>2021-05-02T10:51:16Z</time>
      </trkpt>
      <trkpt lat="43.73905" lon="6.8644">
        <ele>1106.5</ele>
        <time>2021-05-02T10:51:22Z</time>
      </trkpt>
      <trkpt lat="43.73901" lon="6.86441">
        <ele>1106.9</ele>
        <time>2021-05-02T10:51:27Z</time>
      </trkpt>
      <trkpt lat="43.73895" lon="6.86442">
        <ele>1107.3</ele>
        <time>2021-05-02T10:51:33Z</time>
      </trkpt>
      <trkpt lat="43.73888" lon="6.8644">
        <ele>1107.5</ele>
        <time>2021-05-02T10:51:39Z</time>
      </trkpt>
      <trkpt lat="43.73883" lon="6.86441">
        <ele>1107.8</ele>
        <time>2021-05-02T10:51:44Z</time>
      </trkpt>
      <trkpt lat="43.73878" lon="6.86443">
        <ele>1108.3</ele>
        <time>2021-05-02T10:51:50Z</time>
      </trkpt>
      <trkpt lat="43.73874" lon="6.86445">
        <ele>1108.8</ele>
        <time>2021-05-02T10:51:56Z</time>
      </trkpt>
      <trkpt lat="43.73869" lon="6.86446">
        <ele>1109.1</ele>
        <time>2021-05-02T10:52:02Z</time>
      </trkpt>
      <trkpt lat="43.73866" lon="6.86446">
        <ele>1109.3</ele>
        <time>2021-05-02T10:52:07Z</time>
      </trkpt>
      <trkpt lat="43.73866" lon="6.86446">
        <ele>1109.3</ele>
        <time>2021-05-02T10:52:13Z</time>
      </trkpt>
      <trkpt lat="43.73866" lon="6.86446">
        <ele>1109.3</ele>
        <time>2021-05-02T10:52:18Z</time>
      </trkpt>
      <trkpt lat="43.73866" lon="6.86446">
        <ele>1109.3</ele>
        <time>2021-05-02T10:52:24Z</time>
      </trkpt>
      <trkpt lat="43.73866" lon="6.86446">
        <ele>1109.4</ele>
        <time>2021-05-02T10:52:30Z</time>
      </trkpt>
      <trkpt lat="43.73866" lon="6.86446">
        <ele>1109.4</ele>
        <time>2021-05-02T10:52:36Z</time>
      </trkpt>
      <trkpt lat="43.73866" lon="6.86446">
        <ele>1109.4</ele>
        <time>2021-05-02T10:52:42Z</time>
      </trkpt>
      <trkpt lat="43.73866" lon="6.86446">
        <ele>1109.4</ele>
        <time>2021-05-02T10:52:47Z</time>
      </trkpt>
      <trkpt lat="43.73866" lon="6.86447">
        <ele>1109.4</ele>
        <time>2021-05-02T10:52:53Z</time>
      </trkpt>
      <trkpt lat="43.73866" lon="6.86447">
        <ele>1109.4</ele>
        <time>2021-05-02T10:52:58Z</time>
      </trkpt>
      <trkpt lat="43.73866" lon="6.86447">
        <ele>1109.4</ele>
        <time>2021-05-02T10:53:04Z</time>
      </trkpt>
      <trkpt lat="43.73866" lon="6.86447">
        <ele>1109.4</ele>
        <time>2021-05-02T10:53:10Z</time>
      </trkpt>
      <trkpt lat="43.73866" lon="6.86447">
        <ele>1109.4</ele>
        <time>2021-05-02T10:53:15Z</time>
      </trkpt>
      <trkpt lat="43.73866" lon="6.86447">
        <ele>1109.4</ele>
        <time>2021-05-02T10:53:20Z</time>
      </trkpt>
      <trkpt lat="43.73866" lon="6.86447">
        <ele>1109.4</ele>
        <time>2021-05-02T10:53:26Z</time>
      </trkpt>
      <trkpt lat="43.73866" lon="6.86447">
        <ele>1109.4</ele>
        <time>2021-05-02T10:53:31Z</time>
      </trkpt>
      <trkpt lat="43.73866" lon="6.86447">
        <ele>1109.4</ele>
        <time>2021-05-02T10:53:37Z</time>
      </trkpt>
      <trkpt lat="43.73866" lon="6.86447">
        <ele>1109.4</ele>
        <time>2021-05-02T10:53:43Z</time>
      </trkpt>
      <trkpt lat="43.73866" lon="6.86447">
        <ele>1109.4</ele>
        <time>2021-05-02T10:53:49Z</time>
      </trkpt>
      <trkpt lat="43.73866" lon="6.86447">
        <ele>1109.4</ele>
        <time>2021-05-02T10:53:55Z</time>
      </trkpt>
      <trkpt lat="43.73866" lon="6.86447">
        <ele>1109.4</ele>
        <time>2021-05-02T10:54:01Z</time>
      </trkpt>
      <trkpt lat="43.73866" lon="6.86447">
        <ele>1109.4</ele>
        <time>2021-05-02T10:54:07Z</time>
      </trkpt>
      <trkpt lat="43.73862" lon="6.86452">
        <ele>1110.2</ele>
        <time>2021-05-02T10:54:12Z</time>
      </trkpt>
      <trkpt lat="43.73862" lon="6.86451">
        <ele>1110.1</ele>
        <time>2021-05-02T10:54:17Z</time>
      </trkpt>
      <trkpt lat="43.73859" lon="6.86448">
        <ele>1109.9</ele>
        <time>2021-05-02T10:54:23Z</time>
      </trkpt>
      <trkpt lat="43.73857" lon="6.86449">
        <ele>1110</ele>
        <time>2021-05-02T10:54:29Z</time>
      </trkpt>
      <trkpt lat="43.7385" lon="6.86446">
        <ele>1110.1</ele>
        <time>2021-05-02T10:54:35Z</time>
      </trkpt>
      <trkpt lat="43.73845" lon="6.86445">
        <ele>1110.2</ele>
        <time>2021-05-02T10:54:41Z</time>
      </trkpt>
      <trkpt lat="43.73844" lon="6.86444">
        <ele>1110.1</ele>
        <time>2021-05-02T10:54:47Z</time>
      </trkpt>
      <trkpt lat="43.73844" lon="6.86444">
        <ele>1110.1</ele>
        <time>2021-05-02T10:54:52Z</time>
      </trkpt>
      <trkpt lat="43.73842" lon="6.86444">
        <ele>1110.2</ele>
        <time>2021-05-02T10:54:58Z</time>
      </trkpt>
      <trkpt lat="43.7384" lon="6.86441">
        <ele>1110</ele>
        <time>2021-05-02T10:55:03Z</time>
      </trkpt>
      <trkpt lat="43.73838" lon="6.86437">
        <ele>1109.7</ele>
        <time>2021-05-02T10:55:08Z</time>
      </trkpt>
      <trkpt lat="43.73836" lon="6.86433">
        <ele>1109.4</ele>
        <time>2021-05-02T10:55:14Z</time>
      </trkpt>
      <trkpt lat="43.73834" lon="6.86432">
        <ele>1109.5</ele>
        <time>2021-05-02T10:55:19Z</time>
      </trkpt>
      <trkpt lat="43.73829" lon="6.8643">
        <ele>1110.1</ele>
        <time>2021-05-02T10:55:25Z</time>
      </trkpt>
      <trkpt lat="43.73825" lon="6.86429">
        <ele>1110.7</ele>
        <time>2021-05-02T10:55:30Z</time>
      </trkpt>
      <trkpt lat="43.73823" lon="6.86431">
        <ele>1111.2</ele>
        <time>2021-05-02T10:55:35Z</time>
      </trkpt>
      <trkpt lat="43.73819" lon="6.86431">
        <ele>1111.8</ele>
        <time>2021-05-02T10:55:40Z</time>
      </trkpt>
      <trkpt lat="43.73816" lon="6.86432">
        <ele>1112.4</ele>
        <time>2021-05-02T10:55:46Z</time>
      </trkpt>
      <trkpt lat="43.73815" lon="6.86432">
        <ele>1112.6</ele>
        <time>2021-05-02T10:55:51Z</time>
      </trkpt>
      <trkpt lat="43.73815" lon="6.86432">
        <ele>1112.6</ele>
        <time>2021-05-02T10:55:57Z</time>
      </trkpt>
      <trkpt lat="43.73815" lon="6.86433">
        <ele>1112.7</ele>
        <time>2021-05-02T10:56:02Z</time>
      </trkpt>
      <trkpt lat="43.73815" lon="6.86433">
        <ele>1112.7</ele>
        <time>2021-05-02T10:56:07Z</time>
      </trkpt>
      <trkpt lat="43.73814" lon="6.86431">
        <ele>1112.6</ele>
        <time>2021-05-02T10:56:13Z</time>
      </trkpt>
      <trkpt lat="43.73813" lon="6.86431">
        <ele>1112.8</ele>
        <time>2021-05-02T10:56:19Z</time>
      </trkpt>
      <trkpt lat="43.73813" lon="6.86432">
        <ele>1112.9</ele>
        <time>2021-05-02T10:56:24Z</time>
      </trkpt>
      <trkpt lat="43.73813" lon="6.86432">
        <ele>1112.9</ele>
        <time>2021-05-02T10:56:30Z</time>
      </trkpt>
      <trkpt lat="43.73813" lon="6.86432">
        <ele>1112.9</ele>
        <time>2021-05-02T10:56:35Z</time>
      </trkpt>
      <trkpt lat="43.73812" lon="6.86433">
        <ele>1113.1</ele>
        <time>2021-05-02T10:56:41Z</time>
      </trkpt>
      <trkpt lat="43.73812" lon="6.86433">
        <ele>1113.2</ele>
        <time>2021-05-02T10:56:46Z</time>
      </trkpt>
      <trkpt lat="43.73812" lon="6.86433">
        <ele>1113.2</ele>
        <time>2021-05-02T10:56:52Z</time>
      </trkpt>
      <trkpt lat="43.73809" lon="6.86428">
        <ele>1113.3</ele>
        <time>2021-05-02T10:56:57Z</time>
      </trkpt>
      <trkpt lat="43.73805" lon="6.86424">
        <ele>1113.7</ele>
        <time>2021-05-02T10:57:02Z</time>
      </trkpt>
      <trkpt lat="43.73801" lon="6.86425">
        <ele>1114.7</ele>
        <time>2021-05-02T10:57:08Z</time>
      </trkpt>
      <trkpt lat="43.73801" lon="6.86423">
        <ele>1114.4</ele>
        <time>2021-05-02T10:57:13Z</time>
      </trkpt>
      <trkpt lat="43.73802" lon="6.86423">
        <ele>1114.4</ele>
        <time>2021-05-02T10:57:18Z</time>
      </trkpt>
      <trkpt lat="43.73801" lon="6.86423">
        <ele>1114.5</ele>
        <time>2021-05-02T10:57:24Z</time>
      </trkpt>
      <trkpt lat="43.73797" lon="6.86423">
        <ele>1115.2</ele>
        <time>2021-05-02T10:57:30Z</time>
      </trkpt>
      <trkpt lat="43.73794" lon="6.86421">
        <ele>1115.7</ele>
        <time>2021-05-02T10:57:36Z</time>
      </trkpt>
      <trkpt lat="43.73792" lon="6.86421">
        <ele>1116.1</ele>
        <time>2021-05-02T10:57:42Z</time>
      </trkpt>
      <trkpt lat="43.73789" lon="6.86421">
        <ele>1116.6</ele>
        <time>2021-05-02T10:57:48Z</time>
      </trkpt>
      <trkpt lat="43.73788" lon="6.86418">
        <ele>1116.8</ele>
        <time>2021-05-02T10:57:53Z</time>
      </trkpt>
      <trkpt lat="43.73785" lon="6.86412">
        <ele>1117.9</ele>
        <time>2021-05-02T10:57:59Z</time>
      </trkpt>
      <trkpt lat="43.73782" lon="6.86409">
        <ele>1118.9</ele>
        <time>2021-05-02T10:58:05Z</time>
      </trkpt>
      <trkpt lat="43.73779" lon="6.86409">
        <ele>1119.5</ele>
        <time>2021-05-02T10:58:10Z</time>
      </trkpt>
      <trkpt lat="43.73775" lon="6.86409">
        <ele>1120.2</ele>
        <time>2021-05-02T10:58:16Z</time>
      </trkpt>
      <trkpt lat="43.73772" lon="6.86408">
        <ele>1121</ele>
        <time>2021-05-02T10:58:21Z</time>
      </trkpt>
      <trkpt lat="43.73773" lon="6.86407">
        <ele>1121.1</ele>
        <time>2021-05-02T10:58:27Z</time>
      </trkpt>
      <trkpt lat="43.73772" lon="6.86406">
        <ele>1121.3</ele>
        <time>2021-05-02T10:58:33Z</time>
      </trkpt>
      <trkpt lat="43.73768" lon="6.86408">
        <ele>1121.9</ele>
        <time>2021-05-02T10:58:38Z</time>
      </trkpt>
      <trkpt lat="43.73767" lon="6.86406">
        <ele>1122.5</ele>
        <time>2021-05-02T10:58:44Z</time>
      </trkpt>
      <trkpt lat="43.73765" lon="6.86405">
        <ele>1123</ele>
        <time>2021-05-02T10:58:50Z</time>
      </trkpt>
      <trkpt lat="43.73764" lon="6.86402">
        <ele>1123.6</ele>
        <time>2021-05-02T10:58:55Z</time>
      </trkpt>
      <trkpt lat="43.73764" lon="6.86402">
        <ele>1123.7</ele>
        <time>2021-05-02T10:59:00Z</time>
      </trkpt>
      <trkpt lat="43.73764" lon="6.86402">
        <ele>1123.7</ele>
        <time>2021-05-02T10:59:06Z</time>
      </trkpt>
      <trkpt lat="43.73764" lon="6.86401">
        <ele>1123.8</ele>
        <time>2021-05-02T10:59:11Z</time>
      </trkpt>
      <trkpt lat="43.73764" lon="6.86401">
        <ele>1123.8</ele>
        <time>2021-05-02T10:59:17Z</time>
      </trkpt>
      <trkpt lat="43.73763" lon="6.86399">
        <ele>1124.4</ele>
        <time>2021-05-02T10:59:23Z</time>
      </trkpt>
      <trkpt lat="43.73763" lon="6.864">
        <ele>1124.2</ele>
        <time>2021-05-02T10:59:28Z</time>
      </trkpt>
      <trkpt lat="43.73763" lon="6.864">
        <ele>1124.3</ele>
        <time>2021-05-02T10:59:34Z</time>
      </trkpt>
      <trkpt lat="43.73763" lon="6.864">
        <ele>1124.3</ele>
        <time>2021-05-02T10:59:39Z</time>
      </trkpt>
      <trkpt lat="43.73763" lon="6.864">
        <ele>1124.3</ele>
        <time>2021-05-02T10:59:45Z</time>
      </trkpt>
      <trkpt lat="43.73763" lon="6.864">
        <ele>1124.3</ele>
        <time>2021-05-02T10:59:50Z</time>
      </trkpt>
      <trkpt lat="43.73761" lon="6.86401">
        <ele>1124.5</ele>
        <time>2021-05-02T10:59:56Z</time>
      </trkpt>
      <trkpt lat="43.73759" lon="6.86398">
        <ele>1125.3</ele>
        <time>2021-05-02T11:00:02Z</time>
      </trkpt>
      <trkpt lat="43.73757" lon="6.864">
        <ele>1125.4</ele>
        <time>2021-05-02T11:00:08Z</time>
      </trkpt>
      <trkpt lat="43.73755" lon="6.86401">
        <ele>1125.7</ele>
        <time>2021-05-02T11:00:13Z</time>
      </trkpt>
      <trkpt lat="43.73754" lon="6.86399">
        <ele>1126.2</ele>
        <time>2021-05-02T11:00:19Z</time>
      </trkpt>
      <trkpt lat="43.73752" lon="6.86398">
        <ele>1126.9</ele>
        <time>2021-05-02T11:00:24Z</time>
      </trkpt>
      <trkpt lat="43.73748" lon="6.86395">
        <ele>1128.1</ele>
        <time>2021-05-02T11:00:29Z</time>
      </trkpt>
      <trkpt lat="43.73746" lon="6.86395">
        <ele>1128.6</ele>
        <time>2021-05-02T11:00:35Z</time>
      </trkpt>
      <trkpt lat="43.73743" lon="6.86395">
        <ele>1129.2</ele>
        <time>2021-05-02T11:00:40Z</time>
      </trkpt>
      <trkpt lat="43.73742" lon="6.86396">
        <ele>1129.3</ele>
        <time>2021-05-02T11:00:46Z</time>
      </trkpt>
      <trkpt lat="43.73741" lon="6.86395">
        <ele>1129.8</ele>
        <time>2021-05-02T11:00:51Z</time>
      </trkpt>
      <trkpt lat="43.73739" lon="6.86395">
        <ele>1130.1</ele>
        <time>2021-05-02T11:00:57Z</time>
      </trkpt>
      <trkpt lat="43.73736" lon="6.86396">
        <ele>1130.9</ele>
        <time>2021-05-02T11:01:03Z</time>
      </trkpt>
      <trkpt lat="43.73735" lon="6.86394">
        <ele>1131.4</ele>
        <time>2021-05-02T11:01:08Z</time>
      </trkpt>
      <trkpt lat="43.73735" lon="6.86394">
        <ele>1131.5</ele>
        <time>2021-05-02T11:01:13Z</time>
      </trkpt>
      <trkpt lat="43.73733" lon="6.86395">
        <ele>1131.8</ele>
        <time>2021-05-02T11:01:19Z</time>
      </trkpt>
      <trkpt lat="43.73731" lon="6.86391">
        <ele>1133</ele>
        <time>2021-05-02T11:01:25Z</time>
      </trkpt>
      <trkpt lat="43.73729" lon="6.86391">
        <ele>1133.5</ele>
        <time>2021-05-02T11:01:30Z</time>
      </trkpt>
      <trkpt lat="43.73724" lon="6.86389">
        <ele>1135.1</ele>
        <time>2021-05-02T11:01:36Z</time>
      </trkpt>
      <trkpt lat="43.7372" lon="6.8639">
        <ele>1135.8</ele>
        <time>2021-05-02T11:01:41Z</time>
      </trkpt>
      <trkpt lat="43.73716" lon="6.86388">
        <ele>1137.3</ele>
        <time>2021-05-02T11:01:47Z</time>
      </trkpt>
      <trkpt lat="43.73713" lon="6.86387">
        <ele>1138.2</ele>
        <time>2021-05-02T11:01:52Z</time>
      </trkpt>
      <trkpt lat="43.73711" lon="6.86385">
        <ele>1139.1</ele>
        <time>2021-05-02T11:01:58Z</time>
      </trkpt>
      <trkpt lat="43.73708" lon="6.86387">
        <ele>1139.4</ele>
        <time>2021-05-02T11:02:04Z</time>
      </trkpt>
      <trkpt lat="43.73704" lon="6.86387">
        <ele>1140.5</ele>
        <time>2021-05-02T11:02:10Z</time>
      </trkpt>
      <trkpt lat="43.737" lon="6.86385">
        <ele>1141.7</ele>
        <time>2021-05-02T11:02:16Z</time>
      </trkpt>
      <trkpt lat="43.737" lon="6.86385">
        <ele>1142</ele>
        <time>2021-05-02T11:02:22Z</time>
      </trkpt>
      <trkpt lat="43.73699" lon="6.86385">
        <ele>1142.1</ele>
        <time>2021-05-02T11:02:27Z</time>
      </trkpt>
      <trkpt lat="43.73699" lon="6.86385">
        <ele>1142.1</ele>
        <time>2021-05-02T11:02:33Z</time>
      </trkpt>
      <trkpt lat="43.73698" lon="6.86384">
        <ele>1142.6</ele>
        <time>2021-05-02T11:02:39Z</time>
      </trkpt>
      <trkpt lat="43.73697" lon="6.8638">
        <ele>1143.9</ele>
        <time>2021-05-02T11:02:44Z</time>
      </trkpt>
      <trkpt lat="43.73696" lon="6.86377">
        <ele>1144.6</ele>
        <time>2021-05-02T11:02:49Z</time>
      </trkpt>
      <trkpt lat="43.73692" lon="6.86376">
        <ele>1146.1</ele>
        <time>2021-05-02T11:02:55Z</time>
      </trkpt>
      <trkpt lat="43.7369" lon="6.86376">
        <ele>1146.7</ele>
        <time>2021-05-02T11:03:01Z</time>
      </trkpt>
      <trkpt lat="43.73686" lon="6.86374">
        <ele>1148.3</ele>
        <time>2021-05-02T11:03:07Z</time>
      </trkpt>
      <trkpt lat="43.73683" lon="6.86377">
        <ele>1148.3</ele>
        <time>2021-05-02T11:03:13Z</time>
      </trkpt>
      <trkpt lat="43.73681" lon="6.86375">
        <ele>1149.2</ele>
        <time>2021-05-02T11:03:18Z</time>
      </trkpt>
      <trkpt lat="43.73677" lon="6.86376">
        <ele>1149.9</ele>
        <time>2021-05-02T11:03:24Z</time>
      </trkpt>
      <trkpt lat="43.73673" lon="6.86377">
        <ele>1150.7</ele>
        <time>2021-05-02T11:03:29Z</time>
      </trkpt>
      <trkpt lat="43.73671" lon="6.86374">
        <ele>1152</ele>
        <time>2021-05-02T11:03:34Z</time>
      </trkpt>
      <trkpt lat="43.73668" lon="6.86372">
        <ele>1153.3</ele>
        <time>2021-05-02T11:03:39Z</time>
      </trkpt>
      <trkpt lat="43.73667" lon="6.86371">
        <ele>1154.2</ele>
        <time>2021-05-02T11:03:45Z</time>
      </trkpt>
      <trkpt lat="43.73663" lon="6.86374">
        <ele>1153.2</ele>
        <time>2021-05-02T11:03:51Z</time>
      </trkpt>
      <trkpt lat="43.73662" lon="6.86376">
        <ele>1152.5</ele>
        <time>2021-05-02T11:03:56Z</time>
      </trkpt>
      <trkpt lat="43.73661" lon="6.86377">
        <ele>1152.3</ele>
        <time>2021-05-02T11:04:02Z</time>
      </trkpt>
      <trkpt lat="43.73657" lon="6.86377">
        <ele>1151.9</ele>
        <time>2021-05-02T11:04:08Z</time>
      </trkpt>
      <trkpt lat="43.73654" lon="6.86376">
        <ele>1152.1</ele>
        <time>2021-05-02T11:04:13Z</time>
      </trkpt>
      <trkpt lat="43.73649" lon="6.86375">
        <ele>1152.5</ele>
        <time>2021-05-02T11:04:19Z</time>
      </trkpt>
      <trkpt lat="43.73648" lon="6.86375">
        <ele>1152.2</ele>
        <time>2021-05-02T11:04:24Z</time>
      </trkpt>
      <trkpt lat="43.73645" lon="6.86376">
        <ele>1152</ele>
        <time>2021-05-02T11:04:30Z</time>
      </trkpt>
      <trkpt lat="43.73646" lon="6.86375">
        <ele>1152.2</ele>
        <time>2021-05-02T11:04:36Z</time>
      </trkpt>
      <trkpt lat="43.73644" lon="6.86375">
        <ele>1152.2</ele>
        <time>2021-05-02T11:04:41Z</time>
      </trkpt>
      <trkpt lat="43.73642" lon="6.86376">
        <ele>1151.9</ele>
        <time>2021-05-02T11:04:46Z</time>
      </trkpt>
      <trkpt lat="43.73637" lon="6.86376">
        <ele>1151.8</ele>
        <time>2021-05-02T11:04:52Z</time>
      </trkpt>
      <trkpt lat="43.73634" lon="6.86377">
        <ele>1151.1</ele>
        <time>2021-05-02T11:04:58Z</time>
      </trkpt>
      <trkpt lat="43.73631" lon="6.86379">
        <ele>1150.3</ele>
        <time>2021-05-02T11:05:03Z</time>
      </trkpt>
      <trkpt lat="43.73627" lon="6.86378">
        <ele>1150.7</ele>
        <time>2021-05-02T11:05:09Z</time>
      </trkpt>
      <trkpt lat="43.73623" lon="6.86374">
        <ele>1151.8</ele>
        <time>2021-05-02T11:05:15Z</time>
      </trkpt>
      <trkpt lat="43.7362" lon="6.86372">
        <ele>1152.4</ele>
        <time>2021-05-02T11:05:21Z</time>
      </trkpt>
      <trkpt lat="43.73617" lon="6.8637">
        <ele>1153</ele>
        <time>2021-05-02T11:05:26Z</time>
      </trkpt>
      <trkpt lat="43.73615" lon="6.86369">
        <ele>1153.1</ele>
        <time>2021-05-02T11:05:32Z</time>
      </trkpt>
      <trkpt lat="43.73611" lon="6.86365">
        <ele>1154.5</ele>
        <time>2021-05-02T11:05:38Z</time>
      </trkpt>
      <trkpt lat="43.73607" lon="6.86359">
        <ele>1156.2</ele>
        <time>2021-05-02T11:05:44Z</time>
      </trkpt>
      <trkpt lat="43.73607" lon="6.86357">
        <ele>1157</ele>
        <time>2021-05-02T11:05:50Z</time>
      </trkpt>
      <trkpt lat="43.73607" lon="6.86357">
        <ele>1157</ele>
        <time>2021-05-02T11:05:55Z</time>
      </trkpt>
      <trkpt lat="43.73607" lon="6.86357">
        <ele>1157</ele>
        <time>2021-05-02T11:06:01Z</time>
      </trkpt>
      <trkpt lat="43.73607" lon="6.86357">
        <ele>1156.9</ele>
        <time>2021-05-02T11:06:06Z</time>
      </trkpt>
      <trkpt lat="43.73607" lon="6.86357">
        <ele>1156.9</ele>
        <time>2021-05-02T11:06:11Z</time>
      </trkpt>
      <trkpt lat="43.73607" lon="6.86357">
        <ele>1156.8</ele>
        <time>2021-05-02T11:06:17Z</time>
      </trkpt>
      <trkpt lat="43.73606" lon="6.86358">
        <ele>1156.7</ele>
        <time>2021-05-02T11:06:23Z</time>
      </trkpt>
      <trkpt lat="43.73606" lon="6.86358">
        <ele>1156.5</ele>
        <time>2021-05-02T11:06:28Z</time>
      </trkpt>
      <trkpt lat="43.73606" lon="6.86358">
        <ele>1156.6</ele>
        <time>2021-05-02T11:06:33Z</time>
      </trkpt>
      <trkpt lat="43.73606" lon="6.86358">
        <ele>1156.5</ele>
        <time>2021-05-02T11:06:39Z</time>
      </trkpt>
      <trkpt lat="43.73606" lon="6.86358">
        <ele>1156.5</ele>
        <time>2021-05-02T11:06:45Z</time>
      </trkpt>
      <trkpt lat="43.73606" lon="6.86358">
        <ele>1156.5</ele>
        <time>2021-05-02T11:06:50Z</time>
      </trkpt>
      <trkpt lat="43.73606" lon="6.86359">
        <ele>1156.4</ele>
        <time>2021-05-02T11:06:56Z</time>
      </trkpt>
      <trkpt lat="43.73606" lon="6.86359">
        <ele>1156.4</ele>
        <time>2021-05-02T11:07:02Z</time>
      </trkpt>
      <trkpt lat="43.73606" lon="6.86359">
        <ele>1156.4</ele>
        <time>2021-05-02T11:07:08Z</time>
      </trkpt>
      <trkpt lat="43.73606" lon="6.86359">
        <ele>1156.4</ele>
        <time>2021-05-02T11:07:14Z</time>
      </trkpt>
      <trkpt lat="43.73606" lon="6.86359">
        <ele>1156.4</ele>
        <time>2021-05-02T11:07:20Z</time>
      </trkpt>
      <trkpt lat="43.73606" lon="6.86359">
        <ele>1156.4</ele>
        <time>2021-05-02T11:07:26Z</time>
      </trkpt>
      <trkpt lat="43.73606" lon="6.86359">
        <ele>1156.4</ele>
        <time>2021-05-02T11:07:31Z</time>
      </trkpt>
      <trkpt lat="43.73606" lon="6.86359">
        <ele>1156.4</ele>
        <time>2021-05-02T11:07:37Z</time>
      </trkpt>
      <trkpt lat="43.73606" lon="6.86359">
        <ele>1156.4</ele>
        <time>2021-05-02T11:07:42Z</time>
      </trkpt>
      <trkpt lat="43.73606" lon="6.86359">
        <ele>1156.4</ele>
        <time>2021-05-02T11:07:48Z</time>
      </trkpt>
      <trkpt lat="43.73606" lon="6.86359">
        <ele>1156.4</ele>
        <time>2021-05-02T11:07:54Z</time>
      </trkpt>
      <trkpt lat="43.73606" lon="6.86359">
        <ele>1156.4</ele>
        <time>2021-05-02T11:07:59Z</time>
      </trkpt>
      <trkpt lat="43.73606" lon="6.86359">
        <ele>1156.4</ele>
        <time>2021-05-02T11:08:05Z</time>
      </trkpt>
      <trkpt lat="43.73606" lon="6.86359">
        <ele>1156.4</ele>
        <time>2021-05-02T11:08:11Z</time>
      </trkpt>
      <trkpt lat="43.73606" lon="6.86359">
        <ele>1156.4</ele>
        <time>2021-05-02T11:08:17Z</time>
      </trkpt>
      <trkpt lat="43.73606" lon="6.86358">
        <ele>1156.7</ele>
        <time>2021-05-02T11:08:23Z</time>
      </trkpt>
      <trkpt lat="43.73606" lon="6.86358">
        <ele>1156.7</ele>
        <time>2021-05-02T11:08:28Z</time>
      </trkpt>
      <trkpt lat="43.73606" lon="6.86358">
        <ele>1156.7</ele>
        <time>2021-05-02T11:08:34Z</time>
      </trkpt>
      <trkpt lat="43.73606" lon="6.86358">
        <ele>1156.7</ele>
        <time>2021-05-02T11:08:39Z</time>
      </trkpt>
      <trkpt lat="43.73606" lon="6.86357">
        <ele>1156.8</ele>
        <time>2021-05-02T11:08:45Z</time>
      </trkpt>
      <trkpt lat="43.73605" lon="6.86354">
        <ele>1157.8</ele>
        <time>2021-05-02T11:08:50Z</time>
      </trkpt>
      <trkpt lat="43.73603" lon="6.86353">
        <ele>1158.3</ele>
        <time>2021-05-02T11:08:56Z</time>
      </trkpt>
      <trkpt lat="43.73601" lon="6.86351">
        <ele>1158.8</ele>
        <time>2021-05-02T11:09:01Z</time>
      </trkpt>
      <trkpt lat="43.73601" lon="6.86351">
        <ele>1158.8</ele>
        <time>2021-05-02T11:09:07Z</time>
      </trkpt>
      <trkpt lat="43.736" lon="6.8635">
        <ele>1159.3</ele>
        <time>2021-05-02T11:09:13Z</time>
      </trkpt>
      <trkpt lat="43.73598" lon="6.86346">
        <ele>1160.5</ele>
        <time>2021-05-02T11:09:19Z</time>
      </trkpt>
      <trkpt lat="43.73598" lon="6.86345">
        <ele>1160.9</ele>
        <time>2021-05-02T11:09:25Z</time>
      </trkpt>
      <trkpt lat="43.73598" lon="6.86345">
        <ele>1160.9</ele>
        <time>2021-05-02T11:09:31Z</time>
      </trkpt>
      <trkpt lat="43.73598" lon="6.86345">
        <ele>1160.9</ele>
        <time>2021-05-02T11:09:36Z</time>
      </trkpt>
      <trkpt lat="43.73598" lon="6.86345">
        <ele>1160.9</ele>
        <time>2021-05-02T11:09:42Z</time>
      </trkpt>
      <trkpt lat="43.73598" lon="6.86345">
        <ele>1160.9</ele>
        <time>2021-05-02T11:09:48Z</time>
      </trkpt>
      <trkpt lat="43.73598" lon="6.86345">
        <ele>1160.9</ele>
        <time>2021-05-02T11:09:54Z</time>
      </trkpt>
      <trkpt lat="43.73598" lon="6.86345">
        <ele>1160.9</ele>
        <time>2021-05-02T11:09:59Z</time>
      </trkpt>
      <trkpt lat="43.73598" lon="6.86345">
        <ele>1160.9</ele>
        <time>2021-05-02T11:10:05Z</time>
      </trkpt>
      <trkpt lat="43.73598" lon="6.86345">
        <ele>1160.9</ele>
        <time>2021-05-02T11:10:11Z</time>
      </trkpt>
      <trkpt lat="43.73598" lon="6.86345">
        <ele>1160.9</ele>
        <time>2021-05-02T11:10:17Z</time>
      </trkpt>
      <trkpt lat="43.73598" lon="6.86345">
        <ele>1160.9</ele>
        <time>2021-05-02T11:10:23Z</time>
      </trkpt>
      <trkpt lat="43.73598" lon="6.86345">
        <ele>1160.9</ele>
        <time>2021-05-02T11:10:28Z</time>
      </trkpt>
      <trkpt lat="43.73598" lon="6.86345">
        <ele>1160.9</ele>
        <time>2021-05-02T11:10:34Z</time>
      </trkpt>
      <trkpt lat="43.73598" lon="6.86345">
        <ele>1160.9</ele>
        <time>2021-05-02T11:10:40Z</time>
      </trkpt>
      <trkpt lat="43.73598" lon="6.86345">
        <ele>1160.9</ele>
        <time>2021-05-02T11:10:45Z</time>
      </trkpt>
      <trkpt lat="43.73598" lon="6.86345">
        <ele>1160.9</ele>
        <time>2021-05-02T11:10:51Z</time>
      </trkpt>
      <trkpt lat="43.73598" lon="6.86345">
        <ele>1160.9</ele>
        <time>2021-05-02T11:10:57Z</time>
      </trkpt>
      <trkpt lat="43.73598" lon="6.86345">
        <ele>1160.9</ele>
        <time>2021-05-02T11:11:03Z</time>
      </trkpt>
      <trkpt lat="43.73597" lon="6.86344">
        <ele>1161.2</ele>
        <time>2021-05-02T11:11:08Z</time>
      </trkpt>
      <trkpt lat="43.73596" lon="6.86341">
        <ele>1162.4</ele>
        <time>2021-05-02T11:11:14Z</time>
      </trkpt>
      <trkpt lat="43.73595" lon="6.86341">
        <ele>1162.3</ele>
        <time>2021-05-02T11:11:19Z</time>
      </trkpt>
      <trkpt lat="43.73595" lon="6.86341">
        <ele>1162.3</ele>
        <time>2021-05-02T11:11:24Z</time>
      </trkpt>
      <trkpt lat="43.73595" lon="6.86341">
        <ele>1162.3</ele>
        <time>2021-05-02T11:11:30Z</time>
      </trkpt>
      <trkpt lat="43.73595" lon="6.86341">
        <ele>1162.3</ele>
        <time>2021-05-02T11:11:35Z</time>
      </trkpt>
      <trkpt lat="43.73595" lon="6.86341">
        <ele>1162.3</ele>
        <time>2021-05-02T11:11:40Z</time>
      </trkpt>
      <trkpt lat="43.73595" lon="6.86341">
        <ele>1162.3</ele>
        <time>2021-05-02T11:11:45Z</time>
      </trkpt>
      <trkpt lat="43.73595" lon="6.86341">
        <ele>1162.3</ele>
        <time>2021-05-02T11:11:51Z</time>
      </trkpt>
      <trkpt lat="43.73595" lon="6.86341">
        <ele>1162.3</ele>
        <time>2021-05-02T11:11:56Z</time>
      </trkpt>
      <trkpt lat="43.73595" lon="6.86341">
        <ele>1162.2</ele>
        <time>2021-05-02T11:12:02Z</time>
      </trkpt>
      <trkpt lat="43.73594" lon="6.8634">
        <ele>1162.6</ele>
        <time>2021-05-02T11:12:08Z</time>
      </trkpt>
      <trkpt lat="43.73593" lon="6.86339">
        <ele>1163.1</ele>
        <time>2021-05-02T11:12:14Z</time>
      </trkpt>
      <trkpt lat="43.73592" lon="6.86336">
        <ele>1164.2</ele>
        <time>2021-05-02T11:12:19Z</time>
      </trkpt>
      <trkpt lat="43.7359" lon="6.86336">
        <ele>1164</ele>
        <time>2021-05-02T11:12:24Z</time>
      </trkpt>
      <trkpt lat="43.73589" lon="6.86336">
        <ele>1164.1</ele>
        <time>2021-05-02T11:12:30Z</time>
      </trkpt>
      <trkpt lat="43.73589" lon="6.86336">
        <ele>1164</ele>
        <time>2021-05-02T11:12:35Z</time>
      </trkpt>
      <trkpt lat="43.73587" lon="6.86334">
        <ele>1164.7</ele>
        <time>2021-05-02T11:12:41Z</time>
      </trkpt>
      <trkpt lat="43.73586" lon="6.86333">
        <ele>1165</ele>
        <time>2021-05-02T11:12:47Z</time>
      </trkpt>
      <trkpt lat="43.73585" lon="6.86333">
        <ele>1165.2</ele>
        <time>2021-05-02T11:12:52Z</time>
      </trkpt>
      <trkpt lat="43.73583" lon="6.8633">
        <ele>1165.9</ele>
        <time>2021-05-02T11:12:57Z</time>
      </trkpt>
      <trkpt lat="43.7358" lon="6.86327">
        <ele>1166</ele>
        <time>2021-05-02T11:13:02Z</time>
      </trkpt>
      <trkpt lat="43.73578" lon="6.86328">
        <ele>1164.9</ele>
        <time>2021-05-02T11:13:08Z</time>
      </trkpt>
      <trkpt lat="43.73578" lon="6.86324">
        <ele>1166.1</ele>
        <time>2021-05-02T11:13:13Z</time>
      </trkpt>
      <trkpt lat="43.73575" lon="6.86322">
        <ele>1165.9</ele>
        <time>2021-05-02T11:13:19Z</time>
      </trkpt>
      <trkpt lat="43.73572" lon="6.86316">
        <ele>1166.9</ele>
        <time>2021-05-02T11:13:25Z</time>
      </trkpt>
      <trkpt lat="43.7357" lon="6.86311">
        <ele>1167.8</ele>
        <time>2021-05-02T11:13:30Z</time>
      </trkpt>
      <trkpt lat="43.7357" lon="6.86306">
        <ele>1169.5</ele>
        <time>2021-05-02T11:13:35Z</time>
      </trkpt>
      <trkpt lat="43.73569" lon="6.86304">
        <ele>1169.7</ele>
        <time>2021-05-02T11:13:41Z</time>
      </trkpt>
      <trkpt lat="43.73567" lon="6.86298">
        <ele>1171.2</ele>
        <time>2021-05-02T11:13:47Z</time>
      </trkpt>
      <trkpt lat="43.73565" lon="6.86294">
        <ele>1172</ele>
        <time>2021-05-02T11:13:52Z</time>
      </trkpt>
      <trkpt lat="43.73564" lon="6.86289">
        <ele>1173.1</ele>
        <time>2021-05-02T11:13:58Z</time>
      </trkpt>
      <trkpt lat="43.73562" lon="6.86286">
        <ele>1173.3</ele>
        <time>2021-05-02T11:14:03Z</time>
      </trkpt>
      <trkpt lat="43.7356" lon="6.86284">
        <ele>1173.7</ele>
        <time>2021-05-02T11:14:09Z</time>
      </trkpt>
      <trkpt lat="43.7356" lon="6.86283">
        <ele>1174</ele>
        <time>2021-05-02T11:14:15Z</time>
      </trkpt>
      <trkpt lat="43.7356" lon="6.86283">
        <ele>1174</ele>
        <time>2021-05-02T11:14:21Z</time>
      </trkpt>
      <trkpt lat="43.7356" lon="6.86283">
        <ele>1174</ele>
        <time>2021-05-02T11:14:27Z</time>
      </trkpt>
      <trkpt lat="43.7356" lon="6.86283">
        <ele>1174</ele>
        <time>2021-05-02T11:14:32Z</time>
      </trkpt>
      <trkpt lat="43.7356" lon="6.86283">
        <ele>1174</ele>
        <time>2021-05-02T11:14:37Z</time>
      </trkpt>
      <trkpt lat="43.7356" lon="6.86283">
        <ele>1174</ele>
        <time>2021-05-02T11:14:43Z</time>
      </trkpt>
      <trkpt lat="43.7356" lon="6.86283">
        <ele>1174</ele>
        <time>2021-05-02T11:14:48Z</time>
      </trkpt>
      <trkpt lat="43.7356" lon="6.86283">
        <ele>1174</ele>
        <time>2021-05-02T11:14:54Z</time>
      </trkpt>
      <trkpt lat="43.7356" lon="6.86283">
        <ele>1174</ele>
        <time>2021-05-02T11:15:00Z</time>
      </trkpt>
      <trkpt lat="43.7356" lon="6.86283">
        <ele>1174</ele>
        <time>2021-05-02T11:15:06Z</time>
      </trkpt>
      <trkpt lat="43.7356" lon="6.86283">
        <ele>1174</ele>
        <time>2021-05-02T11:15:11Z</time>
      </trkpt>
      <trkpt lat="43.7356" lon="6.86283">
        <ele>1174</ele>
        <time>2021-05-02T11:15:17Z</time>
      </trkpt>
      <trkpt lat="43.7356" lon="6.86283">
        <ele>1174</ele>
        <time>2021-05-02T11:15:23Z</time>
      </trkpt>
      <trkpt lat="43.7356" lon="6.86283">
        <ele>1174</ele>
        <time>2021-05-02T11:15:29Z</time>
      </trkpt>
      <trkpt lat="43.7356" lon="6.86283">
        <ele>1174</ele>
        <time>2021-05-02T11:15:35Z</time>
      </trkpt>
      <trkpt lat="43.7356" lon="6.86283">
        <ele>1174</ele>
        <time>2021-05-02T11:15:40Z</time>
      </trkpt>
      <trkpt lat="43.73558" lon="6.8628">
        <ele>1174.5</ele>
        <time>2021-05-02T11:15:46Z</time>
      </trkpt>
      <trkpt lat="43.73558" lon="6.86272">
        <ele>1177.3</ele>
        <time>2021-05-02T11:15:52Z</time>
      </trkpt>
      <trkpt lat="43.73556" lon="6.86268">
        <ele>1178</ele>
        <time>2021-05-02T11:15:57Z</time>
      </trkpt>
      <trkpt lat="43.73554" lon="6.86265">
        <ele>1178.3</ele>
        <time>2021-05-02T11:16:02Z</time>
      </trkpt>
      <trkpt lat="43.73553" lon="6.86263">
        <ele>1178.7</ele>
        <time>2021-05-02T11:16:08Z</time>
      </trkpt>
      <trkpt lat="43.73551" lon="6.86261">
        <ele>1179</ele>
        <time>2021-05-02T11:16:13Z</time>
      </trkpt>
      <trkpt lat="43.73548" lon="6.86255">
        <ele>1180.1</ele>
        <time>2021-05-02T11:16:19Z</time>
      </trkpt>
      <trkpt lat="43.73548" lon="6.86249">
        <ele>1182</ele>
        <time>2021-05-02T11:16:24Z</time>
      </trkpt>
      <trkpt lat="43.73547" lon="6.86246">
        <ele>1182.8</ele>
        <time>2021-05-02T11:16:29Z</time>
      </trkpt>
      <trkpt lat="43.73547" lon="6.86244">
        <ele>1183.5</ele>
        <time>2021-05-02T11:16:35Z</time>
      </trkpt>
      <trkpt lat="43.73546" lon="6.8624">
        <ele>1184.5</ele>
        <time>2021-05-02T11:16:41Z</time>
      </trkpt>
      <trkpt lat="43.73545" lon="6.86237">
        <ele>1185.4</ele>
        <time>2021-05-02T11:16:46Z</time>
      </trkpt>
      <trkpt lat="43.73542" lon="6.86233">
        <ele>1186.1</ele>
        <time>2021-05-02T11:16:52Z</time>
      </trkpt>
      <trkpt lat="43.73542" lon="6.86229">
        <ele>1187.3</ele>
        <time>2021-05-02T11:16:57Z</time>
      </trkpt>
      <trkpt lat="43.7354" lon="6.86224">
        <ele>1188.5</ele>
        <time>2021-05-02T11:17:03Z</time>
      </trkpt>
      <trkpt lat="43.73539" lon="6.86222">
        <ele>1189.2</ele>
        <time>2021-05-02T11:17:08Z</time>
      </trkpt>
      <trkpt lat="43.73535" lon="6.86219">
        <ele>1189.3</ele>
        <time>2021-05-02T11:17:14Z</time>
      </trkpt>
      <trkpt lat="43.73533" lon="6.86217">
        <ele>1189.5</ele>
        <time>2021-05-02T11:17:19Z</time>
      </trkpt>
      <trkpt lat="43.73529" lon="6.86213">
        <ele>1190.3</ele>
        <time>2021-05-02T11:17:24Z</time>
      </trkpt>
      <trkpt lat="43.73527" lon="6.86206">
        <ele>1192.5</ele>
        <time>2021-05-02T11:17:30Z</time>
      </trkpt>
      <trkpt lat="43.73526" lon="6.86201">
        <ele>1194.2</ele>
        <time>2021-05-02T11:17:35Z</time>
      </trkpt>
      <trkpt lat="43.73525" lon="6.86198">
        <ele>1194.9</ele>
        <time>2021-05-02T11:17:41Z</time>
      </trkpt>
      <trkpt lat="43.73524" lon="6.86194">
        <ele>1196.4</ele>
        <time>2021-05-02T11:17:46Z</time>
      </trkpt>
      <trkpt lat="43.73523" lon="6.86191">
        <ele>1197.2</ele>
        <time>2021-05-02T11:17:51Z</time>
      </trkpt>
      <trkpt lat="43.7352" lon="6.86189">
        <ele>1197.4</ele>
        <time>2021-05-02T11:17:56Z</time>
      </trkpt>
      <trkpt lat="43.73519" lon="6.86186">
        <ele>1198.5</ele>
        <time>2021-05-02T11:18:02Z</time>
      </trkpt>
      <trkpt lat="43.73518" lon="6.86181">
        <ele>1200</ele>
        <time>2021-05-02T11:18:08Z</time>
      </trkpt>
      <trkpt lat="43.73517" lon="6.86178">
        <ele>1201</ele>
        <time>2021-05-02T11:18:14Z</time>
      </trkpt>
      <trkpt lat="43.73517" lon="6.86177">
        <ele>1201.6</ele>
        <time>2021-05-02T11:18:19Z</time>
      </trkpt>
      <trkpt lat="43.73516" lon="6.86174">
        <ele>1202.3</ele>
        <time>2021-05-02T11:18:25Z</time>
      </trkpt>
      <trkpt lat="43.73516" lon="6.86171">
        <ele>1203.5</ele>
        <time>2021-05-02T11:18:30Z</time>
      </trkpt>
      <trkpt lat="43.73516" lon="6.8617">
        <ele>1203.8</ele>
        <time>2021-05-02T11:18:35Z</time>
      </trkpt>
      <trkpt lat="43.73516" lon="6.8617">
        <ele>1203.8</ele>
        <time>2021-05-02T11:18:41Z</time>
      </trkpt>
      <trkpt lat="43.73516" lon="6.8617">
        <ele>1203.8</ele>
        <time>2021-05-02T11:18:46Z</time>
      </trkpt>
      <trkpt lat="43.73516" lon="6.86169">
        <ele>1204.4</ele>
        <time>2021-05-02T11:18:51Z</time>
      </trkpt>
      <trkpt lat="43.73515" lon="6.86166">
        <ele>1205.4</ele>
        <time>2021-05-02T11:18:57Z</time>
      </trkpt>
      <trkpt lat="43.73513" lon="6.86164">
        <ele>1205.9</ele>
        <time>2021-05-02T11:19:03Z</time>
      </trkpt>
      <trkpt lat="43.73511" lon="6.86162">
        <ele>1206.3</ele>
        <time>2021-05-02T11:19:09Z</time>
      </trkpt>
      <trkpt lat="43.7351" lon="6.86161">
        <ele>1206.6</ele>
        <time>2021-05-02T11:19:14Z</time>
      </trkpt>
      <trkpt lat="43.73508" lon="6.86159">
        <ele>1207.4</ele>
        <time>2021-05-02T11:19:19Z</time>
      </trkpt>
      <trkpt lat="43.73509" lon="6.86158">
        <ele>1207.9</ele>
        <time>2021-05-02T11:19:25Z</time>
      </trkpt>
      <trkpt lat="43.73509" lon="6.86158">
        <ele>1207.9</ele>
        <time>2021-05-02T11:19:30Z</time>
      </trkpt>
      <trkpt lat="43.73509" lon="6.86158">
        <ele>1207.9</ele>
        <time>2021-05-02T11:19:35Z</time>
      </trkpt>
      <trkpt lat="43.73509" lon="6.86158">
        <ele>1207.9</ele>
        <time>2021-05-02T11:19:41Z</time>
      </trkpt>
      <trkpt lat="43.73509" lon="6.86158">
        <ele>1207.9</ele>
        <time>2021-05-02T11:19:47Z</time>
      </trkpt>
      <trkpt lat="43.73509" lon="6.86158">
        <ele>1207.9</ele>
        <time>2021-05-02T11:19:52Z</time>
      </trkpt>
      <trkpt lat="43.73509" lon="6.86158">
        <ele>1207.9</ele>
        <time>2021-05-02T11:19:57Z</time>
      </trkpt>
      <trkpt lat="43.73509" lon="6.86158">
        <ele>1207.9</ele>
        <time>2021-05-02T11:20:03Z</time>
      </trkpt>
      <trkpt lat="43.73509" lon="6.86158">
        <ele>1207.9</ele>
        <time>2021-05-02T11:20:08Z</time>
      </trkpt>
      <trkpt lat="43.73509" lon="6.86158">
        <ele>1207.9</ele>
        <time>2021-05-02T11:20:14Z</time>
      </trkpt>
      <trkpt lat="43.73509" lon="6.86158">
        <ele>1208</ele>
        <time>2021-05-02T11:20:19Z</time>
      </trkpt>
      <trkpt lat="43.73509" lon="6.86158">
        <ele>1208</ele>
        <time>2021-05-02T11:20:24Z</time>
      </trkpt>
      <trkpt lat="43.73514" lon="6.86147">
        <ele>1212.9</ele>
        <time>2021-05-02T11:20:30Z</time>
      </trkpt>
      <trkpt lat="43.73515" lon="6.86147">
        <ele>1213.3</ele>
        <time>2021-05-02T11:20:35Z</time>
      </trkpt>
      <trkpt lat="43.73516" lon="6.86148">
        <ele>1213</ele>
        <time>2021-05-02T11:20:40Z</time>
      </trkpt>
      <trkpt lat="43.73516" lon="6.86148">
        <ele>1212.6</ele>
        <time>2021-05-02T11:20:46Z</time>
      </trkpt>
      <trkpt lat="43.73516" lon="6.86149">
        <ele>1212.6</ele>
        <time>2021-05-02T11:20:51Z</time>
      </trkpt>
      <trkpt lat="43.73515" lon="6.86148">
        <ele>1212.7</ele>
        <time>2021-05-02T11:20:57Z</time>
      </trkpt>
      <trkpt lat="43.73516" lon="6.86149">
        <ele>1212.5</ele>
        <time>2021-05-02T11:21:03Z</time>
      </trkpt>
      <trkpt lat="43.73516" lon="6.86149">
        <ele>1212.5</ele>
        <time>2021-05-02T11:21:09Z</time>
      </trkpt>
      <trkpt lat="43.73516" lon="6.86149">
        <ele>1212.5</ele>
        <time>2021-05-02T11:21:14Z</time>
      </trkpt>
      <trkpt lat="43.73516" lon="6.86149">
        <ele>1212.5</ele>
        <time>2021-05-02T11:21:19Z</time>
      </trkpt>
      <trkpt lat="43.73516" lon="6.86149">
        <ele>1212.5</ele>
        <time>2021-05-02T11:21:25Z</time>
      </trkpt>
      <trkpt lat="43.73515" lon="6.86149">
        <ele>1212.5</ele>
        <time>2021-05-02T11:21:31Z</time>
      </trkpt>
      <trkpt lat="43.73515" lon="6.86149">
        <ele>1212.5</ele>
        <time>2021-05-02T11:21:36Z</time>
      </trkpt>
      <trkpt lat="43.73515" lon="6.86149">
        <ele>1212.5</ele>
        <time>2021-05-02T11:21:41Z</time>
      </trkpt>
      <trkpt lat="43.73512" lon="6.86152">
        <ele>1210.7</ele>
        <time>2021-05-02T11:21:47Z</time>
      </trkpt>
      <trkpt lat="43.73508" lon="6.86157">
        <ele>1208.1</ele>
        <time>2021-05-02T11:21:53Z</time>
      </trkpt>
      <trkpt lat="43.73506" lon="6.86157">
        <ele>1207.9</ele>
        <time>2021-05-02T11:21:58Z</time>
      </trkpt>
      <trkpt lat="43.73502" lon="6.86156">
        <ele>1207.6</ele>
        <time>2021-05-02T11:22:03Z</time>
      </trkpt>
      <trkpt lat="43.73498" lon="6.86157">
        <ele>1206.9</ele>
        <time>2021-05-02T11:22:08Z</time>
      </trkpt>
      <trkpt lat="43.73496" lon="6.86156">
        <ele>1207</ele>
        <time>2021-05-02T11:22:14Z</time>
      </trkpt>
      <trkpt lat="43.73495" lon="6.86157">
        <ele>1206.4</ele>
        <time>2021-05-02T11:22:20Z</time>
      </trkpt>
      <trkpt lat="43.73495" lon="6.86156">
        <ele>1206.8</ele>
        <time>2021-05-02T11:22:25Z</time>
      </trkpt>
      <trkpt lat="43.73495" lon="6.86156">
        <ele>1206.8</ele>
        <time>2021-05-02T11:22:31Z</time>
      </trkpt>
      <trkpt lat="43.73495" lon="6.86156">
        <ele>1206.8</ele>
        <time>2021-05-02T11:22:36Z</time>
      </trkpt>
      <trkpt lat="43.73494" lon="6.86156">
        <ele>1206.9</ele>
        <time>2021-05-02T11:22:41Z</time>
      </trkpt>
      <trkpt lat="43.73495" lon="6.86155">
        <ele>1207</ele>
        <time>2021-05-02T11:22:47Z</time>
      </trkpt>
      <trkpt lat="43.73495" lon="6.86156">
        <ele>1207</ele>
        <time>2021-05-02T11:22:52Z</time>
      </trkpt>
      <trkpt lat="43.73492" lon="6.86155">
        <ele>1206.9</ele>
        <time>2021-05-02T11:22:57Z</time>
      </trkpt>
      <trkpt lat="43.73488" lon="6.86157">
        <ele>1205.3</ele>
        <time>2021-05-02T11:23:03Z</time>
      </trkpt>
      <trkpt lat="43.73483" lon="6.86154">
        <ele>1206.1</ele>
        <time>2021-05-02T11:23:09Z</time>
      </trkpt>
      <trkpt lat="43.73479" lon="6.86153">
        <ele>1206</ele>
        <time>2021-05-02T11:23:15Z</time>
      </trkpt>
      <trkpt lat="43.73475" lon="6.86153">
        <ele>1205.2</ele>
        <time>2021-05-02T11:23:20Z</time>
      </trkpt>
      <trkpt lat="43.73471" lon="6.86155">
        <ele>1204.2</ele>
        <time>2021-05-02T11:23:26Z</time>
      </trkpt>
      <trkpt lat="43.7347" lon="6.86151">
        <ele>1205.4</ele>
        <time>2021-05-02T11:23:31Z</time>
      </trkpt>
      <trkpt lat="43.73467" lon="6.86146">
        <ele>1207.3</ele>
        <time>2021-05-02T11:23:37Z</time>
      </trkpt>
      <trkpt lat="43.73465" lon="6.86144">
        <ele>1208</ele>
        <time>2021-05-02T11:23:42Z</time>
      </trkpt>
      <trkpt lat="43.73463" lon="6.86142">
        <ele>1208.6</ele>
        <time>2021-05-02T11:23:48Z</time>
      </trkpt>
      <trkpt lat="43.7346" lon="6.8614">
        <ele>1208.9</ele>
        <time>2021-05-02T11:23:53Z</time>
      </trkpt>
      <trkpt lat="43.73458" lon="6.86137">
        <ele>1209.7</ele>
        <time>2021-05-02T11:23:58Z</time>
      </trkpt>
      <trkpt lat="43.73455" lon="6.86136">
        <ele>1210</ele>
        <time>2021-05-02T11:24:03Z</time>
      </trkpt>
      <trkpt lat="43.73451" lon="6.86133">
        <ele>1210.7</ele>
        <time>2021-05-02T11:24:09Z</time>
      </trkpt>
      <trkpt lat="43.73449" lon="6.86132">
        <ele>1210.7</ele>
        <time>2021-05-02T11:24:14Z</time>
      </trkpt>
      <trkpt lat="43.73447" lon="6.86134">
        <ele>1209.8</ele>
        <time>2021-05-02T11:24:20Z</time>
      </trkpt>
      <trkpt lat="43.73447" lon="6.86134">
        <ele>1209.6</ele>
        <time>2021-05-02T11:24:26Z</time>
      </trkpt>
      <trkpt lat="43.73447" lon="6.86133">
        <ele>1209.9</ele>
        <time>2021-05-02T11:24:31Z</time>
      </trkpt>
      <trkpt lat="43.73447" lon="6.86133">
        <ele>1210</ele>
        <time>2021-05-02T11:24:37Z</time>
      </trkpt>
      <trkpt lat="43.73446" lon="6.86132">
        <ele>1210.3</ele>
        <time>2021-05-02T11:24:42Z</time>
      </trkpt>
      <trkpt lat="43.73446" lon="6.86132">
        <ele>1210.3</ele>
        <time>2021-05-02T11:24:48Z</time>
      </trkpt>
      <trkpt lat="43.73446" lon="6.86132">
        <ele>1210.3</ele>
        <time>2021-05-02T11:24:54Z</time>
      </trkpt>
      <trkpt lat="43.73446" lon="6.86132">
        <ele>1210.3</ele>
        <time>2021-05-02T11:24:59Z</time>
      </trkpt>
      <trkpt lat="43.73446" lon="6.86132">
        <ele>1210.3</ele>
        <time>2021-05-02T11:25:04Z</time>
      </trkpt>
      <trkpt lat="43.73446" lon="6.86133">
        <ele>1210.3</ele>
        <time>2021-05-02T11:25:10Z</time>
      </trkpt>
      <trkpt lat="43.73446" lon="6.86132">
        <ele>1210.3</ele>
        <time>2021-05-02T11:25:15Z</time>
      </trkpt>
      <trkpt lat="43.73446" lon="6.86132">
        <ele>1210.3</ele>
        <time>2021-05-02T11:25:20Z</time>
      </trkpt>
      <trkpt lat="43.73446" lon="6.86132">
        <ele>1210.3</ele>
        <time>2021-05-02T11:25:26Z</time>
      </trkpt>
      <trkpt lat="43.73446" lon="6.86132">
        <ele>1210.3</ele>
        <time>2021-05-02T11:25:31Z</time>
      </trkpt>
      <trkpt lat="43.73446" lon="6.86132">
        <ele>1210.3</ele>
        <time>2021-05-02T11:25:36Z</time>
      </trkpt>
      <trkpt lat="43.73447" lon="6.86132">
        <ele>1210.3</ele>
        <time>2021-05-02T11:25:41Z</time>
      </trkpt>
      <trkpt lat="43.73447" lon="6.86132">
        <ele>1210.3</ele>
        <time>2021-05-02T11:25:47Z</time>
      </trkpt>
      <trkpt lat="43.73447" lon="6.86132">
        <ele>1210.3</ele>
        <time>2021-05-02T11:25:52Z</time>
      </trkpt>
      <trkpt lat="43.73447" lon="6.86132">
        <ele>1210.3</ele>
        <time>2021-05-02T11:25:58Z</time>
      </trkpt>
      <trkpt lat="43.73447" lon="6.86132">
        <ele>1210.3</ele>
        <time>2021-05-02T11:26:04Z</time>
      </trkpt>
      <trkpt lat="43.73447" lon="6.86132">
        <ele>1210.3</ele>
        <time>2021-05-02T11:26:09Z</time>
      </trkpt>
      <trkpt lat="43.73447" lon="6.86132">
        <ele>1210.3</ele>
        <time>2021-05-02T11:26:14Z</time>
      </trkpt>
      <trkpt lat="43.73447" lon="6.86132">
        <ele>1210.3</ele>
        <time>2021-05-02T11:26:20Z</time>
      </trkpt>
      <trkpt lat="43.73447" lon="6.86132">
        <ele>1210.3</ele>
        <time>2021-05-02T11:26:26Z</time>
      </trkpt>
      <trkpt lat="43.73447" lon="6.86132">
        <ele>1210.3</ele>
        <time>2021-05-02T11:26:31Z</time>
      </trkpt>
      <trkpt lat="43.73447" lon="6.86132">
        <ele>1210.4</ele>
        <time>2021-05-02T11:26:37Z</time>
      </trkpt>
      <trkpt lat="43.73447" lon="6.86132">
        <ele>1210.4</ele>
        <time>2021-05-02T11:26:42Z</time>
      </trkpt>
      <trkpt lat="43.73447" lon="6.86132">
        <ele>1210.4</ele>
        <time>2021-05-02T11:26:48Z</time>
      </trkpt>
      <trkpt lat="43.73447" lon="6.86132">
        <ele>1210.4</ele>
        <time>2021-05-02T11:26:53Z</time>
      </trkpt>
      <trkpt lat="43.73447" lon="6.86132">
        <ele>1210.4</ele>
        <time>2021-05-02T11:26:58Z</time>
      </trkpt>
      <trkpt lat="43.73447" lon="6.86132">
        <ele>1210.6</ele>
        <time>2021-05-02T11:27:04Z</time>
      </trkpt>
      <trkpt lat="43.73447" lon="6.86132">
        <ele>1210.6</ele>
        <time>2021-05-02T11:27:09Z</time>
      </trkpt>
      <trkpt lat="43.73446" lon="6.86129">
        <ele>1211.7</ele>
        <time>2021-05-02T11:27:15Z</time>
      </trkpt>
      <trkpt lat="43.73443" lon="6.86124">
        <ele>1213.5</ele>
        <time>2021-05-02T11:27:21Z</time>
      </trkpt>
      <trkpt lat="43.73441" lon="6.86123">
        <ele>1213.5</ele>
        <time>2021-05-02T11:27:27Z</time>
      </trkpt>
      <trkpt lat="43.73439" lon="6.86122">
        <ele>1213.8</ele>
        <time>2021-05-02T11:27:33Z</time>
      </trkpt>
      <trkpt lat="43.73437" lon="6.86119">
        <ele>1214.7</ele>
        <time>2021-05-02T11:27:38Z</time>
      </trkpt>
      <trkpt lat="43.73435" lon="6.86118">
        <ele>1215.1</ele>
        <time>2021-05-02T11:27:44Z</time>
      </trkpt>
      <trkpt lat="43.73433" lon="6.86115">
        <ele>1215.8</ele>
        <time>2021-05-02T11:27:49Z</time>
      </trkpt>
      <trkpt lat="43.73431" lon="6.86116">
        <ele>1215.2</ele>
        <time>2021-05-02T11:27:54Z</time>
      </trkpt>
      <trkpt lat="43.73428" lon="6.86112">
        <ele>1216.3</ele>
        <time>2021-05-02T11:28:00Z</time>
      </trkpt>
      <trkpt lat="43.73425" lon="6.86109">
        <ele>1217.2</ele>
        <time>2021-05-02T11:28:06Z</time>
      </trkpt>
      <trkpt lat="43.73422" lon="6.86109">
        <ele>1217.1</ele>
        <time>2021-05-02T11:28:11Z</time>
      </trkpt>
      <trkpt lat="43.73419" lon="6.86107">
        <ele>1217.2</ele>
        <time>2021-05-02T11:28:16Z</time>
      </trkpt>
      <trkpt lat="43.73418" lon="6.86106">
        <ele>1217.6</ele>
        <time>2021-05-02T11:28:21Z</time>
      </trkpt>
      <trkpt lat="43.73416" lon="6.86104">
        <ele>1218.3</ele>
        <time>2021-05-02T11:28:27Z</time>
      </trkpt>
      <trkpt lat="43.73415" lon="6.86103">
        <ele>1218.2</ele>
        <time>2021-05-02T11:28:33Z</time>
      </trkpt>
      <trkpt lat="43.73414" lon="6.861">
        <ele>1219</ele>
        <time>2021-05-02T11:28:38Z</time>
      </trkpt>
      <trkpt lat="43.73414" lon="6.86098">
        <ele>1219.9</ele>
        <time>2021-05-02T11:28:44Z</time>
      </trkpt>
      <trkpt lat="43.73412" lon="6.86098">
        <ele>1219.3</ele>
        <time>2021-05-02T11:28:49Z</time>
      </trkpt>
      <trkpt lat="43.7341" lon="6.86094">
        <ele>1219.8</ele>
        <time>2021-05-02T11:28:55Z</time>
      </trkpt>
      <trkpt lat="43.73408" lon="6.86091">
        <ele>1220.3</ele>
        <time>2021-05-02T11:29:00Z</time>
      </trkpt>
      <trkpt lat="43.73405" lon="6.86088">
        <ele>1220.1</ele>
        <time>2021-05-02T11:29:06Z</time>
      </trkpt>
      <trkpt lat="43.73403" lon="6.86086">
        <ele>1220.2</ele>
        <time>2021-05-02T11:29:11Z</time>
      </trkpt>
      <trkpt lat="43.73399" lon="6.86085">
        <ele>1219.3</ele>
        <time>2021-05-02T11:29:17Z</time>
      </trkpt>
      <trkpt lat="43.73399" lon="6.86085">
        <ele>1219.2</ele>
        <time>2021-05-02T11:29:22Z</time>
      </trkpt>
      <trkpt lat="43.73398" lon="6.86083">
        <ele>1219.3</ele>
        <time>2021-05-02T11:29:27Z</time>
      </trkpt>
      <trkpt lat="43.73398" lon="6.86082">
        <ele>1219.4</ele>
        <time>2021-05-02T11:29:33Z</time>
      </trkpt>
      <trkpt lat="43.73397" lon="6.86081">
        <ele>1219.3</ele>
        <time>2021-05-02T11:29:38Z</time>
      </trkpt>
      <trkpt lat="43.73395" lon="6.86077">
        <ele>1219.5</ele>
        <time>2021-05-02T11:29:43Z</time>
      </trkpt>
      <trkpt lat="43.73394" lon="6.86075">
        <ele>1219.8</ele>
        <time>2021-05-02T11:29:49Z</time>
      </trkpt>
      <trkpt lat="43.73391" lon="6.86072">
        <ele>1219.3</ele>
        <time>2021-05-02T11:29:55Z</time>
      </trkpt>
      <trkpt lat="43.73391" lon="6.8607">
        <ele>1219.7</ele>
        <time>2021-05-02T11:30:00Z</time>
      </trkpt>
      <trkpt lat="43.73391" lon="6.86069">
        <ele>1219.6</ele>
        <time>2021-05-02T11:30:06Z</time>
      </trkpt>
      <trkpt lat="43.73389" lon="6.86067">
        <ele>1219.6</ele>
        <time>2021-05-02T11:30:11Z</time>
      </trkpt>
      <trkpt lat="43.73389" lon="6.86064">
        <ele>1220.1</ele>
        <time>2021-05-02T11:30:17Z</time>
      </trkpt>
      <trkpt lat="43.73388" lon="6.8606">
        <ele>1220.5</ele>
        <time>2021-05-02T11:30:23Z</time>
      </trkpt>
      <trkpt lat="43.73386" lon="6.86055">
        <ele>1220.9</ele>
        <time>2021-05-02T11:30:29Z</time>
      </trkpt>
      <trkpt lat="43.73388" lon="6.8605">
        <ele>1222.9</ele>
        <time>2021-05-02T11:30:34Z</time>
      </trkpt>
      <trkpt lat="43.73388" lon="6.8605">
        <ele>1222.9</ele>
        <time>2021-05-02T11:30:39Z</time>
      </trkpt>
      <trkpt lat="43.73388" lon="6.8605">
        <ele>1222.9</ele>
        <time>2021-05-02T11:30:45Z</time>
      </trkpt>
      <trkpt lat="43.73388" lon="6.8605">
        <ele>1222.9</ele>
        <time>2021-05-02T11:30:51Z</time>
      </trkpt>
      <trkpt lat="43.73388" lon="6.8605">
        <ele>1222.9</ele>
        <time>2021-05-02T11:30:56Z</time>
      </trkpt>
      <trkpt lat="43.73388" lon="6.8605">
        <ele>1222.9</ele>
        <time>2021-05-02T11:31:02Z</time>
      </trkpt>
      <trkpt lat="43.73388" lon="6.8605">
        <ele>1222.9</ele>
        <time>2021-05-02T11:31:08Z</time>
      </trkpt>
      <trkpt lat="43.73388" lon="6.8605">
        <ele>1222.9</ele>
        <time>2021-05-02T11:31:14Z</time>
      </trkpt>
      <trkpt lat="43.73388" lon="6.8605">
        <ele>1222.9</ele>
        <time>2021-05-02T11:31:19Z</time>
      </trkpt>
      <trkpt lat="43.73388" lon="6.8605">
        <ele>1222.9</ele>
        <time>2021-05-02T11:31:24Z</time>
      </trkpt>
      <trkpt lat="43.73388" lon="6.8605">
        <ele>1222.9</ele>
        <time>2021-05-02T11:31:30Z</time>
      </trkpt>
      <trkpt lat="43.73388" lon="6.8605">
        <ele>1222.9</ele>
        <time>2021-05-02T11:31:35Z</time>
      </trkpt>
      <trkpt lat="43.73388" lon="6.8605">
        <ele>1222.9</ele>
        <time>2021-05-02T11:31:41Z</time>
      </trkpt>
      <trkpt lat="43.73388" lon="6.8605">
        <ele>1222.9</ele>
        <time>2021-05-02T11:31:47Z</time>
      </trkpt>
      <trkpt lat="43.73388" lon="6.8605">
        <ele>1222.9</ele>
        <time>2021-05-02T11:31:52Z</time>
      </trkpt>
      <trkpt lat="43.73387" lon="6.8605">
        <ele>1222.9</ele>
        <time>2021-05-02T11:31:58Z</time>
      </trkpt>
      <trkpt lat="43.73387" lon="6.8605">
        <ele>1222.9</ele>
        <time>2021-05-02T11:32:04Z</time>
      </trkpt>
      <trkpt lat="43.73387" lon="6.8605">
        <ele>1222.9</ele>
        <time>2021-05-02T11:32:10Z</time>
      </trkpt>
      <trkpt lat="43.73387" lon="6.8605">
        <ele>1222.9</ele>
        <time>2021-05-02T11:32:15Z</time>
      </trkpt>
      <trkpt lat="43.73387" lon="6.8605">
        <ele>1222.9</ele>
        <time>2021-05-02T11:32:21Z</time>
      </trkpt>
      <trkpt lat="43.73387" lon="6.86049">
        <ele>1222.7</ele>
        <time>2021-05-02T11:32:27Z</time>
      </trkpt>
      <trkpt lat="43.73386" lon="6.86049">
        <ele>1222.7</ele>
        <time>2021-05-02T11:32:32Z</time>
      </trkpt>
      <trkpt lat="43.73386" lon="6.86049">
        <ele>1222.7</ele>
        <time>2021-05-02T11:32:37Z</time>
      </trkpt>
      <trkpt lat="43.73386" lon="6.86049">
        <ele>1222.7</ele>
        <time>2021-05-02T11:32:43Z</time>
      </trkpt>
      <trkpt lat="43.73386" lon="6.86049">
        <ele>1222.7</ele>
        <time>2021-05-02T11:32:49Z</time>
      </trkpt>
      <trkpt lat="43.73386" lon="6.86049">
        <ele>1222.7</ele>
        <time>2021-05-02T11:32:55Z</time>
      </trkpt>
      <trkpt lat="43.73386" lon="6.86049">
        <ele>1222.7</ele>
        <time>2021-05-02T11:33:00Z</time>
      </trkpt>
      <trkpt lat="43.73386" lon="6.86049">
        <ele>1222.7</ele>
        <time>2021-05-02T11:33:06Z</time>
      </trkpt>
      <trkpt lat="43.73386" lon="6.86049">
        <ele>1222.7</ele>
        <time>2021-05-02T11:33:11Z</time>
      </trkpt>
      <trkpt lat="43.73386" lon="6.86049">
        <ele>1222.7</ele>
        <time>2021-05-02T11:33:17Z</time>
      </trkpt>
      <trkpt lat="43.73386" lon="6.86049">
        <ele>1222.7</ele>
        <time>2021-05-02T11:33:23Z</time>
      </trkpt>
      <trkpt lat="43.73386" lon="6.86047">
        <ele>1223.1</ele>
        <time>2021-05-02T11:33:29Z</time>
      </trkpt>
      <trkpt lat="43.73388" lon="6.86044">
        <ele>1224.5</ele>
        <time>2021-05-02T11:33:34Z</time>
      </trkpt>
      <trkpt lat="43.73389" lon="6.86042">
        <ele>1226</ele>
        <time>2021-05-02T11:33:39Z</time>
      </trkpt>
      <trkpt lat="43.73393" lon="6.86039">
        <ele>1228.5</ele>
        <time>2021-05-02T11:33:45Z</time>
      </trkpt>
      <trkpt lat="43.73395" lon="6.86039">
        <ele>1229.4</ele>
        <time>2021-05-02T11:33:50Z</time>
      </trkpt>
      <trkpt lat="43.73396" lon="6.8604">
        <ele>1229.9</ele>
        <time>2021-05-02T11:33:56Z</time>
      </trkpt>
      <trkpt lat="43.73396" lon="6.8604">
        <ele>1229.6</ele>
        <time>2021-05-02T11:34:01Z</time>
      </trkpt>
      <trkpt lat="43.73395" lon="6.8604">
        <ele>1229.1</ele>
        <time>2021-05-02T11:34:07Z</time>
      </trkpt>
      <trkpt lat="43.73395" lon="6.86041">
        <ele>1228.9</ele>
        <time>2021-05-02T11:34:13Z</time>
      </trkpt>
      <trkpt lat="43.73395" lon="6.86042">
        <ele>1228.6</ele>
        <time>2021-05-02T11:34:19Z</time>
      </trkpt>
      <trkpt lat="43.73395" lon="6.86042">
        <ele>1228.6</ele>
        <time>2021-05-02T11:34:24Z</time>
      </trkpt>
      <trkpt lat="43.73395" lon="6.86042">
        <ele>1228.4</ele>
        <time>2021-05-02T11:34:30Z</time>
      </trkpt>
      <trkpt lat="43.73395" lon="6.86043">
        <ele>1228.7</ele>
        <time>2021-05-02T11:34:36Z</time>
      </trkpt>
      <trkpt lat="43.73395" lon="6.86048">
        <ele>1227.5</ele>
        <time>2021-05-02T11:34:41Z</time>
      </trkpt>
      <trkpt lat="43.73396" lon="6.86048">
        <ele>1227.4</ele>
        <time>2021-05-02T11:34:47Z</time>
      </trkpt>
      <trkpt lat="43.73395" lon="6.86048">
        <ele>1227.4</ele>
        <time>2021-05-02T11:34:52Z</time>
      </trkpt>
      <trkpt lat="43.73395" lon="6.86048">
        <ele>1227.5</ele>
        <time>2021-05-02T11:34:58Z</time>
      </trkpt>
      <trkpt lat="43.73395" lon="6.86047">
        <ele>1227.6</ele>
        <time>2021-05-02T11:35:04Z</time>
      </trkpt>
      <trkpt lat="43.73395" lon="6.86048">
        <ele>1227.5</ele>
        <time>2021-05-02T11:35:09Z</time>
      </trkpt>
      <trkpt lat="43.73395" lon="6.86048">
        <ele>1227.5</ele>
        <time>2021-05-02T11:35:15Z</time>
      </trkpt>
      <trkpt lat="43.73395" lon="6.86048">
        <ele>1227.5</ele>
        <time>2021-05-02T11:35:20Z</time>
      </trkpt>
      <trkpt lat="43.73395" lon="6.86048">
        <ele>1227.5</ele>
        <time>2021-05-02T11:35:26Z</time>
      </trkpt>
      <trkpt lat="43.73395" lon="6.86048">
        <ele>1227.5</ele>
        <time>2021-05-02T11:35:31Z</time>
      </trkpt>
      <trkpt lat="43.73395" lon="6.86048">
        <ele>1227.5</ele>
        <time>2021-05-02T11:35:37Z</time>
      </trkpt>
      <trkpt lat="43.73395" lon="6.86048">
        <ele>1227.5</ele>
        <time>2021-05-02T11:35:43Z</time>
      </trkpt>
      <trkpt lat="43.73395" lon="6.86048">
        <ele>1227.5</ele>
        <time>2021-05-02T11:35:48Z</time>
      </trkpt>
      <trkpt lat="43.73395" lon="6.86048">
        <ele>1227.5</ele>
        <time>2021-05-02T11:35:54Z</time>
      </trkpt>
      <trkpt lat="43.73395" lon="6.86047">
        <ele>1227.5</ele>
        <time>2021-05-02T11:35:59Z</time>
      </trkpt>
      <trkpt lat="43.73395" lon="6.86047">
        <ele>1227.5</ele>
        <time>2021-05-02T11:36:05Z</time>
      </trkpt>
      <trkpt lat="43.73395" lon="6.86047">
        <ele>1227.5</ele>
        <time>2021-05-02T11:36:11Z</time>
      </trkpt>
      <trkpt lat="43.73395" lon="6.86047">
        <ele>1227.5</ele>
        <time>2021-05-02T11:36:17Z</time>
      </trkpt>
      <trkpt lat="43.73395" lon="6.86047">
        <ele>1227.5</ele>
        <time>2021-05-02T11:36:22Z</time>
      </trkpt>
      <trkpt lat="43.73395" lon="6.86048">
        <ele>1227.5</ele>
        <time>2021-05-02T11:36:27Z</time>
      </trkpt>
      <trkpt lat="43.73395" lon="6.86047">
        <ele>1227.5</ele>
        <time>2021-05-02T11:36:33Z</time>
      </trkpt>
      <trkpt lat="43.73395" lon="6.86048">
        <ele>1227.5</ele>
        <time>2021-05-02T11:36:39Z</time>
      </trkpt>
      <trkpt lat="43.73395" lon="6.86047">
        <ele>1227.5</ele>
        <time>2021-05-02T11:36:45Z</time>
      </trkpt>
      <trkpt lat="43.73395" lon="6.86047">
        <ele>1227.5</ele>
        <time>2021-05-02T11:36:51Z</time>
      </trkpt>
      <trkpt lat="43.73395" lon="6.86047">
        <ele>1227.5</ele>
        <time>2021-05-02T11:36:57Z</time>
      </trkpt>
      <trkpt lat="43.73395" lon="6.86047">
        <ele>1227.5</ele>
        <time>2021-05-02T11:37:02Z</time>
      </trkpt>
      <trkpt lat="43.73395" lon="6.86047">
        <ele>1227.5</ele>
        <time>2021-05-02T11:37:08Z</time>
      </trkpt>
      <trkpt lat="43.73395" lon="6.86047">
        <ele>1227.5</ele>
        <time>2021-05-02T11:37:14Z</time>
      </trkpt>
      <trkpt lat="43.73395" lon="6.86047">
        <ele>1227.5</ele>
        <time>2021-05-02T11:37:20Z</time>
      </trkpt>
      <trkpt lat="43.73395" lon="6.86047">
        <ele>1227.5</ele>
        <time>2021-05-02T11:37:26Z</time>
      </trkpt>
      <trkpt lat="43.73395" lon="6.86047">
        <ele>1227.5</ele>
        <time>2021-05-02T11:37:31Z</time>
      </trkpt>
      <trkpt lat="43.73395" lon="6.86047">
        <ele>1227.5</ele>
        <time>2021-05-02T11:37:37Z</time>
      </trkpt>
      <trkpt lat="43.73395" lon="6.86047">
        <ele>1227.5</ele>
        <time>2021-05-02T11:37:42Z</time>
      </trkpt>
      <trkpt lat="43.73395" lon="6.86047">
        <ele>1227.5</ele>
        <time>2021-05-02T11:37:47Z</time>
      </trkpt>
      <trkpt lat="43.73395" lon="6.86047">
        <ele>1227.5</ele>
        <time>2021-05-02T11:37:53Z</time>
      </trkpt>
      <trkpt lat="43.73395" lon="6.86047">
        <ele>1227.5</ele>
        <time>2021-05-02T11:37:59Z</time>
      </trkpt>
      <trkpt lat="43.73395" lon="6.86047">
        <ele>1227.5</ele>
        <time>2021-05-02T11:38:05Z</time>
      </trkpt>
      <trkpt lat="43.73395" lon="6.86047">
        <ele>1227.5</ele>
        <time>2021-05-02T11:38:11Z</time>
      </trkpt>
      <trkpt lat="43.73395" lon="6.86047">
        <ele>1227.5</ele>
        <time>2021-05-02T11:38:17Z</time>
      </trkpt>
      <trkpt lat="43.73395" lon="6.86047">
        <ele>1227.5</ele>
        <time>2021-05-02T11:38:22Z</time>
      </trkpt>
      <trkpt lat="43.73395" lon="6.86047">
        <ele>1227.5</ele>
        <time>2021-05-02T11:38:28Z</time>
      </trkpt>
      <trkpt lat="43.73395" lon="6.86047">
        <ele>1227.5</ele>
        <time>2021-05-02T11:38:34Z</time>
      </trkpt>
      <trkpt lat="43.73395" lon="6.86047">
        <ele>1227.5</ele>
        <time>2021-05-02T11:38:39Z</time>
      </trkpt>
      <trkpt lat="43.73395" lon="6.86047">
        <ele>1227.5</ele>
        <time>2021-05-02T11:38:45Z</time>
      </trkpt>
      <trkpt lat="43.73395" lon="6.86047">
        <ele>1227.5</ele>
        <time>2021-05-02T11:38:51Z</time>
      </trkpt>
      <trkpt lat="43.73395" lon="6.86047">
        <ele>1227.5</ele>
        <time>2021-05-02T11:38:56Z</time>
      </trkpt>
      <trkpt lat="43.73395" lon="6.86047">
        <ele>1227.5</ele>
        <time>2021-05-02T11:39:02Z</time>
      </trkpt>
      <trkpt lat="43.73395" lon="6.86047">
        <ele>1227.5</ele>
        <time>2021-05-02T11:39:07Z</time>
      </trkpt>
      <trkpt lat="43.73395" lon="6.86047">
        <ele>1227.5</ele>
        <time>2021-05-02T11:39:13Z</time>
      </trkpt>
      <trkpt lat="43.73395" lon="6.86047">
        <ele>1227.5</ele>
        <time>2021-05-02T11:39:19Z</time>
      </trkpt>
      <trkpt lat="43.73395" lon="6.86047">
        <ele>1227.5</ele>
        <time>2021-05-02T11:39:24Z</time>
      </trkpt>
      <trkpt lat="43.73395" lon="6.86047">
        <ele>1227.5</ele>
        <time>2021-05-02T11:39:30Z</time>
      </trkpt>
      <trkpt lat="43.73395" lon="6.86047">
        <ele>1227.5</ele>
        <time>2021-05-02T11:39:36Z</time>
      </trkpt>
      <trkpt lat="43.73395" lon="6.86047">
        <ele>1227.5</ele>
        <time>2021-05-02T11:39:41Z</time>
      </trkpt>
      <trkpt lat="43.73395" lon="6.86047">
        <ele>1227.5</ele>
        <time>2021-05-02T11:39:46Z</time>
      </trkpt>
      <trkpt lat="43.73395" lon="6.86047">
        <ele>1227.5</ele>
        <time>2021-05-02T11:39:52Z</time>
      </trkpt>
      <trkpt lat="43.73395" lon="6.86047">
        <ele>1227.5</ele>
        <time>2021-05-02T11:39:57Z</time>
      </trkpt>
      <trkpt lat="43.73395" lon="6.86047">
        <ele>1227.5</ele>
        <time>2021-05-02T11:40:02Z</time>
      </trkpt>
      <trkpt lat="43.73395" lon="6.86047">
        <ele>1227.5</ele>
        <time>2021-05-02T11:40:08Z</time>
      </trkpt>
      <trkpt lat="43.73395" lon="6.86047">
        <ele>1227.5</ele>
        <time>2021-05-02T11:40:13Z</time>
      </trkpt>
      <trkpt lat="43.73395" lon="6.86047">
        <ele>1227.5</ele>
        <time>2021-05-02T11:40:19Z</time>
      </trkpt>
      <trkpt lat="43.73395" lon="6.86047">
        <ele>1227.5</ele>
        <time>2021-05-02T11:40:25Z</time>
      </trkpt>
      <trkpt lat="43.73395" lon="6.86047">
        <ele>1227.6</ele>
        <time>2021-05-02T11:40:31Z</time>
      </trkpt>
      <trkpt lat="43.73395" lon="6.86047">
        <ele>1227.6</ele>
        <time>2021-05-02T11:40:37Z</time>
      </trkpt>
      <trkpt lat="43.73395" lon="6.86047">
        <ele>1227.6</ele>
        <time>2021-05-02T11:40:43Z</time>
      </trkpt>
      <trkpt lat="43.73395" lon="6.86047">
        <ele>1227.6</ele>
        <time>2021-05-02T11:40:48Z</time>
      </trkpt>
      <trkpt lat="43.73395" lon="6.86047">
        <ele>1227.6</ele>
        <time>2021-05-02T11:40:54Z</time>
      </trkpt>
      <trkpt lat="43.73395" lon="6.86047">
        <ele>1227.6</ele>
        <time>2021-05-02T11:40:59Z</time>
      </trkpt>
      <trkpt lat="43.73395" lon="6.86047">
        <ele>1227.6</ele>
        <time>2021-05-02T11:41:05Z</time>
      </trkpt>
      <trkpt lat="43.73395" lon="6.86047">
        <ele>1227.6</ele>
        <time>2021-05-02T11:41:11Z</time>
      </trkpt>
      <trkpt lat="43.73395" lon="6.86047">
        <ele>1227.6</ele>
        <time>2021-05-02T11:41:17Z</time>
      </trkpt>
      <trkpt lat="43.73395" lon="6.86047">
        <ele>1227.6</ele>
        <time>2021-05-02T11:41:23Z</time>
      </trkpt>
      <trkpt lat="43.73395" lon="6.86047">
        <ele>1227.6</ele>
        <time>2021-05-02T11:41:28Z</time>
      </trkpt>
      <trkpt lat="43.73395" lon="6.86047">
        <ele>1227.6</ele>
        <time>2021-05-02T11:41:34Z</time>
      </trkpt>
      <trkpt lat="43.73395" lon="6.86047">
        <ele>1227.6</ele>
        <time>2021-05-02T11:41:39Z</time>
      </trkpt>
      <trkpt lat="43.73395" lon="6.86047">
        <ele>1227.6</ele>
        <time>2021-05-02T11:41:44Z</time>
      </trkpt>
      <trkpt lat="43.73395" lon="6.86047">
        <ele>1227.6</ele>
        <time>2021-05-02T11:41:49Z</time>
      </trkpt>
      <trkpt lat="43.73395" lon="6.86047">
        <ele>1227.6</ele>
        <time>2021-05-02T11:41:55Z</time>
      </trkpt>
      <trkpt lat="43.73395" lon="6.86047">
        <ele>1227.6</ele>
        <time>2021-05-02T11:42:00Z</time>
      </trkpt>
      <trkpt lat="43.73395" lon="6.86047">
        <ele>1227.6</ele>
        <time>2021-05-02T11:42:05Z</time>
      </trkpt>
      <trkpt lat="43.73395" lon="6.86047">
        <ele>1227.6</ele>
        <time>2021-05-02T11:42:11Z</time>
      </trkpt>
      <trkpt lat="43.73395" lon="6.86047">
        <ele>1227.6</ele>
        <time>2021-05-02T11:42:16Z</time>
      </trkpt>
      <trkpt lat="43.73395" lon="6.86047">
        <ele>1227.6</ele>
        <time>2021-05-02T11:42:21Z</time>
      </trkpt>
      <trkpt lat="43.73395" lon="6.86047">
        <ele>1227.6</ele>
        <time>2021-05-02T11:42:27Z</time>
      </trkpt>
      <trkpt lat="43.73395" lon="6.86047">
        <ele>1227.6</ele>
        <time>2021-05-02T11:42:33Z</time>
      </trkpt>
      <trkpt lat="43.73395" lon="6.86047">
        <ele>1227.6</ele>
        <time>2021-05-02T11:42:39Z</time>
      </trkpt>
      <trkpt lat="43.73395" lon="6.86047">
        <ele>1227.6</ele>
        <time>2021-05-02T11:42:44Z</time>
      </trkpt>
      <trkpt lat="43.73395" lon="6.86047">
        <ele>1227.6</ele>
        <time>2021-05-02T11:42:49Z</time>
      </trkpt>
      <trkpt lat="43.73395" lon="6.86047">
        <ele>1227.6</ele>
        <time>2021-05-02T11:42:55Z</time>
      </trkpt>
      <trkpt lat="43.73395" lon="6.86047">
        <ele>1227.6</ele>
        <time>2021-05-02T11:43:01Z</time>
      </trkpt>
      <trkpt lat="43.73395" lon="6.86047">
        <ele>1227.6</ele>
        <time>2021-05-02T11:43:07Z</time>
      </trkpt>
      <trkpt lat="43.73395" lon="6.86047">
        <ele>1227.6</ele>
        <time>2021-05-02T11:43:12Z</time>
      </trkpt>
      <trkpt lat="43.73395" lon="6.86047">
        <ele>1227.6</ele>
        <time>2021-05-02T11:43:17Z</time>
      </trkpt>
      <trkpt lat="43.73395" lon="6.86047">
        <ele>1227.6</ele>
        <time>2021-05-02T11:43:23Z</time>
      </trkpt>
      <trkpt lat="43.73395" lon="6.86047">
        <ele>1227.6</ele>
        <time>2021-05-02T11:43:29Z</time>
      </trkpt>
      <trkpt lat="43.73395" lon="6.86047">
        <ele>1227.6</ele>
        <time>2021-05-02T11:43:34Z</time>
      </trkpt>
      <trkpt lat="43.73395" lon="6.86047">
        <ele>1227.6</ele>
        <time>2021-05-02T11:43:40Z</time>
      </trkpt>
      <trkpt lat="43.73395" lon="6.86047">
        <ele>1227.6</ele>
        <time>2021-05-02T11:43:46Z</time>
      </trkpt>
      <trkpt lat="43.73395" lon="6.86047">
        <ele>1227.6</ele>
        <time>2021-05-02T11:43:52Z</time>
      </trkpt>
      <trkpt lat="43.73395" lon="6.86047">
        <ele>1227.6</ele>
        <time>2021-05-02T11:43:57Z</time>
      </trkpt>
      <trkpt lat="43.73395" lon="6.86047">
        <ele>1227.6</ele>
        <time>2021-05-02T11:44:03Z</time>
      </trkpt>
      <trkpt lat="43.73395" lon="6.86047">
        <ele>1227.6</ele>
        <time>2021-05-02T11:44:09Z</time>
      </trkpt>
      <trkpt lat="43.73395" lon="6.86047">
        <ele>1227.6</ele>
        <time>2021-05-02T11:44:15Z</time>
      </trkpt>
      <trkpt lat="43.73395" lon="6.86047">
        <ele>1227.6</ele>
        <time>2021-05-02T11:44:21Z</time>
      </trkpt>
      <trkpt lat="43.73395" lon="6.86047">
        <ele>1227.6</ele>
        <time>2021-05-02T11:44:27Z</time>
      </trkpt>
      <trkpt lat="43.73395" lon="6.86047">
        <ele>1227.6</ele>
        <time>2021-05-02T11:44:33Z</time>
      </trkpt>
      <trkpt lat="43.73395" lon="6.86047">
        <ele>1227.6</ele>
        <time>2021-05-02T11:44:39Z</time>
      </trkpt>
      <trkpt lat="43.73395" lon="6.86046">
        <ele>1227.8</ele>
        <time>2021-05-02T11:44:44Z</time>
      </trkpt>
      <trkpt lat="43.73395" lon="6.86046">
        <ele>1227.9</ele>
        <time>2021-05-02T11:44:50Z</time>
      </trkpt>
      <trkpt lat="43.73395" lon="6.86046">
        <ele>1227.9</ele>
        <time>2021-05-02T11:44:56Z</time>
      </trkpt>
      <trkpt lat="43.73395" lon="6.86046">
        <ele>1227.9</ele>
        <time>2021-05-02T11:45:01Z</time>
      </trkpt>
      <trkpt lat="43.73395" lon="6.86046">
        <ele>1227.9</ele>
        <time>2021-05-02T11:45:06Z</time>
      </trkpt>
      <trkpt lat="43.73395" lon="6.86046">
        <ele>1227.9</ele>
        <time>2021-05-02T11:45:12Z</time>
      </trkpt>
      <trkpt lat="43.73395" lon="6.86046">
        <ele>1227.9</ele>
        <time>2021-05-02T11:45:17Z</time>
      </trkpt>
      <trkpt lat="43.73395" lon="6.86046">
        <ele>1227.9</ele>
        <time>2021-05-02T11:45:23Z</time>
      </trkpt>
      <trkpt lat="43.73395" lon="6.86046">
        <ele>1227.9</ele>
        <time>2021-05-02T11:45:29Z</time>
      </trkpt>
      <trkpt lat="43.73395" lon="6.86046">
        <ele>1227.9</ele>
        <time>2021-05-02T11:45:34Z</time>
      </trkpt>
      <trkpt lat="43.73395" lon="6.86046">
        <ele>1227.9</ele>
        <time>2021-05-02T11:45:40Z</time>
      </trkpt>
      <trkpt lat="43.73395" lon="6.86046">
        <ele>1227.9</ele>
        <time>2021-05-02T11:45:45Z</time>
      </trkpt>
      <trkpt lat="43.73395" lon="6.86046">
        <ele>1227.9</ele>
        <time>2021-05-02T11:45:51Z</time>
      </trkpt>
      <trkpt lat="43.73395" lon="6.86046">
        <ele>1227.9</ele>
        <time>2021-05-02T11:45:56Z</time>
      </trkpt>
      <trkpt lat="43.73395" lon="6.86046">
        <ele>1227.9</ele>
        <time>2021-05-02T11:46:02Z</time>
      </trkpt>
      <trkpt lat="43.73395" lon="6.86046">
        <ele>1227.9</ele>
        <time>2021-05-02T11:46:08Z</time>
      </trkpt>
      <trkpt lat="43.73395" lon="6.86046">
        <ele>1227.9</ele>
        <time>2021-05-02T11:46:13Z</time>
      </trkpt>
      <trkpt lat="43.73395" lon="6.86046">
        <ele>1227.9</ele>
        <time>2021-05-02T11:46:19Z</time>
      </trkpt>
      <trkpt lat="43.73395" lon="6.86046">
        <ele>1227.9</ele>
        <time>2021-05-02T11:46:25Z</time>
      </trkpt>
      <trkpt lat="43.73395" lon="6.86046">
        <ele>1227.9</ele>
        <time>2021-05-02T11:46:31Z</time>
      </trkpt>
      <trkpt lat="43.73395" lon="6.86046">
        <ele>1227.9</ele>
        <time>2021-05-02T11:46:37Z</time>
      </trkpt>
      <trkpt lat="43.73395" lon="6.86046">
        <ele>1227.9</ele>
        <time>2021-05-02T11:46:42Z</time>
      </trkpt>
      <trkpt lat="43.73395" lon="6.86046">
        <ele>1227.9</ele>
        <time>2021-05-02T11:46:47Z</time>
      </trkpt>
      <trkpt lat="43.73395" lon="6.86046">
        <ele>1227.9</ele>
        <time>2021-05-02T11:46:52Z</time>
      </trkpt>
      <trkpt lat="43.73395" lon="6.86046">
        <ele>1227.9</ele>
        <time>2021-05-02T11:46:57Z</time>
      </trkpt>
      <trkpt lat="43.73395" lon="6.86046">
        <ele>1227.9</ele>
        <time>2021-05-02T11:47:03Z</time>
      </trkpt>
      <trkpt lat="43.73395" lon="6.86046">
        <ele>1227.9</ele>
        <time>2021-05-02T11:47:09Z</time>
      </trkpt>
      <trkpt lat="43.73395" lon="6.86046">
        <ele>1227.9</ele>
        <time>2021-05-02T11:47:15Z</time>
      </trkpt>
      <trkpt lat="43.73395" lon="6.86046">
        <ele>1227.9</ele>
        <time>2021-05-02T11:47:21Z</time>
      </trkpt>
      <trkpt lat="43.73395" lon="6.86046">
        <ele>1227.9</ele>
        <time>2021-05-02T11:47:27Z</time>
      </trkpt>
      <trkpt lat="43.73395" lon="6.86046">
        <ele>1227.9</ele>
        <time>2021-05-02T11:47:32Z</time>
      </trkpt>
      <trkpt lat="43.73395" lon="6.86046">
        <ele>1227.9</ele>
        <time>2021-05-02T11:47:38Z</time>
      </trkpt>
      <trkpt lat="43.73395" lon="6.86046">
        <ele>1227.9</ele>
        <time>2021-05-02T11:47:43Z</time>
      </trkpt>
      <trkpt lat="43.73395" lon="6.86046">
        <ele>1227.9</ele>
        <time>2021-05-02T11:47:48Z</time>
      </trkpt>
      <trkpt lat="43.73395" lon="6.86046">
        <ele>1227.9</ele>
        <time>2021-05-02T11:47:54Z</time>
      </trkpt>
      <trkpt lat="43.73395" lon="6.86046">
        <ele>1227.6</ele>
        <time>2021-05-02T11:47:59Z</time>
      </trkpt>
      <trkpt lat="43.73395" lon="6.86047">
        <ele>1227.5</ele>
        <time>2021-05-02T11:48:05Z</time>
      </trkpt>
      <trkpt lat="43.73395" lon="6.86047">
        <ele>1227.5</ele>
        <time>2021-05-02T11:48:11Z</time>
      </trkpt>
      <trkpt lat="43.73395" lon="6.86047">
        <ele>1227.5</ele>
        <time>2021-05-02T11:48:17Z</time>
      </trkpt>
      <trkpt lat="43.73395" lon="6.86047">
        <ele>1227.5</ele>
        <time>2021-05-02T11:48:23Z</time>
      </trkpt>
      <trkpt lat="43.73395" lon="6.86047">
        <ele>1227.5</ele>
        <time>2021-05-02T11:48:28Z</time>
      </trkpt>
      <trkpt lat="43.73395" lon="6.86047">
        <ele>1227.5</ele>
        <time>2021-05-02T11:48:34Z</time>
      </trkpt>
      <trkpt lat="43.73395" lon="6.86047">
        <ele>1227.5</ele>
        <time>2021-05-02T11:48:40Z</time>
      </trkpt>
      <trkpt lat="43.73395" lon="6.86047">
        <ele>1227.5</ele>
        <time>2021-05-02T11:48:45Z</time>
      </trkpt>
      <trkpt lat="43.73395" lon="6.86047">
        <ele>1227.5</ele>
        <time>2021-05-02T11:48:51Z</time>
      </trkpt>
      <trkpt lat="43.73395" lon="6.86047">
        <ele>1227.5</ele>
        <time>2021-05-02T11:48:57Z</time>
      </trkpt>
      <trkpt lat="43.73395" lon="6.86047">
        <ele>1227.5</ele>
        <time>2021-05-02T11:49:03Z</time>
      </trkpt>
      <trkpt lat="43.73395" lon="6.86047">
        <ele>1227.5</ele>
        <time>2021-05-02T11:49:09Z</time>
      </trkpt>
      <trkpt lat="43.73395" lon="6.86047">
        <ele>1227.5</ele>
        <time>2021-05-02T11:49:15Z</time>
      </trkpt>
      <trkpt lat="43.73395" lon="6.86047">
        <ele>1227.5</ele>
        <time>2021-05-02T11:49:21Z</time>
      </trkpt>
      <trkpt lat="43.73395" lon="6.86047">
        <ele>1227.5</ele>
        <time>2021-05-02T11:49:26Z</time>
      </trkpt>
      <trkpt lat="43.73395" lon="6.86047">
        <ele>1227.5</ele>
        <time>2021-05-02T11:49:32Z</time>
      </trkpt>
      <trkpt lat="43.73395" lon="6.86047">
        <ele>1227.5</ele>
        <time>2021-05-02T11:49:37Z</time>
      </trkpt>
      <trkpt lat="43.73395" lon="6.86047">
        <ele>1227.5</ele>
        <time>2021-05-02T11:49:43Z</time>
      </trkpt>
      <trkpt lat="43.73395" lon="6.86047">
        <ele>1227.5</ele>
        <time>2021-05-02T11:49:49Z</time>
      </trkpt>
      <trkpt lat="43.73395" lon="6.86047">
        <ele>1227.5</ele>
        <time>2021-05-02T11:49:54Z</time>
      </trkpt>
      <trkpt lat="43.73395" lon="6.86047">
        <ele>1227.5</ele>
        <time>2021-05-02T11:50:00Z</time>
      </trkpt>
      <trkpt lat="43.73395" lon="6.86047">
        <ele>1227.5</ele>
        <time>2021-05-02T11:50:06Z</time>
      </trkpt>
      <trkpt lat="43.73395" lon="6.86046">
        <ele>1227.5</ele>
        <time>2021-05-02T11:50:12Z</time>
      </trkpt>
      <trkpt lat="43.73395" lon="6.86046">
        <ele>1227.5</ele>
        <time>2021-05-02T11:50:18Z</time>
      </trkpt>
      <trkpt lat="43.73395" lon="6.86046">
        <ele>1227.5</ele>
        <time>2021-05-02T11:50:23Z</time>
      </trkpt>
      <trkpt lat="43.73395" lon="6.86046">
        <ele>1227.5</ele>
        <time>2021-05-02T11:50:29Z</time>
      </trkpt>
      <trkpt lat="43.73395" lon="6.86046">
        <ele>1227.5</ele>
        <time>2021-05-02T11:50:35Z</time>
      </trkpt>
      <trkpt lat="43.73395" lon="6.86047">
        <ele>1227.5</ele>
        <time>2021-05-02T11:50:41Z</time>
      </trkpt>
      <trkpt lat="43.73395" lon="6.86047">
        <ele>1227.5</ele>
        <time>2021-05-02T11:50:46Z</time>
      </trkpt>
      <trkpt lat="43.73395" lon="6.86047">
        <ele>1227.4</ele>
        <time>2021-05-02T11:50:52Z</time>
      </trkpt>
      <trkpt lat="43.73395" lon="6.86047">
        <ele>1227.4</ele>
        <time>2021-05-02T11:50:57Z</time>
      </trkpt>
      <trkpt lat="43.73395" lon="6.86047">
        <ele>1227.5</ele>
        <time>2021-05-02T11:51:03Z</time>
      </trkpt>
      <trkpt lat="43.73395" lon="6.86047">
        <ele>1227.4</ele>
        <time>2021-05-02T11:51:09Z</time>
      </trkpt>
      <trkpt lat="43.73395" lon="6.86047">
        <ele>1227.4</ele>
        <time>2021-05-02T11:51:15Z</time>
      </trkpt>
      <trkpt lat="43.73395" lon="6.86047">
        <ele>1227.4</ele>
        <time>2021-05-02T11:51:20Z</time>
      </trkpt>
      <trkpt lat="43.73395" lon="6.86047">
        <ele>1227.4</ele>
        <time>2021-05-02T11:51:26Z</time>
      </trkpt>
      <trkpt lat="43.73395" lon="6.86047">
        <ele>1227.4</ele>
        <time>2021-05-02T11:51:31Z</time>
      </trkpt>
      <trkpt lat="43.73395" lon="6.86047">
        <ele>1227.4</ele>
        <time>2021-05-02T11:51:37Z</time>
      </trkpt>
      <trkpt lat="43.73395" lon="6.86047">
        <ele>1227.4</ele>
        <time>2021-05-02T11:51:42Z</time>
      </trkpt>
      <trkpt lat="43.73395" lon="6.86047">
        <ele>1227.4</ele>
        <time>2021-05-02T11:51:47Z</time>
      </trkpt>
      <trkpt lat="43.73395" lon="6.86047">
        <ele>1227.4</ele>
        <time>2021-05-02T11:51:53Z</time>
      </trkpt>
      <trkpt lat="43.73395" lon="6.86047">
        <ele>1227.4</ele>
        <time>2021-05-02T11:51:58Z</time>
      </trkpt>
      <trkpt lat="43.73395" lon="6.86047">
        <ele>1227.4</ele>
        <time>2021-05-02T11:52:03Z</time>
      </trkpt>
      <trkpt lat="43.73395" lon="6.86047">
        <ele>1227.4</ele>
        <time>2021-05-02T11:52:09Z</time>
      </trkpt>
      <trkpt lat="43.73395" lon="6.86047">
        <ele>1227.4</ele>
        <time>2021-05-02T11:52:15Z</time>
      </trkpt>
      <trkpt lat="43.73395" lon="6.86046">
        <ele>1227.5</ele>
        <time>2021-05-02T11:52:20Z</time>
      </trkpt>
      <trkpt lat="43.73395" lon="6.86045">
        <ele>1227.9</ele>
        <time>2021-05-02T11:52:25Z</time>
      </trkpt>
      <trkpt lat="43.73395" lon="6.86045">
        <ele>1227.7</ele>
        <time>2021-05-02T11:52:31Z</time>
      </trkpt>
      <trkpt lat="43.73395" lon="6.86045">
        <ele>1227.7</ele>
        <time>2021-05-02T11:52:36Z</time>
      </trkpt>
      <trkpt lat="43.73395" lon="6.86045">
        <ele>1227.8</ele>
        <time>2021-05-02T11:52:42Z</time>
      </trkpt>
      <trkpt lat="43.73395" lon="6.86045">
        <ele>1227.8</ele>
        <time>2021-05-02T11:52:48Z</time>
      </trkpt>
      <trkpt lat="43.73395" lon="6.86045">
        <ele>1227.8</ele>
        <time>2021-05-02T11:52:53Z</time>
      </trkpt>
      <trkpt lat="43.73395" lon="6.86045">
        <ele>1227.9</ele>
        <time>2021-05-02T11:52:59Z</time>
      </trkpt>
      <trkpt lat="43.73395" lon="6.86045">
        <ele>1227.9</ele>
        <time>2021-05-02T11:53:04Z</time>
      </trkpt>
      <trkpt lat="43.73395" lon="6.86045">
        <ele>1227.9</ele>
        <time>2021-05-02T11:53:09Z</time>
      </trkpt>
      <trkpt lat="43.73395" lon="6.86045">
        <ele>1227.9</ele>
        <time>2021-05-02T11:53:15Z</time>
      </trkpt>
      <trkpt lat="43.73395" lon="6.86045">
        <ele>1227.9</ele>
        <time>2021-05-02T11:53:21Z</time>
      </trkpt>
      <trkpt lat="43.73395" lon="6.86045">
        <ele>1227.9</ele>
        <time>2021-05-02T11:53:27Z</time>
      </trkpt>
      <trkpt lat="43.73395" lon="6.86045">
        <ele>1227.9</ele>
        <time>2021-05-02T11:53:33Z</time>
      </trkpt>
      <trkpt lat="43.73395" lon="6.86045">
        <ele>1227.9</ele>
        <time>2021-05-02T11:53:39Z</time>
      </trkpt>
      <trkpt lat="43.73395" lon="6.86045">
        <ele>1227.8</ele>
        <time>2021-05-02T11:53:45Z</time>
      </trkpt>
      <trkpt lat="43.73395" lon="6.86045">
        <ele>1227.8</ele>
        <time>2021-05-02T11:53:51Z</time>
      </trkpt>
      <trkpt lat="43.73395" lon="6.86045">
        <ele>1227.8</ele>
        <time>2021-05-02T11:53:57Z</time>
      </trkpt>
      <trkpt lat="43.73395" lon="6.86045">
        <ele>1227.8</ele>
        <time>2021-05-02T11:54:03Z</time>
      </trkpt>
      <trkpt lat="43.73395" lon="6.86045">
        <ele>1227.8</ele>
        <time>2021-05-02T11:54:09Z</time>
      </trkpt>
      <trkpt lat="43.73395" lon="6.86045">
        <ele>1227.8</ele>
        <time>2021-05-02T11:54:14Z</time>
      </trkpt>
      <trkpt lat="43.73395" lon="6.86045">
        <ele>1227.8</ele>
        <time>2021-05-02T11:54:20Z</time>
      </trkpt>
      <trkpt lat="43.73395" lon="6.86045">
        <ele>1227.8</ele>
        <time>2021-05-02T11:54:26Z</time>
      </trkpt>
      <trkpt lat="43.73395" lon="6.86045">
        <ele>1227.8</ele>
        <time>2021-05-02T11:54:32Z</time>
      </trkpt>
      <trkpt lat="43.73395" lon="6.86045">
        <ele>1227.8</ele>
        <time>2021-05-02T11:54:38Z</time>
      </trkpt>
      <trkpt lat="43.73395" lon="6.86045">
        <ele>1227.8</ele>
        <time>2021-05-02T11:54:43Z</time>
      </trkpt>
      <trkpt lat="43.73395" lon="6.86045">
        <ele>1227.8</ele>
        <time>2021-05-02T11:54:49Z</time>
      </trkpt>
      <trkpt lat="43.73395" lon="6.86045">
        <ele>1227.8</ele>
        <time>2021-05-02T11:54:54Z</time>
      </trkpt>
      <trkpt lat="43.73395" lon="6.86045">
        <ele>1227.8</ele>
        <time>2021-05-02T11:55:00Z</time>
      </trkpt>
      <trkpt lat="43.73395" lon="6.86045">
        <ele>1227.8</ele>
        <time>2021-05-02T11:55:05Z</time>
      </trkpt>
      <trkpt lat="43.73395" lon="6.86045">
        <ele>1227.8</ele>
        <time>2021-05-02T11:55:10Z</time>
      </trkpt>
      <trkpt lat="43.73395" lon="6.86045">
        <ele>1227.8</ele>
        <time>2021-05-02T11:55:16Z</time>
      </trkpt>
      <trkpt lat="43.73395" lon="6.86045">
        <ele>1227.8</ele>
        <time>2021-05-02T11:55:22Z</time>
      </trkpt>
      <trkpt lat="43.73395" lon="6.86045">
        <ele>1227.8</ele>
        <time>2021-05-02T11:55:27Z</time>
      </trkpt>
      <trkpt lat="43.73395" lon="6.86045">
        <ele>1227.8</ele>
        <time>2021-05-02T11:55:33Z</time>
      </trkpt>
      <trkpt lat="43.73395" lon="6.86045">
        <ele>1227.8</ele>
        <time>2021-05-02T11:55:39Z</time>
      </trkpt>
      <trkpt lat="43.73395" lon="6.86045">
        <ele>1227.8</ele>
        <time>2021-05-02T11:55:45Z</time>
      </trkpt>
      <trkpt lat="43.73395" lon="6.86045">
        <ele>1227.8</ele>
        <time>2021-05-02T11:55:51Z</time>
      </trkpt>
      <trkpt lat="43.73395" lon="6.86045">
        <ele>1227.8</ele>
        <time>2021-05-02T11:55:56Z</time>
      </trkpt>
      <trkpt lat="43.73395" lon="6.86045">
        <ele>1227.8</ele>
        <time>2021-05-02T11:56:01Z</time>
      </trkpt>
      <trkpt lat="43.73395" lon="6.86045">
        <ele>1227.8</ele>
        <time>2021-05-02T11:56:07Z</time>
      </trkpt>
      <trkpt lat="43.73395" lon="6.86045">
        <ele>1227.8</ele>
        <time>2021-05-02T11:56:13Z</time>
      </trkpt>
      <trkpt lat="43.73395" lon="6.86045">
        <ele>1227.8</ele>
        <time>2021-05-02T11:56:19Z</time>
      </trkpt>
      <trkpt lat="43.73395" lon="6.86045">
        <ele>1227.8</ele>
        <time>2021-05-02T11:56:24Z</time>
      </trkpt>
      <trkpt lat="43.73395" lon="6.86045">
        <ele>1227.8</ele>
        <time>2021-05-02T11:56:29Z</time>
      </trkpt>
      <trkpt lat="43.73395" lon="6.86045">
        <ele>1227.8</ele>
        <time>2021-05-02T11:56:35Z</time>
      </trkpt>
      <trkpt lat="43.73395" lon="6.86045">
        <ele>1227.8</ele>
        <time>2021-05-02T11:56:41Z</time>
      </trkpt>
      <trkpt lat="43.73395" lon="6.86045">
        <ele>1227.8</ele>
        <time>2021-05-02T11:56:46Z</time>
      </trkpt>
      <trkpt lat="43.73395" lon="6.86045">
        <ele>1227.8</ele>
        <time>2021-05-02T11:56:52Z</time>
      </trkpt>
      <trkpt lat="43.73395" lon="6.86045">
        <ele>1227.8</ele>
        <time>2021-05-02T11:56:58Z</time>
      </trkpt>
      <trkpt lat="43.73395" lon="6.86045">
        <ele>1227.8</ele>
        <time>2021-05-02T11:57:04Z</time>
      </trkpt>
      <trkpt lat="43.73395" lon="6.86045">
        <ele>1227.8</ele>
        <time>2021-05-02T11:57:10Z</time>
      </trkpt>
      <trkpt lat="43.73395" lon="6.86045">
        <ele>1227.8</ele>
        <time>2021-05-02T11:57:16Z</time>
      </trkpt>
      <trkpt lat="43.73395" lon="6.86045">
        <ele>1227.8</ele>
        <time>2021-05-02T11:57:22Z</time>
      </trkpt>
      <trkpt lat="43.73395" lon="6.86045">
        <ele>1227.8</ele>
        <time>2021-05-02T11:57:27Z</time>
      </trkpt>
      <trkpt lat="43.73395" lon="6.86045">
        <ele>1227.8</ele>
        <time>2021-05-02T11:57:32Z</time>
      </trkpt>
      <trkpt lat="43.73395" lon="6.86045">
        <ele>1227.8</ele>
        <time>2021-05-02T11:57:38Z</time>
      </trkpt>
      <trkpt lat="43.73395" lon="6.86045">
        <ele>1227.8</ele>
        <time>2021-05-02T11:57:43Z</time>
      </trkpt>
      <trkpt lat="43.73395" lon="6.86045">
        <ele>1227.8</ele>
        <time>2021-05-02T11:57:49Z</time>
      </trkpt>
      <trkpt lat="43.73395" lon="6.86045">
        <ele>1227.8</ele>
        <time>2021-05-02T11:57:55Z</time>
      </trkpt>
      <trkpt lat="43.73395" lon="6.86045">
        <ele>1227.8</ele>
        <time>2021-05-02T11:58:00Z</time>
      </trkpt>
      <trkpt lat="43.73395" lon="6.86045">
        <ele>1227.8</ele>
        <time>2021-05-02T11:58:05Z</time>
      </trkpt>
      <trkpt lat="43.73395" lon="6.86045">
        <ele>1227.8</ele>
        <time>2021-05-02T11:58:11Z</time>
      </trkpt>
      <trkpt lat="43.73395" lon="6.86045">
        <ele>1227.8</ele>
        <time>2021-05-02T11:58:17Z</time>
      </trkpt>
      <trkpt lat="43.73395" lon="6.86045">
        <ele>1227.8</ele>
        <time>2021-05-02T11:58:23Z</time>
      </trkpt>
      <trkpt lat="43.73395" lon="6.86045">
        <ele>1227.8</ele>
        <time>2021-05-02T11:58:29Z</time>
      </trkpt>
      <trkpt lat="43.73395" lon="6.86045">
        <ele>1227.8</ele>
        <time>2021-05-02T11:58:34Z</time>
      </trkpt>
      <trkpt lat="43.73395" lon="6.86045">
        <ele>1227.8</ele>
        <time>2021-05-02T11:58:40Z</time>
      </trkpt>
      <trkpt lat="43.73395" lon="6.86045">
        <ele>1227.8</ele>
        <time>2021-05-02T11:58:46Z</time>
      </trkpt>
      <trkpt lat="43.73395" lon="6.86045">
        <ele>1227.8</ele>
        <time>2021-05-02T11:58:52Z</time>
      </trkpt>
      <trkpt lat="43.73395" lon="6.86045">
        <ele>1227.8</ele>
        <time>2021-05-02T11:58:58Z</time>
      </trkpt>
      <trkpt lat="43.73395" lon="6.86045">
        <ele>1227.8</ele>
        <time>2021-05-02T11:59:04Z</time>
      </trkpt>
      <trkpt lat="43.73395" lon="6.86045">
        <ele>1227.8</ele>
        <time>2021-05-02T11:59:10Z</time>
      </trkpt>
      <trkpt lat="43.73395" lon="6.86045">
        <ele>1227.8</ele>
        <time>2021-05-02T11:59:16Z</time>
      </trkpt>
      <trkpt lat="43.73395" lon="6.86045">
        <ele>1227.8</ele>
        <time>2021-05-02T11:59:21Z</time>
      </trkpt>
      <trkpt lat="43.73395" lon="6.86045">
        <ele>1227.8</ele>
        <time>2021-05-02T11:59:27Z</time>
      </trkpt>
      <trkpt lat="43.73395" lon="6.86045">
        <ele>1227.8</ele>
        <time>2021-05-02T11:59:33Z</time>
      </trkpt>
      <trkpt lat="43.73395" lon="6.86045">
        <ele>1227.8</ele>
        <time>2021-05-02T11:59:39Z</time>
      </trkpt>
      <trkpt lat="43.73395" lon="6.86045">
        <ele>1227.8</ele>
        <time>2021-05-02T11:59:44Z</time>
      </trkpt>
      <trkpt lat="43.73395" lon="6.86045">
        <ele>1227.8</ele>
        <time>2021-05-02T11:59:50Z</time>
      </trkpt>
      <trkpt lat="43.73395" lon="6.86045">
        <ele>1227.8</ele>
        <time>2021-05-02T11:59:55Z</time>
      </trkpt>
      <trkpt lat="43.73395" lon="6.86045">
        <ele>1227.8</ele>
        <time>2021-05-02T12:00:00Z</time>
      </trkpt>
      <trkpt lat="43.73395" lon="6.86045">
        <ele>1227.8</ele>
        <time>2021-05-02T12:00:06Z</time>
      </trkpt>
      <trkpt lat="43.73395" lon="6.86045">
        <ele>1227.8</ele>
        <time>2021-05-02T12:00:11Z</time>
      </trkpt>
      <trkpt lat="43.73395" lon="6.86045">
        <ele>1227.8</ele>
        <time>2021-05-02T12:00:16Z</time>
      </trkpt>
      <trkpt lat="43.73395" lon="6.86045">
        <ele>1227.8</ele>
        <time>2021-05-02T12:00:22Z</time>
      </trkpt>
      <trkpt lat="43.73395" lon="6.86045">
        <ele>1227.8</ele>
        <time>2021-05-02T12:00:28Z</time>
      </trkpt>
      <trkpt lat="43.73395" lon="6.86045">
        <ele>1227.8</ele>
        <time>2021-05-02T12:00:33Z</time>
      </trkpt>
      <trkpt lat="43.73395" lon="6.86045">
        <ele>1227.8</ele>
        <time>2021-05-02T12:00:39Z</time>
      </trkpt>
      <trkpt lat="43.73395" lon="6.86045">
        <ele>1227.8</ele>
        <time>2021-05-02T12:00:45Z</time>
      </trkpt>
      <trkpt lat="43.73395" lon="6.86045">
        <ele>1227.8</ele>
        <time>2021-05-02T12:00:50Z</time>
      </trkpt>
      <trkpt lat="43.73395" lon="6.86045">
        <ele>1227.8</ele>
        <time>2021-05-02T12:00:55Z</time>
      </trkpt>
      <trkpt lat="43.73395" lon="6.86045">
        <ele>1227.8</ele>
        <time>2021-05-02T12:01:00Z</time>
      </trkpt>
      <trkpt lat="43.73395" lon="6.86045">
        <ele>1227.8</ele>
        <time>2021-05-02T12:01:06Z</time>
      </trkpt>
      <trkpt lat="43.73395" lon="6.86045">
        <ele>1227.8</ele>
        <time>2021-05-02T12:01:12Z</time>
      </trkpt>
      <trkpt lat="43.73395" lon="6.86045">
        <ele>1227.8</ele>
        <time>2021-05-02T12:01:17Z</time>
      </trkpt>
      <trkpt lat="43.73395" lon="6.86045">
        <ele>1227.8</ele>
        <time>2021-05-02T12:01:23Z</time>
      </trkpt>
      <trkpt lat="43.73395" lon="6.86045">
        <ele>1227.8</ele>
        <time>2021-05-02T12:01:29Z</time>
      </trkpt>
      <trkpt lat="43.73395" lon="6.86045">
        <ele>1227.8</ele>
        <time>2021-05-02T12:01:34Z</time>
      </trkpt>
      <trkpt lat="43.73395" lon="6.86045">
        <ele>1227.8</ele>
        <time>2021-05-02T12:01:40Z</time>
      </trkpt>
      <trkpt lat="43.73395" lon="6.86045">
        <ele>1227.8</ele>
        <time>2021-05-02T12:01:45Z</time>
      </trkpt>
      <trkpt lat="43.73395" lon="6.86045">
        <ele>1227.8</ele>
        <time>2021-05-02T12:01:51Z</time>
      </trkpt>
      <trkpt lat="43.73395" lon="6.86045">
        <ele>1227.8</ele>
        <time>2021-05-02T12:01:56Z</time>
      </trkpt>
      <trkpt lat="43.73395" lon="6.86045">
        <ele>1227.8</ele>
        <time>2021-05-02T12:02:02Z</time>
      </trkpt>
      <trkpt lat="43.73395" lon="6.86045">
        <ele>1227.8</ele>
        <time>2021-05-02T12:02:08Z</time>
      </trkpt>
      <trkpt lat="43.73395" lon="6.86045">
        <ele>1227.8</ele>
        <time>2021-05-02T12:02:14Z</time>
      </trkpt>
      <trkpt lat="43.73395" lon="6.86045">
        <ele>1227.8</ele>
        <time>2021-05-02T12:02:20Z</time>
      </trkpt>
      <trkpt lat="43.73395" lon="6.86045">
        <ele>1227.8</ele>
        <time>2021-05-02T12:02:26Z</time>
      </trkpt>
      <trkpt lat="43.73395" lon="6.86045">
        <ele>1227.8</ele>
        <time>2021-05-02T12:02:31Z</time>
      </trkpt>
      <trkpt lat="43.73395" lon="6.86045">
        <ele>1227.8</ele>
        <time>2021-05-02T12:02:36Z</time>
      </trkpt>
      <trkpt lat="43.73395" lon="6.86045">
        <ele>1227.8</ele>
        <time>2021-05-02T12:02:42Z</time>
      </trkpt>
      <trkpt lat="43.73395" lon="6.86045">
        <ele>1227.8</ele>
        <time>2021-05-02T12:02:48Z</time>
      </trkpt>
      <trkpt lat="43.73395" lon="6.86045">
        <ele>1227.8</ele>
        <time>2021-05-02T12:02:53Z</time>
      </trkpt>
      <trkpt lat="43.73395" lon="6.86045">
        <ele>1227.8</ele>
        <time>2021-05-02T12:02:59Z</time>
      </trkpt>
      <trkpt lat="43.73395" lon="6.86045">
        <ele>1227.8</ele>
        <time>2021-05-02T12:03:05Z</time>
      </trkpt>
      <trkpt lat="43.73395" lon="6.86045">
        <ele>1227.8</ele>
        <time>2021-05-02T12:03:10Z</time>
      </trkpt>
      <trkpt lat="43.73395" lon="6.86045">
        <ele>1227.8</ele>
        <time>2021-05-02T12:03:16Z</time>
      </trkpt>
      <trkpt lat="43.73395" lon="6.86045">
        <ele>1227.8</ele>
        <time>2021-05-02T12:03:22Z</time>
      </trkpt>
      <trkpt lat="43.73395" lon="6.86045">
        <ele>1227.8</ele>
        <time>2021-05-02T12:03:28Z</time>
      </trkpt>
      <trkpt lat="43.73395" lon="6.86045">
        <ele>1227.8</ele>
        <time>2021-05-02T12:03:34Z</time>
      </trkpt>
      <trkpt lat="43.73395" lon="6.86045">
        <ele>1227.8</ele>
        <time>2021-05-02T12:03:40Z</time>
      </trkpt>
      <trkpt lat="43.73395" lon="6.86045">
        <ele>1227.8</ele>
        <time>2021-05-02T12:03:45Z</time>
      </trkpt>
      <trkpt lat="43.73395" lon="6.86045">
        <ele>1227.8</ele>
        <time>2021-05-02T12:03:51Z</time>
      </trkpt>
      <trkpt lat="43.73395" lon="6.86045">
        <ele>1227.8</ele>
        <time>2021-05-02T12:03:57Z</time>
      </trkpt>
      <trkpt lat="43.73395" lon="6.86045">
        <ele>1227.8</ele>
        <time>2021-05-02T12:04:03Z</time>
      </trkpt>
      <trkpt lat="43.73395" lon="6.86045">
        <ele>1227.8</ele>
        <time>2021-05-02T12:04:08Z</time>
      </trkpt>
      <trkpt lat="43.73395" lon="6.86045">
        <ele>1227.8</ele>
        <time>2021-05-02T12:04:14Z</time>
      </trkpt>
      <trkpt lat="43.73395" lon="6.86045">
        <ele>1227.8</ele>
        <time>2021-05-02T12:04:20Z</time>
      </trkpt>
      <trkpt lat="43.73395" lon="6.86045">
        <ele>1227.8</ele>
        <time>2021-05-02T12:04:26Z</time>
      </trkpt>
      <trkpt lat="43.73395" lon="6.86045">
        <ele>1227.8</ele>
        <time>2021-05-02T12:04:31Z</time>
      </trkpt>
      <trkpt lat="43.73395" lon="6.86045">
        <ele>1227.8</ele>
        <time>2021-05-02T12:04:37Z</time>
      </trkpt>
      <trkpt lat="43.73395" lon="6.86045">
        <ele>1227.8</ele>
        <time>2021-05-02T12:04:42Z</time>
      </trkpt>
      <trkpt lat="43.73395" lon="6.86045">
        <ele>1227.8</ele>
        <time>2021-05-02T12:04:48Z</time>
      </trkpt>
      <trkpt lat="43.73395" lon="6.86045">
        <ele>1227.8</ele>
        <time>2021-05-02T12:04:53Z</time>
      </trkpt>
      <trkpt lat="43.73395" lon="6.86045">
        <ele>1227.8</ele>
        <time>2021-05-02T12:04:59Z</time>
      </trkpt>
      <trkpt lat="43.73395" lon="6.86045">
        <ele>1227.8</ele>
        <time>2021-05-02T12:05:05Z</time>
      </trkpt>
      <trkpt lat="43.73395" lon="6.86045">
        <ele>1227.8</ele>
        <time>2021-05-02T12:05:10Z</time>
      </trkpt>
      <trkpt lat="43.73395" lon="6.86045">
        <ele>1227.8</ele>
        <time>2021-05-02T12:05:16Z</time>
      </trkpt>
      <trkpt lat="43.73395" lon="6.86045">
        <ele>1227.8</ele>
        <time>2021-05-02T12:05:22Z</time>
      </trkpt>
      <trkpt lat="43.73395" lon="6.86045">
        <ele>1227.8</ele>
        <time>2021-05-02T12:05:28Z</time>
      </trkpt>
      <trkpt lat="43.73395" lon="6.86045">
        <ele>1227.8</ele>
        <time>2021-05-02T12:05:33Z</time>
      </trkpt>
      <trkpt lat="43.73395" lon="6.86045">
        <ele>1227.8</ele>
        <time>2021-05-02T12:05:39Z</time>
      </trkpt>
      <trkpt lat="43.73395" lon="6.86045">
        <ele>1227.8</ele>
        <time>2021-05-02T12:05:45Z</time>
      </trkpt>
      <trkpt lat="43.73395" lon="6.86045">
        <ele>1227.8</ele>
        <time>2021-05-02T12:05:50Z</time>
      </trkpt>
      <trkpt lat="43.73395" lon="6.86045">
        <ele>1227.8</ele>
        <time>2021-05-02T12:05:55Z</time>
      </trkpt>
      <trkpt lat="43.73395" lon="6.86045">
        <ele>1227.8</ele>
        <time>2021-05-02T12:06:01Z</time>
      </trkpt>
      <trkpt lat="43.73395" lon="6.86045">
        <ele>1227.8</ele>
        <time>2021-05-02T12:06:06Z</time>
      </trkpt>
      <trkpt lat="43.73395" lon="6.86045">
        <ele>1227.8</ele>
        <time>2021-05-02T12:06:12Z</time>
      </trkpt>
      <trkpt lat="43.73395" lon="6.86045">
        <ele>1227.8</ele>
        <time>2021-05-02T12:06:18Z</time>
      </trkpt>
      <trkpt lat="43.73395" lon="6.86045">
        <ele>1227.8</ele>
        <time>2021-05-02T12:06:23Z</time>
      </trkpt>
      <trkpt lat="43.73395" lon="6.86045">
        <ele>1227.8</ele>
        <time>2021-05-02T12:06:29Z</time>
      </trkpt>
      <trkpt lat="43.73395" lon="6.86045">
        <ele>1227.8</ele>
        <time>2021-05-02T12:06:35Z</time>
      </trkpt>
      <trkpt lat="43.73395" lon="6.86045">
        <ele>1227.8</ele>
        <time>2021-05-02T12:06:41Z</time>
      </trkpt>
      <trkpt lat="43.73395" lon="6.86045">
        <ele>1227.8</ele>
        <time>2021-05-02T12:06:47Z</time>
      </trkpt>
      <trkpt lat="43.73395" lon="6.86045">
        <ele>1227.8</ele>
        <time>2021-05-02T12:06:53Z</time>
      </trkpt>
      <trkpt lat="43.73395" lon="6.86045">
        <ele>1227.8</ele>
        <time>2021-05-02T12:06:58Z</time>
      </trkpt>
      <trkpt lat="43.73395" lon="6.86045">
        <ele>1227.8</ele>
        <time>2021-05-02T12:07:03Z</time>
      </trkpt>
      <trkpt lat="43.73395" lon="6.86045">
        <ele>1227.8</ele>
        <time>2021-05-02T12:07:09Z</time>
      </trkpt>
      <trkpt lat="43.73395" lon="6.86045">
        <ele>1227.8</ele>
        <time>2021-05-02T12:07:15Z</time>
      </trkpt>
      <trkpt lat="43.73395" lon="6.86045">
        <ele>1227.8</ele>
        <time>2021-05-02T12:07:21Z</time>
      </trkpt>
      <trkpt lat="43.73395" lon="6.86045">
        <ele>1227.8</ele>
        <time>2021-05-02T12:07:26Z</time>
      </trkpt>
      <trkpt lat="43.73395" lon="6.86045">
        <ele>1227.8</ele>
        <time>2021-05-02T12:07:31Z</time>
      </trkpt>
      <trkpt lat="43.73395" lon="6.86045">
        <ele>1227.8</ele>
        <time>2021-05-02T12:07:36Z</time>
      </trkpt>
      <trkpt lat="43.73395" lon="6.86045">
        <ele>1227.8</ele>
        <time>2021-05-02T12:07:41Z</time>
      </trkpt>
      <trkpt lat="43.73395" lon="6.86045">
        <ele>1227.8</ele>
        <time>2021-05-02T12:07:47Z</time>
      </trkpt>
      <trkpt lat="43.73395" lon="6.86045">
        <ele>1227.8</ele>
        <time>2021-05-02T12:07:53Z</time>
      </trkpt>
      <trkpt lat="43.73395" lon="6.86045">
        <ele>1227.8</ele>
        <time>2021-05-02T12:07:59Z</time>
      </trkpt>
      <trkpt lat="43.73395" lon="6.86045">
        <ele>1227.8</ele>
        <time>2021-05-02T12:08:05Z</time>
      </trkpt>
      <trkpt lat="43.73395" lon="6.86045">
        <ele>1227.8</ele>
        <time>2021-05-02T12:08:11Z</time>
      </trkpt>
      <trkpt lat="43.73395" lon="6.86045">
        <ele>1227.8</ele>
        <time>2021-05-02T12:08:17Z</time>
      </trkpt>
      <trkpt lat="43.73395" lon="6.86045">
        <ele>1227.8</ele>
        <time>2021-05-02T12:08:23Z</time>
      </trkpt>
      <trkpt lat="43.73395" lon="6.86045">
        <ele>1227.8</ele>
        <time>2021-05-02T12:08:28Z</time>
      </trkpt>
      <trkpt lat="43.73395" lon="6.86045">
        <ele>1227.8</ele>
        <time>2021-05-02T12:08:34Z</time>
      </trkpt>
      <trkpt lat="43.73395" lon="6.86045">
        <ele>1227.8</ele>
        <time>2021-05-02T12:08:40Z</time>
      </trkpt>
      <trkpt lat="43.73395" lon="6.86045">
        <ele>1227.8</ele>
        <time>2021-05-02T12:08:46Z</time>
      </trkpt>
      <trkpt lat="43.73395" lon="6.86045">
        <ele>1227.8</ele>
        <time>2021-05-02T12:08:52Z</time>
      </trkpt>
      <trkpt lat="43.73395" lon="6.86045">
        <ele>1227.8</ele>
        <time>2021-05-02T12:08:58Z</time>
      </trkpt>
      <trkpt lat="43.73395" lon="6.86045">
        <ele>1227.8</ele>
        <time>2021-05-02T12:09:04Z</time>
      </trkpt>
      <trkpt lat="43.73395" lon="6.86045">
        <ele>1227.8</ele>
        <time>2021-05-02T12:09:10Z</time>
      </trkpt>
      <trkpt lat="43.73395" lon="6.86045">
        <ele>1227.8</ele>
        <time>2021-05-02T12:09:16Z</time>
      </trkpt>
      <trkpt lat="43.73395" lon="6.86045">
        <ele>1227.8</ele>
        <time>2021-05-02T12:09:22Z</time>
      </trkpt>
      <trkpt lat="43.73395" lon="6.86045">
        <ele>1227.8</ele>
        <time>2021-05-02T12:09:28Z</time>
      </trkpt>
      <trkpt lat="43.73395" lon="6.86045">
        <ele>1227.8</ele>
        <time>2021-05-02T12:09:33Z</time>
      </trkpt>
      <trkpt lat="43.73395" lon="6.86045">
        <ele>1227.8</ele>
        <time>2021-05-02T12:09:38Z</time>
      </trkpt>
      <trkpt lat="43.73395" lon="6.86045">
        <ele>1227.8</ele>
        <time>2021-05-02T12:09:44Z</time>
      </trkpt>
      <trkpt lat="43.73395" lon="6.86045">
        <ele>1227.8</ele>
        <time>2021-05-02T12:09:49Z</time>
      </trkpt>
      <trkpt lat="43.73395" lon="6.86045">
        <ele>1227.8</ele>
        <time>2021-05-02T12:09:54Z</time>
      </trkpt>
      <trkpt lat="43.73395" lon="6.86045">
        <ele>1227.8</ele>
        <time>2021-05-02T12:10:00Z</time>
      </trkpt>
      <trkpt lat="43.73395" lon="6.86045">
        <ele>1227.8</ele>
        <time>2021-05-02T12:10:05Z</time>
      </trkpt>
      <trkpt lat="43.73395" lon="6.86045">
        <ele>1227.8</ele>
        <time>2021-05-02T12:10:10Z</time>
      </trkpt>
      <trkpt lat="43.73395" lon="6.86045">
        <ele>1227.8</ele>
        <time>2021-05-02T12:10:15Z</time>
      </trkpt>
      <trkpt lat="43.73395" lon="6.86045">
        <ele>1227.8</ele>
        <time>2021-05-02T12:10:20Z</time>
      </trkpt>
      <trkpt lat="43.73395" lon="6.86045">
        <ele>1227.8</ele>
        <time>2021-05-02T12:10:26Z</time>
      </trkpt>
      <trkpt lat="43.73395" lon="6.86045">
        <ele>1227.8</ele>
        <time>2021-05-02T12:10:31Z</time>
      </trkpt>
      <trkpt lat="43.73395" lon="6.86045">
        <ele>1227.8</ele>
        <time>2021-05-02T12:10:36Z</time>
      </trkpt>
      <trkpt lat="43.73395" lon="6.86045">
        <ele>1227.8</ele>
        <time>2021-05-02T12:10:41Z</time>
      </trkpt>
      <trkpt lat="43.73395" lon="6.86045">
        <ele>1227.8</ele>
        <time>2021-05-02T12:10:47Z</time>
      </trkpt>
      <trkpt lat="43.73395" lon="6.86045">
        <ele>1227.8</ele>
        <time>2021-05-02T12:10:53Z</time>
      </trkpt>
      <trkpt lat="43.73395" lon="6.86045">
        <ele>1227.8</ele>
        <time>2021-05-02T12:10:59Z</time>
      </trkpt>
      <trkpt lat="43.73395" lon="6.86045">
        <ele>1227.8</ele>
        <time>2021-05-02T12:11:05Z</time>
      </trkpt>
      <trkpt lat="43.73395" lon="6.86045">
        <ele>1227.8</ele>
        <time>2021-05-02T12:11:11Z</time>
      </trkpt>
      <trkpt lat="43.73395" lon="6.86045">
        <ele>1227.8</ele>
        <time>2021-05-02T12:11:17Z</time>
      </trkpt>
      <trkpt lat="43.73395" lon="6.86045">
        <ele>1227.8</ele>
        <time>2021-05-02T12:11:22Z</time>
      </trkpt>
      <trkpt lat="43.73395" lon="6.86045">
        <ele>1227.8</ele>
        <time>2021-05-02T12:11:27Z</time>
      </trkpt>
      <trkpt lat="43.73395" lon="6.86045">
        <ele>1227.8</ele>
        <time>2021-05-02T12:11:33Z</time>
      </trkpt>
      <trkpt lat="43.73395" lon="6.86045">
        <ele>1227.8</ele>
        <time>2021-05-02T12:11:38Z</time>
      </trkpt>
      <trkpt lat="43.73395" lon="6.86045">
        <ele>1227.8</ele>
        <time>2021-05-02T12:11:44Z</time>
      </trkpt>
      <trkpt lat="43.73395" lon="6.86045">
        <ele>1227.8</ele>
        <time>2021-05-02T12:11:50Z</time>
      </trkpt>
      <trkpt lat="43.73395" lon="6.86045">
        <ele>1227.8</ele>
        <time>2021-05-02T12:11:56Z</time>
      </trkpt>
      <trkpt lat="43.73395" lon="6.86045">
        <ele>1227.8</ele>
        <time>2021-05-02T12:12:02Z</time>
      </trkpt>
      <trkpt lat="43.73395" lon="6.86045">
        <ele>1227.8</ele>
        <time>2021-05-02T12:12:08Z</time>
      </trkpt>
      <trkpt lat="43.73395" lon="6.86045">
        <ele>1227.8</ele>
        <time>2021-05-02T12:12:14Z</time>
      </trkpt>
      <trkpt lat="43.73395" lon="6.86045">
        <ele>1227.8</ele>
        <time>2021-05-02T12:12:20Z</time>
      </trkpt>
      <trkpt lat="43.73395" lon="6.86045">
        <ele>1227.8</ele>
        <time>2021-05-02T12:12:25Z</time>
      </trkpt>
      <trkpt lat="43.73395" lon="6.86045">
        <ele>1227.8</ele>
        <time>2021-05-02T12:12:31Z</time>
      </trkpt>
      <trkpt lat="43.73395" lon="6.86045">
        <ele>1227.8</ele>
        <time>2021-05-02T12:12:37Z</time>
      </trkpt>
      <trkpt lat="43.73395" lon="6.86045">
        <ele>1227.8</ele>
        <time>2021-05-02T12:12:43Z</time>
      </trkpt>
      <trkpt lat="43.73395" lon="6.86045">
        <ele>1227.8</ele>
        <time>2021-05-02T12:12:49Z</time>
      </trkpt>
      <trkpt lat="43.73395" lon="6.86045">
        <ele>1227.8</ele>
        <time>2021-05-02T12:12:55Z</time>
      </trkpt>
      <trkpt lat="43.73395" lon="6.86045">
        <ele>1227.8</ele>
        <time>2021-05-02T12:13:01Z</time>
      </trkpt>
      <trkpt lat="43.73395" lon="6.86045">
        <ele>1227.8</ele>
        <time>2021-05-02T12:13:06Z</time>
      </trkpt>
      <trkpt lat="43.73395" lon="6.86045">
        <ele>1227.8</ele>
        <time>2021-05-02T12:13:12Z</time>
      </trkpt>
      <trkpt lat="43.73395" lon="6.86045">
        <ele>1227.8</ele>
        <time>2021-05-02T12:13:17Z</time>
      </trkpt>
      <trkpt lat="43.73395" lon="6.86045">
        <ele>1227.8</ele>
        <time>2021-05-02T12:13:22Z</time>
      </trkpt>
      <trkpt lat="43.73395" lon="6.86045">
        <ele>1227.8</ele>
        <time>2021-05-02T12:13:28Z</time>
      </trkpt>
      <trkpt lat="43.73395" lon="6.86045">
        <ele>1227.8</ele>
        <time>2021-05-02T12:13:34Z</time>
      </trkpt>
      <trkpt lat="43.73395" lon="6.86045">
        <ele>1227.8</ele>
        <time>2021-05-02T12:13:39Z</time>
      </trkpt>
      <trkpt lat="43.73395" lon="6.86045">
        <ele>1227.7</ele>
        <time>2021-05-02T12:13:44Z</time>
      </trkpt>
      <trkpt lat="43.73394" lon="6.86017">
        <ele>1234.6</ele>
        <time>2021-05-02T12:21:39Z</time>
      </trkpt>
      <trkpt lat="43.73391" lon="6.86054">
        <ele>1223.7</ele>
        <time>2021-05-02T12:21:44Z</time>
      </trkpt>
      <trkpt lat="43.7339" lon="6.86049">
        <ele>1224.5</ele>
        <time>2021-05-02T12:21:49Z</time>
      </trkpt>
      <trkpt lat="43.73389" lon="6.86047">
        <ele>1224.2</ele>
        <time>2021-05-02T12:21:54Z</time>
      </trkpt>
      <trkpt lat="43.73385" lon="6.8605">
        <ele>1221.9</ele>
        <time>2021-05-02T12:21:59Z</time>
      </trkpt>
      <trkpt lat="43.73385" lon="6.86039">
        <ele>1224.1</ele>
        <time>2021-05-02T12:22:05Z</time>
      </trkpt>
      <trkpt lat="43.73386" lon="6.86028">
        <ele>1227.7</ele>
        <time>2021-05-02T12:22:11Z</time>
      </trkpt>
      <trkpt lat="43.73388" lon="6.86023">
        <ele>1229.6</ele>
        <time>2021-05-02T12:22:17Z</time>
      </trkpt>
      <trkpt lat="43.73388" lon="6.86019">
        <ele>1230.8</ele>
        <time>2021-05-02T12:22:23Z</time>
      </trkpt>
      <trkpt lat="43.73389" lon="6.86016">
        <ele>1231.7</ele>
        <time>2021-05-02T12:22:28Z</time>
      </trkpt>
      <trkpt lat="43.73387" lon="6.86011">
        <ele>1232.1</ele>
        <time>2021-05-02T12:22:34Z</time>
      </trkpt>
      <trkpt lat="43.73387" lon="6.86007">
        <ele>1233.3</ele>
        <time>2021-05-02T12:22:39Z</time>
      </trkpt>
      <trkpt lat="43.73388" lon="6.86002">
        <ele>1235</ele>
        <time>2021-05-02T12:22:45Z</time>
      </trkpt>
      <trkpt lat="43.73389" lon="6.85998">
        <ele>1236.6</ele>
        <time>2021-05-02T12:22:50Z</time>
      </trkpt>
      <trkpt lat="43.73389" lon="6.85992">
        <ele>1237.5</ele>
        <time>2021-05-02T12:22:56Z</time>
      </trkpt>
      <trkpt lat="43.7339" lon="6.85988">
        <ele>1238.8</ele>
        <time>2021-05-02T12:23:02Z</time>
      </trkpt>
      <trkpt lat="43.73391" lon="6.85984">
        <ele>1240.3</ele>
        <time>2021-05-02T12:23:08Z</time>
      </trkpt>
      <trkpt lat="43.73392" lon="6.8598">
        <ele>1241.4</ele>
        <time>2021-05-02T12:23:13Z</time>
      </trkpt>
      <trkpt lat="43.73391" lon="6.85974">
        <ele>1242.3</ele>
        <time>2021-05-02T12:23:19Z</time>
      </trkpt>
      <trkpt lat="43.7339" lon="6.85968">
        <ele>1242.5</ele>
        <time>2021-05-02T12:23:25Z</time>
      </trkpt>
      <trkpt lat="43.7339" lon="6.85964">
        <ele>1243</ele>
        <time>2021-05-02T12:23:30Z</time>
      </trkpt>
      <trkpt lat="43.73389" lon="6.85958">
        <ele>1243.8</ele>
        <time>2021-05-02T12:23:36Z</time>
      </trkpt>
      <trkpt lat="43.7339" lon="6.85953">
        <ele>1245.4</ele>
        <time>2021-05-02T12:23:41Z</time>
      </trkpt>
      <trkpt lat="43.73389" lon="6.85948">
        <ele>1245.7</ele>
        <time>2021-05-02T12:23:47Z</time>
      </trkpt>
      <trkpt lat="43.73389" lon="6.85943">
        <ele>1246.6</ele>
        <time>2021-05-02T12:23:53Z</time>
      </trkpt>
      <trkpt lat="43.73389" lon="6.85936">
        <ele>1247.8</ele>
        <time>2021-05-02T12:23:59Z</time>
      </trkpt>
      <trkpt lat="43.73387" lon="6.8593">
        <ele>1247.2</ele>
        <time>2021-05-02T12:24:05Z</time>
      </trkpt>
      <trkpt lat="43.73388" lon="6.85925">
        <ele>1248.8</ele>
        <time>2021-05-02T12:24:10Z</time>
      </trkpt>
      <trkpt lat="43.73388" lon="6.85921">
        <ele>1249.8</ele>
        <time>2021-05-02T12:24:16Z</time>
      </trkpt>
      <trkpt lat="43.73389" lon="6.85916">
        <ele>1251.3</ele>
        <time>2021-05-02T12:24:21Z</time>
      </trkpt>
      <trkpt lat="43.7339" lon="6.8591">
        <ele>1252.8</ele>
        <time>2021-05-02T12:24:27Z</time>
      </trkpt>
      <trkpt lat="43.73388" lon="6.85904">
        <ele>1252.9</ele>
        <time>2021-05-02T12:24:32Z</time>
      </trkpt>
      <trkpt lat="43.73388" lon="6.85898">
        <ele>1253.5</ele>
        <time>2021-05-02T12:24:37Z</time>
      </trkpt>
      <trkpt lat="43.73388" lon="6.85893">
        <ele>1254.8</ele>
        <time>2021-05-02T12:24:43Z</time>
      </trkpt>
      <trkpt lat="43.73387" lon="6.85887">
        <ele>1255.4</ele>
        <time>2021-05-02T12:24:49Z</time>
      </trkpt>
      <trkpt lat="43.73387" lon="6.85881">
        <ele>1256</ele>
        <time>2021-05-02T12:24:55Z</time>
      </trkpt>
      <trkpt lat="43.73385" lon="6.85879">
        <ele>1255.3</ele>
        <time>2021-05-02T12:25:00Z</time>
      </trkpt>
      <trkpt lat="43.73383" lon="6.85875">
        <ele>1254.7</ele>
        <time>2021-05-02T12:25:05Z</time>
      </trkpt>
      <trkpt lat="43.73381" lon="6.8587">
        <ele>1254.2</ele>
        <time>2021-05-02T12:25:11Z</time>
      </trkpt>
      <trkpt lat="43.73379" lon="6.85865">
        <ele>1254.2</ele>
        <time>2021-05-02T12:25:16Z</time>
      </trkpt>
      <trkpt lat="43.73377" lon="6.8586">
        <ele>1254</ele>
        <time>2021-05-02T12:25:21Z</time>
      </trkpt>
      <trkpt lat="43.73376" lon="6.85854">
        <ele>1254.1</ele>
        <time>2021-05-02T12:25:26Z</time>
      </trkpt>
      <trkpt lat="43.73373" lon="6.85849">
        <ele>1253.2</ele>
        <time>2021-05-02T12:25:32Z</time>
      </trkpt>
      <trkpt lat="43.73369" lon="6.85846">
        <ele>1251.4</ele>
        <time>2021-05-02T12:25:38Z</time>
      </trkpt>
      <trkpt lat="43.73365" lon="6.85841">
        <ele>1250.4</ele>
        <time>2021-05-02T12:25:44Z</time>
      </trkpt>
      <trkpt lat="43.73365" lon="6.85835">
        <ele>1251.2</ele>
        <time>2021-05-02T12:25:50Z</time>
      </trkpt>
      <trkpt lat="43.73367" lon="6.85828">
        <ele>1254.4</ele>
        <time>2021-05-02T12:25:56Z</time>
      </trkpt>
      <trkpt lat="43.73372" lon="6.85823">
        <ele>1258</ele>
        <time>2021-05-02T12:26:02Z</time>
      </trkpt>
      <trkpt lat="43.73372" lon="6.85824">
        <ele>1257.8</ele>
        <time>2021-05-02T12:26:08Z</time>
      </trkpt>
      <trkpt lat="43.73371" lon="6.85824">
        <ele>1257.4</ele>
        <time>2021-05-02T12:26:13Z</time>
      </trkpt>
      <trkpt lat="43.73368" lon="6.85821">
        <ele>1256.3</ele>
        <time>2021-05-02T12:26:18Z</time>
      </trkpt>
      <trkpt lat="43.73366" lon="6.85815">
        <ele>1256.7</ele>
        <time>2021-05-02T12:26:23Z</time>
      </trkpt>
      <trkpt lat="43.73367" lon="6.85809">
        <ele>1258.7</ele>
        <time>2021-05-02T12:26:29Z</time>
      </trkpt>
      <trkpt lat="43.73367" lon="6.85808">
        <ele>1259.1</ele>
        <time>2021-05-02T12:26:34Z</time>
      </trkpt>
      <trkpt lat="43.73367" lon="6.85808">
        <ele>1259.1</ele>
        <time>2021-05-02T12:26:39Z</time>
      </trkpt>
      <trkpt lat="43.73367" lon="6.85808">
        <ele>1259.1</ele>
        <time>2021-05-02T12:26:45Z</time>
      </trkpt>
      <trkpt lat="43.73367" lon="6.85805">
        <ele>1259.5</ele>
        <time>2021-05-02T12:26:51Z</time>
      </trkpt>
      <trkpt lat="43.73367" lon="6.85805">
        <ele>1259.7</ele>
        <time>2021-05-02T12:26:56Z</time>
      </trkpt>
      <trkpt lat="43.73367" lon="6.85805">
        <ele>1259.7</ele>
        <time>2021-05-02T12:27:01Z</time>
      </trkpt>
      <trkpt lat="43.73366" lon="6.85804">
        <ele>1259.1</ele>
        <time>2021-05-02T12:27:07Z</time>
      </trkpt>
      <trkpt lat="43.73365" lon="6.85798">
        <ele>1260</ele>
        <time>2021-05-02T12:27:13Z</time>
      </trkpt>
      <trkpt lat="43.73364" lon="6.85791">
        <ele>1261.3</ele>
        <time>2021-05-02T12:27:19Z</time>
      </trkpt>
      <trkpt lat="43.73368" lon="6.85794">
        <ele>1262.5</ele>
        <time>2021-05-02T12:27:25Z</time>
      </trkpt>
      <trkpt lat="43.73368" lon="6.85797">
        <ele>1262.1</ele>
        <time>2021-05-02T12:27:31Z</time>
      </trkpt>
      <trkpt lat="43.73367" lon="6.85799">
        <ele>1261.1</ele>
        <time>2021-05-02T12:27:36Z</time>
      </trkpt>
      <trkpt lat="43.73363" lon="6.85798">
        <ele>1259.2</ele>
        <time>2021-05-02T12:27:42Z</time>
      </trkpt>
      <trkpt lat="43.73362" lon="6.85799">
        <ele>1258.2</ele>
        <time>2021-05-02T12:27:47Z</time>
      </trkpt>
      <trkpt lat="43.73361" lon="6.85797">
        <ele>1257.8</ele>
        <time>2021-05-02T12:27:52Z</time>
      </trkpt>
      <trkpt lat="43.73359" lon="6.85793">
        <ele>1257.9</ele>
        <time>2021-05-02T12:27:58Z</time>
      </trkpt>
      <trkpt lat="43.73358" lon="6.85793">
        <ele>1257.5</ele>
        <time>2021-05-02T12:28:04Z</time>
      </trkpt>
      <trkpt lat="43.73358" lon="6.85793">
        <ele>1257.5</ele>
        <time>2021-05-02T12:28:09Z</time>
      </trkpt>
      <trkpt lat="43.73358" lon="6.85793">
        <ele>1257.5</ele>
        <time>2021-05-02T12:28:14Z</time>
      </trkpt>
      <trkpt lat="43.73357" lon="6.85792">
        <ele>1257.4</ele>
        <time>2021-05-02T12:28:20Z</time>
      </trkpt>
      <trkpt lat="43.73357" lon="6.85792">
        <ele>1257.4</ele>
        <time>2021-05-02T12:28:25Z</time>
      </trkpt>
      <trkpt lat="43.73357" lon="6.85792">
        <ele>1257.4</ele>
        <time>2021-05-02T12:28:31Z</time>
      </trkpt>
      <trkpt lat="43.73357" lon="6.8579">
        <ele>1257.5</ele>
        <time>2021-05-02T12:28:36Z</time>
      </trkpt>
      <trkpt lat="43.73355" lon="6.85786">
        <ele>1257.2</ele>
        <time>2021-05-02T12:28:41Z</time>
      </trkpt>
      <trkpt lat="43.73353" lon="6.85782">
        <ele>1257.4</ele>
        <time>2021-05-02T12:28:47Z</time>
      </trkpt>
      <trkpt lat="43.73355" lon="6.85773">
        <ele>1260.9</ele>
        <time>2021-05-02T12:28:53Z</time>
      </trkpt>
      <trkpt lat="43.73354" lon="6.8577">
        <ele>1261.1</ele>
        <time>2021-05-02T12:28:59Z</time>
      </trkpt>
      <trkpt lat="43.73355" lon="6.85764">
        <ele>1262.9</ele>
        <time>2021-05-02T12:29:05Z</time>
      </trkpt>
      <trkpt lat="43.73353" lon="6.8576">
        <ele>1263</ele>
        <time>2021-05-02T12:29:10Z</time>
      </trkpt>
      <trkpt lat="43.73352" lon="6.85757">
        <ele>1263.1</ele>
        <time>2021-05-02T12:29:16Z</time>
      </trkpt>
      <trkpt lat="43.73351" lon="6.85752">
        <ele>1263.9</ele>
        <time>2021-05-02T12:29:22Z</time>
      </trkpt>
      <trkpt lat="43.73351" lon="6.85746">
        <ele>1265.4</ele>
        <time>2021-05-02T12:29:27Z</time>
      </trkpt>
      <trkpt lat="43.73349" lon="6.85742">
        <ele>1265.7</ele>
        <time>2021-05-02T12:29:33Z</time>
      </trkpt>
      <trkpt lat="43.73346" lon="6.85738">
        <ele>1265.3</ele>
        <time>2021-05-02T12:29:38Z</time>
      </trkpt>
      <trkpt lat="43.73342" lon="6.85733">
        <ele>1264.8</ele>
        <time>2021-05-02T12:29:44Z</time>
      </trkpt>
      <trkpt lat="43.73338" lon="6.85727">
        <ele>1265.2</ele>
        <time>2021-05-02T12:29:50Z</time>
      </trkpt>
      <trkpt lat="43.73334" lon="6.85725">
        <ele>1264</ele>
        <time>2021-05-02T12:29:56Z</time>
      </trkpt>
      <trkpt lat="43.73332" lon="6.8572">
        <ele>1264.5</ele>
        <time>2021-05-02T12:30:01Z</time>
      </trkpt>
      <trkpt lat="43.73332" lon="6.8572">
        <ele>1264.5</ele>
        <time>2021-05-02T12:30:07Z</time>
      </trkpt>
      <trkpt lat="43.73332" lon="6.8572">
        <ele>1264.5</ele>
        <time>2021-05-02T12:30:13Z</time>
      </trkpt>
      <trkpt lat="43.73332" lon="6.8572">
        <ele>1264.6</ele>
        <time>2021-05-02T12:30:18Z</time>
      </trkpt>
      <trkpt lat="43.73332" lon="6.8572">
        <ele>1264.6</ele>
        <time>2021-05-02T12:30:24Z</time>
      </trkpt>
      <trkpt lat="43.73332" lon="6.8572">
        <ele>1264.6</ele>
        <time>2021-05-02T12:30:29Z</time>
      </trkpt>
      <trkpt lat="43.73332" lon="6.8572">
        <ele>1264.6</ele>
        <time>2021-05-02T12:30:35Z</time>
      </trkpt>
      <trkpt lat="43.73332" lon="6.8572">
        <ele>1264.6</ele>
        <time>2021-05-02T12:30:40Z</time>
      </trkpt>
      <trkpt lat="43.73332" lon="6.8572">
        <ele>1264.5</ele>
        <time>2021-05-02T12:30:46Z</time>
      </trkpt>
      <trkpt lat="43.73332" lon="6.85718">
        <ele>1265.1</ele>
        <time>2021-05-02T12:30:52Z</time>
      </trkpt>
      <trkpt lat="43.73332" lon="6.85718">
        <ele>1265.3</ele>
        <time>2021-05-02T12:30:57Z</time>
      </trkpt>
      <trkpt lat="43.73332" lon="6.85718">
        <ele>1265.3</ele>
        <time>2021-05-02T12:31:03Z</time>
      </trkpt>
      <trkpt lat="43.73332" lon="6.85718">
        <ele>1265.3</ele>
        <time>2021-05-02T12:31:09Z</time>
      </trkpt>
      <trkpt lat="43.73332" lon="6.85718">
        <ele>1265.3</ele>
        <time>2021-05-02T12:31:14Z</time>
      </trkpt>
      <trkpt lat="43.73332" lon="6.85717">
        <ele>1265.7</ele>
        <time>2021-05-02T12:31:20Z</time>
      </trkpt>
      <trkpt lat="43.73332" lon="6.85716">
        <ele>1265.9</ele>
        <time>2021-05-02T12:31:25Z</time>
      </trkpt>
      <trkpt lat="43.73332" lon="6.85716">
        <ele>1265.9</ele>
        <time>2021-05-02T12:31:31Z</time>
      </trkpt>
      <trkpt lat="43.73332" lon="6.85716">
        <ele>1265.9</ele>
        <time>2021-05-02T12:31:36Z</time>
      </trkpt>
      <trkpt lat="43.73332" lon="6.85716">
        <ele>1265.9</ele>
        <time>2021-05-02T12:31:42Z</time>
      </trkpt>
      <trkpt lat="43.73332" lon="6.85716">
        <ele>1265.9</ele>
        <time>2021-05-02T12:31:48Z</time>
      </trkpt>
      <trkpt lat="43.73332" lon="6.85716">
        <ele>1266</ele>
        <time>2021-05-02T12:31:53Z</time>
      </trkpt>
      <trkpt lat="43.7333" lon="6.85713">
        <ele>1266.1</ele>
        <time>2021-05-02T12:31:59Z</time>
      </trkpt>
      <trkpt lat="43.73327" lon="6.85709">
        <ele>1266.7</ele>
        <time>2021-05-02T12:32:04Z</time>
      </trkpt>
      <trkpt lat="43.73324" lon="6.85705">
        <ele>1267</ele>
        <time>2021-05-02T12:32:10Z</time>
      </trkpt>
      <trkpt lat="43.73322" lon="6.85702">
        <ele>1267</ele>
        <time>2021-05-02T12:32:15Z</time>
      </trkpt>
      <trkpt lat="43.73319" lon="6.85698">
        <ele>1267.3</ele>
        <time>2021-05-02T12:32:20Z</time>
      </trkpt>
      <trkpt lat="43.73315" lon="6.85695">
        <ele>1267</ele>
        <time>2021-05-02T12:32:26Z</time>
      </trkpt>
      <trkpt lat="43.73311" lon="6.85693">
        <ele>1266.3</ele>
        <time>2021-05-02T12:32:31Z</time>
      </trkpt>
      <trkpt lat="43.73308" lon="6.8569">
        <ele>1266.4</ele>
        <time>2021-05-02T12:32:36Z</time>
      </trkpt>
      <trkpt lat="43.73304" lon="6.85686">
        <ele>1266.4</ele>
        <time>2021-05-02T12:32:42Z</time>
      </trkpt>
      <trkpt lat="43.73302" lon="6.85681">
        <ele>1267.3</ele>
        <time>2021-05-02T12:32:47Z</time>
      </trkpt>
      <trkpt lat="43.73298" lon="6.85677">
        <ele>1267.6</ele>
        <time>2021-05-02T12:32:53Z</time>
      </trkpt>
      <trkpt lat="43.73295" lon="6.85673">
        <ele>1267.6</ele>
        <time>2021-05-02T12:32:59Z</time>
      </trkpt>
      <trkpt lat="43.73293" lon="6.85668">
        <ele>1268.8</ele>
        <time>2021-05-02T12:33:04Z</time>
      </trkpt>
      <trkpt lat="43.73289" lon="6.85666">
        <ele>1268.4</ele>
        <time>2021-05-02T12:33:09Z</time>
      </trkpt>
      <trkpt lat="43.73284" lon="6.85662">
        <ele>1268.4</ele>
        <time>2021-05-02T12:33:15Z</time>
      </trkpt>
      <trkpt lat="43.73283" lon="6.85658">
        <ele>1269.4</ele>
        <time>2021-05-02T12:33:21Z</time>
      </trkpt>
      <trkpt lat="43.73281" lon="6.85653">
        <ele>1271</ele>
        <time>2021-05-02T12:33:26Z</time>
      </trkpt>
      <trkpt lat="43.73278" lon="6.85653">
        <ele>1270.3</ele>
        <time>2021-05-02T12:33:31Z</time>
      </trkpt>
      <trkpt lat="43.73276" lon="6.85652">
        <ele>1269.7</ele>
        <time>2021-05-02T12:33:37Z</time>
      </trkpt>
      <trkpt lat="43.73274" lon="6.85651">
        <ele>1269.6</ele>
        <time>2021-05-02T12:33:42Z</time>
      </trkpt>
      <trkpt lat="43.73268" lon="6.85645">
        <ele>1270.5</ele>
        <time>2021-05-02T12:33:48Z</time>
      </trkpt>
      <trkpt lat="43.73265" lon="6.85641">
        <ele>1271.1</ele>
        <time>2021-05-02T12:33:53Z</time>
      </trkpt>
      <trkpt lat="43.73265" lon="6.8564">
        <ele>1271.5</ele>
        <time>2021-05-02T12:33:59Z</time>
      </trkpt>
      <trkpt lat="43.73265" lon="6.8564">
        <ele>1271.5</ele>
        <time>2021-05-02T12:34:04Z</time>
      </trkpt>
      <trkpt lat="43.73265" lon="6.8564">
        <ele>1271.6</ele>
        <time>2021-05-02T12:34:10Z</time>
      </trkpt>
      <trkpt lat="43.73264" lon="6.85638">
        <ele>1271.8</ele>
        <time>2021-05-02T12:34:15Z</time>
      </trkpt>
      <trkpt lat="43.73259" lon="6.85635">
        <ele>1271.7</ele>
        <time>2021-05-02T12:34:21Z</time>
      </trkpt>
      <trkpt lat="43.73255" lon="6.85632">
        <ele>1271.7</ele>
        <time>2021-05-02T12:34:27Z</time>
      </trkpt>
      <trkpt lat="43.73252" lon="6.85629">
        <ele>1272.3</ele>
        <time>2021-05-02T12:34:32Z</time>
      </trkpt>
      <trkpt lat="43.73249" lon="6.85627">
        <ele>1272.3</ele>
        <time>2021-05-02T12:34:37Z</time>
      </trkpt>
      <trkpt lat="43.73244" lon="6.85624">
        <ele>1272.9</ele>
        <time>2021-05-02T12:34:43Z</time>
      </trkpt>
      <trkpt lat="43.73239" lon="6.8562">
        <ele>1273.6</ele>
        <time>2021-05-02T12:34:49Z</time>
      </trkpt>
      <trkpt lat="43.73236" lon="6.85617">
        <ele>1274.7</ele>
        <time>2021-05-02T12:34:54Z</time>
      </trkpt>
      <trkpt lat="43.73233" lon="6.85615">
        <ele>1274.6</ele>
        <time>2021-05-02T12:34:59Z</time>
      </trkpt>
      <trkpt lat="43.73229" lon="6.85612">
        <ele>1275.2</ele>
        <time>2021-05-02T12:35:05Z</time>
      </trkpt>
      <trkpt lat="43.73226" lon="6.85609">
        <ele>1276</ele>
        <time>2021-05-02T12:35:10Z</time>
      </trkpt>
      <trkpt lat="43.73223" lon="6.85606">
        <ele>1276.7</ele>
        <time>2021-05-02T12:35:16Z</time>
      </trkpt>
      <trkpt lat="43.7322" lon="6.85604">
        <ele>1277.1</ele>
        <time>2021-05-02T12:35:21Z</time>
      </trkpt>
      <trkpt lat="43.73216" lon="6.85601">
        <ele>1277.5</ele>
        <time>2021-05-02T12:35:27Z</time>
      </trkpt>
      <trkpt lat="43.73211" lon="6.85598">
        <ele>1278.2</ele>
        <time>2021-05-02T12:35:32Z</time>
      </trkpt>
      <trkpt lat="43.73206" lon="6.85594">
        <ele>1278.5</ele>
        <time>2021-05-02T12:35:38Z</time>
      </trkpt>
      <trkpt lat="43.73204" lon="6.85596">
        <ele>1277.3</ele>
        <time>2021-05-02T12:35:44Z</time>
      </trkpt>
      <trkpt lat="43.73202" lon="6.85595">
        <ele>1277.4</ele>
        <time>2021-05-02T12:35:49Z</time>
      </trkpt>
      <trkpt lat="43.73199" lon="6.85594">
        <ele>1277.4</ele>
        <time>2021-05-02T12:35:55Z</time>
      </trkpt>
      <trkpt lat="43.73195" lon="6.85591">
        <ele>1277.6</ele>
        <time>2021-05-02T12:36:01Z</time>
      </trkpt>
      <trkpt lat="43.73192" lon="6.85588">
        <ele>1278.2</ele>
        <time>2021-05-02T12:36:06Z</time>
      </trkpt>
      <trkpt lat="43.73192" lon="6.85587">
        <ele>1278.9</ele>
        <time>2021-05-02T12:36:11Z</time>
      </trkpt>
      <trkpt lat="43.7319" lon="6.85584">
        <ele>1279.4</ele>
        <time>2021-05-02T12:36:17Z</time>
      </trkpt>
      <trkpt lat="43.73188" lon="6.85583">
        <ele>1279.4</ele>
        <time>2021-05-02T12:36:23Z</time>
      </trkpt>
      <trkpt lat="43.73185" lon="6.8558">
        <ele>1279.6</ele>
        <time>2021-05-02T12:36:28Z</time>
      </trkpt>
      <trkpt lat="43.73182" lon="6.85577">
        <ele>1279.8</ele>
        <time>2021-05-02T12:36:34Z</time>
      </trkpt>
      <trkpt lat="43.73179" lon="6.85575">
        <ele>1279.9</ele>
        <time>2021-05-02T12:36:40Z</time>
      </trkpt>
      <trkpt lat="43.73175" lon="6.85572">
        <ele>1279.8</ele>
        <time>2021-05-02T12:36:46Z</time>
      </trkpt>
      <trkpt lat="43.73174" lon="6.8557">
        <ele>1279.8</ele>
        <time>2021-05-02T12:36:51Z</time>
      </trkpt>
      <trkpt lat="43.73172" lon="6.85568">
        <ele>1279.9</ele>
        <time>2021-05-02T12:36:56Z</time>
      </trkpt>
      <trkpt lat="43.73169" lon="6.85565">
        <ele>1279.9</ele>
        <time>2021-05-02T12:37:02Z</time>
      </trkpt>
      <trkpt lat="43.73165" lon="6.85562">
        <ele>1279.5</ele>
        <time>2021-05-02T12:37:08Z</time>
      </trkpt>
      <trkpt lat="43.73162" lon="6.85559">
        <ele>1279.3</ele>
        <time>2021-05-02T12:37:13Z</time>
      </trkpt>
      <trkpt lat="43.73158" lon="6.85556">
        <ele>1278.5</ele>
        <time>2021-05-02T12:37:19Z</time>
      </trkpt>
      <trkpt lat="43.73155" lon="6.85554">
        <ele>1277.8</ele>
        <time>2021-05-02T12:37:24Z</time>
      </trkpt>
      <trkpt lat="43.7315" lon="6.85552">
        <ele>1276.7</ele>
        <time>2021-05-02T12:37:30Z</time>
      </trkpt>
      <trkpt lat="43.73146" lon="6.85549">
        <ele>1275.6</ele>
        <time>2021-05-02T12:37:35Z</time>
      </trkpt>
      <trkpt lat="43.73141" lon="6.85543">
        <ele>1274.9</ele>
        <time>2021-05-02T12:37:41Z</time>
      </trkpt>
      <trkpt lat="43.73138" lon="6.85539">
        <ele>1274.5</ele>
        <time>2021-05-02T12:37:46Z</time>
      </trkpt>
      <trkpt lat="43.73135" lon="6.85535">
        <ele>1274</ele>
        <time>2021-05-02T12:37:52Z</time>
      </trkpt>
      <trkpt lat="43.73132" lon="6.85527">
        <ele>1274.2</ele>
        <time>2021-05-02T12:37:58Z</time>
      </trkpt>
      <trkpt lat="43.73133" lon="6.85526">
        <ele>1274.7</ele>
        <time>2021-05-02T12:38:03Z</time>
      </trkpt>
      <trkpt lat="43.73133" lon="6.85526">
        <ele>1274.7</ele>
        <time>2021-05-02T12:38:09Z</time>
      </trkpt>
      <trkpt lat="43.73133" lon="6.85525">
        <ele>1274.8</ele>
        <time>2021-05-02T12:38:15Z</time>
      </trkpt>
      <trkpt lat="43.73133" lon="6.85525">
        <ele>1274.8</ele>
        <time>2021-05-02T12:38:20Z</time>
      </trkpt>
      <trkpt lat="43.73132" lon="6.85522">
        <ele>1275</ele>
        <time>2021-05-02T12:38:26Z</time>
      </trkpt>
      <trkpt lat="43.73131" lon="6.85518">
        <ele>1275.2</ele>
        <time>2021-05-02T12:38:31Z</time>
      </trkpt>
      <trkpt lat="43.7313" lon="6.85518">
        <ele>1275.1</ele>
        <time>2021-05-02T12:38:37Z</time>
      </trkpt>
      <trkpt lat="43.7313" lon="6.85518">
        <ele>1275.1</ele>
        <time>2021-05-02T12:38:42Z</time>
      </trkpt>
      <trkpt lat="43.7313" lon="6.85518">
        <ele>1275.1</ele>
        <time>2021-05-02T12:38:47Z</time>
      </trkpt>
      <trkpt lat="43.7313" lon="6.85517">
        <ele>1274.9</ele>
        <time>2021-05-02T12:38:53Z</time>
      </trkpt>
      <trkpt lat="43.7313" lon="6.85517">
        <ele>1274.9</ele>
        <time>2021-05-02T12:38:58Z</time>
      </trkpt>
      <trkpt lat="43.7313" lon="6.85518">
        <ele>1275</ele>
        <time>2021-05-02T12:39:03Z</time>
      </trkpt>
      <trkpt lat="43.7313" lon="6.85518">
        <ele>1275</ele>
        <time>2021-05-02T12:39:08Z</time>
      </trkpt>
      <trkpt lat="43.7313" lon="6.85517">
        <ele>1274.9</ele>
        <time>2021-05-02T12:39:14Z</time>
      </trkpt>
      <trkpt lat="43.7313" lon="6.85517">
        <ele>1274.9</ele>
        <time>2021-05-02T12:39:19Z</time>
      </trkpt>
      <trkpt lat="43.73129" lon="6.85513">
        <ele>1275.3</ele>
        <time>2021-05-02T12:39:25Z</time>
      </trkpt>
      <trkpt lat="43.73128" lon="6.85511">
        <ele>1275.2</ele>
        <time>2021-05-02T12:39:31Z</time>
      </trkpt>
      <trkpt lat="43.73128" lon="6.85511">
        <ele>1275.2</ele>
        <time>2021-05-02T12:39:36Z</time>
      </trkpt>
      <trkpt lat="43.73128" lon="6.85511">
        <ele>1275.3</ele>
        <time>2021-05-02T12:39:42Z</time>
      </trkpt>
      <trkpt lat="43.73128" lon="6.85511">
        <ele>1275.3</ele>
        <time>2021-05-02T12:39:48Z</time>
      </trkpt>
      <trkpt lat="43.73128" lon="6.85511">
        <ele>1275.3</ele>
        <time>2021-05-02T12:39:54Z</time>
      </trkpt>
      <trkpt lat="43.73129" lon="6.85511">
        <ele>1275.3</ele>
        <time>2021-05-02T12:39:59Z</time>
      </trkpt>
      <trkpt lat="43.73129" lon="6.85511">
        <ele>1275.3</ele>
        <time>2021-05-02T12:40:05Z</time>
      </trkpt>
      <trkpt lat="43.73129" lon="6.85511">
        <ele>1275.3</ele>
        <time>2021-05-02T12:40:10Z</time>
      </trkpt>
      <trkpt lat="43.73129" lon="6.85511">
        <ele>1275.3</ele>
        <time>2021-05-02T12:40:16Z</time>
      </trkpt>
      <trkpt lat="43.73129" lon="6.85511">
        <ele>1275.4</ele>
        <time>2021-05-02T12:40:22Z</time>
      </trkpt>
      <trkpt lat="43.73129" lon="6.85511">
        <ele>1275.4</ele>
        <time>2021-05-02T12:40:27Z</time>
      </trkpt>
      <trkpt lat="43.73129" lon="6.85511">
        <ele>1275.4</ele>
        <time>2021-05-02T12:40:33Z</time>
      </trkpt>
      <trkpt lat="43.73129" lon="6.85511">
        <ele>1275.4</ele>
        <time>2021-05-02T12:40:39Z</time>
      </trkpt>
      <trkpt lat="43.73129" lon="6.85511">
        <ele>1275.4</ele>
        <time>2021-05-02T12:40:44Z</time>
      </trkpt>
      <trkpt lat="43.73129" lon="6.85511">
        <ele>1275.4</ele>
        <time>2021-05-02T12:40:50Z</time>
      </trkpt>
      <trkpt lat="43.73129" lon="6.85511">
        <ele>1275.4</ele>
        <time>2021-05-02T12:40:55Z</time>
      </trkpt>
      <trkpt lat="43.73129" lon="6.85511">
        <ele>1275.4</ele>
        <time>2021-05-02T12:41:01Z</time>
      </trkpt>
      <trkpt lat="43.73129" lon="6.85511">
        <ele>1275.4</ele>
        <time>2021-05-02T12:41:07Z</time>
      </trkpt>
      <trkpt lat="43.73129" lon="6.85511">
        <ele>1275.4</ele>
        <time>2021-05-02T12:41:12Z</time>
      </trkpt>
      <trkpt lat="43.73128" lon="6.8551">
        <ele>1275.2</ele>
        <time>2021-05-02T12:41:18Z</time>
      </trkpt>
      <trkpt lat="43.73127" lon="6.85509">
        <ele>1274.9</ele>
        <time>2021-05-02T12:41:23Z</time>
      </trkpt>
      <trkpt lat="43.73122" lon="6.85506">
        <ele>1273.1</ele>
        <time>2021-05-02T12:41:29Z</time>
      </trkpt>
      <trkpt lat="43.73118" lon="6.85501">
        <ele>1271.9</ele>
        <time>2021-05-02T12:41:35Z</time>
      </trkpt>
      <trkpt lat="43.73125" lon="6.85494">
        <ele>1276.2</ele>
        <time>2021-05-02T12:41:41Z</time>
      </trkpt>
      <trkpt lat="43.73128" lon="6.85488">
        <ele>1277.9</ele>
        <time>2021-05-02T12:41:46Z</time>
      </trkpt>
      <trkpt lat="43.73129" lon="6.85482">
        <ele>1279.1</ele>
        <time>2021-05-02T12:41:52Z</time>
      </trkpt>
      <trkpt lat="43.73131" lon="6.85477">
        <ele>1280.2</ele>
        <time>2021-05-02T12:41:57Z</time>
      </trkpt>
      <trkpt lat="43.73131" lon="6.85476">
        <ele>1280.5</ele>
        <time>2021-05-02T12:42:03Z</time>
      </trkpt>
      <trkpt lat="43.73131" lon="6.85476">
        <ele>1280.5</ele>
        <time>2021-05-02T12:42:08Z</time>
      </trkpt>
      <trkpt lat="43.73131" lon="6.85476">
        <ele>1280.4</ele>
        <time>2021-05-02T12:42:14Z</time>
      </trkpt>
      <trkpt lat="43.73131" lon="6.85476">
        <ele>1280.5</ele>
        <time>2021-05-02T12:42:20Z</time>
      </trkpt>
      <trkpt lat="43.73131" lon="6.85472">
        <ele>1280.7</ele>
        <time>2021-05-02T12:42:25Z</time>
      </trkpt>
      <trkpt lat="43.73132" lon="6.85467">
        <ele>1281.7</ele>
        <time>2021-05-02T12:42:30Z</time>
      </trkpt>
      <trkpt lat="43.73133" lon="6.85461">
        <ele>1282.7</ele>
        <time>2021-05-02T12:42:36Z</time>
      </trkpt>
      <trkpt lat="43.73133" lon="6.85456">
        <ele>1283.2</ele>
        <time>2021-05-02T12:42:42Z</time>
      </trkpt>
      <trkpt lat="43.73132" lon="6.85457">
        <ele>1282.4</ele>
        <time>2021-05-02T12:42:47Z</time>
      </trkpt>
      <trkpt lat="43.73132" lon="6.85452">
        <ele>1282.9</ele>
        <time>2021-05-02T12:42:53Z</time>
      </trkpt>
      <trkpt lat="43.73134" lon="6.85445">
        <ele>1284.4</ele>
        <time>2021-05-02T12:42:59Z</time>
      </trkpt>
      <trkpt lat="43.73136" lon="6.85439">
        <ele>1286</ele>
        <time>2021-05-02T12:43:05Z</time>
      </trkpt>
      <trkpt lat="43.73138" lon="6.85432">
        <ele>1287.7</ele>
        <time>2021-05-02T12:43:10Z</time>
      </trkpt>
      <trkpt lat="43.73139" lon="6.85424">
        <ele>1289</ele>
        <time>2021-05-02T12:43:16Z</time>
      </trkpt>
      <trkpt lat="43.73137" lon="6.85426">
        <ele>1287.9</ele>
        <time>2021-05-02T12:43:22Z</time>
      </trkpt>
      <trkpt lat="43.73137" lon="6.85426">
        <ele>1287.9</ele>
        <time>2021-05-02T12:43:27Z</time>
      </trkpt>
      <trkpt lat="43.73137" lon="6.85426">
        <ele>1287.9</ele>
        <time>2021-05-02T12:43:32Z</time>
      </trkpt>
      <trkpt lat="43.73137" lon="6.85426">
        <ele>1287.9</ele>
        <time>2021-05-02T12:43:38Z</time>
      </trkpt>
      <trkpt lat="43.73135" lon="6.8542">
        <ele>1287.4</ele>
        <time>2021-05-02T12:43:44Z</time>
      </trkpt>
      <trkpt lat="43.73135" lon="6.85413">
        <ele>1288.3</ele>
        <time>2021-05-02T12:43:50Z</time>
      </trkpt>
      <trkpt lat="43.73137" lon="6.85407">
        <ele>1289.7</ele>
        <time>2021-05-02T12:43:56Z</time>
      </trkpt>
      <trkpt lat="43.73137" lon="6.85406">
        <ele>1289.8</ele>
        <time>2021-05-02T12:44:01Z</time>
      </trkpt>
      <trkpt lat="43.73137" lon="6.85406">
        <ele>1289.9</ele>
        <time>2021-05-02T12:44:06Z</time>
      </trkpt>
      <trkpt lat="43.73137" lon="6.85406">
        <ele>1290.1</ele>
        <time>2021-05-02T12:44:12Z</time>
      </trkpt>
      <trkpt lat="43.73137" lon="6.85401">
        <ele>1290.9</ele>
        <time>2021-05-02T12:44:17Z</time>
      </trkpt>
      <trkpt lat="43.73138" lon="6.85394">
        <ele>1292.1</ele>
        <time>2021-05-02T12:44:23Z</time>
      </trkpt>
      <trkpt lat="43.73138" lon="6.85388">
        <ele>1292.9</ele>
        <time>2021-05-02T12:44:28Z</time>
      </trkpt>
      <trkpt lat="43.73136" lon="6.85381">
        <ele>1293</ele>
        <time>2021-05-02T12:44:34Z</time>
      </trkpt>
      <trkpt lat="43.73136" lon="6.85372">
        <ele>1294.1</ele>
        <time>2021-05-02T12:44:40Z</time>
      </trkpt>
      <trkpt lat="43.73136" lon="6.85365">
        <ele>1295</ele>
        <time>2021-05-02T12:44:46Z</time>
      </trkpt>
      <trkpt lat="43.73134" lon="6.85358">
        <ele>1294.9</ele>
        <time>2021-05-02T12:44:52Z</time>
      </trkpt>
      <trkpt lat="43.73131" lon="6.85353">
        <ele>1294.1</ele>
        <time>2021-05-02T12:44:58Z</time>
      </trkpt>
      <trkpt lat="43.7313" lon="6.85349">
        <ele>1294.3</ele>
        <time>2021-05-02T12:45:04Z</time>
      </trkpt>
      <trkpt lat="43.73129" lon="6.85344">
        <ele>1294.3</ele>
        <time>2021-05-02T12:45:09Z</time>
      </trkpt>
      <trkpt lat="43.73128" lon="6.85336">
        <ele>1295.1</ele>
        <time>2021-05-02T12:45:15Z</time>
      </trkpt>
      <trkpt lat="43.73127" lon="6.85331">
        <ele>1295.2</ele>
        <time>2021-05-02T12:45:21Z</time>
      </trkpt>
      <trkpt lat="43.73126" lon="6.85326">
        <ele>1295.9</ele>
        <time>2021-05-02T12:45:26Z</time>
      </trkpt>
      <trkpt lat="43.73125" lon="6.85321">
        <ele>1296.2</ele>
        <time>2021-05-02T12:45:32Z</time>
      </trkpt>
      <trkpt lat="43.73123" lon="6.85316">
        <ele>1296</ele>
        <time>2021-05-02T12:45:38Z</time>
      </trkpt>
      <trkpt lat="43.73123" lon="6.85312">
        <ele>1296.4</ele>
        <time>2021-05-02T12:45:43Z</time>
      </trkpt>
      <trkpt lat="43.73121" lon="6.85307">
        <ele>1296.6</ele>
        <time>2021-05-02T12:45:49Z</time>
      </trkpt>
      <trkpt lat="43.73119" lon="6.85301">
        <ele>1296.7</ele>
        <time>2021-05-02T12:45:55Z</time>
      </trkpt>
      <trkpt lat="43.73118" lon="6.85294">
        <ele>1297.1</ele>
        <time>2021-05-02T12:46:01Z</time>
      </trkpt>
      <trkpt lat="43.73116" lon="6.85289">
        <ele>1297.2</ele>
        <time>2021-05-02T12:46:07Z</time>
      </trkpt>
      <trkpt lat="43.73117" lon="6.85284">
        <ele>1298.5</ele>
        <time>2021-05-02T12:46:12Z</time>
      </trkpt>
      <trkpt lat="43.73117" lon="6.85279">
        <ele>1299.4</ele>
        <time>2021-05-02T12:46:18Z</time>
      </trkpt>
      <trkpt lat="43.73119" lon="6.85275">
        <ele>1300.8</ele>
        <time>2021-05-02T12:46:23Z</time>
      </trkpt>
      <trkpt lat="43.73119" lon="6.85271">
        <ele>1301.6</ele>
        <time>2021-05-02T12:46:28Z</time>
      </trkpt>
      <trkpt lat="43.73119" lon="6.85266">
        <ele>1302.4</ele>
        <time>2021-05-02T12:46:33Z</time>
      </trkpt>
      <trkpt lat="43.7312" lon="6.85262">
        <ele>1303.1</ele>
        <time>2021-05-02T12:46:39Z</time>
      </trkpt>
      <trkpt lat="43.73119" lon="6.85258">
        <ele>1303.7</ele>
        <time>2021-05-02T12:46:44Z</time>
      </trkpt>
      <trkpt lat="43.73119" lon="6.85257">
        <ele>1303.8</ele>
        <time>2021-05-02T12:46:50Z</time>
      </trkpt>
      <trkpt lat="43.73119" lon="6.85257">
        <ele>1303.7</ele>
        <time>2021-05-02T12:46:55Z</time>
      </trkpt>
      <trkpt lat="43.7312" lon="6.85257">
        <ele>1304.1</ele>
        <time>2021-05-02T12:47:01Z</time>
      </trkpt>
      <trkpt lat="43.7312" lon="6.85257">
        <ele>1304.1</ele>
        <time>2021-05-02T12:47:06Z</time>
      </trkpt>
      <trkpt lat="43.7312" lon="6.85257">
        <ele>1304.1</ele>
        <time>2021-05-02T12:47:11Z</time>
      </trkpt>
      <trkpt lat="43.7312" lon="6.85257">
        <ele>1304.1</ele>
        <time>2021-05-02T12:47:17Z</time>
      </trkpt>
      <trkpt lat="43.7312" lon="6.85257">
        <ele>1304.1</ele>
        <time>2021-05-02T12:47:23Z</time>
      </trkpt>
      <trkpt lat="43.7312" lon="6.85257">
        <ele>1304.1</ele>
        <time>2021-05-02T12:47:29Z</time>
      </trkpt>
      <trkpt lat="43.7312" lon="6.85257">
        <ele>1304.1</ele>
        <time>2021-05-02T12:47:34Z</time>
      </trkpt>
      <trkpt lat="43.7312" lon="6.85257">
        <ele>1304.1</ele>
        <time>2021-05-02T12:47:40Z</time>
      </trkpt>
      <trkpt lat="43.7312" lon="6.85257">
        <ele>1304.1</ele>
        <time>2021-05-02T12:47:46Z</time>
      </trkpt>
      <trkpt lat="43.7312" lon="6.85257">
        <ele>1304.3</ele>
        <time>2021-05-02T12:47:52Z</time>
      </trkpt>
      <trkpt lat="43.73121" lon="6.85257">
        <ele>1304.5</ele>
        <time>2021-05-02T12:47:58Z</time>
      </trkpt>
      <trkpt lat="43.73121" lon="6.85257">
        <ele>1304.5</ele>
        <time>2021-05-02T12:48:04Z</time>
      </trkpt>
      <trkpt lat="43.73121" lon="6.85257">
        <ele>1304.5</ele>
        <time>2021-05-02T12:48:09Z</time>
      </trkpt>
      <trkpt lat="43.73121" lon="6.85257">
        <ele>1304.5</ele>
        <time>2021-05-02T12:48:15Z</time>
      </trkpt>
      <trkpt lat="43.73121" lon="6.85257">
        <ele>1304.5</ele>
        <time>2021-05-02T12:48:20Z</time>
      </trkpt>
      <trkpt lat="43.73121" lon="6.85257">
        <ele>1304.5</ele>
        <time>2021-05-02T12:48:25Z</time>
      </trkpt>
      <trkpt lat="43.73121" lon="6.85257">
        <ele>1304.5</ele>
        <time>2021-05-02T12:48:30Z</time>
      </trkpt>
      <trkpt lat="43.73121" lon="6.85257">
        <ele>1304.5</ele>
        <time>2021-05-02T12:48:36Z</time>
      </trkpt>
      <trkpt lat="43.73121" lon="6.85257">
        <ele>1304.5</ele>
        <time>2021-05-02T12:48:42Z</time>
      </trkpt>
      <trkpt lat="43.73121" lon="6.85257">
        <ele>1304.5</ele>
        <time>2021-05-02T12:48:48Z</time>
      </trkpt>
      <trkpt lat="43.73121" lon="6.85257">
        <ele>1304.5</ele>
        <time>2021-05-02T12:48:54Z</time>
      </trkpt>
      <trkpt lat="43.73121" lon="6.85256">
        <ele>1304.6</ele>
        <time>2021-05-02T12:49:00Z</time>
      </trkpt>
      <trkpt lat="43.73121" lon="6.85256">
        <ele>1304.6</ele>
        <time>2021-05-02T12:49:06Z</time>
      </trkpt>
      <trkpt lat="43.73121" lon="6.85256">
        <ele>1304.6</ele>
        <time>2021-05-02T12:49:12Z</time>
      </trkpt>
      <trkpt lat="43.73121" lon="6.85256">
        <ele>1304.6</ele>
        <time>2021-05-02T12:49:18Z</time>
      </trkpt>
      <trkpt lat="43.7312" lon="6.85255">
        <ele>1304.5</ele>
        <time>2021-05-02T12:49:23Z</time>
      </trkpt>
      <trkpt lat="43.73121" lon="6.85254">
        <ele>1305</ele>
        <time>2021-05-02T12:49:28Z</time>
      </trkpt>
      <trkpt lat="43.73123" lon="6.85255">
        <ele>1306</ele>
        <time>2021-05-02T12:49:34Z</time>
      </trkpt>
      <trkpt lat="43.73123" lon="6.85254">
        <ele>1305.8</ele>
        <time>2021-05-02T12:49:39Z</time>
      </trkpt>
      <trkpt lat="43.73121" lon="6.85253">
        <ele>1305.4</ele>
        <time>2021-05-02T12:49:44Z</time>
      </trkpt>
      <trkpt lat="43.73122" lon="6.85253">
        <ele>1305.5</ele>
        <time>2021-05-02T12:49:50Z</time>
      </trkpt>
      <trkpt lat="43.73122" lon="6.85253">
        <ele>1305.7</ele>
        <time>2021-05-02T12:49:56Z</time>
      </trkpt>
      <trkpt lat="43.73122" lon="6.85252">
        <ele>1305.8</ele>
        <time>2021-05-02T12:50:01Z</time>
      </trkpt>
      <trkpt lat="43.73122" lon="6.85252">
        <ele>1305.8</ele>
        <time>2021-05-02T12:50:06Z</time>
      </trkpt>
      <trkpt lat="43.73122" lon="6.85252">
        <ele>1305.8</ele>
        <time>2021-05-02T12:50:12Z</time>
      </trkpt>
      <trkpt lat="43.73122" lon="6.85252">
        <ele>1305.8</ele>
        <time>2021-05-02T12:50:18Z</time>
      </trkpt>
      <trkpt lat="43.73122" lon="6.85247">
        <ele>1306.8</ele>
        <time>2021-05-02T12:50:24Z</time>
      </trkpt>
      <trkpt lat="43.73125" lon="6.8525">
        <ele>1307.4</ele>
        <time>2021-05-02T12:50:30Z</time>
      </trkpt>
      <trkpt lat="43.73124" lon="6.85249">
        <ele>1307.4</ele>
        <time>2021-05-02T12:50:36Z</time>
      </trkpt>
      <trkpt lat="43.73125" lon="6.85248">
        <ele>1307.7</ele>
        <time>2021-05-02T12:50:41Z</time>
      </trkpt>
      <trkpt lat="43.73125" lon="6.85246">
        <ele>1308.2</ele>
        <time>2021-05-02T12:50:46Z</time>
      </trkpt>
      <trkpt lat="43.73124" lon="6.85244">
        <ele>1308.4</ele>
        <time>2021-05-02T12:50:52Z</time>
      </trkpt>
      <trkpt lat="43.73125" lon="6.85244">
        <ele>1308.4</ele>
        <time>2021-05-02T12:50:57Z</time>
      </trkpt>
      <trkpt lat="43.73125" lon="6.85244">
        <ele>1308.5</ele>
        <time>2021-05-02T12:51:03Z</time>
      </trkpt>
      <trkpt lat="43.73125" lon="6.85243">
        <ele>1308.8</ele>
        <time>2021-05-02T12:51:08Z</time>
      </trkpt>
      <trkpt lat="43.73125" lon="6.85243">
        <ele>1308.8</ele>
        <time>2021-05-02T12:51:14Z</time>
      </trkpt>
      <trkpt lat="43.73125" lon="6.85243">
        <ele>1308.9</ele>
        <time>2021-05-02T12:51:20Z</time>
      </trkpt>
      <trkpt lat="43.73125" lon="6.85243">
        <ele>1308.9</ele>
        <time>2021-05-02T12:51:25Z</time>
      </trkpt>
      <trkpt lat="43.73125" lon="6.85243">
        <ele>1308.9</ele>
        <time>2021-05-02T12:51:31Z</time>
      </trkpt>
      <trkpt lat="43.73126" lon="6.85244">
        <ele>1308.9</ele>
        <time>2021-05-02T12:51:36Z</time>
      </trkpt>
      <trkpt lat="43.73126" lon="6.85244">
        <ele>1308.9</ele>
        <time>2021-05-02T12:51:42Z</time>
      </trkpt>
      <trkpt lat="43.73126" lon="6.85244">
        <ele>1308.9</ele>
        <time>2021-05-02T12:51:47Z</time>
      </trkpt>
      <trkpt lat="43.73126" lon="6.85244">
        <ele>1308.9</ele>
        <time>2021-05-02T12:51:53Z</time>
      </trkpt>
      <trkpt lat="43.73126" lon="6.85244">
        <ele>1308.9</ele>
        <time>2021-05-02T12:51:59Z</time>
      </trkpt>
      <trkpt lat="43.73126" lon="6.85244">
        <ele>1308.9</ele>
        <time>2021-05-02T12:52:04Z</time>
      </trkpt>
      <trkpt lat="43.73125" lon="6.85244">
        <ele>1308.9</ele>
        <time>2021-05-02T12:52:10Z</time>
      </trkpt>
      <trkpt lat="43.73126" lon="6.85244">
        <ele>1308.9</ele>
        <time>2021-05-02T12:52:15Z</time>
      </trkpt>
      <trkpt lat="43.73125" lon="6.85244">
        <ele>1308.9</ele>
        <time>2021-05-02T12:52:21Z</time>
      </trkpt>
      <trkpt lat="43.73125" lon="6.85244">
        <ele>1308.9</ele>
        <time>2021-05-02T12:52:26Z</time>
      </trkpt>
      <trkpt lat="43.73125" lon="6.85244">
        <ele>1308.9</ele>
        <time>2021-05-02T12:52:31Z</time>
      </trkpt>
      <trkpt lat="43.73125" lon="6.85244">
        <ele>1308.9</ele>
        <time>2021-05-02T12:52:37Z</time>
      </trkpt>
      <trkpt lat="43.73125" lon="6.85244">
        <ele>1308.9</ele>
        <time>2021-05-02T12:52:43Z</time>
      </trkpt>
      <trkpt lat="43.73125" lon="6.85244">
        <ele>1308.9</ele>
        <time>2021-05-02T12:52:49Z</time>
      </trkpt>
      <trkpt lat="43.73125" lon="6.85244">
        <ele>1308.9</ele>
        <time>2021-05-02T12:52:54Z</time>
      </trkpt>
      <trkpt lat="43.73125" lon="6.85244">
        <ele>1308.8</ele>
        <time>2021-05-02T12:53:00Z</time>
      </trkpt>
      <trkpt lat="43.73123" lon="6.85247">
        <ele>1307.3</ele>
        <time>2021-05-02T12:53:05Z</time>
      </trkpt>
      <trkpt lat="43.7312" lon="6.85248">
        <ele>1305.8</ele>
        <time>2021-05-02T12:53:10Z</time>
      </trkpt>
      <trkpt lat="43.73118" lon="6.85246">
        <ele>1304.9</ele>
        <time>2021-05-02T12:53:16Z</time>
      </trkpt>
      <trkpt lat="43.73118" lon="6.85241">
        <ele>1305.9</ele>
        <time>2021-05-02T12:53:22Z</time>
      </trkpt>
      <trkpt lat="43.73118" lon="6.85236">
        <ele>1306.9</ele>
        <time>2021-05-02T12:53:28Z</time>
      </trkpt>
      <trkpt lat="43.73114" lon="6.85231">
        <ele>1306.4</ele>
        <time>2021-05-02T12:53:34Z</time>
      </trkpt>
      <trkpt lat="43.73113" lon="6.85226">
        <ele>1306.9</ele>
        <time>2021-05-02T12:53:40Z</time>
      </trkpt>
      <trkpt lat="43.73113" lon="6.85226">
        <ele>1306.7</ele>
        <time>2021-05-02T12:53:45Z</time>
      </trkpt>
      <trkpt lat="43.73113" lon="6.85225">
        <ele>1306.8</ele>
        <time>2021-05-02T12:53:51Z</time>
      </trkpt>
      <trkpt lat="43.73111" lon="6.85219">
        <ele>1307</ele>
        <time>2021-05-02T12:53:57Z</time>
      </trkpt>
      <trkpt lat="43.73112" lon="6.85214">
        <ele>1308.3</ele>
        <time>2021-05-02T12:54:02Z</time>
      </trkpt>
      <trkpt lat="43.73113" lon="6.8521">
        <ele>1309.5</ele>
        <time>2021-05-02T12:54:07Z</time>
      </trkpt>
      <trkpt lat="43.73112" lon="6.85206">
        <ele>1310.1</ele>
        <time>2021-05-02T12:54:12Z</time>
      </trkpt>
      <trkpt lat="43.73112" lon="6.85203">
        <ele>1310.5</ele>
        <time>2021-05-02T12:54:18Z</time>
      </trkpt>
      <trkpt lat="43.73112" lon="6.85202">
        <ele>1310.7</ele>
        <time>2021-05-02T12:54:23Z</time>
      </trkpt>
      <trkpt lat="43.73111" lon="6.85196">
        <ele>1311.4</ele>
        <time>2021-05-02T12:54:29Z</time>
      </trkpt>
      <trkpt lat="43.7311" lon="6.8519">
        <ele>1312.3</ele>
        <time>2021-05-02T12:54:34Z</time>
      </trkpt>
      <trkpt lat="43.73114" lon="6.85187">
        <ele>1314.4</ele>
        <time>2021-05-02T12:54:40Z</time>
      </trkpt>
      <trkpt lat="43.73113" lon="6.85189">
        <ele>1313.7</ele>
        <time>2021-05-02T12:54:46Z</time>
      </trkpt>
      <trkpt lat="43.73114" lon="6.8519">
        <ele>1313.8</ele>
        <time>2021-05-02T12:54:51Z</time>
      </trkpt>
      <trkpt lat="43.73112" lon="6.85185">
        <ele>1313.8</ele>
        <time>2021-05-02T12:54:57Z</time>
      </trkpt>
      <trkpt lat="43.73111" lon="6.85182">
        <ele>1314</ele>
        <time>2021-05-02T12:55:03Z</time>
      </trkpt>
      <trkpt lat="43.73112" lon="6.85179">
        <ele>1315.1</ele>
        <time>2021-05-02T12:55:09Z</time>
      </trkpt>
      <trkpt lat="43.73117" lon="6.85169">
        <ele>1319.2</ele>
        <time>2021-05-02T12:55:14Z</time>
      </trkpt>
      <trkpt lat="43.73117" lon="6.85166">
        <ele>1319.8</ele>
        <time>2021-05-02T12:55:20Z</time>
      </trkpt>
      <trkpt lat="43.73117" lon="6.85167">
        <ele>1319.3</ele>
        <time>2021-05-02T12:55:25Z</time>
      </trkpt>
      <trkpt lat="43.73117" lon="6.85169">
        <ele>1319.1</ele>
        <time>2021-05-02T12:55:31Z</time>
      </trkpt>
      <trkpt lat="43.73118" lon="6.85173">
        <ele>1318.7</ele>
        <time>2021-05-02T12:55:37Z</time>
      </trkpt>
      <trkpt lat="43.73117" lon="6.85171">
        <ele>1318.8</ele>
        <time>2021-05-02T12:55:42Z</time>
      </trkpt>
      <trkpt lat="43.73116" lon="6.85172">
        <ele>1318</ele>
        <time>2021-05-02T12:55:48Z</time>
      </trkpt>
      <trkpt lat="43.73115" lon="6.8517">
        <ele>1317.8</ele>
        <time>2021-05-02T12:55:54Z</time>
      </trkpt>
      <trkpt lat="43.73114" lon="6.85171">
        <ele>1317.5</ele>
        <time>2021-05-02T12:55:59Z</time>
      </trkpt>
      <trkpt lat="43.73114" lon="6.85171">
        <ele>1317.4</ele>
        <time>2021-05-02T12:56:04Z</time>
      </trkpt>
      <trkpt lat="43.73114" lon="6.85171">
        <ele>1317.4</ele>
        <time>2021-05-02T12:56:10Z</time>
      </trkpt>
      <trkpt lat="43.73114" lon="6.85171">
        <ele>1317.4</ele>
        <time>2021-05-02T12:56:16Z</time>
      </trkpt>
      <trkpt lat="43.73114" lon="6.85171">
        <ele>1317.3</ele>
        <time>2021-05-02T12:56:22Z</time>
      </trkpt>
      <trkpt lat="43.73114" lon="6.85171">
        <ele>1317.3</ele>
        <time>2021-05-02T12:56:27Z</time>
      </trkpt>
      <trkpt lat="43.73114" lon="6.85171">
        <ele>1317.3</ele>
        <time>2021-05-02T12:56:33Z</time>
      </trkpt>
      <trkpt lat="43.73114" lon="6.85171">
        <ele>1317.3</ele>
        <time>2021-05-02T12:56:39Z</time>
      </trkpt>
      <trkpt lat="43.73114" lon="6.85171">
        <ele>1317.3</ele>
        <time>2021-05-02T12:56:45Z</time>
      </trkpt>
      <trkpt lat="43.73114" lon="6.85171">
        <ele>1317.3</ele>
        <time>2021-05-02T12:56:51Z</time>
      </trkpt>
      <trkpt lat="43.73114" lon="6.85171">
        <ele>1317.3</ele>
        <time>2021-05-02T12:56:56Z</time>
      </trkpt>
      <trkpt lat="43.73114" lon="6.85171">
        <ele>1317.3</ele>
        <time>2021-05-02T12:57:02Z</time>
      </trkpt>
      <trkpt lat="43.73114" lon="6.8517">
        <ele>1317.3</ele>
        <time>2021-05-02T12:57:07Z</time>
      </trkpt>
      <trkpt lat="43.73114" lon="6.85171">
        <ele>1317.3</ele>
        <time>2021-05-02T12:57:12Z</time>
      </trkpt>
      <trkpt lat="43.73114" lon="6.85171">
        <ele>1317.3</ele>
        <time>2021-05-02T12:57:18Z</time>
      </trkpt>
      <trkpt lat="43.73114" lon="6.85171">
        <ele>1317.3</ele>
        <time>2021-05-02T12:57:24Z</time>
      </trkpt>
      <trkpt lat="43.73114" lon="6.85171">
        <ele>1317.3</ele>
        <time>2021-05-02T12:57:29Z</time>
      </trkpt>
      <trkpt lat="43.73114" lon="6.85171">
        <ele>1317.3</ele>
        <time>2021-05-02T12:57:34Z</time>
      </trkpt>
      <trkpt lat="43.73114" lon="6.85171">
        <ele>1317.3</ele>
        <time>2021-05-02T12:57:40Z</time>
      </trkpt>
      <trkpt lat="43.73114" lon="6.85171">
        <ele>1317.4</ele>
        <time>2021-05-02T12:57:46Z</time>
      </trkpt>
      <trkpt lat="43.73114" lon="6.85171">
        <ele>1317.4</ele>
        <time>2021-05-02T12:57:51Z</time>
      </trkpt>
      <trkpt lat="43.73114" lon="6.85171">
        <ele>1317.4</ele>
        <time>2021-05-02T12:57:57Z</time>
      </trkpt>
      <trkpt lat="43.73114" lon="6.85171">
        <ele>1317.4</ele>
        <time>2021-05-02T12:58:03Z</time>
      </trkpt>
      <trkpt lat="43.73114" lon="6.85171">
        <ele>1317.4</ele>
        <time>2021-05-02T12:58:09Z</time>
      </trkpt>
      <trkpt lat="43.73114" lon="6.85171">
        <ele>1317.4</ele>
        <time>2021-05-02T12:58:14Z</time>
      </trkpt>
      <trkpt lat="43.73114" lon="6.85171">
        <ele>1317.4</ele>
        <time>2021-05-02T12:58:20Z</time>
      </trkpt>
      <trkpt lat="43.73114" lon="6.85171">
        <ele>1317.4</ele>
        <time>2021-05-02T12:58:26Z</time>
      </trkpt>
      <trkpt lat="43.73114" lon="6.8517">
        <ele>1317.4</ele>
        <time>2021-05-02T12:58:32Z</time>
      </trkpt>
      <trkpt lat="43.73114" lon="6.8517">
        <ele>1317.4</ele>
        <time>2021-05-02T12:58:37Z</time>
      </trkpt>
      <trkpt lat="43.73114" lon="6.8517">
        <ele>1317.4</ele>
        <time>2021-05-02T12:58:43Z</time>
      </trkpt>
      <trkpt lat="43.73112" lon="6.85169">
        <ele>1317.2</ele>
        <time>2021-05-02T12:58:49Z</time>
      </trkpt>
      <trkpt lat="43.73111" lon="6.85168">
        <ele>1316.7</ele>
        <time>2021-05-02T12:58:55Z</time>
      </trkpt>
      <trkpt lat="43.73111" lon="6.85167">
        <ele>1316.6</ele>
        <time>2021-05-02T12:59:00Z</time>
      </trkpt>
      <trkpt lat="43.73111" lon="6.85167">
        <ele>1316.6</ele>
        <time>2021-05-02T12:59:05Z</time>
      </trkpt>
      <trkpt lat="43.7311" lon="6.85167">
        <ele>1316.6</ele>
        <time>2021-05-02T12:59:11Z</time>
      </trkpt>
      <trkpt lat="43.7311" lon="6.85167">
        <ele>1316.5</ele>
        <time>2021-05-02T12:59:16Z</time>
      </trkpt>
      <trkpt lat="43.7311" lon="6.85167">
        <ele>1316.8</ele>
        <time>2021-05-02T12:59:21Z</time>
      </trkpt>
      <trkpt lat="43.73111" lon="6.85166">
        <ele>1316.8</ele>
        <time>2021-05-02T12:59:27Z</time>
      </trkpt>
      <trkpt lat="43.73111" lon="6.85166">
        <ele>1316.8</ele>
        <time>2021-05-02T12:59:32Z</time>
      </trkpt>
      <trkpt lat="43.7311" lon="6.85167">
        <ele>1316.6</ele>
        <time>2021-05-02T12:59:38Z</time>
      </trkpt>
      <trkpt lat="43.7311" lon="6.85169">
        <ele>1316.1</ele>
        <time>2021-05-02T12:59:44Z</time>
      </trkpt>
      <trkpt lat="43.73108" lon="6.85169">
        <ele>1315.1</ele>
        <time>2021-05-02T12:59:50Z</time>
      </trkpt>
      <trkpt lat="43.73106" lon="6.85169">
        <ele>1314.5</ele>
        <time>2021-05-02T12:59:56Z</time>
      </trkpt>
      <trkpt lat="43.73106" lon="6.85169">
        <ele>1314.5</ele>
        <time>2021-05-02T13:00:02Z</time>
      </trkpt>
      <trkpt lat="43.73105" lon="6.85165">
        <ele>1314.8</ele>
        <time>2021-05-02T13:00:07Z</time>
      </trkpt>
      <trkpt lat="43.73102" lon="6.85162">
        <ele>1313.9</ele>
        <time>2021-05-02T13:00:12Z</time>
      </trkpt>
      <trkpt lat="43.73097" lon="6.8516">
        <ele>1311.9</ele>
        <time>2021-05-02T13:00:18Z</time>
      </trkpt>
      <trkpt lat="43.73092" lon="6.85156">
        <ele>1310.2</ele>
        <time>2021-05-02T13:00:24Z</time>
      </trkpt>
      <trkpt lat="43.73086" lon="6.8515">
        <ele>1308.7</ele>
        <time>2021-05-02T13:00:30Z</time>
      </trkpt>
      <trkpt lat="43.73086" lon="6.85145">
        <ele>1309.4</ele>
        <time>2021-05-02T13:00:35Z</time>
      </trkpt>
      <trkpt lat="43.73084" lon="6.85139">
        <ele>1309.8</ele>
        <time>2021-05-02T13:00:40Z</time>
      </trkpt>
      <trkpt lat="43.73083" lon="6.85135">
        <ele>1309.9</ele>
        <time>2021-05-02T13:00:46Z</time>
      </trkpt>
      <trkpt lat="43.73081" lon="6.85128">
        <ele>1310.6</ele>
        <time>2021-05-02T13:00:52Z</time>
      </trkpt>
      <trkpt lat="43.7308" lon="6.85121">
        <ele>1311.4</ele>
        <time>2021-05-02T13:00:57Z</time>
      </trkpt>
      <trkpt lat="43.73081" lon="6.85112">
        <ele>1313.1</ele>
        <time>2021-05-02T13:01:03Z</time>
      </trkpt>
      <trkpt lat="43.7308" lon="6.85106">
        <ele>1313.9</ele>
        <time>2021-05-02T13:01:09Z</time>
      </trkpt>
      <trkpt lat="43.7308" lon="6.85104">
        <ele>1314.1</ele>
        <time>2021-05-02T13:01:14Z</time>
      </trkpt>
      <trkpt lat="43.73078" lon="6.85101">
        <ele>1314.2</ele>
        <time>2021-05-02T13:01:20Z</time>
      </trkpt>
      <trkpt lat="43.73074" lon="6.85099">
        <ele>1313.8</ele>
        <time>2021-05-02T13:01:26Z</time>
      </trkpt>
      <trkpt lat="43.73072" lon="6.85092">
        <ele>1314.7</ele>
        <time>2021-05-02T13:01:32Z</time>
      </trkpt>
      <trkpt lat="43.73072" lon="6.85086">
        <ele>1315.6</ele>
        <time>2021-05-02T13:01:38Z</time>
      </trkpt>
      <trkpt lat="43.73067" lon="6.85083">
        <ele>1315.4</ele>
        <time>2021-05-02T13:01:44Z</time>
      </trkpt>
      <trkpt lat="43.73062" lon="6.85081">
        <ele>1314.8</ele>
        <time>2021-05-02T13:01:50Z</time>
      </trkpt>
      <trkpt lat="43.73058" lon="6.85077">
        <ele>1315</ele>
        <time>2021-05-02T13:01:55Z</time>
      </trkpt>
      <trkpt lat="43.73054" lon="6.85074">
        <ele>1314.7</ele>
        <time>2021-05-02T13:02:01Z</time>
      </trkpt>
      <trkpt lat="43.73052" lon="6.85072">
        <ele>1315</ele>
        <time>2021-05-02T13:02:07Z</time>
      </trkpt>
      <trkpt lat="43.73053" lon="6.85072">
        <ele>1315</ele>
        <time>2021-05-02T13:02:13Z</time>
      </trkpt>
      <trkpt lat="43.73053" lon="6.85072">
        <ele>1315</ele>
        <time>2021-05-02T13:02:19Z</time>
      </trkpt>
      <trkpt lat="43.73055" lon="6.85068">
        <ele>1316.1</ele>
        <time>2021-05-02T13:02:25Z</time>
      </trkpt>
      <trkpt lat="43.73055" lon="6.85067">
        <ele>1316.3</ele>
        <time>2021-05-02T13:02:30Z</time>
      </trkpt>
      <trkpt lat="43.73055" lon="6.85067">
        <ele>1316.3</ele>
        <time>2021-05-02T13:02:36Z</time>
      </trkpt>
      <trkpt lat="43.73055" lon="6.85067">
        <ele>1316.3</ele>
        <time>2021-05-02T13:02:42Z</time>
      </trkpt>
      <trkpt lat="43.73055" lon="6.85067">
        <ele>1316.3</ele>
        <time>2021-05-02T13:02:47Z</time>
      </trkpt>
      <trkpt lat="43.73055" lon="6.85067">
        <ele>1316.3</ele>
        <time>2021-05-02T13:02:52Z</time>
      </trkpt>
      <trkpt lat="43.73055" lon="6.85067">
        <ele>1316.3</ele>
        <time>2021-05-02T13:02:58Z</time>
      </trkpt>
      <trkpt lat="43.73055" lon="6.85067">
        <ele>1316.5</ele>
        <time>2021-05-02T13:03:04Z</time>
      </trkpt>
      <trkpt lat="43.73055" lon="6.85066">
        <ele>1316.5</ele>
        <time>2021-05-02T13:03:09Z</time>
      </trkpt>
      <trkpt lat="43.73055" lon="6.85066">
        <ele>1316.5</ele>
        <time>2021-05-02T13:03:15Z</time>
      </trkpt>
      <trkpt lat="43.73055" lon="6.85066">
        <ele>1316.6</ele>
        <time>2021-05-02T13:03:21Z</time>
      </trkpt>
      <trkpt lat="43.73058" lon="6.85068">
        <ele>1316.6</ele>
        <time>2021-05-02T13:03:27Z</time>
      </trkpt>
      <trkpt lat="43.73061" lon="6.85068">
        <ele>1317.2</ele>
        <time>2021-05-02T13:03:32Z</time>
      </trkpt>
      <trkpt lat="43.73063" lon="6.85074">
        <ele>1316.4</ele>
        <time>2021-05-02T13:03:38Z</time>
      </trkpt>
      <trkpt lat="43.73066" lon="6.85079">
        <ele>1316</ele>
        <time>2021-05-02T13:03:44Z</time>
      </trkpt>
      <trkpt lat="43.7307" lon="6.85083">
        <ele>1315.7</ele>
        <time>2021-05-02T13:03:49Z</time>
      </trkpt>
      <trkpt lat="43.73075" lon="6.85087">
        <ele>1315.9</ele>
        <time>2021-05-02T13:03:55Z</time>
      </trkpt>
      <trkpt lat="43.73077" lon="6.85093">
        <ele>1315.4</ele>
        <time>2021-05-02T13:04:00Z</time>
      </trkpt>
      <trkpt lat="43.7308" lon="6.85099">
        <ele>1314.9</ele>
        <time>2021-05-02T13:04:06Z</time>
      </trkpt>
      <trkpt lat="43.7308" lon="6.85104">
        <ele>1314.2</ele>
        <time>2021-05-02T13:04:11Z</time>
      </trkpt>
      <trkpt lat="43.73081" lon="6.85107">
        <ele>1313.8</ele>
        <time>2021-05-02T13:04:16Z</time>
      </trkpt>
      <trkpt lat="43.7308" lon="6.85107">
        <ele>1313.6</ele>
        <time>2021-05-02T13:04:22Z</time>
      </trkpt>
      <trkpt lat="43.73083" lon="6.85111">
        <ele>1313.6</ele>
        <time>2021-05-02T13:04:27Z</time>
      </trkpt>
      <trkpt lat="43.73086" lon="6.85116">
        <ele>1314.1</ele>
        <time>2021-05-02T13:04:32Z</time>
      </trkpt>
      <trkpt lat="43.73088" lon="6.85123">
        <ele>1313.8</ele>
        <time>2021-05-02T13:04:38Z</time>
      </trkpt>
      <trkpt lat="43.73092" lon="6.85129">
        <ele>1314.6</ele>
        <time>2021-05-02T13:04:44Z</time>
      </trkpt>
      <trkpt lat="43.73094" lon="6.85133">
        <ele>1314.9</ele>
        <time>2021-05-02T13:04:49Z</time>
      </trkpt>
      <trkpt lat="43.73098" lon="6.85139">
        <ele>1315.9</ele>
        <time>2021-05-02T13:04:55Z</time>
      </trkpt>
      <trkpt lat="43.73098" lon="6.85144">
        <ele>1315.2</ele>
        <time>2021-05-02T13:05:00Z</time>
      </trkpt>
      <trkpt lat="43.73099" lon="6.85149">
        <ele>1314.6</ele>
        <time>2021-05-02T13:05:06Z</time>
      </trkpt>
      <trkpt lat="43.73097" lon="6.85154">
        <ele>1312.9</ele>
        <time>2021-05-02T13:05:12Z</time>
      </trkpt>
      <trkpt lat="43.73093" lon="6.85156">
        <ele>1310.8</ele>
        <time>2021-05-02T13:05:18Z</time>
      </trkpt>
      <trkpt lat="43.73089" lon="6.85156">
        <ele>1309.2</ele>
        <time>2021-05-02T13:05:23Z</time>
      </trkpt>
      <trkpt lat="43.73086" lon="6.85156">
        <ele>1307.7</ele>
        <time>2021-05-02T13:05:29Z</time>
      </trkpt>
      <trkpt lat="43.73085" lon="6.85157">
        <ele>1307.2</ele>
        <time>2021-05-02T13:05:34Z</time>
      </trkpt>
      <trkpt lat="43.73082" lon="6.85157">
        <ele>1306.4</ele>
        <time>2021-05-02T13:05:40Z</time>
      </trkpt>
      <trkpt lat="43.73079" lon="6.85154">
        <ele>1306.1</ele>
        <time>2021-05-02T13:05:46Z</time>
      </trkpt>
      <trkpt lat="43.73075" lon="6.85149">
        <ele>1305.8</ele>
        <time>2021-05-02T13:05:52Z</time>
      </trkpt>
      <trkpt lat="43.73071" lon="6.85147">
        <ele>1305.4</ele>
        <time>2021-05-02T13:05:58Z</time>
      </trkpt>
      <trkpt lat="43.73066" lon="6.85144">
        <ele>1304.9</ele>
        <time>2021-05-02T13:06:04Z</time>
      </trkpt>
      <trkpt lat="43.73064" lon="6.85142">
        <ele>1304.8</ele>
        <time>2021-05-02T13:06:09Z</time>
      </trkpt>
      <trkpt lat="43.7306" lon="6.8514">
        <ele>1304.2</ele>
        <time>2021-05-02T13:06:14Z</time>
      </trkpt>
      <trkpt lat="43.73057" lon="6.85138">
        <ele>1304</ele>
        <time>2021-05-02T13:06:19Z</time>
      </trkpt>
      <trkpt lat="43.73053" lon="6.85137">
        <ele>1303.2</ele>
        <time>2021-05-02T13:06:24Z</time>
      </trkpt>
      <trkpt lat="43.73049" lon="6.85136">
        <ele>1302.6</ele>
        <time>2021-05-02T13:06:29Z</time>
      </trkpt>
      <trkpt lat="43.73045" lon="6.85135">
        <ele>1302</ele>
        <time>2021-05-02T13:06:35Z</time>
      </trkpt>
      <trkpt lat="43.73041" lon="6.85135">
        <ele>1301.3</ele>
        <time>2021-05-02T13:06:41Z</time>
      </trkpt>
      <trkpt lat="43.73037" lon="6.85134">
        <ele>1300.7</ele>
        <time>2021-05-02T13:06:46Z</time>
      </trkpt>
      <trkpt lat="43.73033" lon="6.85135">
        <ele>1299.5</ele>
        <time>2021-05-02T13:06:52Z</time>
      </trkpt>
      <trkpt lat="43.73028" lon="6.85136">
        <ele>1298.4</ele>
        <time>2021-05-02T13:06:58Z</time>
      </trkpt>
      <trkpt lat="43.73023" lon="6.85138">
        <ele>1297.1</ele>
        <time>2021-05-02T13:07:03Z</time>
      </trkpt>
      <trkpt lat="43.73019" lon="6.8514">
        <ele>1295.8</ele>
        <time>2021-05-02T13:07:08Z</time>
      </trkpt>
      <trkpt lat="43.73015" lon="6.85143">
        <ele>1294.4</ele>
        <time>2021-05-02T13:07:13Z</time>
      </trkpt>
      <trkpt lat="43.73011" lon="6.85145">
        <ele>1293</ele>
        <time>2021-05-02T13:07:19Z</time>
      </trkpt>
      <trkpt lat="43.73008" lon="6.8515">
        <ele>1291.4</ele>
        <time>2021-05-02T13:07:25Z</time>
      </trkpt>
      <trkpt lat="43.73009" lon="6.85149">
        <ele>1291.6</ele>
        <time>2021-05-02T13:07:31Z</time>
      </trkpt>
      <trkpt lat="43.73009" lon="6.85149">
        <ele>1291.6</ele>
        <time>2021-05-02T13:07:37Z</time>
      </trkpt>
      <trkpt lat="43.73008" lon="6.85149">
        <ele>1291.6</ele>
        <time>2021-05-02T13:07:43Z</time>
      </trkpt>
      <trkpt lat="43.73008" lon="6.85149">
        <ele>1291.6</ele>
        <time>2021-05-02T13:07:49Z</time>
      </trkpt>
      <trkpt lat="43.73006" lon="6.8515">
        <ele>1290.9</ele>
        <time>2021-05-02T13:07:55Z</time>
      </trkpt>
      <trkpt lat="43.73006" lon="6.8515">
        <ele>1290.9</ele>
        <time>2021-05-02T13:08:00Z</time>
      </trkpt>
      <trkpt lat="43.73006" lon="6.85149">
        <ele>1291</ele>
        <time>2021-05-02T13:08:06Z</time>
      </trkpt>
      <trkpt lat="43.73006" lon="6.85149">
        <ele>1291</ele>
        <time>2021-05-02T13:08:11Z</time>
      </trkpt>
      <trkpt lat="43.73006" lon="6.85149">
        <ele>1291</ele>
        <time>2021-05-02T13:08:17Z</time>
      </trkpt>
      <trkpt lat="43.73006" lon="6.85149">
        <ele>1291</ele>
        <time>2021-05-02T13:08:22Z</time>
      </trkpt>
      <trkpt lat="43.73005" lon="6.85149">
        <ele>1290.9</ele>
        <time>2021-05-02T13:08:28Z</time>
      </trkpt>
      <trkpt lat="43.73005" lon="6.8515">
        <ele>1290.9</ele>
        <time>2021-05-02T13:08:34Z</time>
      </trkpt>
      <trkpt lat="43.73005" lon="6.85149">
        <ele>1290.9</ele>
        <time>2021-05-02T13:08:39Z</time>
      </trkpt>
      <trkpt lat="43.73005" lon="6.85149">
        <ele>1290.9</ele>
        <time>2021-05-02T13:08:45Z</time>
      </trkpt>
      <trkpt lat="43.73005" lon="6.8515">
        <ele>1290.8</ele>
        <time>2021-05-02T13:08:51Z</time>
      </trkpt>
      <trkpt lat="43.73005" lon="6.8515">
        <ele>1290.8</ele>
        <time>2021-05-02T13:08:57Z</time>
      </trkpt>
      <trkpt lat="43.73006" lon="6.8515">
        <ele>1290.9</ele>
        <time>2021-05-02T13:09:02Z</time>
      </trkpt>
      <trkpt lat="43.73005" lon="6.85149">
        <ele>1290.9</ele>
        <time>2021-05-02T13:09:08Z</time>
      </trkpt>
      <trkpt lat="43.73005" lon="6.85149">
        <ele>1290.8</ele>
        <time>2021-05-02T13:09:13Z</time>
      </trkpt>
      <trkpt lat="43.73005" lon="6.85149">
        <ele>1290.8</ele>
        <time>2021-05-02T13:09:19Z</time>
      </trkpt>
      <trkpt lat="43.73005" lon="6.85149">
        <ele>1290.8</ele>
        <time>2021-05-02T13:09:24Z</time>
      </trkpt>
      <trkpt lat="43.73005" lon="6.85149">
        <ele>1290.8</ele>
        <time>2021-05-02T13:09:30Z</time>
      </trkpt>
      <trkpt lat="43.73005" lon="6.85149">
        <ele>1290.8</ele>
        <time>2021-05-02T13:09:36Z</time>
      </trkpt>
      <trkpt lat="43.73005" lon="6.85149">
        <ele>1290.8</ele>
        <time>2021-05-02T13:09:42Z</time>
      </trkpt>
      <trkpt lat="43.73004" lon="6.85149">
        <ele>1290.8</ele>
        <time>2021-05-02T13:09:47Z</time>
      </trkpt>
      <trkpt lat="43.73004" lon="6.85149">
        <ele>1290.6</ele>
        <time>2021-05-02T13:09:53Z</time>
      </trkpt>
      <trkpt lat="43.73004" lon="6.85149">
        <ele>1290.6</ele>
        <time>2021-05-02T13:09:59Z</time>
      </trkpt>
      <trkpt lat="43.73004" lon="6.85149">
        <ele>1290.6</ele>
        <time>2021-05-02T13:10:05Z</time>
      </trkpt>
      <trkpt lat="43.73003" lon="6.85149">
        <ele>1290.5</ele>
        <time>2021-05-02T13:10:11Z</time>
      </trkpt>
      <trkpt lat="43.73004" lon="6.85149">
        <ele>1290.7</ele>
        <time>2021-05-02T13:10:16Z</time>
      </trkpt>
      <trkpt lat="43.73004" lon="6.85149">
        <ele>1290.7</ele>
        <time>2021-05-02T13:10:22Z</time>
      </trkpt>
      <trkpt lat="43.72998" lon="6.85141">
        <ele>1291.3</ele>
        <time>2021-05-02T13:10:28Z</time>
      </trkpt>
      <trkpt lat="43.72998" lon="6.85141">
        <ele>1291.2</ele>
        <time>2021-05-02T13:10:33Z</time>
      </trkpt>
      <trkpt lat="43.72997" lon="6.85141">
        <ele>1291.2</ele>
        <time>2021-05-02T13:10:39Z</time>
      </trkpt>
      <trkpt lat="43.72997" lon="6.85141">
        <ele>1291.3</ele>
        <time>2021-05-02T13:10:45Z</time>
      </trkpt>
      <trkpt lat="43.72997" lon="6.85141">
        <ele>1291.3</ele>
        <time>2021-05-02T13:10:50Z</time>
      </trkpt>
      <trkpt lat="43.72998" lon="6.8514">
        <ele>1291.4</ele>
        <time>2021-05-02T13:10:56Z</time>
      </trkpt>
      <trkpt lat="43.72998" lon="6.8514">
        <ele>1291.4</ele>
        <time>2021-05-02T13:11:01Z</time>
      </trkpt>
      <trkpt lat="43.72998" lon="6.8514">
        <ele>1291.4</ele>
        <time>2021-05-02T13:11:07Z</time>
      </trkpt>
      <trkpt lat="43.72997" lon="6.8514">
        <ele>1291.4</ele>
        <time>2021-05-02T13:11:12Z</time>
      </trkpt>
      <trkpt lat="43.72997" lon="6.8514">
        <ele>1291.4</ele>
        <time>2021-05-02T13:11:18Z</time>
      </trkpt>
      <trkpt lat="43.72997" lon="6.8514">
        <ele>1291.4</ele>
        <time>2021-05-02T13:11:23Z</time>
      </trkpt>
      <trkpt lat="43.72997" lon="6.8514">
        <ele>1291.4</ele>
        <time>2021-05-02T13:11:29Z</time>
      </trkpt>
      <trkpt lat="43.72997" lon="6.8514">
        <ele>1291.4</ele>
        <time>2021-05-02T13:11:35Z</time>
      </trkpt>
      <trkpt lat="43.72997" lon="6.8514">
        <ele>1291.4</ele>
        <time>2021-05-02T13:11:40Z</time>
      </trkpt>
      <trkpt lat="43.72997" lon="6.8514">
        <ele>1291.4</ele>
        <time>2021-05-02T13:11:45Z</time>
      </trkpt>
      <trkpt lat="43.72997" lon="6.8514">
        <ele>1291.4</ele>
        <time>2021-05-02T13:11:51Z</time>
      </trkpt>
      <trkpt lat="43.72997" lon="6.8514">
        <ele>1291.4</ele>
        <time>2021-05-02T13:11:57Z</time>
      </trkpt>
      <trkpt lat="43.72997" lon="6.8514">
        <ele>1291.4</ele>
        <time>2021-05-02T13:12:03Z</time>
      </trkpt>
      <trkpt lat="43.72997" lon="6.8514">
        <ele>1291.4</ele>
        <time>2021-05-02T13:12:09Z</time>
      </trkpt>
      <trkpt lat="43.72997" lon="6.8514">
        <ele>1291.4</ele>
        <time>2021-05-02T13:12:14Z</time>
      </trkpt>
      <trkpt lat="43.72997" lon="6.8514">
        <ele>1291.4</ele>
        <time>2021-05-02T13:12:19Z</time>
      </trkpt>
      <trkpt lat="43.72997" lon="6.8514">
        <ele>1291.4</ele>
        <time>2021-05-02T13:12:25Z</time>
      </trkpt>
      <trkpt lat="43.72997" lon="6.8514">
        <ele>1291.4</ele>
        <time>2021-05-02T13:12:30Z</time>
      </trkpt>
      <trkpt lat="43.72997" lon="6.8514">
        <ele>1291.4</ele>
        <time>2021-05-02T13:12:35Z</time>
      </trkpt>
      <trkpt lat="43.72997" lon="6.8514">
        <ele>1291.4</ele>
        <time>2021-05-02T13:12:41Z</time>
      </trkpt>
      <trkpt lat="43.72997" lon="6.8514">
        <ele>1291.4</ele>
        <time>2021-05-02T13:12:47Z</time>
      </trkpt>
      <trkpt lat="43.72997" lon="6.8514">
        <ele>1291.4</ele>
        <time>2021-05-02T13:12:53Z</time>
      </trkpt>
      <trkpt lat="43.72997" lon="6.8514">
        <ele>1291.4</ele>
        <time>2021-05-02T13:12:59Z</time>
      </trkpt>
      <trkpt lat="43.72997" lon="6.8514">
        <ele>1291.4</ele>
        <time>2021-05-02T13:13:05Z</time>
      </trkpt>
      <trkpt lat="43.72997" lon="6.8514">
        <ele>1291.4</ele>
        <time>2021-05-02T13:13:10Z</time>
      </trkpt>
      <trkpt lat="43.72997" lon="6.8514">
        <ele>1291.4</ele>
        <time>2021-05-02T13:13:15Z</time>
      </trkpt>
      <trkpt lat="43.72997" lon="6.8514">
        <ele>1291.4</ele>
        <time>2021-05-02T13:13:21Z</time>
      </trkpt>
      <trkpt lat="43.72997" lon="6.8514">
        <ele>1291.4</ele>
        <time>2021-05-02T13:13:26Z</time>
      </trkpt>
      <trkpt lat="43.72997" lon="6.8514">
        <ele>1291.4</ele>
        <time>2021-05-02T13:13:31Z</time>
      </trkpt>
      <trkpt lat="43.72997" lon="6.8514">
        <ele>1291.4</ele>
        <time>2021-05-02T13:13:37Z</time>
      </trkpt>
      <trkpt lat="43.72997" lon="6.8514">
        <ele>1291.4</ele>
        <time>2021-05-02T13:13:42Z</time>
      </trkpt>
      <trkpt lat="43.72997" lon="6.8514">
        <ele>1291.4</ele>
        <time>2021-05-02T13:13:48Z</time>
      </trkpt>
      <trkpt lat="43.72997" lon="6.8514">
        <ele>1291.4</ele>
        <time>2021-05-02T13:13:54Z</time>
      </trkpt>
      <trkpt lat="43.72998" lon="6.8514">
        <ele>1291.4</ele>
        <time>2021-05-02T13:14:00Z</time>
      </trkpt>
      <trkpt lat="43.72998" lon="6.8514">
        <ele>1291.4</ele>
        <time>2021-05-02T13:14:05Z</time>
      </trkpt>
      <trkpt lat="43.72998" lon="6.8514">
        <ele>1291.4</ele>
        <time>2021-05-02T13:14:11Z</time>
      </trkpt>
      <trkpt lat="43.72998" lon="6.8514">
        <ele>1291.4</ele>
        <time>2021-05-02T13:14:17Z</time>
      </trkpt>
      <trkpt lat="43.72998" lon="6.8514">
        <ele>1291.4</ele>
        <time>2021-05-02T13:14:22Z</time>
      </trkpt>
      <trkpt lat="43.72998" lon="6.8514">
        <ele>1291.4</ele>
        <time>2021-05-02T13:14:28Z</time>
      </trkpt>
      <trkpt lat="43.72998" lon="6.8514">
        <ele>1291.4</ele>
        <time>2021-05-02T13:14:34Z</time>
      </trkpt>
      <trkpt lat="43.72998" lon="6.8514">
        <ele>1291.4</ele>
        <time>2021-05-02T13:14:40Z</time>
      </trkpt>
      <trkpt lat="43.72998" lon="6.8514">
        <ele>1291.4</ele>
        <time>2021-05-02T13:14:46Z</time>
      </trkpt>
      <trkpt lat="43.72998" lon="6.8514">
        <ele>1291.4</ele>
        <time>2021-05-02T13:14:51Z</time>
      </trkpt>
      <trkpt lat="43.72998" lon="6.8514">
        <ele>1291.4</ele>
        <time>2021-05-02T13:14:57Z</time>
      </trkpt>
      <trkpt lat="43.72998" lon="6.8514">
        <ele>1291.4</ele>
        <time>2021-05-02T13:15:02Z</time>
      </trkpt>
      <trkpt lat="43.72998" lon="6.8514">
        <ele>1291.4</ele>
        <time>2021-05-02T13:15:08Z</time>
      </trkpt>
      <trkpt lat="43.72998" lon="6.8514">
        <ele>1291.4</ele>
        <time>2021-05-02T13:15:13Z</time>
      </trkpt>
      <trkpt lat="43.72998" lon="6.8514">
        <ele>1291.4</ele>
        <time>2021-05-02T13:15:19Z</time>
      </trkpt>
      <trkpt lat="43.72998" lon="6.8514">
        <ele>1291.4</ele>
        <time>2021-05-02T13:15:25Z</time>
      </trkpt>
      <trkpt lat="43.72998" lon="6.8514">
        <ele>1291.4</ele>
        <time>2021-05-02T13:15:31Z</time>
      </trkpt>
      <trkpt lat="43.72998" lon="6.8514">
        <ele>1291.4</ele>
        <time>2021-05-02T13:15:37Z</time>
      </trkpt>
      <trkpt lat="43.72998" lon="6.8514">
        <ele>1291.4</ele>
        <time>2021-05-02T13:15:43Z</time>
      </trkpt>
      <trkpt lat="43.72998" lon="6.8514">
        <ele>1291.4</ele>
        <time>2021-05-02T13:15:49Z</time>
      </trkpt>
      <trkpt lat="43.72998" lon="6.8514">
        <ele>1291.4</ele>
        <time>2021-05-02T13:15:55Z</time>
      </trkpt>
      <trkpt lat="43.72998" lon="6.8514">
        <ele>1291.4</ele>
        <time>2021-05-02T13:16:01Z</time>
      </trkpt>
      <trkpt lat="43.72998" lon="6.8514">
        <ele>1291.4</ele>
        <time>2021-05-02T13:16:07Z</time>
      </trkpt>
      <trkpt lat="43.72998" lon="6.8514">
        <ele>1291.4</ele>
        <time>2021-05-02T13:16:12Z</time>
      </trkpt>
      <trkpt lat="43.72998" lon="6.8514">
        <ele>1291.4</ele>
        <time>2021-05-02T13:16:18Z</time>
      </trkpt>
      <trkpt lat="43.72998" lon="6.8514">
        <ele>1291.4</ele>
        <time>2021-05-02T13:16:24Z</time>
      </trkpt>
      <trkpt lat="43.72998" lon="6.8514">
        <ele>1291.4</ele>
        <time>2021-05-02T13:16:30Z</time>
      </trkpt>
      <trkpt lat="43.72998" lon="6.8514">
        <ele>1291.4</ele>
        <time>2021-05-02T13:16:35Z</time>
      </trkpt>
      <trkpt lat="43.72998" lon="6.8514">
        <ele>1291.4</ele>
        <time>2021-05-02T13:16:41Z</time>
      </trkpt>
      <trkpt lat="43.72998" lon="6.8514">
        <ele>1291.4</ele>
        <time>2021-05-02T13:16:46Z</time>
      </trkpt>
      <trkpt lat="43.72998" lon="6.8514">
        <ele>1291.4</ele>
        <time>2021-05-02T13:16:52Z</time>
      </trkpt>
      <trkpt lat="43.72998" lon="6.8514">
        <ele>1291.4</ele>
        <time>2021-05-02T13:16:58Z</time>
      </trkpt>
      <trkpt lat="43.72998" lon="6.8514">
        <ele>1291.4</ele>
        <time>2021-05-02T13:17:04Z</time>
      </trkpt>
      <trkpt lat="43.72997" lon="6.8514">
        <ele>1291.4</ele>
        <time>2021-05-02T13:17:10Z</time>
      </trkpt>
      <trkpt lat="43.72997" lon="6.8514">
        <ele>1291.4</ele>
        <time>2021-05-02T13:17:15Z</time>
      </trkpt>
      <trkpt lat="43.72997" lon="6.8514">
        <ele>1291.4</ele>
        <time>2021-05-02T13:17:21Z</time>
      </trkpt>
      <trkpt lat="43.72997" lon="6.8514">
        <ele>1291.4</ele>
        <time>2021-05-02T13:17:26Z</time>
      </trkpt>
      <trkpt lat="43.72997" lon="6.8514">
        <ele>1291.4</ele>
        <time>2021-05-02T13:17:31Z</time>
      </trkpt>
      <trkpt lat="43.72998" lon="6.8514">
        <ele>1291.4</ele>
        <time>2021-05-02T13:17:37Z</time>
      </trkpt>
      <trkpt lat="43.72998" lon="6.8514">
        <ele>1291.4</ele>
        <time>2021-05-02T13:17:42Z</time>
      </trkpt>
      <trkpt lat="43.72998" lon="6.8514">
        <ele>1291.4</ele>
        <time>2021-05-02T13:17:48Z</time>
      </trkpt>
      <trkpt lat="43.72998" lon="6.8514">
        <ele>1291.4</ele>
        <time>2021-05-02T13:17:53Z</time>
      </trkpt>
      <trkpt lat="43.72998" lon="6.8514">
        <ele>1291.4</ele>
        <time>2021-05-02T13:17:59Z</time>
      </trkpt>
      <trkpt lat="43.72998" lon="6.8514">
        <ele>1291.4</ele>
        <time>2021-05-02T13:18:04Z</time>
      </trkpt>
      <trkpt lat="43.72998" lon="6.8514">
        <ele>1291.4</ele>
        <time>2021-05-02T13:18:10Z</time>
      </trkpt>
      <trkpt lat="43.72998" lon="6.8514">
        <ele>1291.4</ele>
        <time>2021-05-02T13:18:16Z</time>
      </trkpt>
      <trkpt lat="43.72998" lon="6.8514">
        <ele>1291.4</ele>
        <time>2021-05-02T13:18:22Z</time>
      </trkpt>
      <trkpt lat="43.72998" lon="6.8514">
        <ele>1291.4</ele>
        <time>2021-05-02T13:18:27Z</time>
      </trkpt>
      <trkpt lat="43.72998" lon="6.8514">
        <ele>1291.4</ele>
        <time>2021-05-02T13:18:33Z</time>
      </trkpt>
      <trkpt lat="43.72998" lon="6.8514">
        <ele>1291.4</ele>
        <time>2021-05-02T13:18:38Z</time>
      </trkpt>
      <trkpt lat="43.72998" lon="6.8514">
        <ele>1291.4</ele>
        <time>2021-05-02T13:18:44Z</time>
      </trkpt>
      <trkpt lat="43.72998" lon="6.8514">
        <ele>1291.4</ele>
        <time>2021-05-02T13:18:50Z</time>
      </trkpt>
      <trkpt lat="43.72998" lon="6.8514">
        <ele>1291.4</ele>
        <time>2021-05-02T13:18:55Z</time>
      </trkpt>
      <trkpt lat="43.72998" lon="6.8514">
        <ele>1291.4</ele>
        <time>2021-05-02T13:19:01Z</time>
      </trkpt>
      <trkpt lat="43.72998" lon="6.8514">
        <ele>1291.4</ele>
        <time>2021-05-02T13:19:07Z</time>
      </trkpt>
      <trkpt lat="43.72998" lon="6.8514">
        <ele>1291.4</ele>
        <time>2021-05-02T13:19:12Z</time>
      </trkpt>
      <trkpt lat="43.72998" lon="6.8514">
        <ele>1291.4</ele>
        <time>2021-05-02T13:19:18Z</time>
      </trkpt>
      <trkpt lat="43.72998" lon="6.8514">
        <ele>1291.4</ele>
        <time>2021-05-02T13:19:24Z</time>
      </trkpt>
      <trkpt lat="43.72998" lon="6.8514">
        <ele>1291.4</ele>
        <time>2021-05-02T13:19:30Z</time>
      </trkpt>
      <trkpt lat="43.72998" lon="6.8514">
        <ele>1291.4</ele>
        <time>2021-05-02T13:19:36Z</time>
      </trkpt>
      <trkpt lat="43.72998" lon="6.8514">
        <ele>1291.4</ele>
        <time>2021-05-02T13:19:42Z</time>
      </trkpt>
      <trkpt lat="43.72998" lon="6.8514">
        <ele>1291.4</ele>
        <time>2021-05-02T13:19:47Z</time>
      </trkpt>
      <trkpt lat="43.72998" lon="6.8514">
        <ele>1291.4</ele>
        <time>2021-05-02T13:19:53Z</time>
      </trkpt>
      <trkpt lat="43.72998" lon="6.8514">
        <ele>1291.4</ele>
        <time>2021-05-02T13:19:58Z</time>
      </trkpt>
      <trkpt lat="43.72998" lon="6.8514">
        <ele>1291.4</ele>
        <time>2021-05-02T13:20:04Z</time>
      </trkpt>
      <trkpt lat="43.72997" lon="6.8514">
        <ele>1291.4</ele>
        <time>2021-05-02T13:20:09Z</time>
      </trkpt>
      <trkpt lat="43.72997" lon="6.8514">
        <ele>1291.4</ele>
        <time>2021-05-02T13:20:15Z</time>
      </trkpt>
      <trkpt lat="43.72997" lon="6.8514">
        <ele>1291.4</ele>
        <time>2021-05-02T13:20:20Z</time>
      </trkpt>
      <trkpt lat="43.72997" lon="6.8514">
        <ele>1291.4</ele>
        <time>2021-05-02T13:20:25Z</time>
      </trkpt>
      <trkpt lat="43.72997" lon="6.8514">
        <ele>1291.4</ele>
        <time>2021-05-02T13:20:30Z</time>
      </trkpt>
      <trkpt lat="43.72997" lon="6.8514">
        <ele>1291.4</ele>
        <time>2021-05-02T13:20:36Z</time>
      </trkpt>
      <trkpt lat="43.72998" lon="6.8514">
        <ele>1291.4</ele>
        <time>2021-05-02T13:20:42Z</time>
      </trkpt>
      <trkpt lat="43.72998" lon="6.8514">
        <ele>1291.4</ele>
        <time>2021-05-02T13:20:48Z</time>
      </trkpt>
      <trkpt lat="43.72998" lon="6.8514">
        <ele>1291.4</ele>
        <time>2021-05-02T13:20:53Z</time>
      </trkpt>
      <trkpt lat="43.72998" lon="6.8514">
        <ele>1291.4</ele>
        <time>2021-05-02T13:20:59Z</time>
      </trkpt>
      <trkpt lat="43.72998" lon="6.8514">
        <ele>1291.4</ele>
        <time>2021-05-02T13:21:04Z</time>
      </trkpt>
      <trkpt lat="43.72998" lon="6.85141">
        <ele>1291.4</ele>
        <time>2021-05-02T13:21:10Z</time>
      </trkpt>
      <trkpt lat="43.72998" lon="6.85141">
        <ele>1291.3</ele>
        <time>2021-05-02T13:21:16Z</time>
      </trkpt>
      <trkpt lat="43.72998" lon="6.85141">
        <ele>1291.2</ele>
        <time>2021-05-02T13:21:22Z</time>
      </trkpt>
      <trkpt lat="43.72998" lon="6.85142">
        <ele>1291.2</ele>
        <time>2021-05-02T13:21:28Z</time>
      </trkpt>
      <trkpt lat="43.72999" lon="6.85142">
        <ele>1291.1</ele>
        <time>2021-05-02T13:21:34Z</time>
      </trkpt>
      <trkpt lat="43.72998" lon="6.85143">
        <ele>1290.9</ele>
        <time>2021-05-02T13:21:39Z</time>
      </trkpt>
      <trkpt lat="43.72998" lon="6.85143">
        <ele>1290.8</ele>
        <time>2021-05-02T13:21:45Z</time>
      </trkpt>
      <trkpt lat="43.72998" lon="6.85143">
        <ele>1290.8</ele>
        <time>2021-05-02T13:21:51Z</time>
      </trkpt>
      <trkpt lat="43.72998" lon="6.85143">
        <ele>1290.8</ele>
        <time>2021-05-02T13:21:57Z</time>
      </trkpt>
      <trkpt lat="43.72998" lon="6.85143">
        <ele>1290.8</ele>
        <time>2021-05-02T13:22:02Z</time>
      </trkpt>
      <trkpt lat="43.72998" lon="6.85143">
        <ele>1290.8</ele>
        <time>2021-05-02T13:22:08Z</time>
      </trkpt>
      <trkpt lat="43.72998" lon="6.85143">
        <ele>1290.8</ele>
        <time>2021-05-02T13:22:13Z</time>
      </trkpt>
      <trkpt lat="43.72998" lon="6.85143">
        <ele>1290.8</ele>
        <time>2021-05-02T13:22:18Z</time>
      </trkpt>
      <trkpt lat="43.72998" lon="6.85143">
        <ele>1290.8</ele>
        <time>2021-05-02T13:22:24Z</time>
      </trkpt>
      <trkpt lat="43.72998" lon="6.85143">
        <ele>1290.8</ele>
        <time>2021-05-02T13:22:30Z</time>
      </trkpt>
      <trkpt lat="43.72998" lon="6.85143">
        <ele>1290.8</ele>
        <time>2021-05-02T13:22:35Z</time>
      </trkpt>
      <trkpt lat="43.72998" lon="6.85143">
        <ele>1290.8</ele>
        <time>2021-05-02T13:22:41Z</time>
      </trkpt>
      <trkpt lat="43.72998" lon="6.85143">
        <ele>1290.8</ele>
        <time>2021-05-02T13:22:46Z</time>
      </trkpt>
      <trkpt lat="43.72998" lon="6.85143">
        <ele>1290.8</ele>
        <time>2021-05-02T13:22:52Z</time>
      </trkpt>
      <trkpt lat="43.72998" lon="6.85143">
        <ele>1290.8</ele>
        <time>2021-05-02T13:22:57Z</time>
      </trkpt>
      <trkpt lat="43.72998" lon="6.85143">
        <ele>1290.8</ele>
        <time>2021-05-02T13:23:03Z</time>
      </trkpt>
      <trkpt lat="43.72998" lon="6.85143">
        <ele>1290.8</ele>
        <time>2021-05-02T13:23:09Z</time>
      </trkpt>
      <trkpt lat="43.72998" lon="6.85143">
        <ele>1290.8</ele>
        <time>2021-05-02T13:23:15Z</time>
      </trkpt>
      <trkpt lat="43.72998" lon="6.85143">
        <ele>1290.8</ele>
        <time>2021-05-02T13:23:21Z</time>
      </trkpt>
      <trkpt lat="43.72998" lon="6.85143">
        <ele>1290.8</ele>
        <time>2021-05-02T13:23:27Z</time>
      </trkpt>
      <trkpt lat="43.72998" lon="6.85143">
        <ele>1290.8</ele>
        <time>2021-05-02T13:23:33Z</time>
      </trkpt>
      <trkpt lat="43.72998" lon="6.85143">
        <ele>1290.8</ele>
        <time>2021-05-02T13:23:39Z</time>
      </trkpt>
      <trkpt lat="43.72998" lon="6.85143">
        <ele>1290.8</ele>
        <time>2021-05-02T13:23:44Z</time>
      </trkpt>
      <trkpt lat="43.72999" lon="6.85144">
        <ele>1290.8</ele>
        <time>2021-05-02T13:23:50Z</time>
      </trkpt>
      <trkpt lat="43.72999" lon="6.85144">
        <ele>1290.8</ele>
        <time>2021-05-02T13:23:55Z</time>
      </trkpt>
      <trkpt lat="43.72999" lon="6.85144">
        <ele>1290.8</ele>
        <time>2021-05-02T13:24:01Z</time>
      </trkpt>
      <trkpt lat="43.72999" lon="6.85144">
        <ele>1290.8</ele>
        <time>2021-05-02T13:24:07Z</time>
      </trkpt>
      <trkpt lat="43.72999" lon="6.85144">
        <ele>1290.8</ele>
        <time>2021-05-02T13:24:13Z</time>
      </trkpt>
      <trkpt lat="43.72999" lon="6.85144">
        <ele>1290.8</ele>
        <time>2021-05-02T13:24:19Z</time>
      </trkpt>
      <trkpt lat="43.72999" lon="6.85144">
        <ele>1290.8</ele>
        <time>2021-05-02T13:24:24Z</time>
      </trkpt>
      <trkpt lat="43.72999" lon="6.85144">
        <ele>1290.8</ele>
        <time>2021-05-02T13:24:29Z</time>
      </trkpt>
      <trkpt lat="43.72999" lon="6.85144">
        <ele>1290.8</ele>
        <time>2021-05-02T13:24:34Z</time>
      </trkpt>
      <trkpt lat="43.72999" lon="6.85144">
        <ele>1290.8</ele>
        <time>2021-05-02T13:24:40Z</time>
      </trkpt>
      <trkpt lat="43.73" lon="6.85146">
        <ele>1290.6</ele>
        <time>2021-05-02T13:24:46Z</time>
      </trkpt>
      <trkpt lat="43.73001" lon="6.85147">
        <ele>1290.4</ele>
        <time>2021-05-02T13:24:51Z</time>
      </trkpt>
      <trkpt lat="43.73002" lon="6.85148">
        <ele>1290.5</ele>
        <time>2021-05-02T13:24:57Z</time>
      </trkpt>
      <trkpt lat="43.73002" lon="6.85148">
        <ele>1290.5</ele>
        <time>2021-05-02T13:25:03Z</time>
      </trkpt>
      <trkpt lat="43.73002" lon="6.85148">
        <ele>1290.5</ele>
        <time>2021-05-02T13:25:09Z</time>
      </trkpt>
      <trkpt lat="43.73002" lon="6.85148">
        <ele>1290.5</ele>
        <time>2021-05-02T13:25:14Z</time>
      </trkpt>
      <trkpt lat="43.73002" lon="6.85148">
        <ele>1290.5</ele>
        <time>2021-05-02T13:25:19Z</time>
      </trkpt>
      <trkpt lat="43.73002" lon="6.85148">
        <ele>1290.5</ele>
        <time>2021-05-02T13:25:24Z</time>
      </trkpt>
      <trkpt lat="43.73002" lon="6.85148">
        <ele>1290.5</ele>
        <time>2021-05-02T13:25:29Z</time>
      </trkpt>
      <trkpt lat="43.73002" lon="6.85148">
        <ele>1290.5</ele>
        <time>2021-05-02T13:25:35Z</time>
      </trkpt>
      <trkpt lat="43.73002" lon="6.85148">
        <ele>1290.5</ele>
        <time>2021-05-02T13:25:40Z</time>
      </trkpt>
      <trkpt lat="43.73002" lon="6.85148">
        <ele>1290.5</ele>
        <time>2021-05-02T13:25:46Z</time>
      </trkpt>
      <trkpt lat="43.73002" lon="6.85148">
        <ele>1290.4</ele>
        <time>2021-05-02T13:25:51Z</time>
      </trkpt>
      <trkpt lat="43.73001" lon="6.85152">
        <ele>1289.3</ele>
        <time>2021-05-02T13:25:57Z</time>
      </trkpt>
      <trkpt lat="43.73005" lon="6.85156">
        <ele>1289.3</ele>
        <time>2021-05-02T13:26:02Z</time>
      </trkpt>
      <trkpt lat="43.73009" lon="6.85158">
        <ele>1289.7</ele>
        <time>2021-05-02T13:26:07Z</time>
      </trkpt>
      <trkpt lat="43.73012" lon="6.85158">
        <ele>1290.6</ele>
        <time>2021-05-02T13:26:12Z</time>
      </trkpt>
      <trkpt lat="43.73016" lon="6.85157">
        <ele>1291.6</ele>
        <time>2021-05-02T13:26:17Z</time>
      </trkpt>
      <trkpt lat="43.73017" lon="6.8516">
        <ele>1291.2</ele>
        <time>2021-05-02T13:26:22Z</time>
      </trkpt>
      <trkpt lat="43.73015" lon="6.85164">
        <ele>1289.8</ele>
        <time>2021-05-02T13:26:28Z</time>
      </trkpt>
      <trkpt lat="43.73011" lon="6.85167">
        <ele>1288.5</ele>
        <time>2021-05-02T13:26:33Z</time>
      </trkpt>
      <trkpt lat="43.73007" lon="6.85171">
        <ele>1286.7</ele>
        <time>2021-05-02T13:26:39Z</time>
      </trkpt>
      <trkpt lat="43.73005" lon="6.85174">
        <ele>1285.2</ele>
        <time>2021-05-02T13:26:45Z</time>
      </trkpt>
      <trkpt lat="43.73002" lon="6.85179">
        <ele>1283.6</ele>
        <time>2021-05-02T13:26:50Z</time>
      </trkpt>
      <trkpt lat="43.72997" lon="6.85181">
        <ele>1282.4</ele>
        <time>2021-05-02T13:26:56Z</time>
      </trkpt>
      <trkpt lat="43.72995" lon="6.85182">
        <ele>1281.9</ele>
        <time>2021-05-02T13:27:01Z</time>
      </trkpt>
      <trkpt lat="43.72992" lon="6.85183">
        <ele>1281.2</ele>
        <time>2021-05-02T13:27:07Z</time>
      </trkpt>
      <trkpt lat="43.72988" lon="6.85184">
        <ele>1280.7</ele>
        <time>2021-05-02T13:27:12Z</time>
      </trkpt>
      <trkpt lat="43.72983" lon="6.85185">
        <ele>1280</ele>
        <time>2021-05-02T13:27:18Z</time>
      </trkpt>
      <trkpt lat="43.72978" lon="6.85185">
        <ele>1279.5</ele>
        <time>2021-05-02T13:27:23Z</time>
      </trkpt>
      <trkpt lat="43.72973" lon="6.85185">
        <ele>1279</ele>
        <time>2021-05-02T13:27:29Z</time>
      </trkpt>
      <trkpt lat="43.72971" lon="6.85186">
        <ele>1278.5</ele>
        <time>2021-05-02T13:27:34Z</time>
      </trkpt>
      <trkpt lat="43.72971" lon="6.85184">
        <ele>1279</ele>
        <time>2021-05-02T13:27:40Z</time>
      </trkpt>
      <trkpt lat="43.72972" lon="6.85188">
        <ele>1278.3</ele>
        <time>2021-05-02T13:27:45Z</time>
      </trkpt>
      <trkpt lat="43.72978" lon="6.8519">
        <ele>1278.3</ele>
        <time>2021-05-02T13:27:51Z</time>
      </trkpt>
      <trkpt lat="43.72979" lon="6.85193">
        <ele>1277.7</ele>
        <time>2021-05-02T13:27:56Z</time>
      </trkpt>
      <trkpt lat="43.72983" lon="6.85198">
        <ele>1277</ele>
        <time>2021-05-02T13:28:02Z</time>
      </trkpt>
      <trkpt lat="43.72988" lon="6.85201">
        <ele>1276.8</ele>
        <time>2021-05-02T13:28:08Z</time>
      </trkpt>
      <trkpt lat="43.72992" lon="6.85207">
        <ele>1275.8</ele>
        <time>2021-05-02T13:28:13Z</time>
      </trkpt>
      <trkpt lat="43.72998" lon="6.85209">
        <ele>1275.8</ele>
        <time>2021-05-02T13:28:19Z</time>
      </trkpt>
      <trkpt lat="43.72999" lon="6.85213">
        <ele>1274.8</ele>
        <time>2021-05-02T13:28:25Z</time>
      </trkpt>
      <trkpt lat="43.73002" lon="6.85218">
        <ele>1274.2</ele>
        <time>2021-05-02T13:28:31Z</time>
      </trkpt>
      <trkpt lat="43.73002" lon="6.85226">
        <ele>1272.5</ele>
        <time>2021-05-02T13:28:37Z</time>
      </trkpt>
      <trkpt lat="43.73" lon="6.85232">
        <ele>1270.4</ele>
        <time>2021-05-02T13:28:43Z</time>
      </trkpt>
      <trkpt lat="43.72997" lon="6.85234">
        <ele>1269.8</ele>
        <time>2021-05-02T13:28:49Z</time>
      </trkpt>
      <trkpt lat="43.72991" lon="6.85236">
        <ele>1268.8</ele>
        <time>2021-05-02T13:28:55Z</time>
      </trkpt>
      <trkpt lat="43.72986" lon="6.85237">
        <ele>1268.3</ele>
        <time>2021-05-02T13:29:01Z</time>
      </trkpt>
      <trkpt lat="43.72981" lon="6.85235">
        <ele>1268.4</ele>
        <time>2021-05-02T13:29:07Z</time>
      </trkpt>
      <trkpt lat="43.72976" lon="6.85236">
        <ele>1267.9</ele>
        <time>2021-05-02T13:29:13Z</time>
      </trkpt>
      <trkpt lat="43.72974" lon="6.8524">
        <ele>1267</ele>
        <time>2021-05-02T13:29:18Z</time>
      </trkpt>
      <trkpt lat="43.72976" lon="6.85248">
        <ele>1265.4</ele>
        <time>2021-05-02T13:29:24Z</time>
      </trkpt>
      <trkpt lat="43.72979" lon="6.85252">
        <ele>1264.7</ele>
        <time>2021-05-02T13:29:29Z</time>
      </trkpt>
      <trkpt lat="43.7298" lon="6.85259">
        <ele>1263.4</ele>
        <time>2021-05-02T13:29:35Z</time>
      </trkpt>
      <trkpt lat="43.72978" lon="6.85265">
        <ele>1262.1</ele>
        <time>2021-05-02T13:29:41Z</time>
      </trkpt>
      <trkpt lat="43.72976" lon="6.8527">
        <ele>1260.9</ele>
        <time>2021-05-02T13:29:46Z</time>
      </trkpt>
      <trkpt lat="43.72973" lon="6.85274">
        <ele>1259.8</ele>
        <time>2021-05-02T13:29:51Z</time>
      </trkpt>
      <trkpt lat="43.72967" lon="6.85279">
        <ele>1258.6</ele>
        <time>2021-05-02T13:29:57Z</time>
      </trkpt>
      <trkpt lat="43.72961" lon="6.85282">
        <ele>1257.6</ele>
        <time>2021-05-02T13:30:03Z</time>
      </trkpt>
      <trkpt lat="43.72955" lon="6.85281">
        <ele>1257.3</ele>
        <time>2021-05-02T13:30:09Z</time>
      </trkpt>
      <trkpt lat="43.72952" lon="6.85282">
        <ele>1256.9</ele>
        <time>2021-05-02T13:30:14Z</time>
      </trkpt>
      <trkpt lat="43.72946" lon="6.85283">
        <ele>1256.2</ele>
        <time>2021-05-02T13:30:20Z</time>
      </trkpt>
      <trkpt lat="43.72944" lon="6.85286">
        <ele>1255.4</ele>
        <time>2021-05-02T13:30:26Z</time>
      </trkpt>
      <trkpt lat="43.72943" lon="6.85286">
        <ele>1255.2</ele>
        <time>2021-05-02T13:30:31Z</time>
      </trkpt>
      <trkpt lat="43.72943" lon="6.85286">
        <ele>1255.2</ele>
        <time>2021-05-02T13:30:37Z</time>
      </trkpt>
      <trkpt lat="43.72943" lon="6.85286">
        <ele>1255.2</ele>
        <time>2021-05-02T13:30:42Z</time>
      </trkpt>
      <trkpt lat="43.72943" lon="6.85286">
        <ele>1255.2</ele>
        <time>2021-05-02T13:30:48Z</time>
      </trkpt>
      <trkpt lat="43.72943" lon="6.85286">
        <ele>1255.2</ele>
        <time>2021-05-02T13:30:54Z</time>
      </trkpt>
      <trkpt lat="43.72943" lon="6.85286">
        <ele>1255.2</ele>
        <time>2021-05-02T13:30:59Z</time>
      </trkpt>
      <trkpt lat="43.72943" lon="6.85286">
        <ele>1255.2</ele>
        <time>2021-05-02T13:31:04Z</time>
      </trkpt>
      <trkpt lat="43.72943" lon="6.85286">
        <ele>1255.3</ele>
        <time>2021-05-02T13:31:10Z</time>
      </trkpt>
      <trkpt lat="43.72943" lon="6.85286">
        <ele>1255.3</ele>
        <time>2021-05-02T13:31:16Z</time>
      </trkpt>
      <trkpt lat="43.72943" lon="6.85286">
        <ele>1255.3</ele>
        <time>2021-05-02T13:31:22Z</time>
      </trkpt>
      <trkpt lat="43.72943" lon="6.85286">
        <ele>1255.4</ele>
        <time>2021-05-02T13:31:27Z</time>
      </trkpt>
      <trkpt lat="43.72943" lon="6.85285">
        <ele>1255.4</ele>
        <time>2021-05-02T13:31:33Z</time>
      </trkpt>
      <trkpt lat="43.72943" lon="6.85285">
        <ele>1255.4</ele>
        <time>2021-05-02T13:31:39Z</time>
      </trkpt>
      <trkpt lat="43.72943" lon="6.85285">
        <ele>1255.4</ele>
        <time>2021-05-02T13:31:45Z</time>
      </trkpt>
      <trkpt lat="43.72943" lon="6.85285">
        <ele>1255.4</ele>
        <time>2021-05-02T13:31:50Z</time>
      </trkpt>
      <trkpt lat="43.72943" lon="6.85287">
        <ele>1255.2</ele>
        <time>2021-05-02T13:31:55Z</time>
      </trkpt>
      <trkpt lat="43.72939" lon="6.85289">
        <ele>1254.4</ele>
        <time>2021-05-02T13:32:01Z</time>
      </trkpt>
      <trkpt lat="43.72934" lon="6.8529">
        <ele>1253.7</ele>
        <time>2021-05-02T13:32:06Z</time>
      </trkpt>
      <trkpt lat="43.72932" lon="6.85293">
        <ele>1252.8</ele>
        <time>2021-05-02T13:32:12Z</time>
      </trkpt>
      <trkpt lat="43.72928" lon="6.85298">
        <ele>1251.4</ele>
        <time>2021-05-02T13:32:18Z</time>
      </trkpt>
      <trkpt lat="43.72927" lon="6.85298">
        <ele>1251.4</ele>
        <time>2021-05-02T13:32:23Z</time>
      </trkpt>
      <trkpt lat="43.72923" lon="6.85298">
        <ele>1250.9</ele>
        <time>2021-05-02T13:32:29Z</time>
      </trkpt>
      <trkpt lat="43.7292" lon="6.853">
        <ele>1250.2</ele>
        <time>2021-05-02T13:32:34Z</time>
      </trkpt>
      <trkpt lat="43.7292" lon="6.853">
        <ele>1250.2</ele>
        <time>2021-05-02T13:32:39Z</time>
      </trkpt>
      <trkpt lat="43.72918" lon="6.85301">
        <ele>1249.9</ele>
        <time>2021-05-02T13:32:44Z</time>
      </trkpt>
      <trkpt lat="43.72913" lon="6.85302">
        <ele>1248.9</ele>
        <time>2021-05-02T13:32:49Z</time>
      </trkpt>
      <trkpt lat="43.72908" lon="6.85302">
        <ele>1248.1</ele>
        <time>2021-05-02T13:32:54Z</time>
      </trkpt>
      <trkpt lat="43.72903" lon="6.85301">
        <ele>1247.5</ele>
        <time>2021-05-02T13:33:00Z</time>
      </trkpt>
      <trkpt lat="43.72899" lon="6.85304">
        <ele>1246.3</ele>
        <time>2021-05-02T13:33:06Z</time>
      </trkpt>
      <trkpt lat="43.72895" lon="6.85303">
        <ele>1245.9</ele>
        <time>2021-05-02T13:33:11Z</time>
      </trkpt>
      <trkpt lat="43.72891" lon="6.85304">
        <ele>1245</ele>
        <time>2021-05-02T13:33:17Z</time>
      </trkpt>
      <trkpt lat="43.72888" lon="6.85305">
        <ele>1244.3</ele>
        <time>2021-05-02T13:33:22Z</time>
      </trkpt>
      <trkpt lat="43.72887" lon="6.85303">
        <ele>1244.6</ele>
        <time>2021-05-02T13:33:28Z</time>
      </trkpt>
      <trkpt lat="43.72887" lon="6.85303">
        <ele>1244.6</ele>
        <time>2021-05-02T13:33:34Z</time>
      </trkpt>
      <trkpt lat="43.72887" lon="6.85303">
        <ele>1244.5</ele>
        <time>2021-05-02T13:33:39Z</time>
      </trkpt>
      <trkpt lat="43.72887" lon="6.85302">
        <ele>1244.7</ele>
        <time>2021-05-02T13:33:45Z</time>
      </trkpt>
      <trkpt lat="43.72887" lon="6.85302">
        <ele>1244.8</ele>
        <time>2021-05-02T13:33:50Z</time>
      </trkpt>
      <trkpt lat="43.72887" lon="6.85302">
        <ele>1244.8</ele>
        <time>2021-05-02T13:33:56Z</time>
      </trkpt>
      <trkpt lat="43.72887" lon="6.85302">
        <ele>1244.8</ele>
        <time>2021-05-02T13:34:01Z</time>
      </trkpt>
      <trkpt lat="43.72887" lon="6.85302">
        <ele>1244.8</ele>
        <time>2021-05-02T13:34:07Z</time>
      </trkpt>
      <trkpt lat="43.72887" lon="6.85302">
        <ele>1244.8</ele>
        <time>2021-05-02T13:34:13Z</time>
      </trkpt>
      <trkpt lat="43.72887" lon="6.85302">
        <ele>1244.8</ele>
        <time>2021-05-02T13:34:18Z</time>
      </trkpt>
      <trkpt lat="43.72887" lon="6.85302">
        <ele>1244.8</ele>
        <time>2021-05-02T13:34:23Z</time>
      </trkpt>
      <trkpt lat="43.72887" lon="6.85302">
        <ele>1244.8</ele>
        <time>2021-05-02T13:34:29Z</time>
      </trkpt>
      <trkpt lat="43.72885" lon="6.85302">
        <ele>1244.6</ele>
        <time>2021-05-02T13:34:34Z</time>
      </trkpt>
      <trkpt lat="43.72881" lon="6.85304">
        <ele>1243.4</ele>
        <time>2021-05-02T13:34:40Z</time>
      </trkpt>
      <trkpt lat="43.72878" lon="6.85305">
        <ele>1242.7</ele>
        <time>2021-05-02T13:34:45Z</time>
      </trkpt>
      <trkpt lat="43.72875" lon="6.85306">
        <ele>1241.7</ele>
        <time>2021-05-02T13:34:50Z</time>
      </trkpt>
      <trkpt lat="43.72872" lon="6.85308">
        <ele>1240.9</ele>
        <time>2021-05-02T13:34:56Z</time>
      </trkpt>
      <trkpt lat="43.72869" lon="6.8531">
        <ele>1240</ele>
        <time>2021-05-02T13:35:01Z</time>
      </trkpt>
      <trkpt lat="43.72867" lon="6.85311">
        <ele>1239.3</ele>
        <time>2021-05-02T13:35:06Z</time>
      </trkpt>
      <trkpt lat="43.72866" lon="6.85311">
        <ele>1239.3</ele>
        <time>2021-05-02T13:35:12Z</time>
      </trkpt>
      <trkpt lat="43.72866" lon="6.8531">
        <ele>1239.5</ele>
        <time>2021-05-02T13:35:18Z</time>
      </trkpt>
      <trkpt lat="43.72866" lon="6.8531">
        <ele>1239.6</ele>
        <time>2021-05-02T13:35:24Z</time>
      </trkpt>
      <trkpt lat="43.72866" lon="6.8531">
        <ele>1239.6</ele>
        <time>2021-05-02T13:35:29Z</time>
      </trkpt>
      <trkpt lat="43.72865" lon="6.8531">
        <ele>1239.5</ele>
        <time>2021-05-02T13:35:35Z</time>
      </trkpt>
      <trkpt lat="43.72865" lon="6.8531">
        <ele>1239.5</ele>
        <time>2021-05-02T13:35:41Z</time>
      </trkpt>
      <trkpt lat="43.72865" lon="6.8531">
        <ele>1239.5</ele>
        <time>2021-05-02T13:35:46Z</time>
      </trkpt>
      <trkpt lat="43.72865" lon="6.8531">
        <ele>1239.5</ele>
        <time>2021-05-02T13:35:52Z</time>
      </trkpt>
      <trkpt lat="43.72866" lon="6.8531">
        <ele>1239.5</ele>
        <time>2021-05-02T13:35:57Z</time>
      </trkpt>
      <trkpt lat="43.72865" lon="6.8531">
        <ele>1239.3</ele>
        <time>2021-05-02T13:36:03Z</time>
      </trkpt>
      <trkpt lat="43.72865" lon="6.8531">
        <ele>1239.3</ele>
        <time>2021-05-02T13:36:09Z</time>
      </trkpt>
      <trkpt lat="43.72865" lon="6.8531">
        <ele>1239.4</ele>
        <time>2021-05-02T13:36:14Z</time>
      </trkpt>
      <trkpt lat="43.72865" lon="6.8531">
        <ele>1239.4</ele>
        <time>2021-05-02T13:36:20Z</time>
      </trkpt>
      <trkpt lat="43.72865" lon="6.8531">
        <ele>1239.4</ele>
        <time>2021-05-02T13:36:25Z</time>
      </trkpt>
      <trkpt lat="43.72865" lon="6.8531">
        <ele>1239.4</ele>
        <time>2021-05-02T13:36:31Z</time>
      </trkpt>
      <trkpt lat="43.72865" lon="6.8531">
        <ele>1239.4</ele>
        <time>2021-05-02T13:36:37Z</time>
      </trkpt>
      <trkpt lat="43.72865" lon="6.8531">
        <ele>1239.5</ele>
        <time>2021-05-02T13:36:43Z</time>
      </trkpt>
      <trkpt lat="43.72865" lon="6.8531">
        <ele>1239.5</ele>
        <time>2021-05-02T13:36:49Z</time>
      </trkpt>
      <trkpt lat="43.72865" lon="6.8531">
        <ele>1239.5</ele>
        <time>2021-05-02T13:36:55Z</time>
      </trkpt>
      <trkpt lat="43.72865" lon="6.8531">
        <ele>1239.5</ele>
        <time>2021-05-02T13:37:01Z</time>
      </trkpt>
      <trkpt lat="43.72865" lon="6.8531">
        <ele>1239.5</ele>
        <time>2021-05-02T13:37:07Z</time>
      </trkpt>
      <trkpt lat="43.72865" lon="6.8531">
        <ele>1239.5</ele>
        <time>2021-05-02T13:37:13Z</time>
      </trkpt>
      <trkpt lat="43.72865" lon="6.8531">
        <ele>1239.5</ele>
        <time>2021-05-02T13:37:19Z</time>
      </trkpt>
      <trkpt lat="43.72865" lon="6.8531">
        <ele>1239.5</ele>
        <time>2021-05-02T13:37:25Z</time>
      </trkpt>
      <trkpt lat="43.72865" lon="6.8531">
        <ele>1239.5</ele>
        <time>2021-05-02T13:37:30Z</time>
      </trkpt>
      <trkpt lat="43.72865" lon="6.8531">
        <ele>1239.5</ele>
        <time>2021-05-02T13:37:36Z</time>
      </trkpt>
      <trkpt lat="43.72865" lon="6.8531">
        <ele>1239.5</ele>
        <time>2021-05-02T13:37:41Z</time>
      </trkpt>
      <trkpt lat="43.72865" lon="6.8531">
        <ele>1239.5</ele>
        <time>2021-05-02T13:37:47Z</time>
      </trkpt>
      <trkpt lat="43.72865" lon="6.8531">
        <ele>1239.5</ele>
        <time>2021-05-02T13:37:53Z</time>
      </trkpt>
      <trkpt lat="43.72865" lon="6.8531">
        <ele>1239.5</ele>
        <time>2021-05-02T13:37:59Z</time>
      </trkpt>
      <trkpt lat="43.72865" lon="6.8531">
        <ele>1239.5</ele>
        <time>2021-05-02T13:38:05Z</time>
      </trkpt>
      <trkpt lat="43.72865" lon="6.8531">
        <ele>1239.5</ele>
        <time>2021-05-02T13:38:11Z</time>
      </trkpt>
      <trkpt lat="43.72865" lon="6.8531">
        <ele>1239.5</ele>
        <time>2021-05-02T13:38:16Z</time>
      </trkpt>
      <trkpt lat="43.72865" lon="6.8531">
        <ele>1239.5</ele>
        <time>2021-05-02T13:38:21Z</time>
      </trkpt>
      <trkpt lat="43.72865" lon="6.8531">
        <ele>1239.4</ele>
        <time>2021-05-02T13:38:26Z</time>
      </trkpt>
      <trkpt lat="43.72865" lon="6.8531">
        <ele>1239.4</ele>
        <time>2021-05-02T13:38:32Z</time>
      </trkpt>
      <trkpt lat="43.72865" lon="6.8531">
        <ele>1239.4</ele>
        <time>2021-05-02T13:38:38Z</time>
      </trkpt>
      <trkpt lat="43.72865" lon="6.8531">
        <ele>1239.4</ele>
        <time>2021-05-02T13:38:43Z</time>
      </trkpt>
      <trkpt lat="43.72865" lon="6.8531">
        <ele>1239.4</ele>
        <time>2021-05-02T13:38:48Z</time>
      </trkpt>
      <trkpt lat="43.72865" lon="6.8531">
        <ele>1239.4</ele>
        <time>2021-05-02T13:38:53Z</time>
      </trkpt>
      <trkpt lat="43.72865" lon="6.8531">
        <ele>1239.4</ele>
        <time>2021-05-02T13:38:59Z</time>
      </trkpt>
      <trkpt lat="43.72865" lon="6.8531">
        <ele>1239.4</ele>
        <time>2021-05-02T13:39:05Z</time>
      </trkpt>
      <trkpt lat="43.72865" lon="6.8531">
        <ele>1239.4</ele>
        <time>2021-05-02T13:39:11Z</time>
      </trkpt>
      <trkpt lat="43.72865" lon="6.8531">
        <ele>1239.4</ele>
        <time>2021-05-02T13:39:16Z</time>
      </trkpt>
      <trkpt lat="43.72865" lon="6.8531">
        <ele>1239.4</ele>
        <time>2021-05-02T13:39:21Z</time>
      </trkpt>
      <trkpt lat="43.72865" lon="6.8531">
        <ele>1239.4</ele>
        <time>2021-05-02T13:39:27Z</time>
      </trkpt>
      <trkpt lat="43.72865" lon="6.8531">
        <ele>1239.4</ele>
        <time>2021-05-02T13:39:33Z</time>
      </trkpt>
      <trkpt lat="43.72865" lon="6.8531">
        <ele>1239.2</ele>
        <time>2021-05-02T13:39:39Z</time>
      </trkpt>
      <trkpt lat="43.72865" lon="6.8531">
        <ele>1239.3</ele>
        <time>2021-05-02T13:39:44Z</time>
      </trkpt>
      <trkpt lat="43.72865" lon="6.8531">
        <ele>1239.3</ele>
        <time>2021-05-02T13:39:49Z</time>
      </trkpt>
      <trkpt lat="43.72865" lon="6.8531">
        <ele>1239.3</ele>
        <time>2021-05-02T13:39:55Z</time>
      </trkpt>
      <trkpt lat="43.72864" lon="6.85311">
        <ele>1239.1</ele>
        <time>2021-05-02T13:40:01Z</time>
      </trkpt>
      <trkpt lat="43.7286" lon="6.85312">
        <ele>1238</ele>
        <time>2021-05-02T13:40:07Z</time>
      </trkpt>
      <trkpt lat="43.72855" lon="6.85313">
        <ele>1237.1</ele>
        <time>2021-05-02T13:40:13Z</time>
      </trkpt>
      <trkpt lat="43.72851" lon="6.85313">
        <ele>1236.4</ele>
        <time>2021-05-02T13:40:19Z</time>
      </trkpt>
      <trkpt lat="43.72847" lon="6.8531">
        <ele>1236.4</ele>
        <time>2021-05-02T13:40:24Z</time>
      </trkpt>
      <trkpt lat="43.72841" lon="6.85308">
        <ele>1236.1</ele>
        <time>2021-05-02T13:40:30Z</time>
      </trkpt>
      <trkpt lat="43.72841" lon="6.85307">
        <ele>1236.2</ele>
        <time>2021-05-02T13:40:35Z</time>
      </trkpt>
      <trkpt lat="43.72842" lon="6.85307">
        <ele>1236.5</ele>
        <time>2021-05-02T13:40:40Z</time>
      </trkpt>
      <trkpt lat="43.72841" lon="6.85305">
        <ele>1236.6</ele>
        <time>2021-05-02T13:40:46Z</time>
      </trkpt>
      <trkpt lat="43.72838" lon="6.85303">
        <ele>1236.7</ele>
        <time>2021-05-02T13:40:51Z</time>
      </trkpt>
      <trkpt lat="43.72837" lon="6.85301">
        <ele>1237</ele>
        <time>2021-05-02T13:40:56Z</time>
      </trkpt>
      <trkpt lat="43.72838" lon="6.853">
        <ele>1237.3</ele>
        <time>2021-05-02T13:41:02Z</time>
      </trkpt>
      <trkpt lat="43.72838" lon="6.85299">
        <ele>1237.4</ele>
        <time>2021-05-02T13:41:08Z</time>
      </trkpt>
      <trkpt lat="43.72839" lon="6.85301">
        <ele>1237.4</ele>
        <time>2021-05-02T13:41:14Z</time>
      </trkpt>
      <trkpt lat="43.7284" lon="6.85301">
        <ele>1237.5</ele>
        <time>2021-05-02T13:41:20Z</time>
      </trkpt>
      <trkpt lat="43.7284" lon="6.85301">
        <ele>1237.5</ele>
        <time>2021-05-02T13:41:26Z</time>
      </trkpt>
      <trkpt lat="43.7284" lon="6.853">
        <ele>1237.6</ele>
        <time>2021-05-02T13:41:31Z</time>
      </trkpt>
      <trkpt lat="43.7284" lon="6.853">
        <ele>1237.7</ele>
        <time>2021-05-02T13:41:37Z</time>
      </trkpt>
      <trkpt lat="43.7284" lon="6.853">
        <ele>1237.7</ele>
        <time>2021-05-02T13:41:43Z</time>
      </trkpt>
      <trkpt lat="43.7284" lon="6.853">
        <ele>1237.7</ele>
        <time>2021-05-02T13:41:49Z</time>
      </trkpt>
      <trkpt lat="43.7284" lon="6.85299">
        <ele>1237.8</ele>
        <time>2021-05-02T13:41:54Z</time>
      </trkpt>
      <trkpt lat="43.7284" lon="6.85299">
        <ele>1237.8</ele>
        <time>2021-05-02T13:42:00Z</time>
      </trkpt>
      <trkpt lat="43.7284" lon="6.85298">
        <ele>1238</ele>
        <time>2021-05-02T13:42:06Z</time>
      </trkpt>
      <trkpt lat="43.7284" lon="6.853">
        <ele>1237.8</ele>
        <time>2021-05-02T13:42:11Z</time>
      </trkpt>
      <trkpt lat="43.7284" lon="6.853">
        <ele>1237.7</ele>
        <time>2021-05-02T13:42:17Z</time>
      </trkpt>
      <trkpt lat="43.7284" lon="6.853">
        <ele>1237.7</ele>
        <time>2021-05-02T13:42:23Z</time>
      </trkpt>
      <trkpt lat="43.7284" lon="6.853">
        <ele>1237.7</ele>
        <time>2021-05-02T13:42:29Z</time>
      </trkpt>
      <trkpt lat="43.7284" lon="6.853">
        <ele>1237.7</ele>
        <time>2021-05-02T13:42:35Z</time>
      </trkpt>
      <trkpt lat="43.72838" lon="6.853">
        <ele>1237.5</ele>
        <time>2021-05-02T13:42:40Z</time>
      </trkpt>
      <trkpt lat="43.72837" lon="6.85298">
        <ele>1237.8</ele>
        <time>2021-05-02T13:42:46Z</time>
      </trkpt>
      <trkpt lat="43.72835" lon="6.85294">
        <ele>1238.2</ele>
        <time>2021-05-02T13:42:51Z</time>
      </trkpt>
      <trkpt lat="43.72834" lon="6.85287">
        <ele>1239.6</ele>
        <time>2021-05-02T13:42:57Z</time>
      </trkpt>
      <trkpt lat="43.72832" lon="6.85282">
        <ele>1239.9</ele>
        <time>2021-05-02T13:43:03Z</time>
      </trkpt>
      <trkpt lat="43.72829" lon="6.85277">
        <ele>1239.8</ele>
        <time>2021-05-02T13:43:09Z</time>
      </trkpt>
      <trkpt lat="43.72826" lon="6.85275">
        <ele>1238.9</ele>
        <time>2021-05-02T13:43:15Z</time>
      </trkpt>
      <trkpt lat="43.72823" lon="6.85271">
        <ele>1238.1</ele>
        <time>2021-05-02T13:43:21Z</time>
      </trkpt>
      <trkpt lat="43.72819" lon="6.85269">
        <ele>1236.8</ele>
        <time>2021-05-02T13:43:26Z</time>
      </trkpt>
      <trkpt lat="43.72816" lon="6.85264">
        <ele>1236.1</ele>
        <time>2021-05-02T13:43:32Z</time>
      </trkpt>
      <trkpt lat="43.72815" lon="6.85263">
        <ele>1236.1</ele>
        <time>2021-05-02T13:43:38Z</time>
      </trkpt>
      <trkpt lat="43.72817" lon="6.85267">
        <ele>1236</ele>
        <time>2021-05-02T13:43:43Z</time>
      </trkpt>
      <trkpt lat="43.72818" lon="6.85272">
        <ele>1235.6</ele>
        <time>2021-05-02T13:43:48Z</time>
      </trkpt>
      <trkpt lat="43.72817" lon="6.85278">
        <ele>1233.8</ele>
        <time>2021-05-02T13:43:54Z</time>
      </trkpt>
      <trkpt lat="43.72816" lon="6.85283">
        <ele>1232.8</ele>
        <time>2021-05-02T13:43:59Z</time>
      </trkpt>
      <trkpt lat="43.72816" lon="6.85286">
        <ele>1231.9</ele>
        <time>2021-05-02T13:44:04Z</time>
      </trkpt>
      <trkpt lat="43.72816" lon="6.85291">
        <ele>1231.1</ele>
        <time>2021-05-02T13:44:10Z</time>
      </trkpt>
      <trkpt lat="43.72817" lon="6.85295">
        <ele>1230.5</ele>
        <time>2021-05-02T13:44:15Z</time>
      </trkpt>
      <trkpt lat="43.72813" lon="6.85293">
        <ele>1229.4</ele>
        <time>2021-05-02T13:44:21Z</time>
      </trkpt>
      <trkpt lat="43.72811" lon="6.85289">
        <ele>1229.1</ele>
        <time>2021-05-02T13:44:27Z</time>
      </trkpt>
      <trkpt lat="43.72807" lon="6.85286">
        <ele>1228.1</ele>
        <time>2021-05-02T13:44:33Z</time>
      </trkpt>
      <trkpt lat="43.72805" lon="6.85284">
        <ele>1227.6</ele>
        <time>2021-05-02T13:44:38Z</time>
      </trkpt>
      <trkpt lat="43.72804" lon="6.85279">
        <ele>1228</ele>
        <time>2021-05-02T13:44:44Z</time>
      </trkpt>
      <trkpt lat="43.72803" lon="6.85274">
        <ele>1228.5</ele>
        <time>2021-05-02T13:44:50Z</time>
      </trkpt>
      <trkpt lat="43.72801" lon="6.85269">
        <ele>1228.2</ele>
        <time>2021-05-02T13:44:56Z</time>
      </trkpt>
      <trkpt lat="43.72799" lon="6.85263">
        <ele>1228.1</ele>
        <time>2021-05-02T13:45:02Z</time>
      </trkpt>
      <trkpt lat="43.72798" lon="6.85257">
        <ele>1228.7</ele>
        <time>2021-05-02T13:45:08Z</time>
      </trkpt>
      <trkpt lat="43.72796" lon="6.85254">
        <ele>1228.2</ele>
        <time>2021-05-02T13:45:13Z</time>
      </trkpt>
      <trkpt lat="43.72794" lon="6.85251">
        <ele>1227.8</ele>
        <time>2021-05-02T13:45:19Z</time>
      </trkpt>
      <trkpt lat="43.72793" lon="6.85252">
        <ele>1226.9</ele>
        <time>2021-05-02T13:45:25Z</time>
      </trkpt>
      <trkpt lat="43.72792" lon="6.85254">
        <ele>1226.3</ele>
        <time>2021-05-02T13:45:30Z</time>
      </trkpt>
      <trkpt lat="43.72792" lon="6.85259">
        <ele>1225.3</ele>
        <time>2021-05-02T13:45:35Z</time>
      </trkpt>
      <trkpt lat="43.72791" lon="6.85262">
        <ele>1224.4</ele>
        <time>2021-05-02T13:45:40Z</time>
      </trkpt>
      <trkpt lat="43.7279" lon="6.85267">
        <ele>1223.2</ele>
        <time>2021-05-02T13:45:46Z</time>
      </trkpt>
      <trkpt lat="43.72791" lon="6.85272">
        <ele>1222.9</ele>
        <time>2021-05-02T13:45:52Z</time>
      </trkpt>
      <trkpt lat="43.7279" lon="6.85279">
        <ele>1221.4</ele>
        <time>2021-05-02T13:45:58Z</time>
      </trkpt>
      <trkpt lat="43.7279" lon="6.85283">
        <ele>1220.6</ele>
        <time>2021-05-02T13:46:03Z</time>
      </trkpt>
      <trkpt lat="43.7279" lon="6.85289">
        <ele>1220.1</ele>
        <time>2021-05-02T13:46:09Z</time>
      </trkpt>
      <trkpt lat="43.72791" lon="6.85294">
        <ele>1219.4</ele>
        <time>2021-05-02T13:46:15Z</time>
      </trkpt>
      <trkpt lat="43.7279" lon="6.85298">
        <ele>1218.8</ele>
        <time>2021-05-02T13:46:20Z</time>
      </trkpt>
      <trkpt lat="43.7279" lon="6.85301">
        <ele>1218</ele>
        <time>2021-05-02T13:46:26Z</time>
      </trkpt>
      <trkpt lat="43.72789" lon="6.85306">
        <ele>1217.1</ele>
        <time>2021-05-02T13:46:31Z</time>
      </trkpt>
      <trkpt lat="43.7279" lon="6.8531">
        <ele>1216.9</ele>
        <time>2021-05-02T13:46:36Z</time>
      </trkpt>
      <trkpt lat="43.72789" lon="6.85313">
        <ele>1215.8</ele>
        <time>2021-05-02T13:46:42Z</time>
      </trkpt>
      <trkpt lat="43.72786" lon="6.85312">
        <ele>1214.8</ele>
        <time>2021-05-02T13:46:47Z</time>
      </trkpt>
      <trkpt lat="43.72783" lon="6.85309">
        <ele>1214.2</ele>
        <time>2021-05-02T13:46:52Z</time>
      </trkpt>
      <trkpt lat="43.72782" lon="6.85305">
        <ele>1214.2</ele>
        <time>2021-05-02T13:46:58Z</time>
      </trkpt>
      <trkpt lat="43.7278" lon="6.85302">
        <ele>1213.6</ele>
        <time>2021-05-02T13:47:03Z</time>
      </trkpt>
      <trkpt lat="43.72778" lon="6.85298">
        <ele>1213.4</ele>
        <time>2021-05-02T13:47:08Z</time>
      </trkpt>
      <trkpt lat="43.72775" lon="6.85294">
        <ele>1212.7</ele>
        <time>2021-05-02T13:47:14Z</time>
      </trkpt>
      <trkpt lat="43.72773" lon="6.8529">
        <ele>1212.3</ele>
        <time>2021-05-02T13:47:19Z</time>
      </trkpt>
      <trkpt lat="43.7277" lon="6.85287">
        <ele>1211.1</ele>
        <time>2021-05-02T13:47:25Z</time>
      </trkpt>
      <trkpt lat="43.7277" lon="6.85281">
        <ele>1211.7</ele>
        <time>2021-05-02T13:47:31Z</time>
      </trkpt>
      <trkpt lat="43.72768" lon="6.85276">
        <ele>1211.8</ele>
        <time>2021-05-02T13:47:36Z</time>
      </trkpt>
      <trkpt lat="43.72769" lon="6.8528">
        <ele>1211.3</ele>
        <time>2021-05-02T13:47:41Z</time>
      </trkpt>
      <trkpt lat="43.7277" lon="6.85286">
        <ele>1211.4</ele>
        <time>2021-05-02T13:47:47Z</time>
      </trkpt>
      <trkpt lat="43.72771" lon="6.85291">
        <ele>1211.1</ele>
        <time>2021-05-02T13:47:53Z</time>
      </trkpt>
      <trkpt lat="43.72771" lon="6.85296">
        <ele>1210.9</ele>
        <time>2021-05-02T13:47:59Z</time>
      </trkpt>
      <trkpt lat="43.72774" lon="6.853">
        <ele>1211.3</ele>
        <time>2021-05-02T13:48:04Z</time>
      </trkpt>
      <trkpt lat="43.72772" lon="6.85306">
        <ele>1210.2</ele>
        <time>2021-05-02T13:48:10Z</time>
      </trkpt>
      <trkpt lat="43.72772" lon="6.85311">
        <ele>1209.5</ele>
        <time>2021-05-02T13:48:16Z</time>
      </trkpt>
      <trkpt lat="43.72772" lon="6.85315">
        <ele>1209</ele>
        <time>2021-05-02T13:48:22Z</time>
      </trkpt>
      <trkpt lat="43.72773" lon="6.85319">
        <ele>1208.8</ele>
        <time>2021-05-02T13:48:28Z</time>
      </trkpt>
      <trkpt lat="43.72772" lon="6.85327">
        <ele>1207.7</ele>
        <time>2021-05-02T13:48:34Z</time>
      </trkpt>
      <trkpt lat="43.72772" lon="6.85331">
        <ele>1207</ele>
        <time>2021-05-02T13:48:40Z</time>
      </trkpt>
      <trkpt lat="43.72773" lon="6.85336">
        <ele>1206.6</ele>
        <time>2021-05-02T13:48:45Z</time>
      </trkpt>
      <trkpt lat="43.72774" lon="6.85341">
        <ele>1205.6</ele>
        <time>2021-05-02T13:48:51Z</time>
      </trkpt>
      <trkpt lat="43.72775" lon="6.85347">
        <ele>1204.1</ele>
        <time>2021-05-02T13:48:57Z</time>
      </trkpt>
      <trkpt lat="43.72774" lon="6.85353">
        <ele>1202.2</ele>
        <time>2021-05-02T13:49:03Z</time>
      </trkpt>
      <trkpt lat="43.72775" lon="6.85358">
        <ele>1201</ele>
        <time>2021-05-02T13:49:09Z</time>
      </trkpt>
      <trkpt lat="43.72776" lon="6.85362">
        <ele>1200.2</ele>
        <time>2021-05-02T13:49:14Z</time>
      </trkpt>
      <trkpt lat="43.72778" lon="6.85365">
        <ele>1199.8</ele>
        <time>2021-05-02T13:49:20Z</time>
      </trkpt>
      <trkpt lat="43.72779" lon="6.85368">
        <ele>1199.4</ele>
        <time>2021-05-02T13:49:25Z</time>
      </trkpt>
      <trkpt lat="43.72783" lon="6.8537">
        <ele>1199.5</ele>
        <time>2021-05-02T13:49:30Z</time>
      </trkpt>
      <trkpt lat="43.72785" lon="6.85373">
        <ele>1199.2</ele>
        <time>2021-05-02T13:49:35Z</time>
      </trkpt>
      <trkpt lat="43.72784" lon="6.85378">
        <ele>1197.9</ele>
        <time>2021-05-02T13:49:41Z</time>
      </trkpt>
      <trkpt lat="43.7278" lon="6.85376">
        <ele>1197.1</ele>
        <time>2021-05-02T13:49:46Z</time>
      </trkpt>
      <trkpt lat="43.72776" lon="6.85376">
        <ele>1196.1</ele>
        <time>2021-05-02T13:49:51Z</time>
      </trkpt>
      <trkpt lat="43.72772" lon="6.85375">
        <ele>1195.3</ele>
        <time>2021-05-02T13:49:57Z</time>
      </trkpt>
      <trkpt lat="43.72769" lon="6.85376">
        <ele>1194</ele>
        <time>2021-05-02T13:50:02Z</time>
      </trkpt>
      <trkpt lat="43.72765" lon="6.85375">
        <ele>1193.2</ele>
        <time>2021-05-02T13:50:08Z</time>
      </trkpt>
      <trkpt lat="43.72761" lon="6.85373">
        <ele>1192.5</ele>
        <time>2021-05-02T13:50:13Z</time>
      </trkpt>
      <trkpt lat="43.72758" lon="6.85371">
        <ele>1192.4</ele>
        <time>2021-05-02T13:50:18Z</time>
      </trkpt>
      <trkpt lat="43.72756" lon="6.85367">
        <ele>1192.6</ele>
        <time>2021-05-02T13:50:24Z</time>
      </trkpt>
      <trkpt lat="43.72751" lon="6.85366">
        <ele>1191.5</ele>
        <time>2021-05-02T13:50:30Z</time>
      </trkpt>
      <trkpt lat="43.72749" lon="6.85362">
        <ele>1191.6</ele>
        <time>2021-05-02T13:50:35Z</time>
      </trkpt>
      <trkpt lat="43.72747" lon="6.85356">
        <ele>1192</ele>
        <time>2021-05-02T13:50:41Z</time>
      </trkpt>
      <trkpt lat="43.72745" lon="6.85355">
        <ele>1191</ele>
        <time>2021-05-02T13:50:46Z</time>
      </trkpt>
      <trkpt lat="43.72745" lon="6.85353">
        <ele>1191.2</ele>
        <time>2021-05-02T13:50:51Z</time>
      </trkpt>
      <trkpt lat="43.72742" lon="6.85349">
        <ele>1190.8</ele>
        <time>2021-05-02T13:50:57Z</time>
      </trkpt>
      <trkpt lat="43.72741" lon="6.85344">
        <ele>1190.9</ele>
        <time>2021-05-02T13:51:02Z</time>
      </trkpt>
      <trkpt lat="43.72737" lon="6.8534">
        <ele>1189.5</ele>
        <time>2021-05-02T13:51:08Z</time>
      </trkpt>
      <trkpt lat="43.72736" lon="6.85335">
        <ele>1190</ele>
        <time>2021-05-02T13:51:13Z</time>
      </trkpt>
      <trkpt lat="43.72734" lon="6.8533">
        <ele>1189.8</ele>
        <time>2021-05-02T13:51:19Z</time>
      </trkpt>
      <trkpt lat="43.72733" lon="6.85325">
        <ele>1189.3</ele>
        <time>2021-05-02T13:51:25Z</time>
      </trkpt>
      <trkpt lat="43.72733" lon="6.85319">
        <ele>1190</ele>
        <time>2021-05-02T13:51:30Z</time>
      </trkpt>
      <trkpt lat="43.72732" lon="6.85313">
        <ele>1189.7</ele>
        <time>2021-05-02T13:51:36Z</time>
      </trkpt>
      <trkpt lat="43.72732" lon="6.85307">
        <ele>1190.3</ele>
        <time>2021-05-02T13:51:42Z</time>
      </trkpt>
      <trkpt lat="43.72734" lon="6.85302">
        <ele>1191.3</ele>
        <time>2021-05-02T13:51:47Z</time>
      </trkpt>
      <trkpt lat="43.7273" lon="6.85298">
        <ele>1189.6</ele>
        <time>2021-05-02T13:51:53Z</time>
      </trkpt>
      <trkpt lat="43.72729" lon="6.85293">
        <ele>1189.1</ele>
        <time>2021-05-02T13:51:58Z</time>
      </trkpt>
      <trkpt lat="43.72728" lon="6.85287">
        <ele>1188.9</ele>
        <time>2021-05-02T13:52:03Z</time>
      </trkpt>
      <trkpt lat="43.72727" lon="6.85279">
        <ele>1188.7</ele>
        <time>2021-05-02T13:52:09Z</time>
      </trkpt>
      <trkpt lat="43.72726" lon="6.85273">
        <ele>1188.9</ele>
        <time>2021-05-02T13:52:14Z</time>
      </trkpt>
      <trkpt lat="43.72724" lon="6.85268">
        <ele>1187.9</ele>
        <time>2021-05-02T13:52:20Z</time>
      </trkpt>
      <trkpt lat="43.72722" lon="6.85265">
        <ele>1186.6</ele>
        <time>2021-05-02T13:52:25Z</time>
      </trkpt>
      <trkpt lat="43.7272" lon="6.85266">
        <ele>1185.3</ele>
        <time>2021-05-02T13:52:31Z</time>
      </trkpt>
      <trkpt lat="43.72721" lon="6.85271">
        <ele>1185.5</ele>
        <time>2021-05-02T13:52:36Z</time>
      </trkpt>
      <trkpt lat="43.7272" lon="6.85278">
        <ele>1184.9</ele>
        <time>2021-05-02T13:52:42Z</time>
      </trkpt>
      <trkpt lat="43.7272" lon="6.85282">
        <ele>1184.4</ele>
        <time>2021-05-02T13:52:47Z</time>
      </trkpt>
      <trkpt lat="43.72719" lon="6.85286">
        <ele>1183.4</ele>
        <time>2021-05-02T13:52:53Z</time>
      </trkpt>
      <trkpt lat="43.72718" lon="6.8529">
        <ele>1182.7</ele>
        <time>2021-05-02T13:52:59Z</time>
      </trkpt>
      <trkpt lat="43.7272" lon="6.85295">
        <ele>1183.5</ele>
        <time>2021-05-02T13:53:05Z</time>
      </trkpt>
      <trkpt lat="43.72721" lon="6.85299">
        <ele>1183.6</ele>
        <time>2021-05-02T13:53:10Z</time>
      </trkpt>
      <trkpt lat="43.72717" lon="6.853">
        <ele>1181.3</ele>
        <time>2021-05-02T13:53:16Z</time>
      </trkpt>
      <trkpt lat="43.72714" lon="6.85295">
        <ele>1180.1</ele>
        <time>2021-05-02T13:53:22Z</time>
      </trkpt>
      <trkpt lat="43.72711" lon="6.85291">
        <ele>1178.5</ele>
        <time>2021-05-02T13:53:28Z</time>
      </trkpt>
      <trkpt lat="43.72711" lon="6.85288">
        <ele>1178.4</ele>
        <time>2021-05-02T13:53:34Z</time>
      </trkpt>
      <trkpt lat="43.72708" lon="6.85285">
        <ele>1177.3</ele>
        <time>2021-05-02T13:53:40Z</time>
      </trkpt>
      <trkpt lat="43.72707" lon="6.8528">
        <ele>1176.8</ele>
        <time>2021-05-02T13:53:45Z</time>
      </trkpt>
      <trkpt lat="43.72704" lon="6.85277">
        <ele>1174.9</ele>
        <time>2021-05-02T13:53:50Z</time>
      </trkpt>
      <trkpt lat="43.727" lon="6.85275">
        <ele>1172.9</ele>
        <time>2021-05-02T13:53:55Z</time>
      </trkpt>
      <trkpt lat="43.72699" lon="6.85267">
        <ele>1172.7</ele>
        <time>2021-05-02T13:54:01Z</time>
      </trkpt>
      <trkpt lat="43.72701" lon="6.85262">
        <ele>1174.5</ele>
        <time>2021-05-02T13:54:07Z</time>
      </trkpt>
      <trkpt lat="43.72701" lon="6.85258">
        <ele>1174.2</ele>
        <time>2021-05-02T13:54:12Z</time>
      </trkpt>
      <trkpt lat="43.72698" lon="6.85252">
        <ele>1173.4</ele>
        <time>2021-05-02T13:54:18Z</time>
      </trkpt>
      <trkpt lat="43.72698" lon="6.85246">
        <ele>1173.4</ele>
        <time>2021-05-02T13:54:24Z</time>
      </trkpt>
      <trkpt lat="43.72698" lon="6.85242">
        <ele>1173.6</ele>
        <time>2021-05-02T13:54:30Z</time>
      </trkpt>
      <trkpt lat="43.72697" lon="6.85238">
        <ele>1173.5</ele>
        <time>2021-05-02T13:54:35Z</time>
      </trkpt>
      <trkpt lat="43.72695" lon="6.85232">
        <ele>1172.4</ele>
        <time>2021-05-02T13:54:41Z</time>
      </trkpt>
      <trkpt lat="43.72697" lon="6.85227">
        <ele>1173.7</ele>
        <time>2021-05-02T13:54:47Z</time>
      </trkpt>
      <trkpt lat="43.72697" lon="6.85222">
        <ele>1174</ele>
        <time>2021-05-02T13:54:53Z</time>
      </trkpt>
      <trkpt lat="43.72696" lon="6.85218">
        <ele>1173.8</ele>
        <time>2021-05-02T13:54:58Z</time>
      </trkpt>
      <trkpt lat="43.72694" lon="6.85212">
        <ele>1172.8</ele>
        <time>2021-05-02T13:55:04Z</time>
      </trkpt>
      <trkpt lat="43.72692" lon="6.85206">
        <ele>1171.8</ele>
        <time>2021-05-02T13:55:10Z</time>
      </trkpt>
      <trkpt lat="43.72688" lon="6.85202">
        <ele>1169.9</ele>
        <time>2021-05-02T13:55:16Z</time>
      </trkpt>
      <trkpt lat="43.72685" lon="6.85202">
        <ele>1167.5</ele>
        <time>2021-05-02T13:55:22Z</time>
      </trkpt>
      <trkpt lat="43.72682" lon="6.852">
        <ele>1165.8</ele>
        <time>2021-05-02T13:55:27Z</time>
      </trkpt>
      <trkpt lat="43.72681" lon="6.85194">
        <ele>1165.7</ele>
        <time>2021-05-02T13:55:33Z</time>
      </trkpt>
      <trkpt lat="43.72684" lon="6.85184">
        <ele>1168.1</ele>
        <time>2021-05-02T13:55:38Z</time>
      </trkpt>
      <trkpt lat="43.72686" lon="6.85178">
        <ele>1169.4</ele>
        <time>2021-05-02T13:55:43Z</time>
      </trkpt>
      <trkpt lat="43.72685" lon="6.8517">
        <ele>1169.6</ele>
        <time>2021-05-02T13:55:49Z</time>
      </trkpt>
      <trkpt lat="43.72683" lon="6.85163">
        <ele>1168.7</ele>
        <time>2021-05-02T13:55:55Z</time>
      </trkpt>
      <trkpt lat="43.72683" lon="6.85156">
        <ele>1168.7</ele>
        <time>2021-05-02T13:56:01Z</time>
      </trkpt>
      <trkpt lat="43.72682" lon="6.85149">
        <ele>1168.3</ele>
        <time>2021-05-02T13:56:07Z</time>
      </trkpt>
      <trkpt lat="43.7268" lon="6.85142">
        <ele>1167.2</ele>
        <time>2021-05-02T13:56:13Z</time>
      </trkpt>
      <trkpt lat="43.72679" lon="6.85136">
        <ele>1166.8</ele>
        <time>2021-05-02T13:56:19Z</time>
      </trkpt>
      <trkpt lat="43.72677" lon="6.85129">
        <ele>1166</ele>
        <time>2021-05-02T13:56:25Z</time>
      </trkpt>
      <trkpt lat="43.72676" lon="6.85122">
        <ele>1165.6</ele>
        <time>2021-05-02T13:56:31Z</time>
      </trkpt>
      <trkpt lat="43.72675" lon="6.85118">
        <ele>1164.7</ele>
        <time>2021-05-02T13:56:36Z</time>
      </trkpt>
      <trkpt lat="43.72674" lon="6.85113">
        <ele>1164.4</ele>
        <time>2021-05-02T13:56:42Z</time>
      </trkpt>
      <trkpt lat="43.72673" lon="6.85109">
        <ele>1164</ele>
        <time>2021-05-02T13:56:47Z</time>
      </trkpt>
      <trkpt lat="43.72673" lon="6.85105">
        <ele>1164</ele>
        <time>2021-05-02T13:56:52Z</time>
      </trkpt>
      <trkpt lat="43.72674" lon="6.85097">
        <ele>1164.5</ele>
        <time>2021-05-02T13:56:58Z</time>
      </trkpt>
      <trkpt lat="43.72673" lon="6.85092">
        <ele>1164.1</ele>
        <time>2021-05-02T13:57:04Z</time>
      </trkpt>
      <trkpt lat="43.72671" lon="6.85089">
        <ele>1162.8</ele>
        <time>2021-05-02T13:57:09Z</time>
      </trkpt>
      <trkpt lat="43.72671" lon="6.85091">
        <ele>1162.6</ele>
        <time>2021-05-02T13:57:15Z</time>
      </trkpt>
      <trkpt lat="43.72673" lon="6.85096">
        <ele>1163.9</ele>
        <time>2021-05-02T13:57:20Z</time>
      </trkpt>
      <trkpt lat="43.72674" lon="6.851">
        <ele>1164.5</ele>
        <time>2021-05-02T13:57:26Z</time>
      </trkpt>
      <trkpt lat="43.72675" lon="6.85105">
        <ele>1164.9</ele>
        <time>2021-05-02T13:57:31Z</time>
      </trkpt>
      <trkpt lat="43.72674" lon="6.8511">
        <ele>1164.5</ele>
        <time>2021-05-02T13:57:36Z</time>
      </trkpt>
      <trkpt lat="43.72674" lon="6.85116">
        <ele>1164.4</ele>
        <time>2021-05-02T13:57:42Z</time>
      </trkpt>
      <trkpt lat="43.72673" lon="6.85121">
        <ele>1163.4</ele>
        <time>2021-05-02T13:57:48Z</time>
      </trkpt>
      <trkpt lat="43.72674" lon="6.85125">
        <ele>1163.6</ele>
        <time>2021-05-02T13:57:53Z</time>
      </trkpt>
      <trkpt lat="43.72674" lon="6.85131">
        <ele>1163.6</ele>
        <time>2021-05-02T13:57:59Z</time>
      </trkpt>
      <trkpt lat="43.72672" lon="6.85136">
        <ele>1162</ele>
        <time>2021-05-02T13:58:05Z</time>
      </trkpt>
      <trkpt lat="43.72671" lon="6.85141">
        <ele>1161.1</ele>
        <time>2021-05-02T13:58:10Z</time>
      </trkpt>
      <trkpt lat="43.7267" lon="6.85146">
        <ele>1160.8</ele>
        <time>2021-05-02T13:58:15Z</time>
      </trkpt>
      <trkpt lat="43.72669" lon="6.85151">
        <ele>1159.9</ele>
        <time>2021-05-02T13:58:21Z</time>
      </trkpt>
      <trkpt lat="43.72669" lon="6.85157">
        <ele>1159.9</ele>
        <time>2021-05-02T13:58:27Z</time>
      </trkpt>
      <trkpt lat="43.72668" lon="6.85163">
        <ele>1159.1</ele>
        <time>2021-05-02T13:58:32Z</time>
      </trkpt>
      <trkpt lat="43.72669" lon="6.85169">
        <ele>1159.2</ele>
        <time>2021-05-02T13:58:38Z</time>
      </trkpt>
      <trkpt lat="43.72669" lon="6.85174">
        <ele>1159</ele>
        <time>2021-05-02T13:58:44Z</time>
      </trkpt>
      <trkpt lat="43.72669" lon="6.8518">
        <ele>1158.6</ele>
        <time>2021-05-02T13:58:50Z</time>
      </trkpt>
      <trkpt lat="43.72668" lon="6.85187">
        <ele>1158.1</ele>
        <time>2021-05-02T13:58:56Z</time>
      </trkpt>
      <trkpt lat="43.72669" lon="6.85194">
        <ele>1157.8</ele>
        <time>2021-05-02T13:59:02Z</time>
      </trkpt>
      <trkpt lat="43.72669" lon="6.85199">
        <ele>1157.7</ele>
        <time>2021-05-02T13:59:07Z</time>
      </trkpt>
      <trkpt lat="43.72668" lon="6.85206">
        <ele>1157.2</ele>
        <time>2021-05-02T13:59:13Z</time>
      </trkpt>
      <trkpt lat="43.72669" lon="6.85211">
        <ele>1157.1</ele>
        <time>2021-05-02T13:59:18Z</time>
      </trkpt>
      <trkpt lat="43.72669" lon="6.85217">
        <ele>1157.2</ele>
        <time>2021-05-02T13:59:24Z</time>
      </trkpt>
      <trkpt lat="43.72668" lon="6.85223">
        <ele>1156.3</ele>
        <time>2021-05-02T13:59:30Z</time>
      </trkpt>
      <trkpt lat="43.72668" lon="6.85227">
        <ele>1156</ele>
        <time>2021-05-02T13:59:35Z</time>
      </trkpt>
      <trkpt lat="43.72667" lon="6.85231">
        <ele>1155.4</ele>
        <time>2021-05-02T13:59:41Z</time>
      </trkpt>
      <trkpt lat="43.72668" lon="6.85237">
        <ele>1155.1</ele>
        <time>2021-05-02T13:59:46Z</time>
      </trkpt>
      <trkpt lat="43.72666" lon="6.85243">
        <ele>1154</ele>
        <time>2021-05-02T13:59:52Z</time>
      </trkpt>
      <trkpt lat="43.72667" lon="6.8525">
        <ele>1154.3</ele>
        <time>2021-05-02T13:59:58Z</time>
      </trkpt>
      <trkpt lat="43.72668" lon="6.85256">
        <ele>1154.5</ele>
        <time>2021-05-02T14:00:04Z</time>
      </trkpt>
      <trkpt lat="43.72666" lon="6.85261">
        <ele>1152.9</ele>
        <time>2021-05-02T14:00:10Z</time>
      </trkpt>
      <trkpt lat="43.72664" lon="6.85266">
        <ele>1151.3</ele>
        <time>2021-05-02T14:00:16Z</time>
      </trkpt>
      <trkpt lat="43.72663" lon="6.85267">
        <ele>1150.5</ele>
        <time>2021-05-02T14:00:22Z</time>
      </trkpt>
      <trkpt lat="43.72661" lon="6.85269">
        <ele>1149.2</ele>
        <time>2021-05-02T14:00:27Z</time>
      </trkpt>
      <trkpt lat="43.72663" lon="6.85272">
        <ele>1149.9</ele>
        <time>2021-05-02T14:00:32Z</time>
      </trkpt>
      <trkpt lat="43.72664" lon="6.85275">
        <ele>1151</ele>
        <time>2021-05-02T14:00:38Z</time>
      </trkpt>
      <trkpt lat="43.72662" lon="6.85281">
        <ele>1149.2</ele>
        <time>2021-05-02T14:00:44Z</time>
      </trkpt>
      <trkpt lat="43.72662" lon="6.85287">
        <ele>1148.5</ele>
        <time>2021-05-02T14:00:50Z</time>
      </trkpt>
      <trkpt lat="43.72662" lon="6.85293">
        <ele>1148.4</ele>
        <time>2021-05-02T14:00:56Z</time>
      </trkpt>
      <trkpt lat="43.72662" lon="6.85297">
        <ele>1148.3</ele>
        <time>2021-05-02T14:01:01Z</time>
      </trkpt>
      <trkpt lat="43.72662" lon="6.85303">
        <ele>1147.7</ele>
        <time>2021-05-02T14:01:07Z</time>
      </trkpt>
      <trkpt lat="43.72661" lon="6.85308">
        <ele>1146.4</ele>
        <time>2021-05-02T14:01:13Z</time>
      </trkpt>
      <trkpt lat="43.7266" lon="6.85313">
        <ele>1145.9</ele>
        <time>2021-05-02T14:01:18Z</time>
      </trkpt>
      <trkpt lat="43.7266" lon="6.85318">
        <ele>1145.7</ele>
        <time>2021-05-02T14:01:24Z</time>
      </trkpt>
      <trkpt lat="43.72658" lon="6.85322">
        <ele>1144.3</ele>
        <time>2021-05-02T14:01:29Z</time>
      </trkpt>
      <trkpt lat="43.72656" lon="6.85327">
        <ele>1142.5</ele>
        <time>2021-05-02T14:01:35Z</time>
      </trkpt>
      <trkpt lat="43.72655" lon="6.85332">
        <ele>1141.7</ele>
        <time>2021-05-02T14:01:40Z</time>
      </trkpt>
      <trkpt lat="43.72656" lon="6.85338">
        <ele>1141.8</ele>
        <time>2021-05-02T14:01:46Z</time>
      </trkpt>
      <trkpt lat="43.72655" lon="6.85344">
        <ele>1140.7</ele>
        <time>2021-05-02T14:01:52Z</time>
      </trkpt>
      <trkpt lat="43.72655" lon="6.85349">
        <ele>1139.9</ele>
        <time>2021-05-02T14:01:57Z</time>
      </trkpt>
      <trkpt lat="43.72654" lon="6.85354">
        <ele>1138.9</ele>
        <time>2021-05-02T14:02:03Z</time>
      </trkpt>
      <trkpt lat="43.72654" lon="6.85361">
        <ele>1138.5</ele>
        <time>2021-05-02T14:02:09Z</time>
      </trkpt>
      <trkpt lat="43.72655" lon="6.85366">
        <ele>1138.9</ele>
        <time>2021-05-02T14:02:14Z</time>
      </trkpt>
      <trkpt lat="43.72655" lon="6.8537">
        <ele>1138.4</ele>
        <time>2021-05-02T14:02:20Z</time>
      </trkpt>
      <trkpt lat="43.72655" lon="6.8537">
        <ele>1138.5</ele>
        <time>2021-05-02T14:02:26Z</time>
      </trkpt>
      <trkpt lat="43.72655" lon="6.8537">
        <ele>1138.7</ele>
        <time>2021-05-02T14:02:31Z</time>
      </trkpt>
      <trkpt lat="43.72655" lon="6.8537">
        <ele>1138.7</ele>
        <time>2021-05-02T14:02:36Z</time>
      </trkpt>
      <trkpt lat="43.72655" lon="6.8537">
        <ele>1138.7</ele>
        <time>2021-05-02T14:02:42Z</time>
      </trkpt>
      <trkpt lat="43.72655" lon="6.8537">
        <ele>1138.7</ele>
        <time>2021-05-02T14:02:47Z</time>
      </trkpt>
      <trkpt lat="43.72655" lon="6.8537">
        <ele>1138.7</ele>
        <time>2021-05-02T14:02:53Z</time>
      </trkpt>
      <trkpt lat="43.72656" lon="6.8537">
        <ele>1138.9</ele>
        <time>2021-05-02T14:02:59Z</time>
      </trkpt>
      <trkpt lat="43.72656" lon="6.8537">
        <ele>1138.9</ele>
        <time>2021-05-02T14:03:05Z</time>
      </trkpt>
      <trkpt lat="43.72656" lon="6.8537">
        <ele>1138.9</ele>
        <time>2021-05-02T14:03:11Z</time>
      </trkpt>
      <trkpt lat="43.72656" lon="6.8537">
        <ele>1138.9</ele>
        <time>2021-05-02T14:03:16Z</time>
      </trkpt>
      <trkpt lat="43.72656" lon="6.8537">
        <ele>1138.9</ele>
        <time>2021-05-02T14:03:22Z</time>
      </trkpt>
      <trkpt lat="43.72656" lon="6.8537">
        <ele>1138.9</ele>
        <time>2021-05-02T14:03:27Z</time>
      </trkpt>
      <trkpt lat="43.72656" lon="6.8537">
        <ele>1138.9</ele>
        <time>2021-05-02T14:03:33Z</time>
      </trkpt>
      <trkpt lat="43.72655" lon="6.8537">
        <ele>1138.7</ele>
        <time>2021-05-02T14:03:38Z</time>
      </trkpt>
      <trkpt lat="43.72655" lon="6.8537">
        <ele>1138.7</ele>
        <time>2021-05-02T14:03:43Z</time>
      </trkpt>
      <trkpt lat="43.72655" lon="6.8537">
        <ele>1138.7</ele>
        <time>2021-05-02T14:03:49Z</time>
      </trkpt>
      <trkpt lat="43.72655" lon="6.8537">
        <ele>1138.7</ele>
        <time>2021-05-02T14:03:54Z</time>
      </trkpt>
      <trkpt lat="43.72655" lon="6.8537">
        <ele>1138.7</ele>
        <time>2021-05-02T14:04:00Z</time>
      </trkpt>
      <trkpt lat="43.72655" lon="6.8537">
        <ele>1138.7</ele>
        <time>2021-05-02T14:04:06Z</time>
      </trkpt>
      <trkpt lat="43.72655" lon="6.8537">
        <ele>1138.7</ele>
        <time>2021-05-02T14:04:12Z</time>
      </trkpt>
      <trkpt lat="43.72655" lon="6.8537">
        <ele>1138.7</ele>
        <time>2021-05-02T14:04:18Z</time>
      </trkpt>
      <trkpt lat="43.72655" lon="6.8537">
        <ele>1138.7</ele>
        <time>2021-05-02T14:04:24Z</time>
      </trkpt>
      <trkpt lat="43.72655" lon="6.8537">
        <ele>1138.7</ele>
        <time>2021-05-02T14:04:29Z</time>
      </trkpt>
      <trkpt lat="43.72655" lon="6.8537">
        <ele>1138.7</ele>
        <time>2021-05-02T14:04:35Z</time>
      </trkpt>
      <trkpt lat="43.72655" lon="6.8537">
        <ele>1138.7</ele>
        <time>2021-05-02T14:04:41Z</time>
      </trkpt>
      <trkpt lat="43.72655" lon="6.8537">
        <ele>1138.7</ele>
        <time>2021-05-02T14:04:46Z</time>
      </trkpt>
      <trkpt lat="43.72655" lon="6.8537">
        <ele>1138.7</ele>
        <time>2021-05-02T14:04:51Z</time>
      </trkpt>
      <trkpt lat="43.72655" lon="6.8537">
        <ele>1138.6</ele>
        <time>2021-05-02T14:04:57Z</time>
      </trkpt>
      <trkpt lat="43.72655" lon="6.8537">
        <ele>1138.6</ele>
        <time>2021-05-02T14:05:02Z</time>
      </trkpt>
      <trkpt lat="43.72655" lon="6.8537">
        <ele>1138.6</ele>
        <time>2021-05-02T14:05:08Z</time>
      </trkpt>
      <trkpt lat="43.72655" lon="6.8537">
        <ele>1138.6</ele>
        <time>2021-05-02T14:05:13Z</time>
      </trkpt>
      <trkpt lat="43.72652" lon="6.85366">
        <ele>1137</ele>
        <time>2021-05-02T14:05:19Z</time>
      </trkpt>
      <trkpt lat="43.72652" lon="6.85366">
        <ele>1136.7</ele>
        <time>2021-05-02T14:05:24Z</time>
      </trkpt>
      <trkpt lat="43.72651" lon="6.85366">
        <ele>1136.4</ele>
        <time>2021-05-02T14:05:30Z</time>
      </trkpt>
      <trkpt lat="43.7265" lon="6.85366">
        <ele>1136</ele>
        <time>2021-05-02T14:05:35Z</time>
      </trkpt>
      <trkpt lat="43.72651" lon="6.85366">
        <ele>1136.3</ele>
        <time>2021-05-02T14:05:41Z</time>
      </trkpt>
      <trkpt lat="43.72651" lon="6.85367">
        <ele>1136.2</ele>
        <time>2021-05-02T14:05:46Z</time>
      </trkpt>
      <trkpt lat="43.72654" lon="6.85371">
        <ele>1137.5</ele>
        <time>2021-05-02T14:05:52Z</time>
      </trkpt>
      <trkpt lat="43.72654" lon="6.85376">
        <ele>1137.1</ele>
        <time>2021-05-02T14:05:58Z</time>
      </trkpt>
      <trkpt lat="43.72654" lon="6.85384">
        <ele>1137</ele>
        <time>2021-05-02T14:06:04Z</time>
      </trkpt>
      <trkpt lat="43.72654" lon="6.85389">
        <ele>1136.5</ele>
        <time>2021-05-02T14:06:10Z</time>
      </trkpt>
      <trkpt lat="43.72654" lon="6.85395">
        <ele>1136.3</ele>
        <time>2021-05-02T14:06:16Z</time>
      </trkpt>
      <trkpt lat="43.72656" lon="6.854">
        <ele>1136.6</ele>
        <time>2021-05-02T14:06:21Z</time>
      </trkpt>
      <trkpt lat="43.72656" lon="6.85403">
        <ele>1136.7</ele>
        <time>2021-05-02T14:06:26Z</time>
      </trkpt>
      <trkpt lat="43.72657" lon="6.85408">
        <ele>1137</ele>
        <time>2021-05-02T14:06:32Z</time>
      </trkpt>
      <trkpt lat="43.72657" lon="6.85413">
        <ele>1136.7</ele>
        <time>2021-05-02T14:06:38Z</time>
      </trkpt>
      <trkpt lat="43.72658" lon="6.85413">
        <ele>1136.8</ele>
        <time>2021-05-02T14:06:44Z</time>
      </trkpt>
      <trkpt lat="43.72658" lon="6.85413">
        <ele>1136.8</ele>
        <time>2021-05-02T14:06:50Z</time>
      </trkpt>
      <trkpt lat="43.72658" lon="6.85413">
        <ele>1136.8</ele>
        <time>2021-05-02T14:06:55Z</time>
      </trkpt>
      <trkpt lat="43.72658" lon="6.85413">
        <ele>1136.8</ele>
        <time>2021-05-02T14:07:01Z</time>
      </trkpt>
      <trkpt lat="43.72658" lon="6.85413">
        <ele>1136.8</ele>
        <time>2021-05-02T14:07:07Z</time>
      </trkpt>
      <trkpt lat="43.72658" lon="6.85413">
        <ele>1136.8</ele>
        <time>2021-05-02T14:07:13Z</time>
      </trkpt>
      <trkpt lat="43.72658" lon="6.85413">
        <ele>1136.8</ele>
        <time>2021-05-02T14:07:18Z</time>
      </trkpt>
      <trkpt lat="43.72658" lon="6.85413">
        <ele>1136.8</ele>
        <time>2021-05-02T14:07:24Z</time>
      </trkpt>
      <trkpt lat="43.72658" lon="6.85413">
        <ele>1136.8</ele>
        <time>2021-05-02T14:07:29Z</time>
      </trkpt>
      <trkpt lat="43.72658" lon="6.85413">
        <ele>1136.8</ele>
        <time>2021-05-02T14:07:35Z</time>
      </trkpt>
      <trkpt lat="43.72657" lon="6.85413">
        <ele>1136.6</ele>
        <time>2021-05-02T14:07:41Z</time>
      </trkpt>
      <trkpt lat="43.72657" lon="6.85413">
        <ele>1136.6</ele>
        <time>2021-05-02T14:07:46Z</time>
      </trkpt>
      <trkpt lat="43.72657" lon="6.85413">
        <ele>1136.6</ele>
        <time>2021-05-02T14:07:52Z</time>
      </trkpt>
      <trkpt lat="43.72657" lon="6.85413">
        <ele>1136.6</ele>
        <time>2021-05-02T14:07:57Z</time>
      </trkpt>
      <trkpt lat="43.72657" lon="6.85413">
        <ele>1136.6</ele>
        <time>2021-05-02T14:08:03Z</time>
      </trkpt>
      <trkpt lat="43.72657" lon="6.85413">
        <ele>1136.6</ele>
        <time>2021-05-02T14:08:09Z</time>
      </trkpt>
      <trkpt lat="43.72657" lon="6.85413">
        <ele>1136.6</ele>
        <time>2021-05-02T14:08:15Z</time>
      </trkpt>
      <trkpt lat="43.72657" lon="6.85413">
        <ele>1136.6</ele>
        <time>2021-05-02T14:08:20Z</time>
      </trkpt>
      <trkpt lat="43.72657" lon="6.85413">
        <ele>1136.5</ele>
        <time>2021-05-02T14:08:26Z</time>
      </trkpt>
      <trkpt lat="43.72657" lon="6.85413">
        <ele>1136.5</ele>
        <time>2021-05-02T14:08:32Z</time>
      </trkpt>
      <trkpt lat="43.72657" lon="6.85413">
        <ele>1136.5</ele>
        <time>2021-05-02T14:08:37Z</time>
      </trkpt>
      <trkpt lat="43.72657" lon="6.85413">
        <ele>1136.5</ele>
        <time>2021-05-02T14:08:43Z</time>
      </trkpt>
      <trkpt lat="43.72657" lon="6.85413">
        <ele>1136.5</ele>
        <time>2021-05-02T14:08:48Z</time>
      </trkpt>
      <trkpt lat="43.72658" lon="6.85412">
        <ele>1136.8</ele>
        <time>2021-05-02T14:08:54Z</time>
      </trkpt>
      <trkpt lat="43.72657" lon="6.85415">
        <ele>1136.3</ele>
        <time>2021-05-02T14:09:00Z</time>
      </trkpt>
      <trkpt lat="43.72659" lon="6.85421">
        <ele>1136.4</ele>
        <time>2021-05-02T14:09:06Z</time>
      </trkpt>
      <trkpt lat="43.7266" lon="6.85427">
        <ele>1135.7</ele>
        <time>2021-05-02T14:09:12Z</time>
      </trkpt>
      <trkpt lat="43.7266" lon="6.85433">
        <ele>1134.7</ele>
        <time>2021-05-02T14:09:18Z</time>
      </trkpt>
      <trkpt lat="43.72662" lon="6.85438">
        <ele>1134.3</ele>
        <time>2021-05-02T14:09:23Z</time>
      </trkpt>
      <trkpt lat="43.72662" lon="6.85442">
        <ele>1133.8</ele>
        <time>2021-05-02T14:09:28Z</time>
      </trkpt>
      <trkpt lat="43.72662" lon="6.85446">
        <ele>1133.1</ele>
        <time>2021-05-02T14:09:33Z</time>
      </trkpt>
      <trkpt lat="43.72665" lon="6.85452">
        <ele>1133.1</ele>
        <time>2021-05-02T14:09:39Z</time>
      </trkpt>
      <trkpt lat="43.72666" lon="6.85458">
        <ele>1132.8</ele>
        <time>2021-05-02T14:09:44Z</time>
      </trkpt>
      <trkpt lat="43.72667" lon="6.85464">
        <ele>1131.8</ele>
        <time>2021-05-02T14:09:50Z</time>
      </trkpt>
      <trkpt lat="43.72667" lon="6.85468">
        <ele>1130.9</ele>
        <time>2021-05-02T14:09:56Z</time>
      </trkpt>
      <trkpt lat="43.72668" lon="6.85473">
        <ele>1130.4</ele>
        <time>2021-05-02T14:10:02Z</time>
      </trkpt>
      <trkpt lat="43.7267" lon="6.85476">
        <ele>1130.1</ele>
        <time>2021-05-02T14:10:07Z</time>
      </trkpt>
      <trkpt lat="43.7267" lon="6.85479">
        <ele>1129.4</ele>
        <time>2021-05-02T14:10:12Z</time>
      </trkpt>
      <trkpt lat="43.72671" lon="6.85482">
        <ele>1129.1</ele>
        <time>2021-05-02T14:10:17Z</time>
      </trkpt>
      <trkpt lat="43.72672" lon="6.85486">
        <ele>1128.9</ele>
        <time>2021-05-02T14:10:23Z</time>
      </trkpt>
      <trkpt lat="43.72674" lon="6.85489">
        <ele>1128.6</ele>
        <time>2021-05-02T14:10:29Z</time>
      </trkpt>
      <trkpt lat="43.72676" lon="6.85493">
        <ele>1128.2</ele>
        <time>2021-05-02T14:10:35Z</time>
      </trkpt>
      <trkpt lat="43.72677" lon="6.85495">
        <ele>1128.1</ele>
        <time>2021-05-02T14:10:40Z</time>
      </trkpt>
      <trkpt lat="43.72678" lon="6.855">
        <ele>1127</ele>
        <time>2021-05-02T14:10:45Z</time>
      </trkpt>
      <trkpt lat="43.7268" lon="6.85506">
        <ele>1125.3</ele>
        <time>2021-05-02T14:10:51Z</time>
      </trkpt>
      <trkpt lat="43.72682" lon="6.8551">
        <ele>1124.2</ele>
        <time>2021-05-02T14:10:56Z</time>
      </trkpt>
      <trkpt lat="43.72682" lon="6.85514">
        <ele>1122.5</ele>
        <time>2021-05-02T14:11:02Z</time>
      </trkpt>
      <trkpt lat="43.72679" lon="6.85515">
        <ele>1121.5</ele>
        <time>2021-05-02T14:11:07Z</time>
      </trkpt>
      <trkpt lat="43.72675" lon="6.85512">
        <ele>1121.8</ele>
        <time>2021-05-02T14:11:13Z</time>
      </trkpt>
      <trkpt lat="43.72672" lon="6.85508">
        <ele>1122.5</ele>
        <time>2021-05-02T14:11:19Z</time>
      </trkpt>
      <trkpt lat="43.72669" lon="6.85503">
        <ele>1123.6</ele>
        <time>2021-05-02T14:11:25Z</time>
      </trkpt>
      <trkpt lat="43.72666" lon="6.855">
        <ele>1123.7</ele>
        <time>2021-05-02T14:11:31Z</time>
      </trkpt>
      <trkpt lat="43.72664" lon="6.85498">
        <ele>1122.8</ele>
        <time>2021-05-02T14:11:36Z</time>
      </trkpt>
      <trkpt lat="43.72662" lon="6.85499">
        <ele>1121.3</ele>
        <time>2021-05-02T14:11:42Z</time>
      </trkpt>
      <trkpt lat="43.72661" lon="6.85503">
        <ele>1119.7</ele>
        <time>2021-05-02T14:11:48Z</time>
      </trkpt>
      <trkpt lat="43.72661" lon="6.85504">
        <ele>1119.6</ele>
        <time>2021-05-02T14:11:54Z</time>
      </trkpt>
      <trkpt lat="43.72661" lon="6.85503">
        <ele>1119.8</ele>
        <time>2021-05-02T14:11:59Z</time>
      </trkpt>
      <trkpt lat="43.72661" lon="6.85503">
        <ele>1119.8</ele>
        <time>2021-05-02T14:12:05Z</time>
      </trkpt>
      <trkpt lat="43.72662" lon="6.85504">
        <ele>1119.7</ele>
        <time>2021-05-02T14:12:11Z</time>
      </trkpt>
      <trkpt lat="43.72662" lon="6.85508">
        <ele>1118.7</ele>
        <time>2021-05-02T14:12:16Z</time>
      </trkpt>
      <trkpt lat="43.72663" lon="6.85509">
        <ele>1118.4</ele>
        <time>2021-05-02T14:12:22Z</time>
      </trkpt>
      <trkpt lat="43.72663" lon="6.85509">
        <ele>1118.5</ele>
        <time>2021-05-02T14:12:28Z</time>
      </trkpt>
      <trkpt lat="43.72664" lon="6.85511">
        <ele>1118.3</ele>
        <time>2021-05-02T14:12:34Z</time>
      </trkpt>
      <trkpt lat="43.72667" lon="6.85516">
        <ele>1117.9</ele>
        <time>2021-05-02T14:12:40Z</time>
      </trkpt>
      <trkpt lat="43.72667" lon="6.85519">
        <ele>1116.8</ele>
        <time>2021-05-02T14:12:45Z</time>
      </trkpt>
      <trkpt lat="43.72669" lon="6.85522">
        <ele>1116</ele>
        <time>2021-05-02T14:12:50Z</time>
      </trkpt>
      <trkpt lat="43.72672" lon="6.85525">
        <ele>1115.8</ele>
        <time>2021-05-02T14:12:56Z</time>
      </trkpt>
      <trkpt lat="43.72677" lon="6.85529">
        <ele>1115.3</ele>
        <time>2021-05-02T14:13:02Z</time>
      </trkpt>
      <trkpt lat="43.72678" lon="6.85533">
        <ele>1114.1</ele>
        <time>2021-05-02T14:13:08Z</time>
      </trkpt>
      <trkpt lat="43.72679" lon="6.85536">
        <ele>1113</ele>
        <time>2021-05-02T14:13:13Z</time>
      </trkpt>
      <trkpt lat="43.72679" lon="6.85541">
        <ele>1111.4</ele>
        <time>2021-05-02T14:13:18Z</time>
      </trkpt>
      <trkpt lat="43.7268" lon="6.85542">
        <ele>1110.8</ele>
        <time>2021-05-02T14:13:24Z</time>
      </trkpt>
      <trkpt lat="43.72679" lon="6.85543">
        <ele>1110.6</ele>
        <time>2021-05-02T14:13:29Z</time>
      </trkpt>
      <trkpt lat="43.72675" lon="6.85539">
        <ele>1110.8</ele>
        <time>2021-05-02T14:13:35Z</time>
      </trkpt>
      <trkpt lat="43.72672" lon="6.85539">
        <ele>1110.4</ele>
        <time>2021-05-02T14:13:41Z</time>
      </trkpt>
      <trkpt lat="43.72672" lon="6.85542">
        <ele>1109.2</ele>
        <time>2021-05-02T14:13:46Z</time>
      </trkpt>
      <trkpt lat="43.72672" lon="6.85542">
        <ele>1108.9</ele>
        <time>2021-05-02T14:13:52Z</time>
      </trkpt>
      <trkpt lat="43.72672" lon="6.85544">
        <ele>1108.5</ele>
        <time>2021-05-02T14:13:57Z</time>
      </trkpt>
      <trkpt lat="43.72671" lon="6.85544">
        <ele>1108.3</ele>
        <time>2021-05-02T14:14:03Z</time>
      </trkpt>
      <trkpt lat="43.72669" lon="6.85541">
        <ele>1108.8</ele>
        <time>2021-05-02T14:14:08Z</time>
      </trkpt>
      <trkpt lat="43.72669" lon="6.8554">
        <ele>1109.1</ele>
        <time>2021-05-02T14:14:14Z</time>
      </trkpt>
      <trkpt lat="43.72667" lon="6.85538">
        <ele>1109.2</ele>
        <time>2021-05-02T14:14:20Z</time>
      </trkpt>
      <trkpt lat="43.72667" lon="6.85538">
        <ele>1109.2</ele>
        <time>2021-05-02T14:14:25Z</time>
      </trkpt>
      <trkpt lat="43.72667" lon="6.85538">
        <ele>1109.2</ele>
        <time>2021-05-02T14:14:30Z</time>
      </trkpt>
      <trkpt lat="43.72667" lon="6.85539">
        <ele>1109.2</ele>
        <time>2021-05-02T14:14:36Z</time>
      </trkpt>
      <trkpt lat="43.72667" lon="6.85539">
        <ele>1109.2</ele>
        <time>2021-05-02T14:14:41Z</time>
      </trkpt>
      <trkpt lat="43.72667" lon="6.85539">
        <ele>1109.1</ele>
        <time>2021-05-02T14:14:46Z</time>
      </trkpt>
      <trkpt lat="43.72667" lon="6.85539">
        <ele>1109.1</ele>
        <time>2021-05-02T14:14:52Z</time>
      </trkpt>
      <trkpt lat="43.72666" lon="6.85539">
        <ele>1108.8</ele>
        <time>2021-05-02T14:14:58Z</time>
      </trkpt>
      <trkpt lat="43.72666" lon="6.85539">
        <ele>1108.8</ele>
        <time>2021-05-02T14:15:04Z</time>
      </trkpt>
      <trkpt lat="43.72666" lon="6.85539">
        <ele>1108.8</ele>
        <time>2021-05-02T14:15:10Z</time>
      </trkpt>
      <trkpt lat="43.72666" lon="6.85539">
        <ele>1108.8</ele>
        <time>2021-05-02T14:15:15Z</time>
      </trkpt>
      <trkpt lat="43.72666" lon="6.85539">
        <ele>1108.8</ele>
        <time>2021-05-02T14:15:20Z</time>
      </trkpt>
      <trkpt lat="43.72666" lon="6.85539">
        <ele>1108.8</ele>
        <time>2021-05-02T14:15:25Z</time>
      </trkpt>
      <trkpt lat="43.72666" lon="6.85539">
        <ele>1109</ele>
        <time>2021-05-02T14:15:30Z</time>
      </trkpt>
      <trkpt lat="43.72666" lon="6.85538">
        <ele>1109.1</ele>
        <time>2021-05-02T14:15:36Z</time>
      </trkpt>
      <trkpt lat="43.72666" lon="6.85539">
        <ele>1109.1</ele>
        <time>2021-05-02T14:15:41Z</time>
      </trkpt>
      <trkpt lat="43.72665" lon="6.85538">
        <ele>1108.7</ele>
        <time>2021-05-02T14:15:47Z</time>
      </trkpt>
      <trkpt lat="43.72663" lon="6.85535">
        <ele>1108.8</ele>
        <time>2021-05-02T14:15:52Z</time>
      </trkpt>
      <trkpt lat="43.72662" lon="6.85534">
        <ele>1108.8</ele>
        <time>2021-05-02T14:15:57Z</time>
      </trkpt>
      <trkpt lat="43.72659" lon="6.85534">
        <ele>1107.5</ele>
        <time>2021-05-02T14:16:03Z</time>
      </trkpt>
      <trkpt lat="43.72657" lon="6.85532">
        <ele>1106.9</ele>
        <time>2021-05-02T14:16:08Z</time>
      </trkpt>
      <trkpt lat="43.72655" lon="6.85529">
        <ele>1107.3</ele>
        <time>2021-05-02T14:16:14Z</time>
      </trkpt>
      <trkpt lat="43.72655" lon="6.85529">
        <ele>1107</ele>
        <time>2021-05-02T14:16:19Z</time>
      </trkpt>
      <trkpt lat="43.72657" lon="6.85529">
        <ele>1107.6</ele>
        <time>2021-05-02T14:16:25Z</time>
      </trkpt>
      <trkpt lat="43.72659" lon="6.8553">
        <ele>1108.7</ele>
        <time>2021-05-02T14:16:31Z</time>
      </trkpt>
      <trkpt lat="43.7266" lon="6.85529">
        <ele>1109.5</ele>
        <time>2021-05-02T14:16:37Z</time>
      </trkpt>
      <trkpt lat="43.72661" lon="6.8553">
        <ele>1109.5</ele>
        <time>2021-05-02T14:16:43Z</time>
      </trkpt>
      <trkpt lat="43.72661" lon="6.8553">
        <ele>1109.5</ele>
        <time>2021-05-02T14:16:48Z</time>
      </trkpt>
      <trkpt lat="43.7266" lon="6.8553">
        <ele>1109.2</ele>
        <time>2021-05-02T14:16:53Z</time>
      </trkpt>
      <trkpt lat="43.7266" lon="6.85529">
        <ele>1109.3</ele>
        <time>2021-05-02T14:16:59Z</time>
      </trkpt>
      <trkpt lat="43.7266" lon="6.85529">
        <ele>1109.3</ele>
        <time>2021-05-02T14:17:04Z</time>
      </trkpt>
      <trkpt lat="43.72658" lon="6.8553">
        <ele>1108.4</ele>
        <time>2021-05-02T14:17:10Z</time>
      </trkpt>
      <trkpt lat="43.72656" lon="6.85526">
        <ele>1108.3</ele>
        <time>2021-05-02T14:17:15Z</time>
      </trkpt>
      <trkpt lat="43.72655" lon="6.85526">
        <ele>1108.2</ele>
        <time>2021-05-02T14:17:21Z</time>
      </trkpt>
      <trkpt lat="43.72655" lon="6.85526">
        <ele>1108.2</ele>
        <time>2021-05-02T14:17:26Z</time>
      </trkpt>
      <trkpt lat="43.72655" lon="6.85526">
        <ele>1108.2</ele>
        <time>2021-05-02T14:17:32Z</time>
      </trkpt>
      <trkpt lat="43.72655" lon="6.85526">
        <ele>1108.2</ele>
        <time>2021-05-02T14:17:37Z</time>
      </trkpt>
      <trkpt lat="43.72655" lon="6.85526">
        <ele>1108.2</ele>
        <time>2021-05-02T14:17:43Z</time>
      </trkpt>
      <trkpt lat="43.72653" lon="6.85524">
        <ele>1108.1</ele>
        <time>2021-05-02T14:17:48Z</time>
      </trkpt>
      <trkpt lat="43.7265" lon="6.85522">
        <ele>1107.2</ele>
        <time>2021-05-02T14:17:54Z</time>
      </trkpt>
      <trkpt lat="43.72648" lon="6.85518">
        <ele>1107.4</ele>
        <time>2021-05-02T14:17:59Z</time>
      </trkpt>
      <trkpt lat="43.72646" lon="6.85512">
        <ele>1108.1</ele>
        <time>2021-05-02T14:18:05Z</time>
      </trkpt>
      <trkpt lat="43.72643" lon="6.8551">
        <ele>1107.4</ele>
        <time>2021-05-02T14:18:10Z</time>
      </trkpt>
      <trkpt lat="43.72641" lon="6.85505">
        <ele>1108.1</ele>
        <time>2021-05-02T14:18:16Z</time>
      </trkpt>
      <trkpt lat="43.72638" lon="6.85503">
        <ele>1107.4</ele>
        <time>2021-05-02T14:18:21Z</time>
      </trkpt>
      <trkpt lat="43.72635" lon="6.85501">
        <ele>1106.4</ele>
        <time>2021-05-02T14:18:27Z</time>
      </trkpt>
      <trkpt lat="43.72633" lon="6.85497">
        <ele>1106.1</ele>
        <time>2021-05-02T14:18:32Z</time>
      </trkpt>
      <trkpt lat="43.7263" lon="6.85492">
        <ele>1105.1</ele>
        <time>2021-05-02T14:18:38Z</time>
      </trkpt>
      <trkpt lat="43.72628" lon="6.85487">
        <ele>1104.9</ele>
        <time>2021-05-02T14:18:43Z</time>
      </trkpt>
      <trkpt lat="43.72625" lon="6.85482">
        <ele>1104.4</ele>
        <time>2021-05-02T14:18:49Z</time>
      </trkpt>
      <trkpt lat="43.72623" lon="6.85479">
        <ele>1103.5</ele>
        <time>2021-05-02T14:18:54Z</time>
      </trkpt>
      <trkpt lat="43.72619" lon="6.85475">
        <ele>1102.5</ele>
        <time>2021-05-02T14:19:00Z</time>
      </trkpt>
      <trkpt lat="43.72619" lon="6.8547">
        <ele>1102.9</ele>
        <time>2021-05-02T14:19:05Z</time>
      </trkpt>
      <trkpt lat="43.72618" lon="6.85464">
        <ele>1103.6</ele>
        <time>2021-05-02T14:19:11Z</time>
      </trkpt>
      <trkpt lat="43.72617" lon="6.85464">
        <ele>1102.9</ele>
        <time>2021-05-02T14:19:16Z</time>
      </trkpt>
      <trkpt lat="43.72616" lon="6.85467">
        <ele>1102</ele>
        <time>2021-05-02T14:19:22Z</time>
      </trkpt>
      <trkpt lat="43.72614" lon="6.85465">
        <ele>1101</ele>
        <time>2021-05-02T14:19:27Z</time>
      </trkpt>
      <trkpt lat="43.72611" lon="6.85461">
        <ele>1100.1</ele>
        <time>2021-05-02T14:19:33Z</time>
      </trkpt>
      <trkpt lat="43.7261" lon="6.85456">
        <ele>1100.2</ele>
        <time>2021-05-02T14:19:38Z</time>
      </trkpt>
      <trkpt lat="43.72608" lon="6.8545">
        <ele>1100.2</ele>
        <time>2021-05-02T14:19:44Z</time>
      </trkpt>
      <trkpt lat="43.72606" lon="6.85447">
        <ele>1099.8</ele>
        <time>2021-05-02T14:19:49Z</time>
      </trkpt>
      <trkpt lat="43.72604" lon="6.85442">
        <ele>1099.3</ele>
        <time>2021-05-02T14:19:55Z</time>
      </trkpt>
      <trkpt lat="43.72601" lon="6.8544">
        <ele>1097.6</ele>
        <time>2021-05-02T14:20:00Z</time>
      </trkpt>
      <trkpt lat="43.72599" lon="6.85434">
        <ele>1097.7</ele>
        <time>2021-05-02T14:20:06Z</time>
      </trkpt>
      <trkpt lat="43.72598" lon="6.85431">
        <ele>1097.4</ele>
        <time>2021-05-02T14:20:11Z</time>
      </trkpt>
      <trkpt lat="43.72595" lon="6.85426">
        <ele>1096.7</ele>
        <time>2021-05-02T14:20:17Z</time>
      </trkpt>
      <trkpt lat="43.72594" lon="6.85421">
        <ele>1096.8</ele>
        <time>2021-05-02T14:20:22Z</time>
      </trkpt>
      <trkpt lat="43.72592" lon="6.85416">
        <ele>1096.4</ele>
        <time>2021-05-02T14:20:28Z</time>
      </trkpt>
      <trkpt lat="43.72589" lon="6.85413">
        <ele>1094.8</ele>
        <time>2021-05-02T14:20:33Z</time>
      </trkpt>
      <trkpt lat="43.72589" lon="6.85405">
        <ele>1095.2</ele>
        <time>2021-05-02T14:20:39Z</time>
      </trkpt>
      <trkpt lat="43.7259" lon="6.854">
        <ele>1096.1</ele>
        <time>2021-05-02T14:20:44Z</time>
      </trkpt>
      <trkpt lat="43.72589" lon="6.85396">
        <ele>1095.4</ele>
        <time>2021-05-02T14:20:50Z</time>
      </trkpt>
      <trkpt lat="43.72591" lon="6.85399">
        <ele>1096.6</ele>
        <time>2021-05-02T14:20:55Z</time>
      </trkpt>
      <trkpt lat="43.72591" lon="6.85408">
        <ele>1095.9</ele>
        <time>2021-05-02T14:21:01Z</time>
      </trkpt>
      <trkpt lat="43.72588" lon="6.85413">
        <ele>1094.2</ele>
        <time>2021-05-02T14:21:06Z</time>
      </trkpt>
      <trkpt lat="43.72587" lon="6.85418">
        <ele>1093.2</ele>
        <time>2021-05-02T14:21:12Z</time>
      </trkpt>
      <trkpt lat="43.72586" lon="6.8542">
        <ele>1092.3</ele>
        <time>2021-05-02T14:21:17Z</time>
      </trkpt>
      <trkpt lat="43.72582" lon="6.85418">
        <ele>1089.8</ele>
        <time>2021-05-02T14:21:23Z</time>
      </trkpt>
      <trkpt lat="43.72579" lon="6.85415">
        <ele>1088.3</ele>
        <time>2021-05-02T14:21:28Z</time>
      </trkpt>
      <trkpt lat="43.72578" lon="6.8541">
        <ele>1088.1</ele>
        <time>2021-05-02T14:21:34Z</time>
      </trkpt>
      <trkpt lat="43.72577" lon="6.85406">
        <ele>1087.7</ele>
        <time>2021-05-02T14:21:40Z</time>
      </trkpt>
      <trkpt lat="43.72576" lon="6.85399">
        <ele>1087.6</ele>
        <time>2021-05-02T14:21:45Z</time>
      </trkpt>
      <trkpt lat="43.72575" lon="6.85391">
        <ele>1087</ele>
        <time>2021-05-02T14:21:51Z</time>
      </trkpt>
      <trkpt lat="43.72572" lon="6.85388">
        <ele>1085.5</ele>
        <time>2021-05-02T14:21:57Z</time>
      </trkpt>
      <trkpt lat="43.7257" lon="6.85383">
        <ele>1084.6</ele>
        <time>2021-05-02T14:22:02Z</time>
      </trkpt>
      <trkpt lat="43.72571" lon="6.85375">
        <ele>1085.1</ele>
        <time>2021-05-02T14:22:08Z</time>
      </trkpt>
      <trkpt lat="43.72569" lon="6.85369">
        <ele>1084.6</ele>
        <time>2021-05-02T14:22:14Z</time>
      </trkpt>
      <trkpt lat="43.72567" lon="6.85367">
        <ele>1083.1</ele>
        <time>2021-05-02T14:22:20Z</time>
      </trkpt>
      <trkpt lat="43.72568" lon="6.85372">
        <ele>1083.9</ele>
        <time>2021-05-02T14:22:26Z</time>
      </trkpt>
      <trkpt lat="43.7257" lon="6.85377">
        <ele>1084.7</ele>
        <time>2021-05-02T14:22:31Z</time>
      </trkpt>
      <trkpt lat="43.7257" lon="6.85381">
        <ele>1084.3</ele>
        <time>2021-05-02T14:22:37Z</time>
      </trkpt>
      <trkpt lat="43.72567" lon="6.8538">
        <ele>1082.8</ele>
        <time>2021-05-02T14:22:43Z</time>
      </trkpt>
      <trkpt lat="43.72566" lon="6.85378">
        <ele>1082.1</ele>
        <time>2021-05-02T14:22:48Z</time>
      </trkpt>
      <trkpt lat="43.72566" lon="6.85378">
        <ele>1082.1</ele>
        <time>2021-05-02T14:22:54Z</time>
      </trkpt>
      <trkpt lat="43.72566" lon="6.85378">
        <ele>1082.1</ele>
        <time>2021-05-02T14:23:00Z</time>
      </trkpt>
      <trkpt lat="43.72566" lon="6.85378">
        <ele>1082.1</ele>
        <time>2021-05-02T14:23:05Z</time>
      </trkpt>
      <trkpt lat="43.72566" lon="6.85378">
        <ele>1082</ele>
        <time>2021-05-02T14:23:10Z</time>
      </trkpt>
      <trkpt lat="43.72564" lon="6.85375">
        <ele>1081.2</ele>
        <time>2021-05-02T14:23:15Z</time>
      </trkpt>
      <trkpt lat="43.72562" lon="6.8537">
        <ele>1080.3</ele>
        <time>2021-05-02T14:23:21Z</time>
      </trkpt>
      <trkpt lat="43.72561" lon="6.85366">
        <ele>1079.4</ele>
        <time>2021-05-02T14:23:26Z</time>
      </trkpt>
      <trkpt lat="43.72558" lon="6.85363">
        <ele>1077.9</ele>
        <time>2021-05-02T14:23:32Z</time>
      </trkpt>
      <trkpt lat="43.72558" lon="6.85368">
        <ele>1077.9</ele>
        <time>2021-05-02T14:23:37Z</time>
      </trkpt>
      <trkpt lat="43.72559" lon="6.85372">
        <ele>1078.3</ele>
        <time>2021-05-02T14:23:43Z</time>
      </trkpt>
      <trkpt lat="43.72559" lon="6.85376">
        <ele>1078.1</ele>
        <time>2021-05-02T14:23:49Z</time>
      </trkpt>
      <trkpt lat="43.72559" lon="6.85376">
        <ele>1078</ele>
        <time>2021-05-02T14:23:55Z</time>
      </trkpt>
      <trkpt lat="43.72559" lon="6.85378">
        <ele>1077.9</ele>
        <time>2021-05-02T14:24:00Z</time>
      </trkpt>
      <trkpt lat="43.7256" lon="6.85385">
        <ele>1078.2</ele>
        <time>2021-05-02T14:24:06Z</time>
      </trkpt>
      <trkpt lat="43.72562" lon="6.8539">
        <ele>1079.3</ele>
        <time>2021-05-02T14:24:12Z</time>
      </trkpt>
      <trkpt lat="43.72562" lon="6.85396">
        <ele>1079</ele>
        <time>2021-05-02T14:24:17Z</time>
      </trkpt>
      <trkpt lat="43.72563" lon="6.854">
        <ele>1079.4</ele>
        <time>2021-05-02T14:24:22Z</time>
      </trkpt>
      <trkpt lat="43.72564" lon="6.85405">
        <ele>1079.5</ele>
        <time>2021-05-02T14:24:28Z</time>
      </trkpt>
      <trkpt lat="43.72564" lon="6.85409">
        <ele>1079.5</ele>
        <time>2021-05-02T14:24:34Z</time>
      </trkpt>
      <trkpt lat="43.72564" lon="6.8541">
        <ele>1079.1</ele>
        <time>2021-05-02T14:24:40Z</time>
      </trkpt>
      <trkpt lat="43.72563" lon="6.85411">
        <ele>1078.8</ele>
        <time>2021-05-02T14:24:46Z</time>
      </trkpt>
      <trkpt lat="43.72565" lon="6.85417">
        <ele>1079.7</ele>
        <time>2021-05-02T14:24:51Z</time>
      </trkpt>
      <trkpt lat="43.72565" lon="6.85422">
        <ele>1078.5</ele>
        <time>2021-05-02T14:24:57Z</time>
      </trkpt>
      <trkpt lat="43.72564" lon="6.85428">
        <ele>1077.6</ele>
        <time>2021-05-02T14:25:03Z</time>
      </trkpt>
      <trkpt lat="43.72563" lon="6.85433">
        <ele>1076.1</ele>
        <time>2021-05-02T14:25:09Z</time>
      </trkpt>
      <trkpt lat="43.72564" lon="6.85439">
        <ele>1075.5</ele>
        <time>2021-05-02T14:25:15Z</time>
      </trkpt>
      <trkpt lat="43.72565" lon="6.85442">
        <ele>1075.6</ele>
        <time>2021-05-02T14:25:21Z</time>
      </trkpt>
      <trkpt lat="43.72564" lon="6.85443">
        <ele>1075.4</ele>
        <time>2021-05-02T14:25:27Z</time>
      </trkpt>
      <trkpt lat="43.72564" lon="6.85443">
        <ele>1075.4</ele>
        <time>2021-05-02T14:25:32Z</time>
      </trkpt>
      <trkpt lat="43.72565" lon="6.85446">
        <ele>1075.2</ele>
        <time>2021-05-02T14:25:37Z</time>
      </trkpt>
      <trkpt lat="43.72564" lon="6.85451">
        <ele>1073.9</ele>
        <time>2021-05-02T14:25:43Z</time>
      </trkpt>
      <trkpt lat="43.72565" lon="6.85456">
        <ele>1073.9</ele>
        <time>2021-05-02T14:25:49Z</time>
      </trkpt>
      <trkpt lat="43.72564" lon="6.85456">
        <ele>1073.2</ele>
        <time>2021-05-02T14:25:55Z</time>
      </trkpt>
      <trkpt lat="43.72564" lon="6.85456">
        <ele>1073.1</ele>
        <time>2021-05-02T14:26:00Z</time>
      </trkpt>
      <trkpt lat="43.72564" lon="6.85457">
        <ele>1073.2</ele>
        <time>2021-05-02T14:26:05Z</time>
      </trkpt>
      <trkpt lat="43.72564" lon="6.85457">
        <ele>1073.3</ele>
        <time>2021-05-02T14:26:10Z</time>
      </trkpt>
      <trkpt lat="43.72564" lon="6.85457">
        <ele>1073.3</ele>
        <time>2021-05-02T14:26:16Z</time>
      </trkpt>
      <trkpt lat="43.72564" lon="6.85457">
        <ele>1073.3</ele>
        <time>2021-05-02T14:26:21Z</time>
      </trkpt>
      <trkpt lat="43.72564" lon="6.85457">
        <ele>1073.3</ele>
        <time>2021-05-02T14:26:26Z</time>
      </trkpt>
      <trkpt lat="43.72564" lon="6.85457">
        <ele>1073.3</ele>
        <time>2021-05-02T14:26:32Z</time>
      </trkpt>
      <trkpt lat="43.72564" lon="6.85457">
        <ele>1073.2</ele>
        <time>2021-05-02T14:26:38Z</time>
      </trkpt>
      <trkpt lat="43.72564" lon="6.85457">
        <ele>1073.2</ele>
        <time>2021-05-02T14:26:43Z</time>
      </trkpt>
      <trkpt lat="43.72564" lon="6.85457">
        <ele>1073.2</ele>
        <time>2021-05-02T14:26:49Z</time>
      </trkpt>
      <trkpt lat="43.72564" lon="6.85457">
        <ele>1073.2</ele>
        <time>2021-05-02T14:26:55Z</time>
      </trkpt>
      <trkpt lat="43.72564" lon="6.85457">
        <ele>1073.2</ele>
        <time>2021-05-02T14:27:01Z</time>
      </trkpt>
      <trkpt lat="43.72564" lon="6.85457">
        <ele>1073.2</ele>
        <time>2021-05-02T14:27:07Z</time>
      </trkpt>
      <trkpt lat="43.72564" lon="6.85457">
        <ele>1073.2</ele>
        <time>2021-05-02T14:27:13Z</time>
      </trkpt>
      <trkpt lat="43.72564" lon="6.85457">
        <ele>1073.2</ele>
        <time>2021-05-02T14:27:19Z</time>
      </trkpt>
      <trkpt lat="43.72564" lon="6.85457">
        <ele>1073.2</ele>
        <time>2021-05-02T14:27:25Z</time>
      </trkpt>
      <trkpt lat="43.72564" lon="6.85457">
        <ele>1073.2</ele>
        <time>2021-05-02T14:27:31Z</time>
      </trkpt>
      <trkpt lat="43.72564" lon="6.85457">
        <ele>1073.2</ele>
        <time>2021-05-02T14:27:37Z</time>
      </trkpt>
      <trkpt lat="43.72564" lon="6.85461">
        <ele>1072.5</ele>
        <time>2021-05-02T14:27:42Z</time>
      </trkpt>
      <trkpt lat="43.72563" lon="6.85462">
        <ele>1072</ele>
        <time>2021-05-02T14:27:47Z</time>
      </trkpt>
      <trkpt lat="43.72563" lon="6.85462">
        <ele>1072</ele>
        <time>2021-05-02T14:27:53Z</time>
      </trkpt>
      <trkpt lat="43.72563" lon="6.85462">
        <ele>1072</ele>
        <time>2021-05-02T14:27:59Z</time>
      </trkpt>
      <trkpt lat="43.72563" lon="6.85463">
        <ele>1071.5</ele>
        <time>2021-05-02T14:28:04Z</time>
      </trkpt>
      <trkpt lat="43.72564" lon="6.85466">
        <ele>1071.7</ele>
        <time>2021-05-02T14:28:10Z</time>
      </trkpt>
      <trkpt lat="43.72564" lon="6.85471">
        <ele>1071.4</ele>
        <time>2021-05-02T14:28:16Z</time>
      </trkpt>
      <trkpt lat="43.72562" lon="6.85472">
        <ele>1069.7</ele>
        <time>2021-05-02T14:28:21Z</time>
      </trkpt>
      <trkpt lat="43.72562" lon="6.85472">
        <ele>1069.7</ele>
        <time>2021-05-02T14:28:26Z</time>
      </trkpt>
      <trkpt lat="43.72562" lon="6.85472">
        <ele>1069.7</ele>
        <time>2021-05-02T14:28:32Z</time>
      </trkpt>
      <trkpt lat="43.72562" lon="6.85472">
        <ele>1069.7</ele>
        <time>2021-05-02T14:28:38Z</time>
      </trkpt>
      <trkpt lat="43.72562" lon="6.85472">
        <ele>1069.7</ele>
        <time>2021-05-02T14:28:43Z</time>
      </trkpt>
      <trkpt lat="43.72562" lon="6.85472">
        <ele>1069.7</ele>
        <time>2021-05-02T14:28:49Z</time>
      </trkpt>
      <trkpt lat="43.72562" lon="6.85472">
        <ele>1069.7</ele>
        <time>2021-05-02T14:28:55Z</time>
      </trkpt>
      <trkpt lat="43.72562" lon="6.85472">
        <ele>1069.7</ele>
        <time>2021-05-02T14:29:00Z</time>
      </trkpt>
      <trkpt lat="43.72561" lon="6.85471">
        <ele>1069.6</ele>
        <time>2021-05-02T14:29:06Z</time>
      </trkpt>
      <trkpt lat="43.72561" lon="6.85471">
        <ele>1069.6</ele>
        <time>2021-05-02T14:29:12Z</time>
      </trkpt>
      <trkpt lat="43.72561" lon="6.85471">
        <ele>1069.6</ele>
        <time>2021-05-02T14:29:18Z</time>
      </trkpt>
      <trkpt lat="43.72562" lon="6.85472">
        <ele>1069.7</ele>
        <time>2021-05-02T14:29:24Z</time>
      </trkpt>
      <trkpt lat="43.72562" lon="6.85472">
        <ele>1069.8</ele>
        <time>2021-05-02T14:29:29Z</time>
      </trkpt>
      <trkpt lat="43.72562" lon="6.85472">
        <ele>1069.8</ele>
        <time>2021-05-02T14:29:35Z</time>
      </trkpt>
      <trkpt lat="43.72562" lon="6.85472">
        <ele>1069.8</ele>
        <time>2021-05-02T14:29:41Z</time>
      </trkpt>
      <trkpt lat="43.72562" lon="6.85472">
        <ele>1069.8</ele>
        <time>2021-05-02T14:29:46Z</time>
      </trkpt>
      <trkpt lat="43.72561" lon="6.85474">
        <ele>1069.2</ele>
        <time>2021-05-02T14:29:52Z</time>
      </trkpt>
      <trkpt lat="43.7256" lon="6.85473">
        <ele>1068.7</ele>
        <time>2021-05-02T14:29:57Z</time>
      </trkpt>
      <trkpt lat="43.72562" lon="6.85479">
        <ele>1069</ele>
        <time>2021-05-02T14:30:03Z</time>
      </trkpt>
      <trkpt lat="43.72564" lon="6.85485">
        <ele>1068.9</ele>
        <time>2021-05-02T14:30:08Z</time>
      </trkpt>
      <trkpt lat="43.72565" lon="6.85491">
        <ele>1069</ele>
        <time>2021-05-02T14:30:14Z</time>
      </trkpt>
      <trkpt lat="43.72567" lon="6.85499">
        <ele>1068.9</ele>
        <time>2021-05-02T14:30:20Z</time>
      </trkpt>
      <trkpt lat="43.72569" lon="6.85505">
        <ele>1068.7</ele>
        <time>2021-05-02T14:30:25Z</time>
      </trkpt>
      <trkpt lat="43.7257" lon="6.8551">
        <ele>1068.3</ele>
        <time>2021-05-02T14:30:30Z</time>
      </trkpt>
      <trkpt lat="43.72573" lon="6.85516">
        <ele>1068.6</ele>
        <time>2021-05-02T14:30:36Z</time>
      </trkpt>
      <trkpt lat="43.72574" lon="6.85521">
        <ele>1067.9</ele>
        <time>2021-05-02T14:30:41Z</time>
      </trkpt>
      <trkpt lat="43.72575" lon="6.85526">
        <ele>1067.4</ele>
        <time>2021-05-02T14:30:46Z</time>
      </trkpt>
      <trkpt lat="43.72576" lon="6.85534">
        <ele>1065.9</ele>
        <time>2021-05-02T14:30:52Z</time>
      </trkpt>
      <trkpt lat="43.72577" lon="6.85541">
        <ele>1064.8</ele>
        <time>2021-05-02T14:30:58Z</time>
      </trkpt>
      <trkpt lat="43.72578" lon="6.8554">
        <ele>1065.5</ele>
        <time>2021-05-02T14:31:03Z</time>
      </trkpt>
      <trkpt lat="43.72581" lon="6.85546">
        <ele>1065.9</ele>
        <time>2021-05-02T14:31:09Z</time>
      </trkpt>
      <trkpt lat="43.72582" lon="6.85549">
        <ele>1065.5</ele>
        <time>2021-05-02T14:31:15Z</time>
      </trkpt>
      <trkpt lat="43.72582" lon="6.85549">
        <ele>1065.4</ele>
        <time>2021-05-02T14:31:20Z</time>
      </trkpt>
      <trkpt lat="43.72584" lon="6.85552">
        <ele>1065.9</ele>
        <time>2021-05-02T14:31:26Z</time>
      </trkpt>
      <trkpt lat="43.72586" lon="6.85556">
        <ele>1065.9</ele>
        <time>2021-05-02T14:31:32Z</time>
      </trkpt>
      <trkpt lat="43.72588" lon="6.85561">
        <ele>1065.3</ele>
        <time>2021-05-02T14:31:37Z</time>
      </trkpt>
      <trkpt lat="43.72589" lon="6.85565">
        <ele>1065</ele>
        <time>2021-05-02T14:31:42Z</time>
      </trkpt>
      <trkpt lat="43.7259" lon="6.85566">
        <ele>1065.1</ele>
        <time>2021-05-02T14:31:48Z</time>
      </trkpt>
      <trkpt lat="43.7259" lon="6.85566">
        <ele>1065</ele>
        <time>2021-05-02T14:31:54Z</time>
      </trkpt>
      <trkpt lat="43.7259" lon="6.85566">
        <ele>1065</ele>
        <time>2021-05-02T14:32:00Z</time>
      </trkpt>
      <trkpt lat="43.7259" lon="6.85566">
        <ele>1065</ele>
        <time>2021-05-02T14:32:06Z</time>
      </trkpt>
      <trkpt lat="43.7259" lon="6.85568">
        <ele>1064.8</ele>
        <time>2021-05-02T14:32:12Z</time>
      </trkpt>
      <trkpt lat="43.7259" lon="6.85568">
        <ele>1064.7</ele>
        <time>2021-05-02T14:32:18Z</time>
      </trkpt>
      <trkpt lat="43.7259" lon="6.85568">
        <ele>1064.7</ele>
        <time>2021-05-02T14:32:24Z</time>
      </trkpt>
      <trkpt lat="43.7259" lon="6.85568">
        <ele>1064.6</ele>
        <time>2021-05-02T14:32:30Z</time>
      </trkpt>
      <trkpt lat="43.7259" lon="6.85568">
        <ele>1064.6</ele>
        <time>2021-05-02T14:32:36Z</time>
      </trkpt>
      <trkpt lat="43.7259" lon="6.85568">
        <ele>1064.6</ele>
        <time>2021-05-02T14:32:42Z</time>
      </trkpt>
      <trkpt lat="43.7259" lon="6.85568">
        <ele>1064.6</ele>
        <time>2021-05-02T14:32:48Z</time>
      </trkpt>
      <trkpt lat="43.7259" lon="6.85568">
        <ele>1064.6</ele>
        <time>2021-05-02T14:32:53Z</time>
      </trkpt>
      <trkpt lat="43.72591" lon="6.8557">
        <ele>1064.5</ele>
        <time>2021-05-02T14:32:58Z</time>
      </trkpt>
      <trkpt lat="43.72592" lon="6.85574">
        <ele>1063.7</ele>
        <time>2021-05-02T14:33:03Z</time>
      </trkpt>
      <trkpt lat="43.72592" lon="6.85574">
        <ele>1063.7</ele>
        <time>2021-05-02T14:33:09Z</time>
      </trkpt>
      <trkpt lat="43.72592" lon="6.85574">
        <ele>1063.7</ele>
        <time>2021-05-02T14:33:15Z</time>
      </trkpt>
      <trkpt lat="43.72592" lon="6.85574">
        <ele>1063.7</ele>
        <time>2021-05-02T14:33:21Z</time>
      </trkpt>
      <trkpt lat="43.72592" lon="6.85574">
        <ele>1063.7</ele>
        <time>2021-05-02T14:33:27Z</time>
      </trkpt>
      <trkpt lat="43.72592" lon="6.85578">
        <ele>1062.9</ele>
        <time>2021-05-02T14:33:33Z</time>
      </trkpt>
      <trkpt lat="43.72593" lon="6.85583">
        <ele>1062.1</ele>
        <time>2021-05-02T14:33:38Z</time>
      </trkpt>
      <trkpt lat="43.72595" lon="6.85588">
        <ele>1061.6</ele>
        <time>2021-05-02T14:33:44Z</time>
      </trkpt>
      <trkpt lat="43.72598" lon="6.85593">
        <ele>1061.1</ele>
        <time>2021-05-02T14:33:50Z</time>
      </trkpt>
      <trkpt lat="43.726" lon="6.85598">
        <ele>1060.3</ele>
        <time>2021-05-02T14:33:56Z</time>
      </trkpt>
      <trkpt lat="43.72603" lon="6.85603">
        <ele>1059.8</ele>
        <time>2021-05-02T14:34:02Z</time>
      </trkpt>
      <trkpt lat="43.72605" lon="6.85607">
        <ele>1059.4</ele>
        <time>2021-05-02T14:34:08Z</time>
      </trkpt>
      <trkpt lat="43.72607" lon="6.8561">
        <ele>1059.2</ele>
        <time>2021-05-02T14:34:13Z</time>
      </trkpt>
      <trkpt lat="43.72609" lon="6.85612">
        <ele>1059.1</ele>
        <time>2021-05-02T14:34:19Z</time>
      </trkpt>
      <trkpt lat="43.72609" lon="6.85615">
        <ele>1058.1</ele>
        <time>2021-05-02T14:34:25Z</time>
      </trkpt>
      <trkpt lat="43.72611" lon="6.85618">
        <ele>1057.8</ele>
        <time>2021-05-02T14:34:30Z</time>
      </trkpt>
      <trkpt lat="43.72613" lon="6.85621">
        <ele>1057.6</ele>
        <time>2021-05-02T14:34:35Z</time>
      </trkpt>
      <trkpt lat="43.72616" lon="6.85626">
        <ele>1057.1</ele>
        <time>2021-05-02T14:34:41Z</time>
      </trkpt>
      <trkpt lat="43.72617" lon="6.85629">
        <ele>1056.5</ele>
        <time>2021-05-02T14:34:46Z</time>
      </trkpt>
      <trkpt lat="43.72618" lon="6.85633">
        <ele>1055.5</ele>
        <time>2021-05-02T14:34:52Z</time>
      </trkpt>
      <trkpt lat="43.7262" lon="6.85637">
        <ele>1055</ele>
        <time>2021-05-02T14:34:57Z</time>
      </trkpt>
      <trkpt lat="43.72624" lon="6.8564">
        <ele>1055.1</ele>
        <time>2021-05-02T14:35:02Z</time>
      </trkpt>
      <trkpt lat="43.72629" lon="6.85644">
        <ele>1055.2</ele>
        <time>2021-05-02T14:35:08Z</time>
      </trkpt>
      <trkpt lat="43.7263" lon="6.85645">
        <ele>1055.3</ele>
        <time>2021-05-02T14:35:13Z</time>
      </trkpt>
      <trkpt lat="43.7263" lon="6.85646">
        <ele>1054.6</ele>
        <time>2021-05-02T14:35:19Z</time>
      </trkpt>
      <trkpt lat="43.72632" lon="6.85649">
        <ele>1054</ele>
        <time>2021-05-02T14:35:24Z</time>
      </trkpt>
      <trkpt lat="43.72635" lon="6.85655">
        <ele>1053</ele>
        <time>2021-05-02T14:35:30Z</time>
      </trkpt>
      <trkpt lat="43.72639" lon="6.85657">
        <ele>1053.1</ele>
        <time>2021-05-02T14:35:35Z</time>
      </trkpt>
      <trkpt lat="43.72642" lon="6.8566">
        <ele>1052.9</ele>
        <time>2021-05-02T14:35:40Z</time>
      </trkpt>
      <trkpt lat="43.72646" lon="6.85662">
        <ele>1053.3</ele>
        <time>2021-05-02T14:35:46Z</time>
      </trkpt>
      <trkpt lat="43.72649" lon="6.85665">
        <ele>1053</ele>
        <time>2021-05-02T14:35:51Z</time>
      </trkpt>
      <trkpt lat="43.72651" lon="6.85666">
        <ele>1053.3</ele>
        <time>2021-05-02T14:35:57Z</time>
      </trkpt>
      <trkpt lat="43.72655" lon="6.85668">
        <ele>1053.6</ele>
        <time>2021-05-02T14:36:03Z</time>
      </trkpt>
      <trkpt lat="43.72659" lon="6.8567">
        <ele>1053.2</ele>
        <time>2021-05-02T14:36:09Z</time>
      </trkpt>
      <trkpt lat="43.72661" lon="6.85672">
        <ele>1053.1</ele>
        <time>2021-05-02T14:36:14Z</time>
      </trkpt>
      <trkpt lat="43.72664" lon="6.85674">
        <ele>1052.8</ele>
        <time>2021-05-02T14:36:19Z</time>
      </trkpt>
      <trkpt lat="43.72666" lon="6.85675">
        <ele>1052.9</ele>
        <time>2021-05-02T14:36:24Z</time>
      </trkpt>
      <trkpt lat="43.72669" lon="6.85676">
        <ele>1052.7</ele>
        <time>2021-05-02T14:36:30Z</time>
      </trkpt>
      <trkpt lat="43.72671" lon="6.85681">
        <ele>1050.3</ele>
        <time>2021-05-02T14:36:36Z</time>
      </trkpt>
      <trkpt lat="43.72667" lon="6.85688">
        <ele>1047.2</ele>
        <time>2021-05-02T14:36:42Z</time>
      </trkpt>
      <trkpt lat="43.72668" lon="6.85688">
        <ele>1047.4</ele>
        <time>2021-05-02T14:36:48Z</time>
      </trkpt>
      <trkpt lat="43.72668" lon="6.85688">
        <ele>1047.4</ele>
        <time>2021-05-02T14:36:53Z</time>
      </trkpt>
      <trkpt lat="43.72666" lon="6.8569">
        <ele>1046</ele>
        <time>2021-05-02T14:36:59Z</time>
      </trkpt>
      <trkpt lat="43.72662" lon="6.8569">
        <ele>1045.4</ele>
        <time>2021-05-02T14:37:04Z</time>
      </trkpt>
      <trkpt lat="43.72659" lon="6.8569">
        <ele>1044.4</ele>
        <time>2021-05-02T14:37:10Z</time>
      </trkpt>
      <trkpt lat="43.72655" lon="6.85689">
        <ele>1044.3</ele>
        <time>2021-05-02T14:37:15Z</time>
      </trkpt>
      <trkpt lat="43.72651" lon="6.85688">
        <ele>1043.8</ele>
        <time>2021-05-02T14:37:21Z</time>
      </trkpt>
      <trkpt lat="43.72647" lon="6.85687">
        <ele>1043.2</ele>
        <time>2021-05-02T14:37:26Z</time>
      </trkpt>
      <trkpt lat="43.72643" lon="6.85686">
        <ele>1042.9</ele>
        <time>2021-05-02T14:37:32Z</time>
      </trkpt>
      <trkpt lat="43.72641" lon="6.85684">
        <ele>1043</ele>
        <time>2021-05-02T14:37:37Z</time>
      </trkpt>
      <trkpt lat="43.72637" lon="6.85681">
        <ele>1043.1</ele>
        <time>2021-05-02T14:37:43Z</time>
      </trkpt>
      <trkpt lat="43.72633" lon="6.8568">
        <ele>1042.6</ele>
        <time>2021-05-02T14:37:49Z</time>
      </trkpt>
      <trkpt lat="43.72629" lon="6.85679">
        <ele>1042.1</ele>
        <time>2021-05-02T14:37:55Z</time>
      </trkpt>
      <trkpt lat="43.72624" lon="6.85677">
        <ele>1041.7</ele>
        <time>2021-05-02T14:38:01Z</time>
      </trkpt>
      <trkpt lat="43.72621" lon="6.85675">
        <ele>1041.7</ele>
        <time>2021-05-02T14:38:07Z</time>
      </trkpt>
      <trkpt lat="43.72617" lon="6.85673">
        <ele>1041.4</ele>
        <time>2021-05-02T14:38:13Z</time>
      </trkpt>
      <trkpt lat="43.72613" lon="6.8567">
        <ele>1041.3</ele>
        <time>2021-05-02T14:38:18Z</time>
      </trkpt>
      <trkpt lat="43.72609" lon="6.85668">
        <ele>1041.1</ele>
        <time>2021-05-02T14:38:23Z</time>
      </trkpt>
      <trkpt lat="43.72605" lon="6.85665">
        <ele>1041</ele>
        <time>2021-05-02T14:38:29Z</time>
      </trkpt>
      <trkpt lat="43.72601" lon="6.85663">
        <ele>1040.9</ele>
        <time>2021-05-02T14:38:34Z</time>
      </trkpt>
      <trkpt lat="43.72598" lon="6.85661">
        <ele>1040.6</ele>
        <time>2021-05-02T14:38:40Z</time>
      </trkpt>
      <trkpt lat="43.72594" lon="6.85659">
        <ele>1040.3</ele>
        <time>2021-05-02T14:38:45Z</time>
      </trkpt>
      <trkpt lat="43.72591" lon="6.85656">
        <ele>1040.1</ele>
        <time>2021-05-02T14:38:51Z</time>
      </trkpt>
      <trkpt lat="43.72587" lon="6.85653">
        <ele>1039.9</ele>
        <time>2021-05-02T14:38:56Z</time>
      </trkpt>
      <trkpt lat="43.72583" lon="6.85649">
        <ele>1039.8</ele>
        <time>2021-05-02T14:39:02Z</time>
      </trkpt>
      <trkpt lat="43.72579" lon="6.85646">
        <ele>1038.9</ele>
        <time>2021-05-02T14:39:08Z</time>
      </trkpt>
      <trkpt lat="43.72576" lon="6.85643">
        <ele>1038.6</ele>
        <time>2021-05-02T14:39:13Z</time>
      </trkpt>
      <trkpt lat="43.72573" lon="6.85641">
        <ele>1038.1</ele>
        <time>2021-05-02T14:39:18Z</time>
      </trkpt>
      <trkpt lat="43.72569" lon="6.85637">
        <ele>1037.8</ele>
        <time>2021-05-02T14:39:24Z</time>
      </trkpt>
      <trkpt lat="43.72566" lon="6.85633">
        <ele>1037.6</ele>
        <time>2021-05-02T14:39:29Z</time>
      </trkpt>
      <trkpt lat="43.72563" lon="6.85629">
        <ele>1037.4</ele>
        <time>2021-05-02T14:39:35Z</time>
      </trkpt>
      <trkpt lat="43.7256" lon="6.85625">
        <ele>1037.3</ele>
        <time>2021-05-02T14:39:40Z</time>
      </trkpt>
      <trkpt lat="43.72555" lon="6.8562">
        <ele>1036.8</ele>
        <time>2021-05-02T14:39:46Z</time>
      </trkpt>
      <trkpt lat="43.72553" lon="6.85617">
        <ele>1036.6</ele>
        <time>2021-05-02T14:39:51Z</time>
      </trkpt>
      <trkpt lat="43.72549" lon="6.85612">
        <ele>1036</ele>
        <time>2021-05-02T14:39:57Z</time>
      </trkpt>
      <trkpt lat="43.72545" lon="6.85609">
        <ele>1035.2</ele>
        <time>2021-05-02T14:40:02Z</time>
      </trkpt>
      <trkpt lat="43.72542" lon="6.85605">
        <ele>1035</ele>
        <time>2021-05-02T14:40:07Z</time>
      </trkpt>
      <trkpt lat="43.72538" lon="6.85601">
        <ele>1034.5</ele>
        <time>2021-05-02T14:40:12Z</time>
      </trkpt>
      <trkpt lat="43.72535" lon="6.85598">
        <ele>1034.2</ele>
        <time>2021-05-02T14:40:17Z</time>
      </trkpt>
      <trkpt lat="43.72532" lon="6.85592">
        <ele>1034.4</ele>
        <time>2021-05-02T14:40:23Z</time>
      </trkpt>
      <trkpt lat="43.72529" lon="6.85587">
        <ele>1034.4</ele>
        <time>2021-05-02T14:40:28Z</time>
      </trkpt>
      <trkpt lat="43.72527" lon="6.85582">
        <ele>1034.4</ele>
        <time>2021-05-02T14:40:34Z</time>
      </trkpt>
      <trkpt lat="43.72525" lon="6.85578">
        <ele>1034.1</ele>
        <time>2021-05-02T14:40:39Z</time>
      </trkpt>
      <trkpt lat="43.72522" lon="6.85572">
        <ele>1033.8</ele>
        <time>2021-05-02T14:40:45Z</time>
      </trkpt>
      <trkpt lat="43.72521" lon="6.85568">
        <ele>1033.8</ele>
        <time>2021-05-02T14:40:50Z</time>
      </trkpt>
      <trkpt lat="43.7252" lon="6.85563">
        <ele>1034.1</ele>
        <time>2021-05-02T14:40:55Z</time>
      </trkpt>
      <trkpt lat="43.7252" lon="6.85563">
        <ele>1034.1</ele>
        <time>2021-05-02T14:41:01Z</time>
      </trkpt>
      <trkpt lat="43.7252" lon="6.85563">
        <ele>1034.1</ele>
        <time>2021-05-02T14:41:07Z</time>
      </trkpt>
      <trkpt lat="43.7252" lon="6.85563">
        <ele>1034.1</ele>
        <time>2021-05-02T14:41:13Z</time>
      </trkpt>
      <trkpt lat="43.7252" lon="6.85563">
        <ele>1034.1</ele>
        <time>2021-05-02T14:41:18Z</time>
      </trkpt>
      <trkpt lat="43.7252" lon="6.85563">
        <ele>1034.1</ele>
        <time>2021-05-02T14:41:23Z</time>
      </trkpt>
      <trkpt lat="43.7252" lon="6.85563">
        <ele>1034.1</ele>
        <time>2021-05-02T14:41:28Z</time>
      </trkpt>
      <trkpt lat="43.7252" lon="6.85563">
        <ele>1033.9</ele>
        <time>2021-05-02T14:41:34Z</time>
      </trkpt>
      <trkpt lat="43.72519" lon="6.85562">
        <ele>1033.7</ele>
        <time>2021-05-02T14:41:40Z</time>
      </trkpt>
      <trkpt lat="43.72518" lon="6.85557">
        <ele>1034</ele>
        <time>2021-05-02T14:41:46Z</time>
      </trkpt>
      <trkpt lat="43.72518" lon="6.85559">
        <ele>1033.7</ele>
        <time>2021-05-02T14:41:52Z</time>
      </trkpt>
      <trkpt lat="43.72519" lon="6.85563">
        <ele>1033.6</ele>
        <time>2021-05-02T14:41:58Z</time>
      </trkpt>
      <trkpt lat="43.72521" lon="6.85566">
        <ele>1034</ele>
        <time>2021-05-02T14:42:04Z</time>
      </trkpt>
      <trkpt lat="43.72522" lon="6.85568">
        <ele>1034.2</ele>
        <time>2021-05-02T14:42:09Z</time>
      </trkpt>
      <trkpt lat="43.72525" lon="6.85575">
        <ele>1034.6</ele>
        <time>2021-05-02T14:42:15Z</time>
      </trkpt>
      <trkpt lat="43.72528" lon="6.85582">
        <ele>1035</ele>
        <time>2021-05-02T14:42:21Z</time>
      </trkpt>
      <trkpt lat="43.7253" lon="6.85586">
        <ele>1034.9</ele>
        <time>2021-05-02T14:42:26Z</time>
      </trkpt>
      <trkpt lat="43.72533" lon="6.85591">
        <ele>1034.7</ele>
        <time>2021-05-02T14:42:32Z</time>
      </trkpt>
      <trkpt lat="43.72534" lon="6.85596">
        <ele>1034.1</ele>
        <time>2021-05-02T14:42:37Z</time>
      </trkpt>
      <trkpt lat="43.72537" lon="6.856">
        <ele>1034.3</ele>
        <time>2021-05-02T14:42:42Z</time>
      </trkpt>
      <trkpt lat="43.7254" lon="6.85605">
        <ele>1034.5</ele>
        <time>2021-05-02T14:42:47Z</time>
      </trkpt>
      <trkpt lat="43.72542" lon="6.8561">
        <ele>1033.9</ele>
        <time>2021-05-02T14:42:52Z</time>
      </trkpt>
      <trkpt lat="43.72546" lon="6.85616">
        <ele>1033.9</ele>
        <time>2021-05-02T14:42:58Z</time>
      </trkpt>
      <trkpt lat="43.72548" lon="6.8562">
        <ele>1033.8</ele>
        <time>2021-05-02T14:43:03Z</time>
      </trkpt>
      <trkpt lat="43.7255" lon="6.85626">
        <ele>1033</ele>
        <time>2021-05-02T14:43:09Z</time>
      </trkpt>
      <trkpt lat="43.72552" lon="6.85631">
        <ele>1032.5</ele>
        <time>2021-05-02T14:43:14Z</time>
      </trkpt>
      <trkpt lat="43.72554" lon="6.85637">
        <ele>1031.9</ele>
        <time>2021-05-02T14:43:20Z</time>
      </trkpt>
      <trkpt lat="43.72556" lon="6.85643">
        <ele>1031.1</ele>
        <time>2021-05-02T14:43:26Z</time>
      </trkpt>
      <trkpt lat="43.72558" lon="6.85648">
        <ele>1030.3</ele>
        <time>2021-05-02T14:43:31Z</time>
      </trkpt>
      <trkpt lat="43.7256" lon="6.85653">
        <ele>1030.2</ele>
        <time>2021-05-02T14:43:36Z</time>
      </trkpt>
      <trkpt lat="43.72562" lon="6.85658">
        <ele>1029.3</ele>
        <time>2021-05-02T14:43:41Z</time>
      </trkpt>
      <trkpt lat="43.72564" lon="6.85662">
        <ele>1029.2</ele>
        <time>2021-05-02T14:43:46Z</time>
      </trkpt>
      <trkpt lat="43.72568" lon="6.85667">
        <ele>1029</ele>
        <time>2021-05-02T14:43:52Z</time>
      </trkpt>
      <trkpt lat="43.7257" lon="6.85671">
        <ele>1028.7</ele>
        <time>2021-05-02T14:43:57Z</time>
      </trkpt>
      <trkpt lat="43.72573" lon="6.85676">
        <ele>1028.1</ele>
        <time>2021-05-02T14:44:03Z</time>
      </trkpt>
      <trkpt lat="43.72576" lon="6.85682">
        <ele>1027.2</ele>
        <time>2021-05-02T14:44:09Z</time>
      </trkpt>
      <trkpt lat="43.72579" lon="6.85686">
        <ele>1027</ele>
        <time>2021-05-02T14:44:14Z</time>
      </trkpt>
      <trkpt lat="43.72582" lon="6.85691">
        <ele>1026.4</ele>
        <time>2021-05-02T14:44:20Z</time>
      </trkpt>
      <trkpt lat="43.72586" lon="6.85696">
        <ele>1025.5</ele>
        <time>2021-05-02T14:44:25Z</time>
      </trkpt>
      <trkpt lat="43.72588" lon="6.85701">
        <ele>1024.6</ele>
        <time>2021-05-02T14:44:31Z</time>
      </trkpt>
      <trkpt lat="43.7259" lon="6.85704">
        <ele>1023.8</ele>
        <time>2021-05-02T14:44:36Z</time>
      </trkpt>
      <trkpt lat="43.72593" lon="6.85707">
        <ele>1023.4</ele>
        <time>2021-05-02T14:44:41Z</time>
      </trkpt>
      <trkpt lat="43.72597" lon="6.85711">
        <ele>1022.9</ele>
        <time>2021-05-02T14:44:47Z</time>
      </trkpt>
      <trkpt lat="43.72598" lon="6.85714">
        <ele>1021.9</ele>
        <time>2021-05-02T14:44:52Z</time>
      </trkpt>
      <trkpt lat="43.72601" lon="6.85719">
        <ele>1020.7</ele>
        <time>2021-05-02T14:44:58Z</time>
      </trkpt>
      <trkpt lat="43.72605" lon="6.85722">
        <ele>1020.4</ele>
        <time>2021-05-02T14:45:04Z</time>
      </trkpt>
      <trkpt lat="43.72607" lon="6.85725">
        <ele>1019.5</ele>
        <time>2021-05-02T14:45:10Z</time>
      </trkpt>
      <trkpt lat="43.72611" lon="6.85729">
        <ele>1018.9</ele>
        <time>2021-05-02T14:45:16Z</time>
      </trkpt>
      <trkpt lat="43.72612" lon="6.8573">
        <ele>1018.8</ele>
        <time>2021-05-02T14:45:21Z</time>
      </trkpt>
      <trkpt lat="43.72612" lon="6.8573">
        <ele>1018.8</ele>
        <time>2021-05-02T14:45:27Z</time>
      </trkpt>
      <trkpt lat="43.72612" lon="6.8573">
        <ele>1018.8</ele>
        <time>2021-05-02T14:45:32Z</time>
      </trkpt>
      <trkpt lat="43.72612" lon="6.8573">
        <ele>1018.8</ele>
        <time>2021-05-02T14:45:38Z</time>
      </trkpt>
      <trkpt lat="43.72612" lon="6.8573">
        <ele>1018.8</ele>
        <time>2021-05-02T14:45:44Z</time>
      </trkpt>
      <trkpt lat="43.72612" lon="6.8573">
        <ele>1018.8</ele>
        <time>2021-05-02T14:45:50Z</time>
      </trkpt>
      <trkpt lat="43.72612" lon="6.8573">
        <ele>1018.8</ele>
        <time>2021-05-02T14:45:55Z</time>
      </trkpt>
      <trkpt lat="43.72612" lon="6.8573">
        <ele>1018.8</ele>
        <time>2021-05-02T14:46:01Z</time>
      </trkpt>
      <trkpt lat="43.72612" lon="6.8573">
        <ele>1018.8</ele>
        <time>2021-05-02T14:46:07Z</time>
      </trkpt>
      <trkpt lat="43.72612" lon="6.8573">
        <ele>1018.8</ele>
        <time>2021-05-02T14:46:13Z</time>
      </trkpt>
      <trkpt lat="43.72612" lon="6.85732">
        <ele>1018</ele>
        <time>2021-05-02T14:46:18Z</time>
      </trkpt>
      <trkpt lat="43.72615" lon="6.85733">
        <ele>1018.1</ele>
        <time>2021-05-02T14:46:23Z</time>
      </trkpt>
      <trkpt lat="43.72619" lon="6.85736">
        <ele>1017.7</ele>
        <time>2021-05-02T14:46:29Z</time>
      </trkpt>
      <trkpt lat="43.72622" lon="6.85737">
        <ele>1017.5</ele>
        <time>2021-05-02T14:46:34Z</time>
      </trkpt>
      <trkpt lat="43.72623" lon="6.8574">
        <ele>1016.7</ele>
        <time>2021-05-02T14:46:39Z</time>
      </trkpt>
      <trkpt lat="43.72625" lon="6.85742">
        <ele>1016</ele>
        <time>2021-05-02T14:46:44Z</time>
      </trkpt>
      <trkpt lat="43.72627" lon="6.85746">
        <ele>1014.9</ele>
        <time>2021-05-02T14:46:49Z</time>
      </trkpt>
      <trkpt lat="43.72629" lon="6.85747">
        <ele>1014.6</ele>
        <time>2021-05-02T14:46:54Z</time>
      </trkpt>
      <trkpt lat="43.72634" lon="6.85749">
        <ele>1014.7</ele>
        <time>2021-05-02T14:47:00Z</time>
      </trkpt>
      <trkpt lat="43.72637" lon="6.8575">
        <ele>1014.8</ele>
        <time>2021-05-02T14:47:06Z</time>
      </trkpt>
      <trkpt lat="43.72641" lon="6.85752">
        <ele>1014.6</ele>
        <time>2021-05-02T14:47:11Z</time>
      </trkpt>
      <trkpt lat="43.72646" lon="6.85753">
        <ele>1014.7</ele>
        <time>2021-05-02T14:47:17Z</time>
      </trkpt>
      <trkpt lat="43.7265" lon="6.85757">
        <ele>1014.1</ele>
        <time>2021-05-02T14:47:23Z</time>
      </trkpt>
      <trkpt lat="43.72654" lon="6.85759">
        <ele>1013.7</ele>
        <time>2021-05-02T14:47:28Z</time>
      </trkpt>
      <trkpt lat="43.72655" lon="6.85762">
        <ele>1012.6</ele>
        <time>2021-05-02T14:47:34Z</time>
      </trkpt>
      <trkpt lat="43.72655" lon="6.85762">
        <ele>1012.6</ele>
        <time>2021-05-02T14:47:39Z</time>
      </trkpt>
      <trkpt lat="43.72658" lon="6.85763">
        <ele>1012.7</ele>
        <time>2021-05-02T14:47:44Z</time>
      </trkpt>
      <trkpt lat="43.72661" lon="6.85764">
        <ele>1012.6</ele>
        <time>2021-05-02T14:47:50Z</time>
      </trkpt>
      <trkpt lat="43.72661" lon="6.85764">
        <ele>1012.6</ele>
        <time>2021-05-02T14:47:56Z</time>
      </trkpt>
      <trkpt lat="43.72661" lon="6.85764">
        <ele>1012.7</ele>
        <time>2021-05-02T14:48:02Z</time>
      </trkpt>
      <trkpt lat="43.72663" lon="6.85765">
        <ele>1012.5</ele>
        <time>2021-05-02T14:48:08Z</time>
      </trkpt>
      <trkpt lat="43.72666" lon="6.85766">
        <ele>1012.2</ele>
        <time>2021-05-02T14:48:14Z</time>
      </trkpt>
      <trkpt lat="43.72669" lon="6.85767">
        <ele>1012.1</ele>
        <time>2021-05-02T14:48:20Z</time>
      </trkpt>
      <trkpt lat="43.72673" lon="6.85768">
        <ele>1012</ele>
        <time>2021-05-02T14:48:25Z</time>
      </trkpt>
      <trkpt lat="43.72677" lon="6.8577">
        <ele>1011.7</ele>
        <time>2021-05-02T14:48:31Z</time>
      </trkpt>
      <trkpt lat="43.7268" lon="6.8577">
        <ele>1011.8</ele>
        <time>2021-05-02T14:48:36Z</time>
      </trkpt>
      <trkpt lat="43.72684" lon="6.85771">
        <ele>1011.7</ele>
        <time>2021-05-02T14:48:41Z</time>
      </trkpt>
      <trkpt lat="43.72688" lon="6.85774">
        <ele>1011</ele>
        <time>2021-05-02T14:48:46Z</time>
      </trkpt>
      <trkpt lat="43.72691" lon="6.85774">
        <ele>1011.2</ele>
        <time>2021-05-02T14:48:52Z</time>
      </trkpt>
      <trkpt lat="43.72693" lon="6.85776">
        <ele>1010.7</ele>
        <time>2021-05-02T14:48:57Z</time>
      </trkpt>
      <trkpt lat="43.72693" lon="6.85781">
        <ele>1008.9</ele>
        <time>2021-05-02T14:49:03Z</time>
      </trkpt>
      <trkpt lat="43.72689" lon="6.85783">
        <ele>1007.7</ele>
        <time>2021-05-02T14:49:09Z</time>
      </trkpt>
      <trkpt lat="43.72686" lon="6.85783">
        <ele>1007.4</ele>
        <time>2021-05-02T14:49:14Z</time>
      </trkpt>
      <trkpt lat="43.7268" lon="6.85784">
        <ele>1006.3</ele>
        <time>2021-05-02T14:49:20Z</time>
      </trkpt>
      <trkpt lat="43.72675" lon="6.85786">
        <ele>1005.3</ele>
        <time>2021-05-02T14:49:26Z</time>
      </trkpt>
      <trkpt lat="43.72672" lon="6.85787">
        <ele>1004.5</ele>
        <time>2021-05-02T14:49:31Z</time>
      </trkpt>
      <trkpt lat="43.72667" lon="6.85788">
        <ele>1003.4</ele>
        <time>2021-05-02T14:49:36Z</time>
      </trkpt>
      <trkpt lat="43.72663" lon="6.8579">
        <ele>1002.3</ele>
        <time>2021-05-02T14:49:41Z</time>
      </trkpt>
      <trkpt lat="43.72659" lon="6.85792">
        <ele>1001.1</ele>
        <time>2021-05-02T14:49:47Z</time>
      </trkpt>
      <trkpt lat="43.72656" lon="6.85795">
        <ele>999.7</ele>
        <time>2021-05-02T14:49:52Z</time>
      </trkpt>
      <trkpt lat="43.72653" lon="6.85797">
        <ele>998.8</ele>
        <time>2021-05-02T14:49:58Z</time>
      </trkpt>
      <trkpt lat="43.72647" lon="6.85796">
        <ele>998.3</ele>
        <time>2021-05-02T14:50:04Z</time>
      </trkpt>
      <trkpt lat="43.72643" lon="6.85798">
        <ele>997.4</ele>
        <time>2021-05-02T14:50:09Z</time>
      </trkpt>
      <trkpt lat="43.7264" lon="6.85799">
        <ele>996.6</ele>
        <time>2021-05-02T14:50:14Z</time>
      </trkpt>
      <trkpt lat="43.72635" lon="6.85801">
        <ele>995.6</ele>
        <time>2021-05-02T14:50:20Z</time>
      </trkpt>
      <trkpt lat="43.72631" lon="6.85801">
        <ele>995.1</ele>
        <time>2021-05-02T14:50:25Z</time>
      </trkpt>
      <trkpt lat="43.72627" lon="6.85801">
        <ele>994.8</ele>
        <time>2021-05-02T14:50:31Z</time>
      </trkpt>
      <trkpt lat="43.72623" lon="6.85802">
        <ele>994.2</ele>
        <time>2021-05-02T14:50:36Z</time>
      </trkpt>
      <trkpt lat="43.72617" lon="6.85801">
        <ele>994</ele>
        <time>2021-05-02T14:50:42Z</time>
      </trkpt>
      <trkpt lat="43.72612" lon="6.85801">
        <ele>993.6</ele>
        <time>2021-05-02T14:50:48Z</time>
      </trkpt>
      <trkpt lat="43.72607" lon="6.85801">
        <ele>993.1</ele>
        <time>2021-05-02T14:50:54Z</time>
      </trkpt>
      <trkpt lat="43.72602" lon="6.858">
        <ele>992.9</ele>
        <time>2021-05-02T14:51:00Z</time>
      </trkpt>
      <trkpt lat="43.72598" lon="6.858">
        <ele>992.5</ele>
        <time>2021-05-02T14:51:05Z</time>
      </trkpt>
      <trkpt lat="43.72594" lon="6.858">
        <ele>992.5</ele>
        <time>2021-05-02T14:51:10Z</time>
      </trkpt>
      <trkpt lat="43.7259" lon="6.85799">
        <ele>992.3</ele>
        <time>2021-05-02T14:51:16Z</time>
      </trkpt>
      <trkpt lat="43.72586" lon="6.85798">
        <ele>992.2</ele>
        <time>2021-05-02T14:51:21Z</time>
      </trkpt>
      <trkpt lat="43.72584" lon="6.85798">
        <ele>992</ele>
        <time>2021-05-02T14:51:26Z</time>
      </trkpt>
      <trkpt lat="43.72582" lon="6.85798">
        <ele>991.6</ele>
        <time>2021-05-02T14:51:32Z</time>
      </trkpt>
      <trkpt lat="43.7258" lon="6.85798">
        <ele>991.1</ele>
        <time>2021-05-02T14:51:38Z</time>
      </trkpt>
      <trkpt lat="43.72579" lon="6.85797">
        <ele>991.1</ele>
        <time>2021-05-02T14:51:43Z</time>
      </trkpt>
      <trkpt lat="43.72579" lon="6.85797">
        <ele>991.1</ele>
        <time>2021-05-02T14:51:49Z</time>
      </trkpt>
      <trkpt lat="43.72579" lon="6.85797">
        <ele>991.1</ele>
        <time>2021-05-02T14:51:55Z</time>
      </trkpt>
      <trkpt lat="43.72579" lon="6.85797">
        <ele>991.1</ele>
        <time>2021-05-02T14:52:00Z</time>
      </trkpt>
      <trkpt lat="43.72579" lon="6.85797">
        <ele>991.1</ele>
        <time>2021-05-02T14:52:06Z</time>
      </trkpt>
      <trkpt lat="43.72579" lon="6.85797">
        <ele>991.1</ele>
        <time>2021-05-02T14:52:11Z</time>
      </trkpt>
      <trkpt lat="43.72579" lon="6.85797">
        <ele>991.1</ele>
        <time>2021-05-02T14:52:17Z</time>
      </trkpt>
      <trkpt lat="43.72579" lon="6.85797">
        <ele>991.1</ele>
        <time>2021-05-02T14:52:23Z</time>
      </trkpt>
      <trkpt lat="43.72579" lon="6.85797">
        <ele>991.1</ele>
        <time>2021-05-02T14:52:29Z</time>
      </trkpt>
      <trkpt lat="43.72579" lon="6.85797">
        <ele>991.1</ele>
        <time>2021-05-02T14:52:34Z</time>
      </trkpt>
      <trkpt lat="43.72579" lon="6.85797">
        <ele>991.1</ele>
        <time>2021-05-02T14:52:39Z</time>
      </trkpt>
      <trkpt lat="43.72579" lon="6.85797">
        <ele>991.1</ele>
        <time>2021-05-02T14:52:44Z</time>
      </trkpt>
      <trkpt lat="43.72576" lon="6.85795">
        <ele>990.9</ele>
        <time>2021-05-02T14:52:50Z</time>
      </trkpt>
      <trkpt lat="43.72576" lon="6.85795">
        <ele>990.9</ele>
        <time>2021-05-02T14:52:56Z</time>
      </trkpt>
      <trkpt lat="43.72576" lon="6.85793">
        <ele>991.3</ele>
        <time>2021-05-02T14:53:02Z</time>
      </trkpt>
      <trkpt lat="43.72576" lon="6.85792">
        <ele>991.8</ele>
        <time>2021-05-02T14:53:07Z</time>
      </trkpt>
      <trkpt lat="43.72576" lon="6.85792">
        <ele>991.8</ele>
        <time>2021-05-02T14:53:12Z</time>
      </trkpt>
      <trkpt lat="43.72576" lon="6.85792">
        <ele>991.8</ele>
        <time>2021-05-02T14:53:18Z</time>
      </trkpt>
      <trkpt lat="43.72576" lon="6.85792">
        <ele>991.8</ele>
        <time>2021-05-02T14:53:23Z</time>
      </trkpt>
      <trkpt lat="43.72576" lon="6.85792">
        <ele>991.8</ele>
        <time>2021-05-02T14:53:29Z</time>
      </trkpt>
      <trkpt lat="43.72576" lon="6.85792">
        <ele>991.9</ele>
        <time>2021-05-02T14:53:35Z</time>
      </trkpt>
      <trkpt lat="43.72576" lon="6.85792">
        <ele>991.9</ele>
        <time>2021-05-02T14:53:41Z</time>
      </trkpt>
      <trkpt lat="43.72576" lon="6.85792">
        <ele>991.9</ele>
        <time>2021-05-02T14:53:46Z</time>
      </trkpt>
      <trkpt lat="43.72576" lon="6.85792">
        <ele>991.9</ele>
        <time>2021-05-02T14:53:52Z</time>
      </trkpt>
      <trkpt lat="43.72576" lon="6.85792">
        <ele>991.9</ele>
        <time>2021-05-02T14:53:57Z</time>
      </trkpt>
      <trkpt lat="43.72576" lon="6.85792">
        <ele>991.9</ele>
        <time>2021-05-02T14:54:03Z</time>
      </trkpt>
      <trkpt lat="43.72576" lon="6.85791">
        <ele>991.9</ele>
        <time>2021-05-02T14:54:09Z</time>
      </trkpt>
      <trkpt lat="43.72576" lon="6.85791">
        <ele>991.9</ele>
        <time>2021-05-02T14:54:14Z</time>
      </trkpt>
      <trkpt lat="43.72576" lon="6.85791">
        <ele>991.9</ele>
        <time>2021-05-02T14:54:20Z</time>
      </trkpt>
      <trkpt lat="43.72576" lon="6.85791">
        <ele>991.9</ele>
        <time>2021-05-02T14:54:25Z</time>
      </trkpt>
      <trkpt lat="43.72576" lon="6.85791">
        <ele>991.9</ele>
        <time>2021-05-02T14:54:31Z</time>
      </trkpt>
      <trkpt lat="43.72576" lon="6.85791">
        <ele>991.9</ele>
        <time>2021-05-02T14:54:37Z</time>
      </trkpt>
      <trkpt lat="43.72576" lon="6.85791">
        <ele>991.9</ele>
        <time>2021-05-02T14:54:43Z</time>
      </trkpt>
      <trkpt lat="43.72576" lon="6.85791">
        <ele>992</ele>
        <time>2021-05-02T14:54:49Z</time>
      </trkpt>
      <trkpt lat="43.72576" lon="6.85791">
        <ele>992</ele>
        <time>2021-05-02T14:54:55Z</time>
      </trkpt>
      <trkpt lat="43.72576" lon="6.85791">
        <ele>992</ele>
        <time>2021-05-02T14:55:01Z</time>
      </trkpt>
      <trkpt lat="43.72575" lon="6.8579">
        <ele>992</ele>
        <time>2021-05-02T14:55:07Z</time>
      </trkpt>
      <trkpt lat="43.72574" lon="6.85789">
        <ele>992.3</ele>
        <time>2021-05-02T14:55:13Z</time>
      </trkpt>
      <trkpt lat="43.72573" lon="6.85788">
        <ele>992.3</ele>
        <time>2021-05-02T14:55:19Z</time>
      </trkpt>
      <trkpt lat="43.72573" lon="6.85787">
        <ele>992.4</ele>
        <time>2021-05-02T14:55:24Z</time>
      </trkpt>
      <trkpt lat="43.72572" lon="6.85786">
        <ele>992.6</ele>
        <time>2021-05-02T14:55:30Z</time>
      </trkpt>
      <trkpt lat="43.72572" lon="6.85785">
        <ele>992.5</ele>
        <time>2021-05-02T14:55:35Z</time>
      </trkpt>
      <trkpt lat="43.72571" lon="6.85786">
        <ele>992.4</ele>
        <time>2021-05-02T14:55:40Z</time>
      </trkpt>
      <trkpt lat="43.72568" lon="6.85783">
        <ele>992.1</ele>
        <time>2021-05-02T14:55:46Z</time>
      </trkpt>
      <trkpt lat="43.72567" lon="6.85781">
        <ele>992.6</ele>
        <time>2021-05-02T14:55:52Z</time>
      </trkpt>
      <trkpt lat="43.72567" lon="6.85781">
        <ele>992.6</ele>
        <time>2021-05-02T14:55:57Z</time>
      </trkpt>
      <trkpt lat="43.72564" lon="6.85779">
        <ele>992.3</ele>
        <time>2021-05-02T14:56:02Z</time>
      </trkpt>
      <trkpt lat="43.72562" lon="6.85778">
        <ele>992.1</ele>
        <time>2021-05-02T14:56:08Z</time>
      </trkpt>
      <trkpt lat="43.7256" lon="6.85778">
        <ele>991.4</ele>
        <time>2021-05-02T14:56:14Z</time>
      </trkpt>
      <trkpt lat="43.72558" lon="6.85778">
        <ele>990.7</ele>
        <time>2021-05-02T14:56:19Z</time>
      </trkpt>
      <trkpt lat="43.72555" lon="6.85776">
        <ele>990.6</ele>
        <time>2021-05-02T14:56:25Z</time>
      </trkpt>
      <trkpt lat="43.72555" lon="6.85776">
        <ele>990.7</ele>
        <time>2021-05-02T14:56:31Z</time>
      </trkpt>
      <trkpt lat="43.72552" lon="6.85781">
        <ele>988.3</ele>
        <time>2021-05-02T14:56:37Z</time>
      </trkpt>
      <trkpt lat="43.72552" lon="6.85778">
        <ele>989.1</ele>
        <time>2021-05-02T14:56:42Z</time>
      </trkpt>
      <trkpt lat="43.7255" lon="6.8578">
        <ele>987.9</ele>
        <time>2021-05-02T14:56:47Z</time>
      </trkpt>
      <trkpt lat="43.72549" lon="6.85776">
        <ele>988.6</ele>
        <time>2021-05-02T14:56:53Z</time>
      </trkpt>
      <trkpt lat="43.72547" lon="6.85771">
        <ele>989.9</ele>
        <time>2021-05-02T14:56:58Z</time>
      </trkpt>
      <trkpt lat="43.72543" lon="6.85768">
        <ele>989.6</ele>
        <time>2021-05-02T14:57:04Z</time>
      </trkpt>
      <trkpt lat="43.72537" lon="6.85767">
        <ele>987.9</ele>
        <time>2021-05-02T14:57:10Z</time>
      </trkpt>
      <trkpt lat="43.72532" lon="6.85766">
        <ele>986.7</ele>
        <time>2021-05-02T14:57:16Z</time>
      </trkpt>
      <trkpt lat="43.72528" lon="6.85765">
        <ele>986.1</ele>
        <time>2021-05-02T14:57:22Z</time>
      </trkpt>
      <trkpt lat="43.72524" lon="6.85766">
        <ele>984.5</ele>
        <time>2021-05-02T14:57:28Z</time>
      </trkpt>
      <trkpt lat="43.7252" lon="6.85764">
        <ele>984</ele>
        <time>2021-05-02T14:57:34Z</time>
      </trkpt>
      <trkpt lat="43.72516" lon="6.85761">
        <ele>983.6</ele>
        <time>2021-05-02T14:57:39Z</time>
      </trkpt>
      <trkpt lat="43.72511" lon="6.85756">
        <ele>983.5</ele>
        <time>2021-05-02T14:57:45Z</time>
      </trkpt>
      <trkpt lat="43.72508" lon="6.85754">
        <ele>983.2</ele>
        <time>2021-05-02T14:57:50Z</time>
      </trkpt>
      <trkpt lat="43.72504" lon="6.8575">
        <ele>983</ele>
        <time>2021-05-02T14:57:56Z</time>
      </trkpt>
      <trkpt lat="43.72499" lon="6.85748">
        <ele>982.3</ele>
        <time>2021-05-02T14:58:02Z</time>
      </trkpt>
      <trkpt lat="43.72496" lon="6.85748">
        <ele>981</ele>
        <time>2021-05-02T14:58:08Z</time>
      </trkpt>
      <trkpt lat="43.72491" lon="6.85746">
        <ele>979.6</ele>
        <time>2021-05-02T14:58:14Z</time>
      </trkpt>
      <trkpt lat="43.72487" lon="6.85739">
        <ele>979.9</ele>
        <time>2021-05-02T14:58:20Z</time>
      </trkpt>
      <trkpt lat="43.72484" lon="6.85733">
        <ele>980.2</ele>
        <time>2021-05-02T14:58:25Z</time>
      </trkpt>
      <trkpt lat="43.7248" lon="6.85731">
        <ele>979.1</ele>
        <time>2021-05-02T14:58:30Z</time>
      </trkpt>
      <trkpt lat="43.72475" lon="6.85726">
        <ele>978.1</ele>
        <time>2021-05-02T14:58:36Z</time>
      </trkpt>
      <trkpt lat="43.7247" lon="6.85724">
        <ele>976.6</ele>
        <time>2021-05-02T14:58:42Z</time>
      </trkpt>
      <trkpt lat="43.72467" lon="6.8572">
        <ele>976.3</ele>
        <time>2021-05-02T14:58:48Z</time>
      </trkpt>
      <trkpt lat="43.72463" lon="6.85718">
        <ele>975.2</ele>
        <time>2021-05-02T14:58:53Z</time>
      </trkpt>
      <trkpt lat="43.72458" lon="6.85716">
        <ele>973.8</ele>
        <time>2021-05-02T14:58:59Z</time>
      </trkpt>
      <trkpt lat="43.72455" lon="6.8571">
        <ele>973.8</ele>
        <time>2021-05-02T14:59:04Z</time>
      </trkpt>
      <trkpt lat="43.72453" lon="6.85707">
        <ele>973.7</ele>
        <time>2021-05-02T14:59:09Z</time>
      </trkpt>
      <trkpt lat="43.7245" lon="6.85701">
        <ele>973.8</ele>
        <time>2021-05-02T14:59:15Z</time>
      </trkpt>
      <trkpt lat="43.72449" lon="6.85695">
        <ele>974.7</ele>
        <time>2021-05-02T14:59:20Z</time>
      </trkpt>
      <trkpt lat="43.72451" lon="6.85688">
        <ele>976.8</ele>
        <time>2021-05-02T14:59:25Z</time>
      </trkpt>
      <trkpt lat="43.72451" lon="6.85685">
        <ele>977.6</ele>
        <time>2021-05-02T14:59:31Z</time>
      </trkpt>
      <trkpt lat="43.72452" lon="6.85687">
        <ele>977.7</ele>
        <time>2021-05-02T14:59:37Z</time>
      </trkpt>
      <trkpt lat="43.72452" lon="6.85687">
        <ele>977.6</ele>
        <time>2021-05-02T14:59:42Z</time>
      </trkpt>
      <trkpt lat="43.72453" lon="6.85686">
        <ele>978</ele>
        <time>2021-05-02T14:59:48Z</time>
      </trkpt>
      <trkpt lat="43.72454" lon="6.85686">
        <ele>978.6</ele>
        <time>2021-05-02T14:59:54Z</time>
      </trkpt>
      <trkpt lat="43.72454" lon="6.85687">
        <ele>978.5</ele>
        <time>2021-05-02T15:00:00Z</time>
      </trkpt>
      <trkpt lat="43.72455" lon="6.85689">
        <ele>978.2</ele>
        <time>2021-05-02T15:00:06Z</time>
      </trkpt>
      <trkpt lat="43.72455" lon="6.85691">
        <ele>978.1</ele>
        <time>2021-05-02T15:00:12Z</time>
      </trkpt>
      <trkpt lat="43.72457" lon="6.85694">
        <ele>978.1</ele>
        <time>2021-05-02T15:00:17Z</time>
      </trkpt>
      <trkpt lat="43.7246" lon="6.85699">
        <ele>978.4</ele>
        <time>2021-05-02T15:00:23Z</time>
      </trkpt>
      <trkpt lat="43.72463" lon="6.85703">
        <ele>978.6</ele>
        <time>2021-05-02T15:00:28Z</time>
      </trkpt>
      <trkpt lat="43.72466" lon="6.85709">
        <ele>978.6</ele>
        <time>2021-05-02T15:00:34Z</time>
      </trkpt>
      <trkpt lat="43.72468" lon="6.85713">
        <ele>978.5</ele>
        <time>2021-05-02T15:00:39Z</time>
      </trkpt>
      <trkpt lat="43.72469" lon="6.85719">
        <ele>977.6</ele>
        <time>2021-05-02T15:00:45Z</time>
      </trkpt>
      <trkpt lat="43.72471" lon="6.85724">
        <ele>977</ele>
        <time>2021-05-02T15:00:51Z</time>
      </trkpt>
      <trkpt lat="43.72474" lon="6.8573">
        <ele>976.7</ele>
        <time>2021-05-02T15:00:57Z</time>
      </trkpt>
      <trkpt lat="43.72476" lon="6.85734">
        <ele>976.7</ele>
        <time>2021-05-02T15:01:02Z</time>
      </trkpt>
      <trkpt lat="43.72479" lon="6.85739">
        <ele>976.5</ele>
        <time>2021-05-02T15:01:08Z</time>
      </trkpt>
      <trkpt lat="43.72481" lon="6.85743">
        <ele>976.5</ele>
        <time>2021-05-02T15:01:14Z</time>
      </trkpt>
      <trkpt lat="43.72483" lon="6.85749">
        <ele>975.9</ele>
        <time>2021-05-02T15:01:20Z</time>
      </trkpt>
      <trkpt lat="43.72487" lon="6.85755">
        <ele>975.7</ele>
        <time>2021-05-02T15:01:25Z</time>
      </trkpt>
      <trkpt lat="43.7249" lon="6.8576">
        <ele>975.5</ele>
        <time>2021-05-02T15:01:31Z</time>
      </trkpt>
      <trkpt lat="43.72492" lon="6.85765">
        <ele>974.7</ele>
        <time>2021-05-02T15:01:36Z</time>
      </trkpt>
      <trkpt lat="43.72496" lon="6.85772">
        <ele>974.1</ele>
        <time>2021-05-02T15:01:42Z</time>
      </trkpt>
      <trkpt lat="43.725" lon="6.85777">
        <ele>974.3</ele>
        <time>2021-05-02T15:01:48Z</time>
      </trkpt>
      <trkpt lat="43.72503" lon="6.85781">
        <ele>974</ele>
        <time>2021-05-02T15:01:54Z</time>
      </trkpt>
      <trkpt lat="43.72505" lon="6.85786">
        <ele>972.8</ele>
        <time>2021-05-02T15:01:59Z</time>
      </trkpt>
      <trkpt lat="43.72509" lon="6.85792">
        <ele>972.5</ele>
        <time>2021-05-02T15:02:05Z</time>
      </trkpt>
      <trkpt lat="43.72511" lon="6.858">
        <ele>970.7</ele>
        <time>2021-05-02T15:02:11Z</time>
      </trkpt>
      <trkpt lat="43.72514" lon="6.85806">
        <ele>969.8</ele>
        <time>2021-05-02T15:02:16Z</time>
      </trkpt>
      <trkpt lat="43.72516" lon="6.85813">
        <ele>968.5</ele>
        <time>2021-05-02T15:02:22Z</time>
      </trkpt>
      <trkpt lat="43.72519" lon="6.85819">
        <ele>967.5</ele>
        <time>2021-05-02T15:02:27Z</time>
      </trkpt>
      <trkpt lat="43.72521" lon="6.85826">
        <ele>966.1</ele>
        <time>2021-05-02T15:02:32Z</time>
      </trkpt>
      <trkpt lat="43.72526" lon="6.85831">
        <ele>965.8</ele>
        <time>2021-05-02T15:02:38Z</time>
      </trkpt>
      <trkpt lat="43.72528" lon="6.85837">
        <ele>964.6</ele>
        <time>2021-05-02T15:02:43Z</time>
      </trkpt>
      <trkpt lat="43.72532" lon="6.85842">
        <ele>963.6</ele>
        <time>2021-05-02T15:02:49Z</time>
      </trkpt>
      <trkpt lat="43.72535" lon="6.85846">
        <ele>962.9</ele>
        <time>2021-05-02T15:02:54Z</time>
      </trkpt>
      <trkpt lat="43.72537" lon="6.85851">
        <ele>961.9</ele>
        <time>2021-05-02T15:02:59Z</time>
      </trkpt>
      <trkpt lat="43.72541" lon="6.85856">
        <ele>961.1</ele>
        <time>2021-05-02T15:03:05Z</time>
      </trkpt>
      <trkpt lat="43.72544" lon="6.8586">
        <ele>960.5</ele>
        <time>2021-05-02T15:03:10Z</time>
      </trkpt>
      <trkpt lat="43.72549" lon="6.85865">
        <ele>960.1</ele>
        <time>2021-05-02T15:03:16Z</time>
      </trkpt>
      <trkpt lat="43.72554" lon="6.8587">
        <ele>959.2</ele>
        <time>2021-05-02T15:03:22Z</time>
      </trkpt>
      <trkpt lat="43.72559" lon="6.85876">
        <ele>958.4</ele>
        <time>2021-05-02T15:03:28Z</time>
      </trkpt>
      <trkpt lat="43.7256" lon="6.85883">
        <ele>956.3</ele>
        <time>2021-05-02T15:03:33Z</time>
      </trkpt>
      <trkpt lat="43.72565" lon="6.85888">
        <ele>955.8</ele>
        <time>2021-05-02T15:03:39Z</time>
      </trkpt>
      <trkpt lat="43.72569" lon="6.85893">
        <ele>955.1</ele>
        <time>2021-05-02T15:03:45Z</time>
      </trkpt>
      <trkpt lat="43.72574" lon="6.85898">
        <ele>954.4</ele>
        <time>2021-05-02T15:03:51Z</time>
      </trkpt>
      <trkpt lat="43.72578" lon="6.85904">
        <ele>953.2</ele>
        <time>2021-05-02T15:03:57Z</time>
      </trkpt>
      <trkpt lat="43.72581" lon="6.85909">
        <ele>952.3</ele>
        <time>2021-05-02T15:04:02Z</time>
      </trkpt>
      <trkpt lat="43.72586" lon="6.85914">
        <ele>951.2</ele>
        <time>2021-05-02T15:04:08Z</time>
      </trkpt>
      <trkpt lat="43.7259" lon="6.85919">
        <ele>950.2</ele>
        <time>2021-05-02T15:04:14Z</time>
      </trkpt>
      <trkpt lat="43.72595" lon="6.85922">
        <ele>950.2</ele>
        <time>2021-05-02T15:04:20Z</time>
      </trkpt>
      <trkpt lat="43.72599" lon="6.85925">
        <ele>950</ele>
        <time>2021-05-02T15:04:25Z</time>
      </trkpt>
      <trkpt lat="43.72603" lon="6.85928">
        <ele>949.9</ele>
        <time>2021-05-02T15:04:31Z</time>
      </trkpt>
      <trkpt lat="43.72608" lon="6.85931">
        <ele>949.8</ele>
        <time>2021-05-02T15:04:37Z</time>
      </trkpt>
      <trkpt lat="43.72614" lon="6.85933">
        <ele>950.1</ele>
        <time>2021-05-02T15:04:43Z</time>
      </trkpt>
      <trkpt lat="43.72619" lon="6.85939">
        <ele>949.6</ele>
        <time>2021-05-02T15:04:49Z</time>
      </trkpt>
      <trkpt lat="43.72625" lon="6.85941">
        <ele>949.9</ele>
        <time>2021-05-02T15:04:55Z</time>
      </trkpt>
      <trkpt lat="43.72628" lon="6.85945">
        <ele>949.5</ele>
        <time>2021-05-02T15:05:00Z</time>
      </trkpt>
      <trkpt lat="43.72628" lon="6.85952">
        <ele>948.2</ele>
        <time>2021-05-02T15:05:06Z</time>
      </trkpt>
      <trkpt lat="43.72624" lon="6.85956">
        <ele>947.1</ele>
        <time>2021-05-02T15:05:11Z</time>
      </trkpt>
      <trkpt lat="43.72619" lon="6.85955">
        <ele>946.6</ele>
        <time>2021-05-02T15:05:17Z</time>
      </trkpt>
      <trkpt lat="43.72614" lon="6.85952">
        <ele>946.5</ele>
        <time>2021-05-02T15:05:23Z</time>
      </trkpt>
      <trkpt lat="43.72608" lon="6.85953">
        <ele>945.4</ele>
        <time>2021-05-02T15:05:29Z</time>
      </trkpt>
      <trkpt lat="43.72605" lon="6.85955">
        <ele>944.6</ele>
        <time>2021-05-02T15:05:34Z</time>
      </trkpt>
      <trkpt lat="43.72601" lon="6.85958">
        <ele>943.5</ele>
        <time>2021-05-02T15:05:39Z</time>
      </trkpt>
      <trkpt lat="43.72596" lon="6.85957">
        <ele>943.1</ele>
        <time>2021-05-02T15:05:45Z</time>
      </trkpt>
      <trkpt lat="43.72591" lon="6.85957">
        <ele>942.2</ele>
        <time>2021-05-02T15:05:51Z</time>
      </trkpt>
      <trkpt lat="43.72585" lon="6.85957">
        <ele>941.6</ele>
        <time>2021-05-02T15:05:57Z</time>
      </trkpt>
      <trkpt lat="43.7258" lon="6.85959">
        <ele>940.2</ele>
        <time>2021-05-02T15:06:03Z</time>
      </trkpt>
      <trkpt lat="43.72576" lon="6.85959">
        <ele>939</ele>
        <time>2021-05-02T15:06:08Z</time>
      </trkpt>
      <trkpt lat="43.72571" lon="6.85956">
        <ele>938.3</ele>
        <time>2021-05-02T15:06:14Z</time>
      </trkpt>
      <trkpt lat="43.72566" lon="6.85954">
        <ele>937.4</ele>
        <time>2021-05-02T15:06:20Z</time>
      </trkpt>
      <trkpt lat="43.7256" lon="6.85957">
        <ele>935.4</ele>
        <time>2021-05-02T15:06:26Z</time>
      </trkpt>
      <trkpt lat="43.72555" lon="6.85957">
        <ele>934</ele>
        <time>2021-05-02T15:06:32Z</time>
      </trkpt>
      <trkpt lat="43.72552" lon="6.85952">
        <ele>934.3</ele>
        <time>2021-05-02T15:06:38Z</time>
      </trkpt>
      <trkpt lat="43.72546" lon="6.85951">
        <ele>933</ele>
        <time>2021-05-02T15:06:43Z</time>
      </trkpt>
      <trkpt lat="43.72539" lon="6.85948">
        <ele>931.7</ele>
        <time>2021-05-02T15:06:49Z</time>
      </trkpt>
      <trkpt lat="43.72534" lon="6.85942">
        <ele>931.7</ele>
        <time>2021-05-02T15:06:54Z</time>
      </trkpt>
      <trkpt lat="43.72529" lon="6.85938">
        <ele>931.4</ele>
        <time>2021-05-02T15:07:00Z</time>
      </trkpt>
      <trkpt lat="43.72526" lon="6.85935">
        <ele>931</ele>
        <time>2021-05-02T15:07:05Z</time>
      </trkpt>
      <trkpt lat="43.72519" lon="6.85936">
        <ele>928.9</ele>
        <time>2021-05-02T15:07:11Z</time>
      </trkpt>
      <trkpt lat="43.72514" lon="6.85929">
        <ele>929</ele>
        <time>2021-05-02T15:07:17Z</time>
      </trkpt>
      <trkpt lat="43.72508" lon="6.85925">
        <ele>928.4</ele>
        <time>2021-05-02T15:07:23Z</time>
      </trkpt>
      <trkpt lat="43.72504" lon="6.85922">
        <ele>927.8</ele>
        <time>2021-05-02T15:07:28Z</time>
      </trkpt>
      <trkpt lat="43.72499" lon="6.8592">
        <ele>927.2</ele>
        <time>2021-05-02T15:07:34Z</time>
      </trkpt>
      <trkpt lat="43.72495" lon="6.85918">
        <ele>927</ele>
        <time>2021-05-02T15:07:39Z</time>
      </trkpt>
      <trkpt lat="43.72491" lon="6.85916">
        <ele>926.7</ele>
        <time>2021-05-02T15:07:45Z</time>
      </trkpt>
      <trkpt lat="43.72485" lon="6.85916">
        <ele>926.1</ele>
        <time>2021-05-02T15:07:51Z</time>
      </trkpt>
      <trkpt lat="43.72481" lon="6.85915">
        <ele>925.5</ele>
        <time>2021-05-02T15:07:56Z</time>
      </trkpt>
      <trkpt lat="43.72476" lon="6.85915">
        <ele>924.8</ele>
        <time>2021-05-02T15:08:02Z</time>
      </trkpt>
      <trkpt lat="43.72472" lon="6.85914">
        <ele>924.4</ele>
        <time>2021-05-02T15:08:07Z</time>
      </trkpt>
      <trkpt lat="43.72467" lon="6.85912">
        <ele>924.1</ele>
        <time>2021-05-02T15:08:13Z</time>
      </trkpt>
      <trkpt lat="43.72463" lon="6.85909">
        <ele>924.2</ele>
        <time>2021-05-02T15:08:18Z</time>
      </trkpt>
      <trkpt lat="43.72456" lon="6.85906">
        <ele>923.9</ele>
        <time>2021-05-02T15:08:24Z</time>
      </trkpt>
      <trkpt lat="43.72451" lon="6.85903">
        <ele>923.7</ele>
        <time>2021-05-02T15:08:29Z</time>
      </trkpt>
      <trkpt lat="43.72445" lon="6.859">
        <ele>923.4</ele>
        <time>2021-05-02T15:08:35Z</time>
      </trkpt>
      <trkpt lat="43.72441" lon="6.85897">
        <ele>923.1</ele>
        <time>2021-05-02T15:08:40Z</time>
      </trkpt>
      <trkpt lat="43.72434" lon="6.85894">
        <ele>922.5</ele>
        <time>2021-05-02T15:08:46Z</time>
      </trkpt>
      <trkpt lat="43.72429" lon="6.85892">
        <ele>921.7</ele>
        <time>2021-05-02T15:08:52Z</time>
      </trkpt>
      <trkpt lat="43.72424" lon="6.8589">
        <ele>921</ele>
        <time>2021-05-02T15:08:58Z</time>
      </trkpt>
      <trkpt lat="43.72417" lon="6.85889">
        <ele>919.8</ele>
        <time>2021-05-02T15:09:04Z</time>
      </trkpt>
      <trkpt lat="43.7241" lon="6.85887">
        <ele>920</ele>
        <time>2021-05-02T15:09:10Z</time>
      </trkpt>
      <trkpt lat="43.72403" lon="6.85883">
        <ele>920.7</ele>
        <time>2021-05-02T15:09:16Z</time>
      </trkpt>
      <trkpt lat="43.72398" lon="6.85882">
        <ele>920.9</ele>
        <time>2021-05-02T15:09:21Z</time>
      </trkpt>
      <trkpt lat="43.72392" lon="6.85881">
        <ele>921</ele>
        <time>2021-05-02T15:09:26Z</time>
      </trkpt>
      <trkpt lat="43.72388" lon="6.85881">
        <ele>921</ele>
        <time>2021-05-02T15:09:31Z</time>
      </trkpt>
      <trkpt lat="43.72383" lon="6.85882">
        <ele>920.8</ele>
        <time>2021-05-02T15:09:36Z</time>
      </trkpt>
      <trkpt lat="43.72379" lon="6.85885">
        <ele>920.4</ele>
        <time>2021-05-02T15:09:42Z</time>
      </trkpt>
      <trkpt lat="43.72378" lon="6.85889">
        <ele>919.8</ele>
        <time>2021-05-02T15:09:47Z</time>
      </trkpt>
      <trkpt lat="43.72381" lon="6.85892">
        <ele>919.4</ele>
        <time>2021-05-02T15:09:53Z</time>
      </trkpt>
      <trkpt lat="43.72385" lon="6.85892">
        <ele>919.3</ele>
        <time>2021-05-02T15:09:59Z</time>
      </trkpt>
      <trkpt lat="43.7239" lon="6.85894">
        <ele>919</ele>
        <time>2021-05-02T15:10:05Z</time>
      </trkpt>
      <trkpt lat="43.72394" lon="6.85896">
        <ele>918.7</ele>
        <time>2021-05-02T15:10:10Z</time>
      </trkpt>
      <trkpt lat="43.72398" lon="6.85898">
        <ele>918.4</ele>
        <time>2021-05-02T15:10:16Z</time>
      </trkpt>
      <trkpt lat="43.72403" lon="6.859">
        <ele>918</ele>
        <time>2021-05-02T15:10:22Z</time>
      </trkpt>
      <trkpt lat="43.72409" lon="6.85902">
        <ele>917.5</ele>
        <time>2021-05-02T15:10:28Z</time>
      </trkpt>
      <trkpt lat="43.72414" lon="6.85906">
        <ele>916.9</ele>
        <time>2021-05-02T15:10:33Z</time>
      </trkpt>
      <trkpt lat="43.72421" lon="6.85909">
        <ele>917</ele>
        <time>2021-05-02T15:10:39Z</time>
      </trkpt>
      <trkpt lat="43.72426" lon="6.85913">
        <ele>917.1</ele>
        <time>2021-05-02T15:10:45Z</time>
      </trkpt>
      <trkpt lat="43.72429" lon="6.85916">
        <ele>917</ele>
        <time>2021-05-02T15:10:50Z</time>
      </trkpt>
      <trkpt lat="43.72433" lon="6.85919">
        <ele>917.2</ele>
        <time>2021-05-02T15:10:55Z</time>
      </trkpt>
      <trkpt lat="43.72438" lon="6.85925">
        <ele>916.9</ele>
        <time>2021-05-02T15:11:01Z</time>
      </trkpt>
      <trkpt lat="43.7244" lon="6.85932">
        <ele>915.9</ele>
        <time>2021-05-02T15:11:07Z</time>
      </trkpt>
      <trkpt lat="43.72436" lon="6.85935">
        <ele>914.7</ele>
        <time>2021-05-02T15:11:13Z</time>
      </trkpt>
      <trkpt lat="43.72431" lon="6.85937">
        <ele>913.8</ele>
        <time>2021-05-02T15:11:18Z</time>
      </trkpt>
      <trkpt lat="43.72426" lon="6.85938">
        <ele>912.9</ele>
        <time>2021-05-02T15:11:23Z</time>
      </trkpt>
      <trkpt lat="43.7242" lon="6.85939">
        <ele>911.7</ele>
        <time>2021-05-02T15:11:29Z</time>
      </trkpt>
      <trkpt lat="43.72415" lon="6.85943">
        <ele>910.7</ele>
        <time>2021-05-02T15:11:35Z</time>
      </trkpt>
      <trkpt lat="43.72411" lon="6.85945">
        <ele>910.5</ele>
        <time>2021-05-02T15:11:40Z</time>
      </trkpt>
      <trkpt lat="43.72407" lon="6.85947">
        <ele>910.2</ele>
        <time>2021-05-02T15:11:45Z</time>
      </trkpt>
      <trkpt lat="43.72402" lon="6.85949">
        <ele>910</ele>
        <time>2021-05-02T15:11:51Z</time>
      </trkpt>
      <trkpt lat="43.72398" lon="6.85951">
        <ele>909.8</ele>
        <time>2021-05-02T15:11:56Z</time>
      </trkpt>
      <trkpt lat="43.72394" lon="6.85955">
        <ele>909.4</ele>
        <time>2021-05-02T15:12:02Z</time>
      </trkpt>
      <trkpt lat="43.7239" lon="6.85958">
        <ele>909</ele>
        <time>2021-05-02T15:12:08Z</time>
      </trkpt>
      <trkpt lat="43.72386" lon="6.85963">
        <ele>908.4</ele>
        <time>2021-05-02T15:12:13Z</time>
      </trkpt>
      <trkpt lat="43.72382" lon="6.85966">
        <ele>908</ele>
        <time>2021-05-02T15:12:18Z</time>
      </trkpt>
      <trkpt lat="43.72379" lon="6.8597">
        <ele>907.5</ele>
        <time>2021-05-02T15:12:23Z</time>
      </trkpt>
      <trkpt lat="43.72376" lon="6.85974">
        <ele>906.9</ele>
        <time>2021-05-02T15:12:28Z</time>
      </trkpt>
      <trkpt lat="43.72373" lon="6.8598">
        <ele>906.2</ele>
        <time>2021-05-02T15:12:34Z</time>
      </trkpt>
      <trkpt lat="43.7237" lon="6.85985">
        <ele>905.5</ele>
        <time>2021-05-02T15:12:39Z</time>
      </trkpt>
      <trkpt lat="43.72367" lon="6.85992">
        <ele>904.6</ele>
        <time>2021-05-02T15:12:45Z</time>
      </trkpt>
      <trkpt lat="43.72363" lon="6.85997">
        <ele>904</ele>
        <time>2021-05-02T15:12:50Z</time>
      </trkpt>
      <trkpt lat="43.72361" lon="6.86003">
        <ele>903.3</ele>
        <time>2021-05-02T15:12:55Z</time>
      </trkpt>
      <trkpt lat="43.72357" lon="6.8601">
        <ele>902.6</ele>
        <time>2021-05-02T15:13:01Z</time>
      </trkpt>
      <trkpt lat="43.72354" lon="6.86017">
        <ele>901.9</ele>
        <time>2021-05-02T15:13:07Z</time>
      </trkpt>
      <trkpt lat="43.7235" lon="6.86023">
        <ele>901.1</ele>
        <time>2021-05-02T15:13:13Z</time>
      </trkpt>
      <trkpt lat="43.72347" lon="6.86029">
        <ele>900.5</ele>
        <time>2021-05-02T15:13:18Z</time>
      </trkpt>
      <trkpt lat="43.72342" lon="6.86033">
        <ele>900</ele>
        <time>2021-05-02T15:13:24Z</time>
      </trkpt>
      <trkpt lat="43.72337" lon="6.86035">
        <ele>899.9</ele>
        <time>2021-05-02T15:13:29Z</time>
      </trkpt>
      <trkpt lat="43.7233" lon="6.86036">
        <ele>899.6</ele>
        <time>2021-05-02T15:13:35Z</time>
      </trkpt>
      <trkpt lat="43.72324" lon="6.86038">
        <ele>899</ele>
        <time>2021-05-02T15:13:40Z</time>
      </trkpt>
      <trkpt lat="43.72319" lon="6.86039">
        <ele>898.5</ele>
        <time>2021-05-02T15:13:45Z</time>
      </trkpt>
      <trkpt lat="43.72315" lon="6.86039">
        <ele>898.2</ele>
        <time>2021-05-02T15:13:50Z</time>
      </trkpt>
      <trkpt lat="43.72309" lon="6.86039">
        <ele>897.8</ele>
        <time>2021-05-02T15:13:56Z</time>
      </trkpt>
      <trkpt lat="43.72302" lon="6.86036">
        <ele>897.7</ele>
        <time>2021-05-02T15:14:02Z</time>
      </trkpt>
      <trkpt lat="43.72294" lon="6.86035">
        <ele>897.3</ele>
        <time>2021-05-02T15:14:08Z</time>
      </trkpt>
      <trkpt lat="43.72287" lon="6.86033">
        <ele>897.1</ele>
        <time>2021-05-02T15:14:14Z</time>
      </trkpt>
      <trkpt lat="43.7228" lon="6.86034">
        <ele>896.6</ele>
        <time>2021-05-02T15:14:20Z</time>
      </trkpt>
      <trkpt lat="43.72273" lon="6.86034">
        <ele>896.1</ele>
        <time>2021-05-02T15:14:26Z</time>
      </trkpt>
      <trkpt lat="43.72267" lon="6.86033">
        <ele>895.7</ele>
        <time>2021-05-02T15:14:32Z</time>
      </trkpt>
      <trkpt lat="43.72261" lon="6.86033">
        <ele>895.4</ele>
        <time>2021-05-02T15:14:38Z</time>
      </trkpt>
      <trkpt lat="43.72257" lon="6.86032">
        <ele>895.2</ele>
        <time>2021-05-02T15:14:43Z</time>
      </trkpt>
      <trkpt lat="43.7225" lon="6.86031">
        <ele>894.9</ele>
        <time>2021-05-02T15:14:49Z</time>
      </trkpt>
      <trkpt lat="43.72245" lon="6.8603">
        <ele>894.4</ele>
        <time>2021-05-02T15:14:54Z</time>
      </trkpt>
      <trkpt lat="43.72239" lon="6.86031">
        <ele>893.7</ele>
        <time>2021-05-02T15:15:00Z</time>
      </trkpt>
      <trkpt lat="43.72233" lon="6.8603">
        <ele>893.1</ele>
        <time>2021-05-02T15:15:06Z</time>
      </trkpt>
      <trkpt lat="43.72227" lon="6.86028">
        <ele>892.6</ele>
        <time>2021-05-02T15:15:12Z</time>
      </trkpt>
      <trkpt lat="43.72223" lon="6.86025">
        <ele>892.4</ele>
        <time>2021-05-02T15:15:17Z</time>
      </trkpt>
      <trkpt lat="43.72218" lon="6.86024">
        <ele>891.9</ele>
        <time>2021-05-02T15:15:23Z</time>
      </trkpt>
      <trkpt lat="43.72212" lon="6.86023">
        <ele>891.3</ele>
        <time>2021-05-02T15:15:29Z</time>
      </trkpt>
      <trkpt lat="43.72208" lon="6.86021">
        <ele>891</ele>
        <time>2021-05-02T15:15:35Z</time>
      </trkpt>
      <trkpt lat="43.72203" lon="6.86024">
        <ele>890.2</ele>
        <time>2021-05-02T15:15:40Z</time>
      </trkpt>
      <trkpt lat="43.72199" lon="6.86025">
        <ele>889.5</ele>
        <time>2021-05-02T15:15:45Z</time>
      </trkpt>
      <trkpt lat="43.72195" lon="6.86029">
        <ele>888.5</ele>
        <time>2021-05-02T15:15:51Z</time>
      </trkpt>
      <trkpt lat="43.72191" lon="6.8603">
        <ele>888</ele>
        <time>2021-05-02T15:15:57Z</time>
      </trkpt>
      <trkpt lat="43.72189" lon="6.86035">
        <ele>887.3</ele>
        <time>2021-05-02T15:16:03Z</time>
      </trkpt>
      <trkpt lat="43.72186" lon="6.86037">
        <ele>886.6</ele>
        <time>2021-05-02T15:16:08Z</time>
      </trkpt>
      <trkpt lat="43.72183" lon="6.8604">
        <ele>886</ele>
        <time>2021-05-02T15:16:14Z</time>
      </trkpt>
      <trkpt lat="43.7218" lon="6.86043">
        <ele>885.4</ele>
        <time>2021-05-02T15:16:20Z</time>
      </trkpt>
      <trkpt lat="43.72177" lon="6.86045">
        <ele>884.8</ele>
        <time>2021-05-02T15:16:26Z</time>
      </trkpt>
      <trkpt lat="43.72176" lon="6.8605">
        <ele>884.3</ele>
        <time>2021-05-02T15:16:32Z</time>
      </trkpt>
      <trkpt lat="43.72175" lon="6.86052">
        <ele>883.9</ele>
        <time>2021-05-02T15:16:38Z</time>
      </trkpt>
      <trkpt lat="43.72175" lon="6.86058">
        <ele>883.4</ele>
        <time>2021-05-02T15:16:43Z</time>
      </trkpt>
      <trkpt lat="43.72175" lon="6.86062">
        <ele>882.9</ele>
        <time>2021-05-02T15:16:49Z</time>
      </trkpt>
      <trkpt lat="43.72172" lon="6.86068">
        <ele>882.1</ele>
        <time>2021-05-02T15:16:55Z</time>
      </trkpt>
      <trkpt lat="43.7217" lon="6.86072">
        <ele>881.4</ele>
        <time>2021-05-02T15:17:00Z</time>
      </trkpt>
      <trkpt lat="43.72166" lon="6.86076">
        <ele>880.6</ele>
        <time>2021-05-02T15:17:06Z</time>
      </trkpt>
      <trkpt lat="43.72164" lon="6.86082">
        <ele>879.9</ele>
        <time>2021-05-02T15:17:12Z</time>
      </trkpt>
      <trkpt lat="43.7216" lon="6.86085">
        <ele>879.6</ele>
        <time>2021-05-02T15:17:18Z</time>
      </trkpt>
      <trkpt lat="43.72158" lon="6.86086">
        <ele>879.6</ele>
        <time>2021-05-02T15:17:23Z</time>
      </trkpt>
      <trkpt lat="43.72154" lon="6.86087">
        <ele>879.4</ele>
        <time>2021-05-02T15:17:29Z</time>
      </trkpt>
      <trkpt lat="43.72148" lon="6.86086">
        <ele>878.9</ele>
        <time>2021-05-02T15:17:35Z</time>
      </trkpt>
      <trkpt lat="43.72142" lon="6.86086">
        <ele>878.5</ele>
        <time>2021-05-02T15:17:41Z</time>
      </trkpt>
      <trkpt lat="43.72136" lon="6.86086">
        <ele>878.1</ele>
        <time>2021-05-02T15:17:47Z</time>
      </trkpt>
      <trkpt lat="43.72132" lon="6.86087">
        <ele>877.9</ele>
        <time>2021-05-02T15:17:52Z</time>
      </trkpt>
      <trkpt lat="43.72127" lon="6.86087">
        <ele>877.6</ele>
        <time>2021-05-02T15:17:57Z</time>
      </trkpt>
      <trkpt lat="43.72121" lon="6.86088">
        <ele>877.3</ele>
        <time>2021-05-02T15:18:03Z</time>
      </trkpt>
      <trkpt lat="43.72117" lon="6.86088">
        <ele>877</ele>
        <time>2021-05-02T15:18:08Z</time>
      </trkpt>
      <trkpt lat="43.72111" lon="6.86087">
        <ele>876.6</ele>
        <time>2021-05-02T15:18:14Z</time>
      </trkpt>
      <trkpt lat="43.72106" lon="6.86085">
        <ele>876</ele>
        <time>2021-05-02T15:18:19Z</time>
      </trkpt>
      <trkpt lat="43.721" lon="6.86084">
        <ele>875.3</ele>
        <time>2021-05-02T15:18:25Z</time>
      </trkpt>
      <trkpt lat="43.72096" lon="6.86083">
        <ele>874.9</ele>
        <time>2021-05-02T15:18:30Z</time>
      </trkpt>
      <trkpt lat="43.7209" lon="6.86083">
        <ele>874.6</ele>
        <time>2021-05-02T15:18:36Z</time>
      </trkpt>
      <trkpt lat="43.72084" lon="6.8608">
        <ele>874.4</ele>
        <time>2021-05-02T15:18:42Z</time>
      </trkpt>
      <trkpt lat="43.72078" lon="6.86078">
        <ele>874.5</ele>
        <time>2021-05-02T15:18:47Z</time>
      </trkpt>
      <trkpt lat="43.72073" lon="6.86078">
        <ele>874.5</ele>
        <time>2021-05-02T15:18:53Z</time>
      </trkpt>
      <trkpt lat="43.72067" lon="6.86075">
        <ele>874.7</ele>
        <time>2021-05-02T15:18:59Z</time>
      </trkpt>
      <trkpt lat="43.72061" lon="6.86075">
        <ele>874.5</ele>
        <time>2021-05-02T15:19:05Z</time>
      </trkpt>
      <trkpt lat="43.72055" lon="6.86075">
        <ele>874.3</ele>
        <time>2021-05-02T15:19:11Z</time>
      </trkpt>
      <trkpt lat="43.7205" lon="6.86077">
        <ele>874.1</ele>
        <time>2021-05-02T15:19:17Z</time>
      </trkpt>
      <trkpt lat="43.72044" lon="6.86077">
        <ele>874</ele>
        <time>2021-05-02T15:19:22Z</time>
      </trkpt>
      <trkpt lat="43.72038" lon="6.86078">
        <ele>873.8</ele>
        <time>2021-05-02T15:19:28Z</time>
      </trkpt>
      <trkpt lat="43.72032" lon="6.86078">
        <ele>873.7</ele>
        <time>2021-05-02T15:19:33Z</time>
      </trkpt>
      <trkpt lat="43.72028" lon="6.86078">
        <ele>873.6</ele>
        <time>2021-05-02T15:19:38Z</time>
      </trkpt>
      <trkpt lat="43.72023" lon="6.86077">
        <ele>873.6</ele>
        <time>2021-05-02T15:19:44Z</time>
      </trkpt>
      <trkpt lat="43.72019" lon="6.86079">
        <ele>873.4</ele>
        <time>2021-05-02T15:19:50Z</time>
      </trkpt>
      <trkpt lat="43.72014" lon="6.86079">
        <ele>873.3</ele>
        <time>2021-05-02T15:19:55Z</time>
      </trkpt>
      <trkpt lat="43.72009" lon="6.86079">
        <ele>873.3</ele>
        <time>2021-05-02T15:20:00Z</time>
      </trkpt>
      <trkpt lat="43.72005" lon="6.86079">
        <ele>873.2</ele>
        <time>2021-05-02T15:20:05Z</time>
      </trkpt>
      <trkpt lat="43.72" lon="6.8608">
        <ele>873.1</ele>
        <time>2021-05-02T15:20:11Z</time>
      </trkpt>
      <trkpt lat="43.71998" lon="6.86082">
        <ele>873.1</ele>
        <time>2021-05-02T15:20:17Z</time>
      </trkpt>
      <trkpt lat="43.71998" lon="6.86082">
        <ele>873.1</ele>
        <time>2021-05-02T15:20:22Z</time>
      </trkpt>
      <trkpt lat="43.71998" lon="6.86082">
        <ele>873.1</ele>
        <time>2021-05-02T15:20:28Z</time>
      </trkpt>
      <trkpt lat="43.71997" lon="6.86082">
        <ele>873.2</ele>
        <time>2021-05-02T15:20:34Z</time>
      </trkpt>
      <trkpt lat="43.71997" lon="6.86082">
        <ele>873.2</ele>
        <time>2021-05-02T15:20:40Z</time>
      </trkpt>
      <trkpt lat="43.71997" lon="6.86082">
        <ele>873.2</ele>
        <time>2021-05-02T15:20:46Z</time>
      </trkpt>
      <trkpt lat="43.71997" lon="6.86082">
        <ele>873.2</ele>
        <time>2021-05-02T15:20:51Z</time>
      </trkpt>
      <trkpt lat="43.71997" lon="6.86082">
        <ele>873.2</ele>
        <time>2021-05-02T15:20:57Z</time>
      </trkpt>
      <trkpt lat="43.71997" lon="6.86082">
        <ele>873.2</ele>
        <time>2021-05-02T15:21:02Z</time>
      </trkpt>
      <trkpt lat="43.71997" lon="6.86082">
        <ele>873.2</ele>
        <time>2021-05-02T15:21:07Z</time>
      </trkpt>
      <trkpt lat="43.71997" lon="6.86082">
        <ele>873.2</ele>
        <time>2021-05-02T15:21:13Z</time>
      </trkpt>
      <trkpt lat="43.71997" lon="6.86082">
        <ele>873.2</ele>
        <time>2021-05-02T15:21:19Z</time>
      </trkpt>
      <trkpt lat="43.71996" lon="6.86082">
        <ele>873.2</ele>
        <time>2021-05-02T15:21:25Z</time>
      </trkpt>
      <trkpt lat="43.71995" lon="6.86084">
        <ele>873.5</ele>
        <time>2021-05-02T15:21:30Z</time>
      </trkpt>
      <trkpt lat="43.71992" lon="6.8608">
        <ele>873.4</ele>
        <time>2021-05-02T15:21:36Z</time>
      </trkpt>
      <trkpt lat="43.71992" lon="6.86079">
        <ele>873.4</ele>
        <time>2021-05-02T15:21:41Z</time>
      </trkpt>
      <trkpt lat="43.71989" lon="6.86079">
        <ele>873.6</ele>
        <time>2021-05-02T15:21:47Z</time>
      </trkpt>
      <trkpt lat="43.71984" lon="6.86079">
        <ele>873.8</ele>
        <time>2021-05-02T15:21:53Z</time>
      </trkpt>
      <trkpt lat="43.71983" lon="6.8607">
        <ele>873.8</ele>
        <time>2021-05-02T15:21:58Z</time>
      </trkpt>
      <trkpt lat="43.71983" lon="6.86069">
        <ele>873.8</ele>
        <time>2021-05-02T15:22:04Z</time>
      </trkpt>
      <trkpt lat="43.71983" lon="6.86069">
        <ele>873.8</ele>
        <time>2021-05-02T15:22:09Z</time>
      </trkpt>
      <trkpt lat="43.71983" lon="6.86069">
        <ele>873.8</ele>
        <time>2021-05-02T15:22:14Z</time>
      </trkpt>
      <trkpt lat="43.71983" lon="6.86069">
        <ele>873.8</ele>
        <time>2021-05-02T15:22:20Z</time>
      </trkpt>
      <trkpt lat="43.71983" lon="6.86069">
        <ele>873.8</ele>
        <time>2021-05-02T15:22:26Z</time>
      </trkpt>
      <trkpt lat="43.71983" lon="6.86069">
        <ele>873.8</ele>
        <time>2021-05-02T15:22:32Z</time>
      </trkpt>
      <trkpt lat="43.71983" lon="6.86069">
        <ele>873.8</ele>
        <time>2021-05-02T15:22:37Z</time>
      </trkpt>
      <trkpt lat="43.71983" lon="6.86069">
        <ele>873.8</ele>
        <time>2021-05-02T15:22:42Z</time>
      </trkpt>
      <trkpt lat="43.71982" lon="6.86068">
        <ele>873.8</ele>
        <time>2021-05-02T15:22:48Z</time>
      </trkpt>
      <trkpt lat="43.71984" lon="6.86069">
        <ele>873.8</ele>
        <time>2021-05-02T15:22:53Z</time>
      </trkpt>
      <trkpt lat="43.71984" lon="6.86069">
        <ele>873.8</ele>
        <time>2021-05-02T15:22:59Z</time>
      </trkpt>
      <trkpt lat="43.71984" lon="6.86069">
        <ele>873.8</ele>
        <time>2021-05-02T15:23:05Z</time>
      </trkpt>
      <trkpt lat="43.71984" lon="6.86069">
        <ele>873.8</ele>
        <time>2021-05-02T15:23:10Z</time>
      </trkpt>
      <trkpt lat="43.71984" lon="6.86069">
        <ele>873.8</ele>
        <time>2021-05-02T15:23:16Z</time>
      </trkpt>
      <trkpt lat="43.71984" lon="6.86069">
        <ele>873.8</ele>
        <time>2021-05-02T15:23:22Z</time>
      </trkpt>
      <trkpt lat="43.71984" lon="6.86069">
        <ele>873.8</ele>
        <time>2021-05-02T15:23:27Z</time>
      </trkpt>
      <trkpt lat="43.71984" lon="6.86069">
        <ele>873.8</ele>
        <time>2021-05-02T15:23:33Z</time>
      </trkpt>
      <trkpt lat="43.71984" lon="6.86069">
        <ele>873.8</ele>
        <time>2021-05-02T15:23:38Z</time>
      </trkpt>
      <trkpt lat="43.71984" lon="6.86069">
        <ele>873.8</ele>
        <time>2021-05-02T15:23:44Z</time>
      </trkpt>
      <trkpt lat="43.71984" lon="6.8607">
        <ele>873.8</ele>
        <time>2021-05-02T15:23:49Z</time>
      </trkpt>
      <trkpt lat="43.71984" lon="6.8607">
        <ele>873.8</ele>
        <time>2021-05-02T15:23:55Z</time>
      </trkpt>
      <trkpt lat="43.71986" lon="6.86079">
        <ele>873.7</ele>
        <time>2021-05-02T15:24:00Z</time>
      </trkpt>
      <trkpt lat="43.71987" lon="6.86074">
        <ele>873.7</ele>
        <time>2021-05-02T15:24:06Z</time>
      </trkpt>
      <trkpt lat="43.71986" lon="6.86074">
        <ele>873.7</ele>
        <time>2021-05-02T15:24:12Z</time>
      </trkpt>
      <trkpt lat="43.71986" lon="6.86073">
        <ele>873.7</ele>
        <time>2021-05-02T15:24:18Z</time>
      </trkpt>
      <trkpt lat="43.71986" lon="6.86073">
        <ele>873.7</ele>
        <time>2021-05-02T15:24:24Z</time>
      </trkpt>
      <trkpt lat="43.71987" lon="6.86072">
        <ele>873.7</ele>
        <time>2021-05-02T15:24:30Z</time>
      </trkpt>
      <trkpt lat="43.71987" lon="6.86071">
        <ele>873.7</ele>
        <time>2021-05-02T15:24:35Z</time>
      </trkpt>
      <trkpt lat="43.71988" lon="6.86069">
        <ele>873.7</ele>
        <time>2021-05-02T15:24:41Z</time>
      </trkpt>
      <trkpt lat="43.71988" lon="6.86069">
        <ele>873.7</ele>
        <time>2021-05-02T15:24:46Z</time>
      </trkpt>
      <trkpt lat="43.71988" lon="6.86069">
        <ele>873.7</ele>
        <time>2021-05-02T15:24:52Z</time>
      </trkpt>
    </trkseg>
  </trk>
</gpx>